<?xml version="1.0" encoding="UTF-8" standalone="no" ?>
<gpx xmlns="http://www.topografix.com/GPX/1/1" xmlns:xsi="http://www.w3.org/2001/XMLSchema-instance" xsi:schemaLocation="http://www.topografix.com/GPX/1/1 http://www.topografix.com/GPX/1/1/gpx.xsd" version="1.1" creator="VisuGPX - https://www.visugpx.com">
  <metadata>
    <name>Causswatts 2017</name>
  </metadata>
  <trk>
    <name><![CDATA[causwatts 05 ispagnac-prades]]></name>
    <trkseg>
      <trkpt lat="44.3705" lon="3.53662">
        <ele>526</ele>
        <time>2017-02-27T18:07:51Z</time>
      </trkpt>
      <trkpt lat="44.37045" lon="3.53685">
        <ele>526</ele>
        <time>2017-02-27T18:09:51Z</time>
      </trkpt>
      <trkpt lat="44.3704" lon="3.5371">
        <ele>527</ele>
        <time>2017-02-27T18:11:51Z</time>
      </trkpt>
      <trkpt lat="44.3704" lon="3.5371">
        <ele>527</ele>
        <time>2017-02-27T18:13:51Z</time>
      </trkpt>
      <trkpt lat="44.37046" lon="3.53713">
        <ele>527</ele>
        <time>2017-02-27T18:15:51Z</time>
      </trkpt>
      <trkpt lat="44.37057" lon="3.53721">
        <ele>527</ele>
        <time>2017-02-27T18:17:51Z</time>
      </trkpt>
      <trkpt lat="44.3706" lon="3.53722">
        <ele>527</ele>
        <time>2017-02-27T18:19:51Z</time>
      </trkpt>
      <trkpt lat="44.37062" lon="3.53721">
        <ele>527</ele>
        <time>2017-02-27T18:21:51Z</time>
      </trkpt>
      <trkpt lat="44.37064" lon="3.53717">
        <ele>527</ele>
        <time>2017-02-27T18:23:51Z</time>
      </trkpt>
      <trkpt lat="44.37069" lon="3.53709">
        <ele>527</ele>
        <time>2017-02-27T18:25:51Z</time>
      </trkpt>
      <trkpt lat="44.37081" lon="3.53692">
        <ele>526</ele>
        <time>2017-02-27T18:27:51Z</time>
      </trkpt>
      <trkpt lat="44.37097" lon="3.53674">
        <ele>526</ele>
        <time>2017-02-27T18:29:51Z</time>
      </trkpt>
      <trkpt lat="44.37113" lon="3.53653">
        <ele>526</ele>
        <time>2017-02-27T18:31:51Z</time>
      </trkpt>
      <trkpt lat="44.37125" lon="3.53637">
        <ele>525</ele>
        <time>2017-02-27T18:33:51Z</time>
      </trkpt>
      <trkpt lat="44.37138" lon="3.53617">
        <ele>525</ele>
        <time>2017-02-27T18:35:51Z</time>
      </trkpt>
      <trkpt lat="44.37145" lon="3.53606">
        <ele>525</ele>
        <time>2017-02-27T18:37:51Z</time>
      </trkpt>
      <trkpt lat="44.37149" lon="3.536">
        <ele>525</ele>
        <time>2017-02-27T18:39:51Z</time>
      </trkpt>
      <trkpt lat="44.37149" lon="3.536">
        <ele>525</ele>
        <time>2017-02-27T18:41:51Z</time>
      </trkpt>
      <trkpt lat="44.37152" lon="3.53594">
        <ele>524</ele>
        <time>2017-02-27T18:43:51Z</time>
      </trkpt>
      <trkpt lat="44.37164" lon="3.5358">
        <ele>524</ele>
        <time>2017-02-27T18:45:51Z</time>
      </trkpt>
      <trkpt lat="44.37177" lon="3.5357">
        <ele>524</ele>
        <time>2017-02-27T18:47:51Z</time>
      </trkpt>
      <trkpt lat="44.3719" lon="3.53561">
        <ele>525</ele>
        <time>2017-02-27T18:49:51Z</time>
      </trkpt>
      <trkpt lat="44.37212" lon="3.53544">
        <ele>525</ele>
        <time>2017-02-27T18:51:51Z</time>
      </trkpt>
      <trkpt lat="44.37228" lon="3.53532">
        <ele>525</ele>
        <time>2017-02-27T18:53:51Z</time>
      </trkpt>
      <trkpt lat="44.37238" lon="3.53525">
        <ele>526</ele>
        <time>2017-02-27T18:55:51Z</time>
      </trkpt>
      <trkpt lat="44.37248" lon="3.53514">
        <ele>525</ele>
        <time>2017-02-27T18:57:51Z</time>
      </trkpt>
      <trkpt lat="44.37259" lon="3.53501">
        <ele>525</ele>
        <time>2017-02-27T18:59:51Z</time>
      </trkpt>
      <trkpt lat="44.37262" lon="3.53496">
        <ele>525</ele>
        <time>2017-02-27T19:01:51Z</time>
      </trkpt>
      <trkpt lat="44.37273" lon="3.53481">
        <ele>526</ele>
        <time>2017-02-27T19:03:51Z</time>
      </trkpt>
      <trkpt lat="44.37278" lon="3.53474">
        <ele>526</ele>
        <time>2017-02-27T19:05:51Z</time>
      </trkpt>
      <trkpt lat="44.37295" lon="3.53455">
        <ele>526</ele>
        <time>2017-02-27T19:07:51Z</time>
      </trkpt>
      <trkpt lat="44.3731" lon="3.53439">
        <ele>526</ele>
        <time>2017-02-27T19:09:51Z</time>
      </trkpt>
      <trkpt lat="44.37321" lon="3.53427">
        <ele>526</ele>
        <time>2017-02-27T19:11:51Z</time>
      </trkpt>
      <trkpt lat="44.37332" lon="3.53414">
        <ele>526</ele>
        <time>2017-02-27T19:13:51Z</time>
      </trkpt>
      <trkpt lat="44.37344" lon="3.53406">
        <ele>527</ele>
        <time>2017-02-27T19:15:51Z</time>
      </trkpt>
      <trkpt lat="44.37351" lon="3.53404">
        <ele>527</ele>
        <time>2017-02-27T19:17:51Z</time>
      </trkpt>
      <trkpt lat="44.37351" lon="3.53404">
        <ele>527</ele>
        <time>2017-02-27T19:19:51Z</time>
      </trkpt>
      <trkpt lat="44.37352" lon="3.53403">
        <ele>527</ele>
        <time>2017-02-27T19:21:51Z</time>
      </trkpt>
      <trkpt lat="44.37375" lon="3.53404">
        <ele>530</ele>
        <time>2017-02-27T19:23:51Z</time>
      </trkpt>
      <trkpt lat="44.37385" lon="3.53405">
        <ele>531</ele>
        <time>2017-02-27T19:25:51Z</time>
      </trkpt>
      <trkpt lat="44.37391" lon="3.53403">
        <ele>531</ele>
        <time>2017-02-27T19:27:51Z</time>
      </trkpt>
      <trkpt lat="44.37399" lon="3.53396">
        <ele>532</ele>
        <time>2017-02-27T19:29:51Z</time>
      </trkpt>
      <trkpt lat="44.37406" lon="3.53388">
        <ele>532</ele>
        <time>2017-02-27T19:31:51Z</time>
      </trkpt>
      <trkpt lat="44.37413" lon="3.53376">
        <ele>532</ele>
        <time>2017-02-27T19:33:51Z</time>
      </trkpt>
      <trkpt lat="44.37424" lon="3.53357">
        <ele>533</ele>
        <time>2017-02-27T19:35:51Z</time>
      </trkpt>
      <trkpt lat="44.37427" lon="3.53352">
        <ele>533</ele>
        <time>2017-02-27T19:37:51Z</time>
      </trkpt>
      <trkpt lat="44.37436" lon="3.53334">
        <ele>534</ele>
        <time>2017-02-27T19:39:51Z</time>
      </trkpt>
      <trkpt lat="44.37442" lon="3.53321">
        <ele>533</ele>
        <time>2017-02-27T19:41:51Z</time>
      </trkpt>
      <trkpt lat="44.37451" lon="3.5331">
        <ele>534</ele>
        <time>2017-02-27T19:43:51Z</time>
      </trkpt>
      <trkpt lat="44.37461" lon="3.533">
        <ele>534</ele>
        <time>2017-02-27T19:45:51Z</time>
      </trkpt>
      <trkpt lat="44.37483" lon="3.53284">
        <ele>536</ele>
        <time>2017-02-27T19:47:51Z</time>
      </trkpt>
      <trkpt lat="44.37502" lon="3.53271">
        <ele>537</ele>
        <time>2017-02-27T19:49:51Z</time>
      </trkpt>
      <trkpt lat="44.37511" lon="3.53264">
        <ele>538</ele>
        <time>2017-02-27T19:51:51Z</time>
      </trkpt>
      <trkpt lat="44.37526" lon="3.53255">
        <ele>540</ele>
        <time>2017-02-27T19:53:51Z</time>
      </trkpt>
      <trkpt lat="44.37538" lon="3.5325">
        <ele>542</ele>
        <time>2017-02-27T19:55:51Z</time>
      </trkpt>
      <trkpt lat="44.37549" lon="3.53248">
        <ele>544</ele>
        <time>2017-02-27T19:57:51Z</time>
      </trkpt>
      <trkpt lat="44.37563" lon="3.53245">
        <ele>547</ele>
        <time>2017-02-27T19:59:51Z</time>
      </trkpt>
      <trkpt lat="44.37579" lon="3.53236">
        <ele>549</ele>
        <time>2017-02-27T20:01:51Z</time>
      </trkpt>
      <trkpt lat="44.37614" lon="3.53211">
        <ele>551</ele>
        <time>2017-02-27T20:03:51Z</time>
      </trkpt>
      <trkpt lat="44.37646" lon="3.53188">
        <ele>553</ele>
        <time>2017-02-27T20:05:51Z</time>
      </trkpt>
      <trkpt lat="44.37677" lon="3.53165">
        <ele>555</ele>
        <time>2017-02-27T20:07:51Z</time>
      </trkpt>
      <trkpt lat="44.37688" lon="3.53158">
        <ele>558</ele>
        <time>2017-02-27T20:09:51Z</time>
      </trkpt>
      <trkpt lat="44.37693" lon="3.53152">
        <ele>560</ele>
        <time>2017-02-27T20:11:51Z</time>
      </trkpt>
      <trkpt lat="44.37699" lon="3.53143">
        <ele>561</ele>
        <time>2017-02-27T20:13:51Z</time>
      </trkpt>
      <trkpt lat="44.37702" lon="3.53132">
        <ele>561</ele>
        <time>2017-02-27T20:15:51Z</time>
      </trkpt>
      <trkpt lat="44.37708" lon="3.53106">
        <ele>561</ele>
        <time>2017-02-27T20:17:51Z</time>
      </trkpt>
      <trkpt lat="44.3771" lon="3.53083">
        <ele>561</ele>
        <time>2017-02-27T20:19:51Z</time>
      </trkpt>
      <trkpt lat="44.3771" lon="3.53065">
        <ele>559</ele>
        <time>2017-02-27T20:21:51Z</time>
      </trkpt>
      <trkpt lat="44.3771" lon="3.53056">
        <ele>559</ele>
        <time>2017-02-27T20:23:51Z</time>
      </trkpt>
      <trkpt lat="44.37714" lon="3.53044">
        <ele>559</ele>
        <time>2017-02-27T20:25:51Z</time>
      </trkpt>
      <trkpt lat="44.37717" lon="3.53035">
        <ele>560</ele>
        <time>2017-02-27T20:27:51Z</time>
      </trkpt>
      <trkpt lat="44.37722" lon="3.53024">
        <ele>561</ele>
        <time>2017-02-27T20:29:51Z</time>
      </trkpt>
      <trkpt lat="44.37724" lon="3.53017">
        <ele>561</ele>
        <time>2017-02-27T20:31:51Z</time>
      </trkpt>
      <trkpt lat="44.37726" lon="3.53007">
        <ele>561</ele>
        <time>2017-02-27T20:33:51Z</time>
      </trkpt>
      <trkpt lat="44.37726" lon="3.53004">
        <ele>560</ele>
        <time>2017-02-27T20:35:51Z</time>
      </trkpt>
      <trkpt lat="44.37728" lon="3.52993">
        <ele>560</ele>
        <time>2017-02-27T20:37:51Z</time>
      </trkpt>
      <trkpt lat="44.37731" lon="3.52983">
        <ele>561</ele>
        <time>2017-02-27T20:39:51Z</time>
      </trkpt>
      <trkpt lat="44.37746" lon="3.52955">
        <ele>563</ele>
        <time>2017-02-27T20:41:51Z</time>
      </trkpt>
      <trkpt lat="44.37765" lon="3.52922">
        <ele>565</ele>
        <time>2017-02-27T20:43:51Z</time>
      </trkpt>
      <trkpt lat="44.37773" lon="3.5291">
        <ele>565</ele>
        <time>2017-02-27T20:45:51Z</time>
      </trkpt>
      <trkpt lat="44.37784" lon="3.52901">
        <ele>567</ele>
        <time>2017-02-27T20:47:51Z</time>
      </trkpt>
      <trkpt lat="44.37795" lon="3.52895">
        <ele>569</ele>
        <time>2017-02-27T20:49:51Z</time>
      </trkpt>
      <trkpt lat="44.37808" lon="3.52892">
        <ele>571</ele>
        <time>2017-02-27T20:51:51Z</time>
      </trkpt>
      <trkpt lat="44.37819" lon="3.52891">
        <ele>574</ele>
        <time>2017-02-27T20:53:51Z</time>
      </trkpt>
      <trkpt lat="44.37828" lon="3.52887">
        <ele>575</ele>
        <time>2017-02-27T20:55:51Z</time>
      </trkpt>
      <trkpt lat="44.37833" lon="3.52881">
        <ele>576</ele>
        <time>2017-02-27T20:57:51Z</time>
      </trkpt>
      <trkpt lat="44.37838" lon="3.52871">
        <ele>577</ele>
        <time>2017-02-27T20:59:51Z</time>
      </trkpt>
      <trkpt lat="44.3785" lon="3.52838">
        <ele>578</ele>
        <time>2017-02-27T21:01:51Z</time>
      </trkpt>
      <trkpt lat="44.37854" lon="3.52826">
        <ele>577</ele>
        <time>2017-02-27T21:03:51Z</time>
      </trkpt>
      <trkpt lat="44.37859" lon="3.52818">
        <ele>577</ele>
        <time>2017-02-27T21:05:51Z</time>
      </trkpt>
      <trkpt lat="44.37869" lon="3.52807">
        <ele>578</ele>
        <time>2017-02-27T21:07:51Z</time>
      </trkpt>
      <trkpt lat="44.37883" lon="3.52795">
        <ele>580</ele>
        <time>2017-02-27T21:09:51Z</time>
      </trkpt>
      <trkpt lat="44.37908" lon="3.52778">
        <ele>583</ele>
        <time>2017-02-27T21:11:51Z</time>
      </trkpt>
      <trkpt lat="44.3793" lon="3.52763">
        <ele>586</ele>
        <time>2017-02-27T21:13:51Z</time>
      </trkpt>
      <trkpt lat="44.37946" lon="3.52759">
        <ele>589</ele>
        <time>2017-02-27T21:15:51Z</time>
      </trkpt>
      <trkpt lat="44.37967" lon="3.52753">
        <ele>592</ele>
        <time>2017-02-27T21:17:51Z</time>
      </trkpt>
      <trkpt lat="44.37977" lon="3.52749">
        <ele>593</ele>
        <time>2017-02-27T21:19:51Z</time>
      </trkpt>
      <trkpt lat="44.37981" lon="3.52746">
        <ele>594</ele>
        <time>2017-02-27T21:21:51Z</time>
      </trkpt>
      <trkpt lat="44.37985" lon="3.52744">
        <ele>594</ele>
        <time>2017-02-27T21:23:51Z</time>
      </trkpt>
      <trkpt lat="44.37992" lon="3.52733">
        <ele>595</ele>
        <time>2017-02-27T21:25:51Z</time>
      </trkpt>
      <trkpt lat="44.37996" lon="3.52723">
        <ele>594</ele>
        <time>2017-02-27T21:27:51Z</time>
      </trkpt>
      <trkpt lat="44.37996" lon="3.52712">
        <ele>593</ele>
        <time>2017-02-27T21:29:51Z</time>
      </trkpt>
      <trkpt lat="44.37996" lon="3.52705">
        <ele>592</ele>
        <time>2017-02-27T21:31:51Z</time>
      </trkpt>
      <trkpt lat="44.37995" lon="3.52692">
        <ele>591</ele>
        <time>2017-02-27T21:33:51Z</time>
      </trkpt>
      <trkpt lat="44.37997" lon="3.52678">
        <ele>590</ele>
        <time>2017-02-27T21:35:51Z</time>
      </trkpt>
      <trkpt lat="44.38003" lon="3.52657">
        <ele>589</ele>
        <time>2017-02-27T21:37:51Z</time>
      </trkpt>
      <trkpt lat="44.38013" lon="3.52626">
        <ele>589</ele>
        <time>2017-02-27T21:39:51Z</time>
      </trkpt>
      <trkpt lat="44.38022" lon="3.52602">
        <ele>589</ele>
        <time>2017-02-27T21:41:51Z</time>
      </trkpt>
      <trkpt lat="44.38031" lon="3.52584">
        <ele>589</ele>
        <time>2017-02-27T21:43:51Z</time>
      </trkpt>
      <trkpt lat="44.38038" lon="3.52567">
        <ele>589</ele>
        <time>2017-02-27T21:45:51Z</time>
      </trkpt>
      <trkpt lat="44.38038" lon="3.52567">
        <ele>589</ele>
        <time>2017-02-27T21:47:51Z</time>
      </trkpt>
      <trkpt lat="44.38042" lon="3.52565">
        <ele>589</ele>
        <time>2017-02-27T21:49:51Z</time>
      </trkpt>
      <trkpt lat="44.38042" lon="3.52564">
        <ele>589</ele>
        <time>2017-02-27T21:51:51Z</time>
      </trkpt>
      <trkpt lat="44.38046" lon="3.52561">
        <ele>590</ele>
        <time>2017-02-27T21:53:51Z</time>
      </trkpt>
      <trkpt lat="44.3805" lon="3.52554">
        <ele>590</ele>
        <time>2017-02-27T21:55:51Z</time>
      </trkpt>
      <trkpt lat="44.38059" lon="3.5254">
        <ele>589</ele>
        <time>2017-02-27T21:57:51Z</time>
      </trkpt>
      <trkpt lat="44.38066" lon="3.5253">
        <ele>589</ele>
        <time>2017-02-27T21:59:51Z</time>
      </trkpt>
      <trkpt lat="44.38073" lon="3.52523">
        <ele>590</ele>
        <time>2017-02-27T22:01:51Z</time>
      </trkpt>
      <trkpt lat="44.38095" lon="3.52506">
        <ele>591</ele>
        <time>2017-02-27T22:03:51Z</time>
      </trkpt>
      <trkpt lat="44.38118" lon="3.5249">
        <ele>592</ele>
        <time>2017-02-27T22:05:51Z</time>
      </trkpt>
      <trkpt lat="44.38133" lon="3.52481">
        <ele>594</ele>
        <time>2017-02-27T22:07:51Z</time>
      </trkpt>
      <trkpt lat="44.38145" lon="3.52474">
        <ele>595</ele>
        <time>2017-02-27T22:09:51Z</time>
      </trkpt>
      <trkpt lat="44.3816" lon="3.52468">
        <ele>596</ele>
        <time>2017-02-27T22:11:51Z</time>
      </trkpt>
      <trkpt lat="44.3817" lon="3.52463">
        <ele>597</ele>
        <time>2017-02-27T22:13:51Z</time>
      </trkpt>
      <trkpt lat="44.38174" lon="3.5246">
        <ele>597</ele>
        <time>2017-02-27T22:15:51Z</time>
      </trkpt>
      <trkpt lat="44.38185" lon="3.52448">
        <ele>597</ele>
        <time>2017-02-27T22:17:51Z</time>
      </trkpt>
      <trkpt lat="44.38201" lon="3.52432">
        <ele>596</ele>
        <time>2017-02-27T22:19:51Z</time>
      </trkpt>
      <trkpt lat="44.38215" lon="3.52419">
        <ele>596</ele>
        <time>2017-02-27T22:21:51Z</time>
      </trkpt>
      <trkpt lat="44.38224" lon="3.52412">
        <ele>597</ele>
        <time>2017-02-27T22:23:51Z</time>
      </trkpt>
      <trkpt lat="44.38228" lon="3.52404">
        <ele>596</ele>
        <time>2017-02-27T22:25:51Z</time>
      </trkpt>
      <trkpt lat="44.38233" lon="3.52393">
        <ele>595</ele>
        <time>2017-02-27T22:27:51Z</time>
      </trkpt>
      <trkpt lat="44.38236" lon="3.52389">
        <ele>594</ele>
        <time>2017-02-27T22:29:51Z</time>
      </trkpt>
      <trkpt lat="44.38242" lon="3.52385">
        <ele>595</ele>
        <time>2017-02-27T22:31:51Z</time>
      </trkpt>
      <trkpt lat="44.38251" lon="3.52383">
        <ele>596</ele>
        <time>2017-02-27T22:33:51Z</time>
      </trkpt>
      <trkpt lat="44.38265" lon="3.52382">
        <ele>598</ele>
        <time>2017-02-27T22:35:51Z</time>
      </trkpt>
      <trkpt lat="44.38272" lon="3.52381">
        <ele>599</ele>
        <time>2017-02-27T22:37:51Z</time>
      </trkpt>
      <trkpt lat="44.3828" lon="3.52376">
        <ele>599</ele>
        <time>2017-02-27T22:39:51Z</time>
      </trkpt>
      <trkpt lat="44.38286" lon="3.52371">
        <ele>599</ele>
        <time>2017-02-27T22:41:51Z</time>
      </trkpt>
      <trkpt lat="44.38295" lon="3.52365">
        <ele>600</ele>
        <time>2017-02-27T22:43:51Z</time>
      </trkpt>
      <trkpt lat="44.38313" lon="3.5235">
        <ele>599</ele>
        <time>2017-02-27T22:45:51Z</time>
      </trkpt>
      <trkpt lat="44.38338" lon="3.52334">
        <ele>600</ele>
        <time>2017-02-27T22:47:51Z</time>
      </trkpt>
      <trkpt lat="44.38352" lon="3.52324">
        <ele>600</ele>
        <time>2017-02-27T22:49:51Z</time>
      </trkpt>
      <trkpt lat="44.38362" lon="3.52314">
        <ele>599</ele>
        <time>2017-02-27T22:51:51Z</time>
      </trkpt>
      <trkpt lat="44.38368" lon="3.52303">
        <ele>598</ele>
        <time>2017-02-27T22:53:51Z</time>
      </trkpt>
      <trkpt lat="44.38375" lon="3.52284">
        <ele>596</ele>
        <time>2017-02-27T22:55:51Z</time>
      </trkpt>
      <trkpt lat="44.3838" lon="3.52271">
        <ele>594</ele>
        <time>2017-02-27T22:57:51Z</time>
      </trkpt>
      <trkpt lat="44.38386" lon="3.52263">
        <ele>594</ele>
        <time>2017-02-27T22:59:51Z</time>
      </trkpt>
      <trkpt lat="44.3839" lon="3.5226">
        <ele>594</ele>
        <time>2017-02-27T23:01:51Z</time>
      </trkpt>
      <trkpt lat="44.38399" lon="3.52257">
        <ele>595</ele>
        <time>2017-02-27T23:03:51Z</time>
      </trkpt>
      <trkpt lat="44.38408" lon="3.52257">
        <ele>596</ele>
        <time>2017-02-27T23:05:51Z</time>
      </trkpt>
      <trkpt lat="44.38415" lon="3.52259">
        <ele>597</ele>
        <time>2017-02-27T23:07:51Z</time>
      </trkpt>
      <trkpt lat="44.38426" lon="3.52265">
        <ele>599</ele>
        <time>2017-02-27T23:09:51Z</time>
      </trkpt>
      <trkpt lat="44.38435" lon="3.52271">
        <ele>601</ele>
        <time>2017-02-27T23:11:51Z</time>
      </trkpt>
      <trkpt lat="44.38446" lon="3.52279">
        <ele>603</ele>
        <time>2017-02-27T23:13:51Z</time>
      </trkpt>
      <trkpt lat="44.38462" lon="3.5229">
        <ele>606</ele>
        <time>2017-02-27T23:15:51Z</time>
      </trkpt>
      <trkpt lat="44.38477" lon="3.52298">
        <ele>608</ele>
        <time>2017-02-27T23:17:51Z</time>
      </trkpt>
      <trkpt lat="44.38491" lon="3.52303">
        <ele>610</ele>
        <time>2017-02-27T23:19:51Z</time>
      </trkpt>
      <trkpt lat="44.38507" lon="3.52307">
        <ele>612</ele>
        <time>2017-02-27T23:21:51Z</time>
      </trkpt>
      <trkpt lat="44.38543" lon="3.52311">
        <ele>616</ele>
        <time>2017-02-27T23:23:51Z</time>
      </trkpt>
      <trkpt lat="44.38571" lon="3.52313">
        <ele>619</ele>
        <time>2017-02-27T23:25:51Z</time>
      </trkpt>
      <trkpt lat="44.38588" lon="3.52314">
        <ele>621</ele>
        <time>2017-02-27T23:27:51Z</time>
      </trkpt>
      <trkpt lat="44.38602" lon="3.52313">
        <ele>620</ele>
        <time>2017-02-27T23:29:51Z</time>
      </trkpt>
      <trkpt lat="44.38623" lon="3.52311">
        <ele>620</ele>
        <time>2017-02-27T23:31:51Z</time>
      </trkpt>
      <trkpt lat="44.38636" lon="3.52308">
        <ele>620</ele>
        <time>2017-02-27T23:33:51Z</time>
      </trkpt>
      <trkpt lat="44.38648" lon="3.52307">
        <ele>620</ele>
        <time>2017-02-27T23:35:51Z</time>
      </trkpt>
      <trkpt lat="44.38654" lon="3.52306">
        <ele>620</ele>
        <time>2017-02-27T23:37:51Z</time>
      </trkpt>
      <trkpt lat="44.3866" lon="3.52304">
        <ele>620</ele>
        <time>2017-02-27T23:39:51Z</time>
      </trkpt>
      <trkpt lat="44.38664" lon="3.52303">
        <ele>620</ele>
        <time>2017-02-27T23:41:51Z</time>
      </trkpt>
      <trkpt lat="44.38667" lon="3.52301">
        <ele>620</ele>
        <time>2017-02-27T23:43:51Z</time>
      </trkpt>
      <trkpt lat="44.38672" lon="3.52297">
        <ele>620</ele>
        <time>2017-02-27T23:45:51Z</time>
      </trkpt>
      <trkpt lat="44.38674" lon="3.52293">
        <ele>621</ele>
        <time>2017-02-27T23:47:51Z</time>
      </trkpt>
      <trkpt lat="44.38676" lon="3.5229">
        <ele>621</ele>
        <time>2017-02-27T23:49:51Z</time>
      </trkpt>
      <trkpt lat="44.38679" lon="3.52287">
        <ele>621</ele>
        <time>2017-02-27T23:51:51Z</time>
      </trkpt>
      <trkpt lat="44.38681" lon="3.52284">
        <ele>621</ele>
        <time>2017-02-27T23:53:51Z</time>
      </trkpt>
      <trkpt lat="44.38684" lon="3.52283">
        <ele>622</ele>
        <time>2017-02-27T23:55:51Z</time>
      </trkpt>
      <trkpt lat="44.38687" lon="3.52282">
        <ele>622</ele>
        <time>2017-02-27T23:57:51Z</time>
      </trkpt>
      <trkpt lat="44.3869" lon="3.52281">
        <ele>623</ele>
        <time>2017-02-27T23:59:51Z</time>
      </trkpt>
      <trkpt lat="44.38692" lon="3.52281">
        <ele>623</ele>
        <time>2017-02-28T00:01:51Z</time>
      </trkpt>
      <trkpt lat="44.38695" lon="3.52281">
        <ele>624</ele>
        <time>2017-02-28T00:03:51Z</time>
      </trkpt>
      <trkpt lat="44.38699" lon="3.52281">
        <ele>624</ele>
        <time>2017-02-28T00:05:51Z</time>
      </trkpt>
      <trkpt lat="44.38705" lon="3.52284">
        <ele>625</ele>
        <time>2017-02-28T00:07:51Z</time>
      </trkpt>
      <trkpt lat="44.38713" lon="3.5229">
        <ele>626</ele>
        <time>2017-02-28T00:09:51Z</time>
      </trkpt>
      <trkpt lat="44.38719" lon="3.52295">
        <ele>627</ele>
        <time>2017-02-28T00:11:51Z</time>
      </trkpt>
      <trkpt lat="44.38722" lon="3.52296">
        <ele>628</ele>
        <time>2017-02-28T00:13:51Z</time>
      </trkpt>
      <trkpt lat="44.38726" lon="3.52298">
        <ele>628</ele>
        <time>2017-02-28T00:15:51Z</time>
      </trkpt>
      <trkpt lat="44.38729" lon="3.52298">
        <ele>629</ele>
        <time>2017-02-28T00:17:51Z</time>
      </trkpt>
      <trkpt lat="44.38732" lon="3.52298">
        <ele>629</ele>
        <time>2017-02-28T00:19:51Z</time>
      </trkpt>
      <trkpt lat="44.38735" lon="3.52296">
        <ele>630</ele>
        <time>2017-02-28T00:21:51Z</time>
      </trkpt>
      <trkpt lat="44.38737" lon="3.52294">
        <ele>630</ele>
        <time>2017-02-28T00:23:51Z</time>
      </trkpt>
      <trkpt lat="44.38737" lon="3.52294">
        <ele>630</ele>
        <time>2017-02-28T00:25:51Z</time>
      </trkpt>
      <trkpt lat="44.38738" lon="3.52292">
        <ele>630</ele>
        <time>2017-02-28T00:27:51Z</time>
      </trkpt>
      <trkpt lat="44.38739" lon="3.52289">
        <ele>630</ele>
        <time>2017-02-28T00:29:51Z</time>
      </trkpt>
      <trkpt lat="44.3874" lon="3.52287">
        <ele>631</ele>
        <time>2017-02-28T00:31:51Z</time>
      </trkpt>
      <trkpt lat="44.3874" lon="3.52284">
        <ele>631</ele>
        <time>2017-02-28T00:33:51Z</time>
      </trkpt>
      <trkpt lat="44.3874" lon="3.5228">
        <ele>631</ele>
        <time>2017-02-28T00:35:51Z</time>
      </trkpt>
      <trkpt lat="44.3874" lon="3.52276">
        <ele>631</ele>
        <time>2017-02-28T00:37:51Z</time>
      </trkpt>
      <trkpt lat="44.38738" lon="3.52255">
        <ele>632</ele>
        <time>2017-02-28T00:39:51Z</time>
      </trkpt>
      <trkpt lat="44.38737" lon="3.52246">
        <ele>632</ele>
        <time>2017-02-28T00:41:51Z</time>
      </trkpt>
      <trkpt lat="44.38735" lon="3.52239">
        <ele>634</ele>
        <time>2017-02-28T00:43:51Z</time>
      </trkpt>
      <trkpt lat="44.38733" lon="3.52234">
        <ele>634</ele>
        <time>2017-02-28T00:45:51Z</time>
      </trkpt>
      <trkpt lat="44.38731" lon="3.52227">
        <ele>636</ele>
        <time>2017-02-28T00:47:51Z</time>
      </trkpt>
      <trkpt lat="44.3873" lon="3.52225">
        <ele>636</ele>
        <time>2017-02-28T00:49:51Z</time>
      </trkpt>
      <trkpt lat="44.3873" lon="3.52223">
        <ele>636</ele>
        <time>2017-02-28T00:51:51Z</time>
      </trkpt>
      <trkpt lat="44.3873" lon="3.5222">
        <ele>637</ele>
        <time>2017-02-28T00:53:51Z</time>
      </trkpt>
      <trkpt lat="44.38731" lon="3.52218">
        <ele>638</ele>
        <time>2017-02-28T00:55:51Z</time>
      </trkpt>
      <trkpt lat="44.38732" lon="3.52214">
        <ele>639</ele>
        <time>2017-02-28T00:57:51Z</time>
      </trkpt>
      <trkpt lat="44.38732" lon="3.52214">
        <ele>639</ele>
        <time>2017-02-28T00:59:51Z</time>
      </trkpt>
      <trkpt lat="44.38745" lon="3.52224">
        <ele>639</ele>
        <time>2017-02-28T01:01:51Z</time>
      </trkpt>
      <trkpt lat="44.38778" lon="3.5225">
        <ele>644</ele>
        <time>2017-02-28T01:03:51Z</time>
      </trkpt>
      <trkpt lat="44.38799" lon="3.52271">
        <ele>649</ele>
        <time>2017-02-28T01:05:51Z</time>
      </trkpt>
      <trkpt lat="44.38816" lon="3.52292">
        <ele>652</ele>
        <time>2017-02-28T01:07:51Z</time>
      </trkpt>
      <trkpt lat="44.38829" lon="3.52315">
        <ele>651</ele>
        <time>2017-02-28T01:09:51Z</time>
      </trkpt>
      <trkpt lat="44.38839" lon="3.52336">
        <ele>651</ele>
        <time>2017-02-28T01:11:51Z</time>
      </trkpt>
      <trkpt lat="44.38849" lon="3.52353">
        <ele>654</ele>
        <time>2017-02-28T01:13:51Z</time>
      </trkpt>
      <trkpt lat="44.38855" lon="3.5236">
        <ele>656</ele>
        <time>2017-02-28T01:15:51Z</time>
      </trkpt>
      <trkpt lat="44.38857" lon="3.52361">
        <ele>656</ele>
        <time>2017-02-28T01:17:51Z</time>
      </trkpt>
      <trkpt lat="44.38858" lon="3.52361">
        <ele>657</ele>
        <time>2017-02-28T01:19:51Z</time>
      </trkpt>
      <trkpt lat="44.3886" lon="3.52361">
        <ele>658</ele>
        <time>2017-02-28T01:21:51Z</time>
      </trkpt>
      <trkpt lat="44.38861" lon="3.52361">
        <ele>658</ele>
        <time>2017-02-28T01:23:51Z</time>
      </trkpt>
      <trkpt lat="44.38863" lon="3.52359">
        <ele>659</ele>
        <time>2017-02-28T01:25:51Z</time>
      </trkpt>
      <trkpt lat="44.38864" lon="3.52358">
        <ele>659</ele>
        <time>2017-02-28T01:27:51Z</time>
      </trkpt>
      <trkpt lat="44.38864" lon="3.52358">
        <ele>659</ele>
        <time>2017-02-28T01:29:51Z</time>
      </trkpt>
      <trkpt lat="44.38864" lon="3.52356">
        <ele>659</ele>
        <time>2017-02-28T01:31:51Z</time>
      </trkpt>
      <trkpt lat="44.38864" lon="3.52354">
        <ele>660</ele>
        <time>2017-02-28T01:33:51Z</time>
      </trkpt>
      <trkpt lat="44.38864" lon="3.52352">
        <ele>660</ele>
        <time>2017-02-28T01:35:51Z</time>
      </trkpt>
      <trkpt lat="44.38863" lon="3.52348">
        <ele>660</ele>
        <time>2017-02-28T01:37:51Z</time>
      </trkpt>
      <trkpt lat="44.38858" lon="3.52336">
        <ele>659</ele>
        <time>2017-02-28T01:39:51Z</time>
      </trkpt>
      <trkpt lat="44.38842" lon="3.52296">
        <ele>660</ele>
        <time>2017-02-28T01:41:51Z</time>
      </trkpt>
      <trkpt lat="44.38825" lon="3.52253">
        <ele>661</ele>
        <time>2017-02-28T01:43:51Z</time>
      </trkpt>
      <trkpt lat="44.388" lon="3.52199">
        <ele>667</ele>
        <time>2017-02-28T01:45:51Z</time>
      </trkpt>
      <trkpt lat="44.38786" lon="3.52176">
        <ele>668</ele>
        <time>2017-02-28T01:47:51Z</time>
      </trkpt>
      <trkpt lat="44.38775" lon="3.52161">
        <ele>668</ele>
        <time>2017-02-28T01:49:51Z</time>
      </trkpt>
      <trkpt lat="44.3876" lon="3.52145">
        <ele>668</ele>
        <time>2017-02-28T01:51:51Z</time>
      </trkpt>
      <trkpt lat="44.38742" lon="3.52132">
        <ele>668</ele>
        <time>2017-02-28T01:53:51Z</time>
      </trkpt>
      <trkpt lat="44.38735" lon="3.52126">
        <ele>669</ele>
        <time>2017-02-28T01:55:51Z</time>
      </trkpt>
      <trkpt lat="44.38734" lon="3.52124">
        <ele>669</ele>
        <time>2017-02-28T01:57:51Z</time>
      </trkpt>
      <trkpt lat="44.38732" lon="3.52123">
        <ele>669</ele>
        <time>2017-02-28T01:59:51Z</time>
      </trkpt>
      <trkpt lat="44.38731" lon="3.52121">
        <ele>670</ele>
        <time>2017-02-28T02:01:51Z</time>
      </trkpt>
      <trkpt lat="44.38731" lon="3.52119">
        <ele>671</ele>
        <time>2017-02-28T02:03:51Z</time>
      </trkpt>
      <trkpt lat="44.3873" lon="3.52117">
        <ele>671</ele>
        <time>2017-02-28T02:05:51Z</time>
      </trkpt>
      <trkpt lat="44.3873" lon="3.52114">
        <ele>673</ele>
        <time>2017-02-28T02:07:51Z</time>
      </trkpt>
      <trkpt lat="44.38731" lon="3.52112">
        <ele>674</ele>
        <time>2017-02-28T02:09:51Z</time>
      </trkpt>
      <trkpt lat="44.38732" lon="3.52109">
        <ele>675</ele>
        <time>2017-02-28T02:11:51Z</time>
      </trkpt>
      <trkpt lat="44.38733" lon="3.52107">
        <ele>676</ele>
        <time>2017-02-28T02:13:51Z</time>
      </trkpt>
      <trkpt lat="44.38735" lon="3.52106">
        <ele>677</ele>
        <time>2017-02-28T02:15:51Z</time>
      </trkpt>
      <trkpt lat="44.38736" lon="3.52106">
        <ele>678</ele>
        <time>2017-02-28T02:17:51Z</time>
      </trkpt>
      <trkpt lat="44.38738" lon="3.52105">
        <ele>679</ele>
        <time>2017-02-28T02:19:51Z</time>
      </trkpt>
      <trkpt lat="44.38739" lon="3.52105">
        <ele>679</ele>
        <time>2017-02-28T02:21:51Z</time>
      </trkpt>
      <trkpt lat="44.38741" lon="3.52106">
        <ele>679</ele>
        <time>2017-02-28T02:23:51Z</time>
      </trkpt>
      <trkpt lat="44.38743" lon="3.52106">
        <ele>679</ele>
        <time>2017-02-28T02:25:51Z</time>
      </trkpt>
      <trkpt lat="44.38746" lon="3.52108">
        <ele>679</ele>
        <time>2017-02-28T02:27:51Z</time>
      </trkpt>
      <trkpt lat="44.38749" lon="3.5211">
        <ele>679</ele>
        <time>2017-02-28T02:29:51Z</time>
      </trkpt>
      <trkpt lat="44.38752" lon="3.52113">
        <ele>679</ele>
        <time>2017-02-28T02:31:51Z</time>
      </trkpt>
      <trkpt lat="44.38768" lon="3.52127">
        <ele>679</ele>
        <time>2017-02-28T02:33:51Z</time>
      </trkpt>
      <trkpt lat="44.38784" lon="3.52144">
        <ele>678</ele>
        <time>2017-02-28T02:35:51Z</time>
      </trkpt>
      <trkpt lat="44.38805" lon="3.52164">
        <ele>679</ele>
        <time>2017-02-28T02:37:51Z</time>
      </trkpt>
      <trkpt lat="44.38831" lon="3.52196">
        <ele>680</ele>
        <time>2017-02-28T02:39:51Z</time>
      </trkpt>
      <trkpt lat="44.38861" lon="3.52235">
        <ele>683</ele>
        <time>2017-02-28T02:41:51Z</time>
      </trkpt>
      <trkpt lat="44.38887" lon="3.52271">
        <ele>686</ele>
        <time>2017-02-28T02:43:51Z</time>
      </trkpt>
      <trkpt lat="44.38909" lon="3.52308">
        <ele>686</ele>
        <time>2017-02-28T02:45:51Z</time>
      </trkpt>
      <trkpt lat="44.3892" lon="3.52326">
        <ele>686</ele>
        <time>2017-02-28T02:47:51Z</time>
      </trkpt>
      <trkpt lat="44.38931" lon="3.52338">
        <ele>685</ele>
        <time>2017-02-28T02:49:51Z</time>
      </trkpt>
      <trkpt lat="44.38944" lon="3.52346">
        <ele>686</ele>
        <time>2017-02-28T02:51:51Z</time>
      </trkpt>
      <trkpt lat="44.38958" lon="3.52352">
        <ele>688</ele>
        <time>2017-02-28T02:53:51Z</time>
      </trkpt>
      <trkpt lat="44.38974" lon="3.52355">
        <ele>691</ele>
        <time>2017-02-28T02:55:51Z</time>
      </trkpt>
      <trkpt lat="44.38985" lon="3.52355">
        <ele>693</ele>
        <time>2017-02-28T02:57:51Z</time>
      </trkpt>
      <trkpt lat="44.38989" lon="3.52354">
        <ele>695</ele>
        <time>2017-02-28T02:59:51Z</time>
      </trkpt>
      <trkpt lat="44.38992" lon="3.52353">
        <ele>696</ele>
        <time>2017-02-28T03:01:51Z</time>
      </trkpt>
      <trkpt lat="44.38993" lon="3.52351">
        <ele>696</ele>
        <time>2017-02-28T03:03:51Z</time>
      </trkpt>
      <trkpt lat="44.38995" lon="3.5235">
        <ele>697</ele>
        <time>2017-02-28T03:05:51Z</time>
      </trkpt>
      <trkpt lat="44.38996" lon="3.52348">
        <ele>698</ele>
        <time>2017-02-28T03:07:51Z</time>
      </trkpt>
      <trkpt lat="44.38997" lon="3.52347">
        <ele>698</ele>
        <time>2017-02-28T03:09:51Z</time>
      </trkpt>
      <trkpt lat="44.38998" lon="3.52345">
        <ele>699</ele>
        <time>2017-02-28T03:11:51Z</time>
      </trkpt>
      <trkpt lat="44.38998" lon="3.52344">
        <ele>699</ele>
        <time>2017-02-28T03:13:51Z</time>
      </trkpt>
      <trkpt lat="44.38999" lon="3.52341">
        <ele>700</ele>
        <time>2017-02-28T03:15:51Z</time>
      </trkpt>
      <trkpt lat="44.38999" lon="3.52339">
        <ele>700</ele>
        <time>2017-02-28T03:17:51Z</time>
      </trkpt>
      <trkpt lat="44.38999" lon="3.52336">
        <ele>701</ele>
        <time>2017-02-28T03:19:51Z</time>
      </trkpt>
      <trkpt lat="44.38999" lon="3.52335">
        <ele>701</ele>
        <time>2017-02-28T03:21:51Z</time>
      </trkpt>
      <trkpt lat="44.38998" lon="3.52333">
        <ele>702</ele>
        <time>2017-02-28T03:23:51Z</time>
      </trkpt>
      <trkpt lat="44.38997" lon="3.52331">
        <ele>702</ele>
        <time>2017-02-28T03:25:51Z</time>
      </trkpt>
      <trkpt lat="44.38996" lon="3.5233">
        <ele>702</ele>
        <time>2017-02-28T03:27:51Z</time>
      </trkpt>
      <trkpt lat="44.38995" lon="3.52328">
        <ele>703</ele>
        <time>2017-02-28T03:29:51Z</time>
      </trkpt>
      <trkpt lat="44.38994" lon="3.52327">
        <ele>703</ele>
        <time>2017-02-28T03:31:51Z</time>
      </trkpt>
      <trkpt lat="44.38992" lon="3.52326">
        <ele>703</ele>
        <time>2017-02-28T03:33:51Z</time>
      </trkpt>
      <trkpt lat="44.38989" lon="3.52326">
        <ele>702</ele>
        <time>2017-02-28T03:35:51Z</time>
      </trkpt>
      <trkpt lat="44.38982" lon="3.52324">
        <ele>701</ele>
        <time>2017-02-28T03:37:51Z</time>
      </trkpt>
      <trkpt lat="44.38974" lon="3.52324">
        <ele>699</ele>
        <time>2017-02-28T03:39:51Z</time>
      </trkpt>
      <trkpt lat="44.38963" lon="3.5232">
        <ele>698</ele>
        <time>2017-02-28T03:41:51Z</time>
      </trkpt>
      <trkpt lat="44.38952" lon="3.52312">
        <ele>698</ele>
        <time>2017-02-28T03:43:51Z</time>
      </trkpt>
      <trkpt lat="44.38944" lon="3.52305">
        <ele>698</ele>
        <time>2017-02-28T03:45:51Z</time>
      </trkpt>
      <trkpt lat="44.38935" lon="3.52292">
        <ele>699</ele>
        <time>2017-02-28T03:47:51Z</time>
      </trkpt>
      <trkpt lat="44.38927" lon="3.52277">
        <ele>701</ele>
        <time>2017-02-28T03:49:51Z</time>
      </trkpt>
      <trkpt lat="44.3891" lon="3.5224">
        <ele>705</ele>
        <time>2017-02-28T03:51:51Z</time>
      </trkpt>
      <trkpt lat="44.38887" lon="3.52192">
        <ele>708</ele>
        <time>2017-02-28T03:53:51Z</time>
      </trkpt>
      <trkpt lat="44.38861" lon="3.52135">
        <ele>713</ele>
        <time>2017-02-28T03:55:51Z</time>
      </trkpt>
      <trkpt lat="44.38838" lon="3.52086">
        <ele>719</ele>
        <time>2017-02-28T03:57:51Z</time>
      </trkpt>
      <trkpt lat="44.38825" lon="3.52062">
        <ele>725</ele>
        <time>2017-02-28T03:59:51Z</time>
      </trkpt>
      <trkpt lat="44.38813" lon="3.52046">
        <ele>729</ele>
        <time>2017-02-28T04:01:51Z</time>
      </trkpt>
      <trkpt lat="44.38803" lon="3.52035">
        <ele>732</ele>
        <time>2017-02-28T04:03:51Z</time>
      </trkpt>
      <trkpt lat="44.38785" lon="3.52021">
        <ele>735</ele>
        <time>2017-02-28T04:05:51Z</time>
      </trkpt>
      <trkpt lat="44.38769" lon="3.52011">
        <ele>736</ele>
        <time>2017-02-28T04:07:51Z</time>
      </trkpt>
      <trkpt lat="44.3874" lon="3.51997">
        <ele>737</ele>
        <time>2017-02-28T04:09:51Z</time>
      </trkpt>
      <trkpt lat="44.38703" lon="3.5198">
        <ele>737</ele>
        <time>2017-02-28T04:11:51Z</time>
      </trkpt>
      <trkpt lat="44.38666" lon="3.51963">
        <ele>739</ele>
        <time>2017-02-28T04:13:51Z</time>
      </trkpt>
      <trkpt lat="44.38641" lon="3.51949">
        <ele>743</ele>
        <time>2017-02-28T04:15:51Z</time>
      </trkpt>
      <trkpt lat="44.38619" lon="3.51935">
        <ele>748</ele>
        <time>2017-02-28T04:17:51Z</time>
      </trkpt>
      <trkpt lat="44.3859" lon="3.51914">
        <ele>753</ele>
        <time>2017-02-28T04:19:51Z</time>
      </trkpt>
      <trkpt lat="44.38564" lon="3.51893">
        <ele>756</ele>
        <time>2017-02-28T04:21:51Z</time>
      </trkpt>
      <trkpt lat="44.38539" lon="3.51876">
        <ele>759</ele>
        <time>2017-02-28T04:23:51Z</time>
      </trkpt>
      <trkpt lat="44.38508" lon="3.51858">
        <ele>762</ele>
        <time>2017-02-28T04:25:51Z</time>
      </trkpt>
      <trkpt lat="44.3847" lon="3.51839">
        <ele>766</ele>
        <time>2017-02-28T04:27:51Z</time>
      </trkpt>
      <trkpt lat="44.38435" lon="3.5182">
        <ele>766</ele>
        <time>2017-02-28T04:29:51Z</time>
      </trkpt>
      <trkpt lat="44.38414" lon="3.51806">
        <ele>765</ele>
        <time>2017-02-28T04:31:51Z</time>
      </trkpt>
      <trkpt lat="44.38407" lon="3.51801">
        <ele>764</ele>
        <time>2017-02-28T04:33:51Z</time>
      </trkpt>
      <trkpt lat="44.384" lon="3.51794">
        <ele>763</ele>
        <time>2017-02-28T04:35:51Z</time>
      </trkpt>
      <trkpt lat="44.38394" lon="3.51788">
        <ele>763</ele>
        <time>2017-02-28T04:37:51Z</time>
      </trkpt>
      <trkpt lat="44.38392" lon="3.51785">
        <ele>762</ele>
        <time>2017-02-28T04:39:51Z</time>
      </trkpt>
      <trkpt lat="44.38388" lon="3.51779">
        <ele>762</ele>
        <time>2017-02-28T04:41:51Z</time>
      </trkpt>
      <trkpt lat="44.38385" lon="3.51772">
        <ele>762</ele>
        <time>2017-02-28T04:43:51Z</time>
      </trkpt>
      <trkpt lat="44.38384" lon="3.51765">
        <ele>763</ele>
        <time>2017-02-28T04:45:51Z</time>
      </trkpt>
      <trkpt lat="44.38384" lon="3.51761">
        <ele>763</ele>
        <time>2017-02-28T04:47:51Z</time>
      </trkpt>
      <trkpt lat="44.38385" lon="3.51758">
        <ele>764</ele>
        <time>2017-02-28T04:49:51Z</time>
      </trkpt>
      <trkpt lat="44.38387" lon="3.51752">
        <ele>765</ele>
        <time>2017-02-28T04:51:51Z</time>
      </trkpt>
      <trkpt lat="44.3839" lon="3.51747">
        <ele>765</ele>
        <time>2017-02-28T04:53:51Z</time>
      </trkpt>
      <trkpt lat="44.38394" lon="3.51743">
        <ele>765</ele>
        <time>2017-02-28T04:55:51Z</time>
      </trkpt>
      <trkpt lat="44.38397" lon="3.51741">
        <ele>766</ele>
        <time>2017-02-28T04:57:51Z</time>
      </trkpt>
      <trkpt lat="44.38399" lon="3.5174">
        <ele>766</ele>
        <time>2017-02-28T04:59:51Z</time>
      </trkpt>
      <trkpt lat="44.38404" lon="3.5174">
        <ele>767</ele>
        <time>2017-02-28T05:01:51Z</time>
      </trkpt>
      <trkpt lat="44.3841" lon="3.51741">
        <ele>769</ele>
        <time>2017-02-28T05:03:51Z</time>
      </trkpt>
      <trkpt lat="44.38417" lon="3.51743">
        <ele>771</ele>
        <time>2017-02-28T05:05:51Z</time>
      </trkpt>
      <trkpt lat="44.38424" lon="3.51746">
        <ele>773</ele>
        <time>2017-02-28T05:07:51Z</time>
      </trkpt>
      <trkpt lat="44.38432" lon="3.51749">
        <ele>776</ele>
        <time>2017-02-28T05:09:51Z</time>
      </trkpt>
      <trkpt lat="44.38439" lon="3.51754">
        <ele>777</ele>
        <time>2017-02-28T05:11:51Z</time>
      </trkpt>
      <trkpt lat="44.38465" lon="3.51765">
        <ele>780</ele>
        <time>2017-02-28T05:13:51Z</time>
      </trkpt>
      <trkpt lat="44.38465" lon="3.51765">
        <ele>780</ele>
        <time>2017-02-28T05:15:51Z</time>
      </trkpt>
      <trkpt lat="44.38466" lon="3.51762">
        <ele>780</ele>
        <time>2017-02-28T05:17:51Z</time>
      </trkpt>
      <trkpt lat="44.38465" lon="3.51761">
        <ele>780</ele>
        <time>2017-02-28T05:19:51Z</time>
      </trkpt>
      <trkpt lat="44.38465" lon="3.5176">
        <ele>781</ele>
        <time>2017-02-28T05:21:51Z</time>
      </trkpt>
      <trkpt lat="44.38464" lon="3.51759">
        <ele>781</ele>
        <time>2017-02-28T05:23:51Z</time>
      </trkpt>
      <trkpt lat="44.38461" lon="3.51757">
        <ele>780</ele>
        <time>2017-02-28T05:25:51Z</time>
      </trkpt>
      <trkpt lat="44.38454" lon="3.51751">
        <ele>780</ele>
        <time>2017-02-28T05:27:51Z</time>
      </trkpt>
      <trkpt lat="44.38451" lon="3.51749">
        <ele>779</ele>
        <time>2017-02-28T05:29:51Z</time>
      </trkpt>
      <trkpt lat="44.38449" lon="3.51745">
        <ele>778</ele>
        <time>2017-02-28T05:31:51Z</time>
      </trkpt>
      <trkpt lat="44.38446" lon="3.51742">
        <ele>777</ele>
        <time>2017-02-28T05:33:51Z</time>
      </trkpt>
      <trkpt lat="44.38445" lon="3.51739">
        <ele>776</ele>
        <time>2017-02-28T05:35:51Z</time>
      </trkpt>
      <trkpt lat="44.38445" lon="3.51737">
        <ele>775</ele>
        <time>2017-02-28T05:37:51Z</time>
      </trkpt>
      <trkpt lat="44.38445" lon="3.51735">
        <ele>775</ele>
        <time>2017-02-28T05:39:51Z</time>
      </trkpt>
      <trkpt lat="44.38445" lon="3.51732">
        <ele>774</ele>
        <time>2017-02-28T05:41:51Z</time>
      </trkpt>
      <trkpt lat="44.38445" lon="3.51729">
        <ele>773</ele>
        <time>2017-02-28T05:43:51Z</time>
      </trkpt>
      <trkpt lat="44.38446" lon="3.51725">
        <ele>773</ele>
        <time>2017-02-28T05:45:51Z</time>
      </trkpt>
      <trkpt lat="44.38447" lon="3.51723">
        <ele>772</ele>
        <time>2017-02-28T05:47:51Z</time>
      </trkpt>
      <trkpt lat="44.38448" lon="3.51721">
        <ele>772</ele>
        <time>2017-02-28T05:49:51Z</time>
      </trkpt>
      <trkpt lat="44.3845" lon="3.51719">
        <ele>772</ele>
        <time>2017-02-28T05:51:51Z</time>
      </trkpt>
      <trkpt lat="44.38451" lon="3.51717">
        <ele>772</ele>
        <time>2017-02-28T05:53:51Z</time>
      </trkpt>
      <trkpt lat="44.38453" lon="3.51716">
        <ele>772</ele>
        <time>2017-02-28T05:55:51Z</time>
      </trkpt>
      <trkpt lat="44.38456" lon="3.51714">
        <ele>772</ele>
        <time>2017-02-28T05:57:51Z</time>
      </trkpt>
      <trkpt lat="44.38468" lon="3.51711">
        <ele>774</ele>
        <time>2017-02-28T05:59:51Z</time>
      </trkpt>
      <trkpt lat="44.38485" lon="3.51706">
        <ele>777</ele>
        <time>2017-02-28T06:01:51Z</time>
      </trkpt>
      <trkpt lat="44.38494" lon="3.51701">
        <ele>778</ele>
        <time>2017-02-28T06:03:51Z</time>
      </trkpt>
      <trkpt lat="44.38508" lon="3.5169">
        <ele>780</ele>
        <time>2017-02-28T06:05:51Z</time>
      </trkpt>
      <trkpt lat="44.38523" lon="3.51676">
        <ele>784</ele>
        <time>2017-02-28T06:07:51Z</time>
      </trkpt>
      <trkpt lat="44.38553" lon="3.51649">
        <ele>790</ele>
        <time>2017-02-28T06:09:51Z</time>
      </trkpt>
      <trkpt lat="44.38575" lon="3.51629">
        <ele>792</ele>
        <time>2017-02-28T06:11:51Z</time>
      </trkpt>
      <trkpt lat="44.38605" lon="3.51608">
        <ele>796</ele>
        <time>2017-02-28T06:13:51Z</time>
      </trkpt>
      <trkpt lat="44.38638" lon="3.51584">
        <ele>801</ele>
        <time>2017-02-28T06:15:51Z</time>
      </trkpt>
      <trkpt lat="44.38666" lon="3.51562">
        <ele>804</ele>
        <time>2017-02-28T06:17:51Z</time>
      </trkpt>
      <trkpt lat="44.38693" lon="3.51539">
        <ele>808</ele>
        <time>2017-02-28T06:19:51Z</time>
      </trkpt>
      <trkpt lat="44.38716" lon="3.51519">
        <ele>812</ele>
        <time>2017-02-28T06:21:51Z</time>
      </trkpt>
      <trkpt lat="44.38737" lon="3.51499">
        <ele>815</ele>
        <time>2017-02-28T06:23:51Z</time>
      </trkpt>
      <trkpt lat="44.38762" lon="3.51469">
        <ele>817</ele>
        <time>2017-02-28T06:25:51Z</time>
      </trkpt>
      <trkpt lat="44.38792" lon="3.51431">
        <ele>819</ele>
        <time>2017-02-28T06:27:51Z</time>
      </trkpt>
      <trkpt lat="44.38819" lon="3.51397">
        <ele>823</ele>
        <time>2017-02-28T06:29:51Z</time>
      </trkpt>
      <trkpt lat="44.3884" lon="3.5137">
        <ele>823</ele>
        <time>2017-02-28T06:31:51Z</time>
      </trkpt>
      <trkpt lat="44.38861" lon="3.5135">
        <ele>825</ele>
        <time>2017-02-28T06:33:51Z</time>
      </trkpt>
      <trkpt lat="44.3888" lon="3.51336">
        <ele>828</ele>
        <time>2017-02-28T06:35:51Z</time>
      </trkpt>
      <trkpt lat="44.38915" lon="3.5131">
        <ele>834</ele>
        <time>2017-02-28T06:37:51Z</time>
      </trkpt>
      <trkpt lat="44.38928" lon="3.51297">
        <ele>835</ele>
        <time>2017-02-28T06:39:51Z</time>
      </trkpt>
      <trkpt lat="44.38942" lon="3.51277">
        <ele>833</ele>
        <time>2017-02-28T06:41:51Z</time>
      </trkpt>
      <trkpt lat="44.38951" lon="3.51267">
        <ele>833</ele>
        <time>2017-02-28T06:43:51Z</time>
      </trkpt>
      <trkpt lat="44.38965" lon="3.51256">
        <ele>834</ele>
        <time>2017-02-28T06:45:51Z</time>
      </trkpt>
      <trkpt lat="44.38989" lon="3.51241">
        <ele>838</ele>
        <time>2017-02-28T06:47:51Z</time>
      </trkpt>
      <trkpt lat="44.39021" lon="3.51219">
        <ele>844</ele>
        <time>2017-02-28T06:49:51Z</time>
      </trkpt>
      <trkpt lat="44.39038" lon="3.51203">
        <ele>846</ele>
        <time>2017-02-28T06:51:51Z</time>
      </trkpt>
      <trkpt lat="44.39065" lon="3.51177">
        <ele>846</ele>
        <time>2017-02-28T06:53:51Z</time>
      </trkpt>
      <trkpt lat="44.39098" lon="3.51144">
        <ele>849</ele>
        <time>2017-02-28T06:55:51Z</time>
      </trkpt>
      <trkpt lat="44.39129" lon="3.51112">
        <ele>852</ele>
        <time>2017-02-28T06:57:51Z</time>
      </trkpt>
      <trkpt lat="44.3915" lon="3.51094">
        <ele>852</ele>
        <time>2017-02-28T06:59:51Z</time>
      </trkpt>
      <trkpt lat="44.39174" lon="3.51076">
        <ele>853</ele>
        <time>2017-02-28T07:01:51Z</time>
      </trkpt>
      <trkpt lat="44.39199" lon="3.51061">
        <ele>856</ele>
        <time>2017-02-28T07:03:51Z</time>
      </trkpt>
      <trkpt lat="44.39213" lon="3.51057">
        <ele>858</ele>
        <time>2017-02-28T07:05:51Z</time>
      </trkpt>
      <trkpt lat="44.39226" lon="3.51057">
        <ele>861</ele>
        <time>2017-02-28T07:07:51Z</time>
      </trkpt>
      <trkpt lat="44.39249" lon="3.5106">
        <ele>866</ele>
        <time>2017-02-28T07:09:51Z</time>
      </trkpt>
      <trkpt lat="44.39258" lon="3.51058">
        <ele>868</ele>
        <time>2017-02-28T07:11:51Z</time>
      </trkpt>
      <trkpt lat="44.39267" lon="3.51053">
        <ele>869</ele>
        <time>2017-02-28T07:13:51Z</time>
      </trkpt>
      <trkpt lat="44.39272" lon="3.51046">
        <ele>868</ele>
        <time>2017-02-28T07:15:51Z</time>
      </trkpt>
      <trkpt lat="44.39284" lon="3.51026">
        <ele>866</ele>
        <time>2017-02-28T07:17:51Z</time>
      </trkpt>
      <trkpt lat="44.39294" lon="3.51017">
        <ele>865</ele>
        <time>2017-02-28T07:19:51Z</time>
      </trkpt>
      <trkpt lat="44.39333" lon="3.50986">
        <ele>868</ele>
        <time>2017-02-28T07:21:51Z</time>
      </trkpt>
      <trkpt lat="44.39365" lon="3.5096">
        <ele>875</ele>
        <time>2017-02-28T07:23:51Z</time>
      </trkpt>
      <trkpt lat="44.39372" lon="3.50953">
        <ele>876</ele>
        <time>2017-02-28T07:25:51Z</time>
      </trkpt>
      <trkpt lat="44.39381" lon="3.50942">
        <ele>876</ele>
        <time>2017-02-28T07:27:51Z</time>
      </trkpt>
      <trkpt lat="44.39392" lon="3.50929">
        <ele>876</ele>
        <time>2017-02-28T07:29:51Z</time>
      </trkpt>
      <trkpt lat="44.39409" lon="3.50908">
        <ele>876</ele>
        <time>2017-02-28T07:31:51Z</time>
      </trkpt>
      <trkpt lat="44.39411" lon="3.50906">
        <ele>876</ele>
        <time>2017-02-28T07:33:51Z</time>
      </trkpt>
      <trkpt lat="44.39423" lon="3.50892">
        <ele>878</ele>
        <time>2017-02-28T07:35:51Z</time>
      </trkpt>
      <trkpt lat="44.39447" lon="3.50873">
        <ele>881</ele>
        <time>2017-02-28T07:37:51Z</time>
      </trkpt>
      <trkpt lat="44.39447" lon="3.50873">
        <ele>881</ele>
        <time>2017-02-28T07:39:51Z</time>
      </trkpt>
      <trkpt lat="44.39447" lon="3.50871">
        <ele>881</ele>
        <time>2017-02-28T07:41:51Z</time>
      </trkpt>
      <trkpt lat="44.39447" lon="3.5087">
        <ele>881</ele>
        <time>2017-02-28T07:43:51Z</time>
      </trkpt>
      <trkpt lat="44.39448" lon="3.50866">
        <ele>880</ele>
        <time>2017-02-28T07:45:51Z</time>
      </trkpt>
      <trkpt lat="44.39449" lon="3.50863">
        <ele>880</ele>
        <time>2017-02-28T07:47:51Z</time>
      </trkpt>
      <trkpt lat="44.39456" lon="3.50847">
        <ele>879</ele>
        <time>2017-02-28T07:49:51Z</time>
      </trkpt>
      <trkpt lat="44.39458" lon="3.50844">
        <ele>879</ele>
        <time>2017-02-28T07:51:51Z</time>
      </trkpt>
      <trkpt lat="44.39458" lon="3.50843">
        <ele>879</ele>
        <time>2017-02-28T07:53:51Z</time>
      </trkpt>
      <trkpt lat="44.39458" lon="3.50841">
        <ele>879</ele>
        <time>2017-02-28T07:55:51Z</time>
      </trkpt>
      <trkpt lat="44.39458" lon="3.50839">
        <ele>878</ele>
        <time>2017-02-28T07:57:51Z</time>
      </trkpt>
      <trkpt lat="44.39458" lon="3.50836">
        <ele>878</ele>
        <time>2017-02-28T07:59:51Z</time>
      </trkpt>
      <trkpt lat="44.39458" lon="3.50835">
        <ele>878</ele>
        <time>2017-02-28T08:01:51Z</time>
      </trkpt>
      <trkpt lat="44.39457" lon="3.50833">
        <ele>877</ele>
        <time>2017-02-28T08:03:51Z</time>
      </trkpt>
      <trkpt lat="44.39455" lon="3.50831">
        <ele>878</ele>
        <time>2017-02-28T08:05:51Z</time>
      </trkpt>
      <trkpt lat="44.39453" lon="3.50829">
        <ele>878</ele>
        <time>2017-02-28T08:07:51Z</time>
      </trkpt>
      <trkpt lat="44.39445" lon="3.50826">
        <ele>879</ele>
        <time>2017-02-28T08:09:51Z</time>
      </trkpt>
      <trkpt lat="44.39437" lon="3.50824">
        <ele>879</ele>
        <time>2017-02-28T08:11:51Z</time>
      </trkpt>
      <trkpt lat="44.3943" lon="3.50824">
        <ele>878</ele>
        <time>2017-02-28T08:13:51Z</time>
      </trkpt>
      <trkpt lat="44.39407" lon="3.50831">
        <ele>877</ele>
        <time>2017-02-28T08:15:51Z</time>
      </trkpt>
      <trkpt lat="44.3937" lon="3.50846">
        <ele>882</ele>
        <time>2017-02-28T08:17:51Z</time>
      </trkpt>
      <trkpt lat="44.39337" lon="3.50862">
        <ele>882</ele>
        <time>2017-02-28T08:19:51Z</time>
      </trkpt>
      <trkpt lat="44.39322" lon="3.50866">
        <ele>881</ele>
        <time>2017-02-28T08:21:51Z</time>
      </trkpt>
      <trkpt lat="44.39308" lon="3.50866">
        <ele>881</ele>
        <time>2017-02-28T08:23:51Z</time>
      </trkpt>
      <trkpt lat="44.39285" lon="3.50866">
        <ele>882</ele>
        <time>2017-02-28T08:25:51Z</time>
      </trkpt>
      <trkpt lat="44.3928" lon="3.50865">
        <ele>882</ele>
        <time>2017-02-28T08:27:51Z</time>
      </trkpt>
      <trkpt lat="44.39276" lon="3.50864">
        <ele>883</ele>
        <time>2017-02-28T08:29:51Z</time>
      </trkpt>
      <trkpt lat="44.3927" lon="3.50861">
        <ele>884</ele>
        <time>2017-02-28T08:31:51Z</time>
      </trkpt>
      <trkpt lat="44.39264" lon="3.50855">
        <ele>886</ele>
        <time>2017-02-28T08:33:51Z</time>
      </trkpt>
      <trkpt lat="44.39262" lon="3.50853">
        <ele>886</ele>
        <time>2017-02-28T08:35:51Z</time>
      </trkpt>
      <trkpt lat="44.3926" lon="3.5085">
        <ele>887</ele>
        <time>2017-02-28T08:37:51Z</time>
      </trkpt>
      <trkpt lat="44.39258" lon="3.50847">
        <ele>888</ele>
        <time>2017-02-28T08:39:51Z</time>
      </trkpt>
      <trkpt lat="44.39257" lon="3.50845">
        <ele>889</ele>
        <time>2017-02-28T08:41:51Z</time>
      </trkpt>
      <trkpt lat="44.39256" lon="3.50842">
        <ele>889</ele>
        <time>2017-02-28T08:43:51Z</time>
      </trkpt>
      <trkpt lat="44.39256" lon="3.50839">
        <ele>890</ele>
        <time>2017-02-28T08:45:51Z</time>
      </trkpt>
      <trkpt lat="44.39255" lon="3.50836">
        <ele>891</ele>
        <time>2017-02-28T08:47:51Z</time>
      </trkpt>
      <trkpt lat="44.39256" lon="3.50833">
        <ele>892</ele>
        <time>2017-02-28T08:49:51Z</time>
      </trkpt>
      <trkpt lat="44.39256" lon="3.50831">
        <ele>892</ele>
        <time>2017-02-28T08:51:51Z</time>
      </trkpt>
      <trkpt lat="44.39258" lon="3.50827">
        <ele>893</ele>
        <time>2017-02-28T08:53:51Z</time>
      </trkpt>
      <trkpt lat="44.39255" lon="3.50822">
        <ele>894</ele>
        <time>2017-02-28T08:55:51Z</time>
      </trkpt>
      <trkpt lat="44.3925" lon="3.50807">
        <ele>897</ele>
        <time>2017-02-28T08:57:51Z</time>
      </trkpt>
      <trkpt lat="44.39245" lon="3.50792">
        <ele>899</ele>
        <time>2017-02-28T08:59:51Z</time>
      </trkpt>
      <trkpt lat="44.39244" lon="3.50791">
        <ele>899</ele>
        <time>2017-02-28T09:01:51Z</time>
      </trkpt>
      <trkpt lat="44.39243" lon="3.50787">
        <ele>900</ele>
        <time>2017-02-28T09:03:51Z</time>
      </trkpt>
      <trkpt lat="44.39241" lon="3.50782">
        <ele>901</ele>
        <time>2017-02-28T09:05:51Z</time>
      </trkpt>
      <trkpt lat="44.39235" lon="3.50771">
        <ele>902</ele>
        <time>2017-02-28T09:07:51Z</time>
      </trkpt>
      <trkpt lat="44.39228" lon="3.50757">
        <ele>904</ele>
        <time>2017-02-28T09:09:51Z</time>
      </trkpt>
      <trkpt lat="44.39227" lon="3.50755">
        <ele>904</ele>
        <time>2017-02-28T09:11:51Z</time>
      </trkpt>
      <trkpt lat="44.39227" lon="3.50754">
        <ele>904</ele>
        <time>2017-02-28T09:13:51Z</time>
      </trkpt>
      <trkpt lat="44.39227" lon="3.50752">
        <ele>905</ele>
        <time>2017-02-28T09:15:51Z</time>
      </trkpt>
      <trkpt lat="44.39227" lon="3.50751">
        <ele>905</ele>
        <time>2017-02-28T09:17:51Z</time>
      </trkpt>
      <trkpt lat="44.39227" lon="3.50751">
        <ele>905</ele>
        <time>2017-02-28T09:19:51Z</time>
      </trkpt>
      <trkpt lat="44.39227" lon="3.50749">
        <ele>905</ele>
        <time>2017-02-28T09:21:51Z</time>
      </trkpt>
      <trkpt lat="44.39227" lon="3.50747">
        <ele>906</ele>
        <time>2017-02-28T09:23:51Z</time>
      </trkpt>
      <trkpt lat="44.39228" lon="3.50746">
        <ele>906</ele>
        <time>2017-02-28T09:25:51Z</time>
      </trkpt>
      <trkpt lat="44.39229" lon="3.50745">
        <ele>907</ele>
        <time>2017-02-28T09:27:51Z</time>
      </trkpt>
      <trkpt lat="44.3923" lon="3.50744">
        <ele>907</ele>
        <time>2017-02-28T09:29:51Z</time>
      </trkpt>
      <trkpt lat="44.39232" lon="3.50744">
        <ele>907</ele>
        <time>2017-02-28T09:31:51Z</time>
      </trkpt>
      <trkpt lat="44.39235" lon="3.50746">
        <ele>907</ele>
        <time>2017-02-28T09:33:51Z</time>
      </trkpt>
      <trkpt lat="44.39238" lon="3.50749">
        <ele>907</ele>
        <time>2017-02-28T09:35:51Z</time>
      </trkpt>
      <trkpt lat="44.39244" lon="3.50753">
        <ele>907</ele>
        <time>2017-02-28T09:37:51Z</time>
      </trkpt>
      <trkpt lat="44.39245" lon="3.50754">
        <ele>907</ele>
        <time>2017-02-28T09:39:51Z</time>
      </trkpt>
      <trkpt lat="44.39246" lon="3.50754">
        <ele>907</ele>
        <time>2017-02-28T09:41:51Z</time>
      </trkpt>
      <trkpt lat="44.39247" lon="3.50753">
        <ele>908</ele>
        <time>2017-02-28T09:43:51Z</time>
      </trkpt>
      <trkpt lat="44.39248" lon="3.50752">
        <ele>908</ele>
        <time>2017-02-28T09:45:51Z</time>
      </trkpt>
      <trkpt lat="44.39248" lon="3.50752">
        <ele>908</ele>
        <time>2017-02-28T09:47:51Z</time>
      </trkpt>
      <trkpt lat="44.39245" lon="3.50745">
        <ele>909</ele>
        <time>2017-02-28T09:49:51Z</time>
      </trkpt>
      <trkpt lat="44.39239" lon="3.50737">
        <ele>910</ele>
        <time>2017-02-28T09:51:51Z</time>
      </trkpt>
      <trkpt lat="44.39229" lon="3.50724">
        <ele>911</ele>
        <time>2017-02-28T09:53:51Z</time>
      </trkpt>
      <trkpt lat="44.39219" lon="3.50712">
        <ele>912</ele>
        <time>2017-02-28T09:55:51Z</time>
      </trkpt>
      <trkpt lat="44.39211" lon="3.50702">
        <ele>913</ele>
        <time>2017-02-28T09:57:51Z</time>
      </trkpt>
      <trkpt lat="44.392" lon="3.50692">
        <ele>913</ele>
        <time>2017-02-28T09:59:51Z</time>
      </trkpt>
      <trkpt lat="44.39194" lon="3.50688">
        <ele>913</ele>
        <time>2017-02-28T10:01:51Z</time>
      </trkpt>
      <trkpt lat="44.39194" lon="3.50688">
        <ele>913</ele>
        <time>2017-02-28T10:03:51Z</time>
      </trkpt>
      <trkpt lat="44.39183" lon="3.50674">
        <ele>915</ele>
        <time>2017-02-28T10:05:51Z</time>
      </trkpt>
      <trkpt lat="44.39178" lon="3.50668">
        <ele>915</ele>
        <time>2017-02-28T10:07:51Z</time>
      </trkpt>
      <trkpt lat="44.39173" lon="3.50658">
        <ele>917</ele>
        <time>2017-02-28T10:09:51Z</time>
      </trkpt>
      <trkpt lat="44.39165" lon="3.5064">
        <ele>921</ele>
        <time>2017-02-28T10:11:51Z</time>
      </trkpt>
      <trkpt lat="44.39163" lon="3.50635">
        <ele>922</ele>
        <time>2017-02-28T10:13:51Z</time>
      </trkpt>
      <trkpt lat="44.39161" lon="3.50628">
        <ele>923</ele>
        <time>2017-02-28T10:15:51Z</time>
      </trkpt>
      <trkpt lat="44.39158" lon="3.50623">
        <ele>924</ele>
        <time>2017-02-28T10:17:51Z</time>
      </trkpt>
      <trkpt lat="44.39149" lon="3.50612">
        <ele>924</ele>
        <time>2017-02-28T10:19:51Z</time>
      </trkpt>
      <trkpt lat="44.39137" lon="3.50595">
        <ele>925</ele>
        <time>2017-02-28T10:21:51Z</time>
      </trkpt>
      <trkpt lat="44.39122" lon="3.50576">
        <ele>925</ele>
        <time>2017-02-28T10:23:51Z</time>
      </trkpt>
      <trkpt lat="44.39109" lon="3.50555">
        <ele>925</ele>
        <time>2017-02-28T10:25:51Z</time>
      </trkpt>
      <trkpt lat="44.39105" lon="3.50546">
        <ele>925</ele>
        <time>2017-02-28T10:27:51Z</time>
      </trkpt>
      <trkpt lat="44.39101" lon="3.50538">
        <ele>925</ele>
        <time>2017-02-28T10:29:51Z</time>
      </trkpt>
      <trkpt lat="44.39098" lon="3.50529">
        <ele>926</ele>
        <time>2017-02-28T10:31:51Z</time>
      </trkpt>
      <trkpt lat="44.39096" lon="3.50519">
        <ele>927</ele>
        <time>2017-02-28T10:33:51Z</time>
      </trkpt>
      <trkpt lat="44.39095" lon="3.50509">
        <ele>929</ele>
        <time>2017-02-28T10:35:51Z</time>
      </trkpt>
      <trkpt lat="44.39095" lon="3.50499">
        <ele>930</ele>
        <time>2017-02-28T10:37:51Z</time>
      </trkpt>
      <trkpt lat="44.39096" lon="3.50476">
        <ele>933</ele>
        <time>2017-02-28T10:39:51Z</time>
      </trkpt>
      <trkpt lat="44.39096" lon="3.50466">
        <ele>934</ele>
        <time>2017-02-28T10:41:51Z</time>
      </trkpt>
      <trkpt lat="44.39096" lon="3.50458">
        <ele>935</ele>
        <time>2017-02-28T10:43:51Z</time>
      </trkpt>
      <trkpt lat="44.39094" lon="3.50448">
        <ele>936</ele>
        <time>2017-02-28T10:45:51Z</time>
      </trkpt>
      <trkpt lat="44.39091" lon="3.50437">
        <ele>937</ele>
        <time>2017-02-28T10:47:51Z</time>
      </trkpt>
      <trkpt lat="44.39087" lon="3.50426">
        <ele>937</ele>
        <time>2017-02-28T10:49:51Z</time>
      </trkpt>
      <trkpt lat="44.3908" lon="3.50407">
        <ele>939</ele>
        <time>2017-02-28T10:51:51Z</time>
      </trkpt>
      <trkpt lat="44.39077" lon="3.50395">
        <ele>940</ele>
        <time>2017-02-28T10:53:51Z</time>
      </trkpt>
      <trkpt lat="44.39075" lon="3.50386">
        <ele>942</ele>
        <time>2017-02-28T10:55:51Z</time>
      </trkpt>
      <trkpt lat="44.39074" lon="3.50376">
        <ele>943</ele>
        <time>2017-02-28T10:57:51Z</time>
      </trkpt>
      <trkpt lat="44.39073" lon="3.50351">
        <ele>947</ele>
        <time>2017-02-28T10:59:51Z</time>
      </trkpt>
      <trkpt lat="44.39071" lon="3.50337">
        <ele>949</ele>
        <time>2017-02-28T11:01:51Z</time>
      </trkpt>
      <trkpt lat="44.39069" lon="3.50324">
        <ele>950</ele>
        <time>2017-02-28T11:03:51Z</time>
      </trkpt>
      <trkpt lat="44.39066" lon="3.50314">
        <ele>951</ele>
        <time>2017-02-28T11:05:51Z</time>
      </trkpt>
      <trkpt lat="44.39061" lon="3.50303">
        <ele>952</ele>
        <time>2017-02-28T11:07:51Z</time>
      </trkpt>
      <trkpt lat="44.39057" lon="3.50295">
        <ele>953</ele>
        <time>2017-02-28T11:09:51Z</time>
      </trkpt>
      <trkpt lat="44.39049" lon="3.50276">
        <ele>955</ele>
        <time>2017-02-28T11:11:51Z</time>
      </trkpt>
      <trkpt lat="44.39046" lon="3.50265">
        <ele>956</ele>
        <time>2017-02-28T11:13:51Z</time>
      </trkpt>
      <trkpt lat="44.39044" lon="3.50255">
        <ele>956</ele>
        <time>2017-02-28T11:15:51Z</time>
      </trkpt>
      <trkpt lat="44.39042" lon="3.50243">
        <ele>957</ele>
        <time>2017-02-28T11:17:51Z</time>
      </trkpt>
      <trkpt lat="44.39042" lon="3.5023">
        <ele>958</ele>
        <time>2017-02-28T11:19:51Z</time>
      </trkpt>
      <trkpt lat="44.39041" lon="3.50222">
        <ele>959</ele>
        <time>2017-02-28T11:21:51Z</time>
      </trkpt>
      <trkpt lat="44.39042" lon="3.50215">
        <ele>959</ele>
        <time>2017-02-28T11:23:51Z</time>
      </trkpt>
      <trkpt lat="44.39044" lon="3.50205">
        <ele>960</ele>
        <time>2017-02-28T11:25:51Z</time>
      </trkpt>
      <trkpt lat="44.39046" lon="3.50199">
        <ele>960</ele>
        <time>2017-02-28T11:27:51Z</time>
      </trkpt>
      <trkpt lat="44.39046" lon="3.50193">
        <ele>961</ele>
        <time>2017-02-28T11:29:51Z</time>
      </trkpt>
      <trkpt lat="44.39046" lon="3.50187">
        <ele>961</ele>
        <time>2017-02-28T11:31:51Z</time>
      </trkpt>
      <trkpt lat="44.39045" lon="3.50181">
        <ele>961</ele>
        <time>2017-02-28T11:33:51Z</time>
      </trkpt>
      <trkpt lat="44.39041" lon="3.50171">
        <ele>962</ele>
        <time>2017-02-28T11:35:51Z</time>
      </trkpt>
      <trkpt lat="44.39039" lon="3.50165">
        <ele>963</ele>
        <time>2017-02-28T11:37:51Z</time>
      </trkpt>
      <trkpt lat="44.39038" lon="3.50154">
        <ele>963</ele>
        <time>2017-02-28T11:39:51Z</time>
      </trkpt>
      <trkpt lat="44.39032" lon="3.50127">
        <ele>964</ele>
        <time>2017-02-28T11:41:51Z</time>
      </trkpt>
      <trkpt lat="44.39028" lon="3.5011">
        <ele>964</ele>
        <time>2017-02-28T11:43:51Z</time>
      </trkpt>
      <trkpt lat="44.3902" lon="3.50086">
        <ele>965</ele>
        <time>2017-02-28T11:45:51Z</time>
      </trkpt>
      <trkpt lat="44.39003" lon="3.50049">
        <ele>968</ele>
        <time>2017-02-28T11:47:51Z</time>
      </trkpt>
      <trkpt lat="44.38997" lon="3.50035">
        <ele>969</ele>
        <time>2017-02-28T11:49:51Z</time>
      </trkpt>
      <trkpt lat="44.38979" lon="3.49995">
        <ele>975</ele>
        <time>2017-02-28T11:51:51Z</time>
      </trkpt>
      <trkpt lat="44.38961" lon="3.49952">
        <ele>979</ele>
        <time>2017-02-28T11:53:51Z</time>
      </trkpt>
      <trkpt lat="44.38943" lon="3.49916">
        <ele>983</ele>
        <time>2017-02-28T11:55:51Z</time>
      </trkpt>
      <trkpt lat="44.38931" lon="3.49893">
        <ele>985</ele>
        <time>2017-02-28T11:57:51Z</time>
      </trkpt>
      <trkpt lat="44.38914" lon="3.49845">
        <ele>989</ele>
        <time>2017-02-28T11:59:51Z</time>
      </trkpt>
      <trkpt lat="44.38907" lon="3.49824">
        <ele>990</ele>
        <time>2017-02-28T12:01:51Z</time>
      </trkpt>
      <trkpt lat="44.38904" lon="3.49802">
        <ele>992</ele>
        <time>2017-02-28T12:03:51Z</time>
      </trkpt>
      <trkpt lat="44.38899" lon="3.4977">
        <ele>995</ele>
        <time>2017-02-28T12:05:51Z</time>
      </trkpt>
      <trkpt lat="44.38899" lon="3.49745">
        <ele>997</ele>
        <time>2017-02-28T12:07:51Z</time>
      </trkpt>
      <trkpt lat="44.38901" lon="3.49714">
        <ele>1000</ele>
        <time>2017-02-28T12:09:51Z</time>
      </trkpt>
      <trkpt lat="44.38903" lon="3.49681">
        <ele>1003</ele>
        <time>2017-02-28T12:11:51Z</time>
      </trkpt>
      <trkpt lat="44.38901" lon="3.49645">
        <ele>1006</ele>
        <time>2017-02-28T12:13:51Z</time>
      </trkpt>
      <trkpt lat="44.38898" lon="3.49607">
        <ele>1009</ele>
        <time>2017-02-28T12:15:51Z</time>
      </trkpt>
      <trkpt lat="44.38893" lon="3.49557">
        <ele>1013</ele>
        <time>2017-02-28T12:17:51Z</time>
      </trkpt>
      <trkpt lat="44.38889" lon="3.49514">
        <ele>1015</ele>
        <time>2017-02-28T12:19:51Z</time>
      </trkpt>
      <trkpt lat="44.38888" lon="3.49489">
        <ele>1016</ele>
        <time>2017-02-28T12:21:51Z</time>
      </trkpt>
      <trkpt lat="44.3889" lon="3.49467">
        <ele>1017</ele>
        <time>2017-02-28T12:23:51Z</time>
      </trkpt>
      <trkpt lat="44.38892" lon="3.49443">
        <ele>1018</ele>
        <time>2017-02-28T12:25:51Z</time>
      </trkpt>
      <trkpt lat="44.3889" lon="3.49416">
        <ele>1020</ele>
        <time>2017-02-28T12:27:51Z</time>
      </trkpt>
      <trkpt lat="44.38885" lon="3.49397">
        <ele>1021</ele>
        <time>2017-02-28T12:29:51Z</time>
      </trkpt>
      <trkpt lat="44.38874" lon="3.49372">
        <ele>1021</ele>
        <time>2017-02-28T12:31:51Z</time>
      </trkpt>
      <trkpt lat="44.38874" lon="3.49372">
        <ele>1021</ele>
        <time>2017-02-28T12:33:51Z</time>
      </trkpt>
      <trkpt lat="44.38864" lon="3.49386">
        <ele>1021</ele>
        <time>2017-02-28T12:35:51Z</time>
      </trkpt>
      <trkpt lat="44.38856" lon="3.49396">
        <ele>1020</ele>
        <time>2017-02-28T12:37:51Z</time>
      </trkpt>
      <trkpt lat="44.38845" lon="3.49412">
        <ele>1021</ele>
        <time>2017-02-28T12:39:51Z</time>
      </trkpt>
      <trkpt lat="44.38827" lon="3.49442">
        <ele>1020</ele>
        <time>2017-02-28T12:41:51Z</time>
      </trkpt>
      <trkpt lat="44.3882" lon="3.49451">
        <ele>1020</ele>
        <time>2017-02-28T12:43:51Z</time>
      </trkpt>
      <trkpt lat="44.38803" lon="3.49467">
        <ele>1019</ele>
        <time>2017-02-28T12:45:51Z</time>
      </trkpt>
      <trkpt lat="44.38798" lon="3.49475">
        <ele>1019</ele>
        <time>2017-02-28T12:47:51Z</time>
      </trkpt>
      <trkpt lat="44.38792" lon="3.49487">
        <ele>1019</ele>
        <time>2017-02-28T12:49:51Z</time>
      </trkpt>
      <trkpt lat="44.38788" lon="3.49501">
        <ele>1019</ele>
        <time>2017-02-28T12:51:51Z</time>
      </trkpt>
      <trkpt lat="44.38781" lon="3.4953">
        <ele>1018</ele>
        <time>2017-02-28T12:53:51Z</time>
      </trkpt>
      <trkpt lat="44.38774" lon="3.49564">
        <ele>1017</ele>
        <time>2017-02-28T12:55:51Z</time>
      </trkpt>
      <trkpt lat="44.38767" lon="3.49594">
        <ele>1016</ele>
        <time>2017-02-28T12:57:51Z</time>
      </trkpt>
      <trkpt lat="44.38765" lon="3.4961">
        <ele>1015</ele>
        <time>2017-02-28T12:59:51Z</time>
      </trkpt>
      <trkpt lat="44.38765" lon="3.49628">
        <ele>1014</ele>
        <time>2017-02-28T13:01:51Z</time>
      </trkpt>
      <trkpt lat="44.38766" lon="3.49661">
        <ele>1013</ele>
        <time>2017-02-28T13:03:51Z</time>
      </trkpt>
      <trkpt lat="44.38765" lon="3.49673">
        <ele>1013</ele>
        <time>2017-02-28T13:05:51Z</time>
      </trkpt>
      <trkpt lat="44.38765" lon="3.49673">
        <ele>1013</ele>
        <time>2017-02-28T13:07:51Z</time>
      </trkpt>
      <trkpt lat="44.38757" lon="3.4966">
        <ele>1013</ele>
        <time>2017-02-28T13:09:51Z</time>
      </trkpt>
      <trkpt lat="44.38752" lon="3.49643">
        <ele>1014</ele>
        <time>2017-02-28T13:11:51Z</time>
      </trkpt>
      <trkpt lat="44.38743" lon="3.49618">
        <ele>1014</ele>
        <time>2017-02-28T13:13:51Z</time>
      </trkpt>
      <trkpt lat="44.38734" lon="3.49595">
        <ele>1015</ele>
        <time>2017-02-28T13:15:51Z</time>
      </trkpt>
      <trkpt lat="44.38727" lon="3.4957">
        <ele>1015</ele>
        <time>2017-02-28T13:17:51Z</time>
      </trkpt>
      <trkpt lat="44.3872" lon="3.49546">
        <ele>1016</ele>
        <time>2017-02-28T13:19:51Z</time>
      </trkpt>
      <trkpt lat="44.38709" lon="3.4952">
        <ele>1016</ele>
        <time>2017-02-28T13:21:51Z</time>
      </trkpt>
      <trkpt lat="44.387" lon="3.49502">
        <ele>1016</ele>
        <time>2017-02-28T13:23:51Z</time>
      </trkpt>
      <trkpt lat="44.3869" lon="3.49488">
        <ele>1015</ele>
        <time>2017-02-28T13:25:51Z</time>
      </trkpt>
      <trkpt lat="44.38681" lon="3.4948">
        <ele>1014</ele>
        <time>2017-02-28T13:27:51Z</time>
      </trkpt>
      <trkpt lat="44.38667" lon="3.49474">
        <ele>1013</ele>
        <time>2017-02-28T13:29:51Z</time>
      </trkpt>
      <trkpt lat="44.38639" lon="3.4947">
        <ele>1013</ele>
        <time>2017-02-28T13:31:51Z</time>
      </trkpt>
      <trkpt lat="44.38616" lon="3.49468">
        <ele>1013</ele>
        <time>2017-02-28T13:33:51Z</time>
      </trkpt>
      <trkpt lat="44.38588" lon="3.49469">
        <ele>1013</ele>
        <time>2017-02-28T13:35:51Z</time>
      </trkpt>
      <trkpt lat="44.38578" lon="3.4947">
        <ele>1013</ele>
        <time>2017-02-28T13:37:51Z</time>
      </trkpt>
      <trkpt lat="44.38548" lon="3.49475">
        <ele>1015</ele>
        <time>2017-02-28T13:39:51Z</time>
      </trkpt>
      <trkpt lat="44.38533" lon="3.49478">
        <ele>1015</ele>
        <time>2017-02-28T13:41:51Z</time>
      </trkpt>
      <trkpt lat="44.38523" lon="3.49484">
        <ele>1016</ele>
        <time>2017-02-28T13:43:51Z</time>
      </trkpt>
      <trkpt lat="44.38506" lon="3.49495">
        <ele>1017</ele>
        <time>2017-02-28T13:45:51Z</time>
      </trkpt>
      <trkpt lat="44.38474" lon="3.49519">
        <ele>1015</ele>
        <time>2017-02-28T13:47:51Z</time>
      </trkpt>
      <trkpt lat="44.38449" lon="3.49532">
        <ele>1014</ele>
        <time>2017-02-28T13:49:51Z</time>
      </trkpt>
      <trkpt lat="44.38424" lon="3.49541">
        <ele>1013</ele>
        <time>2017-02-28T13:51:51Z</time>
      </trkpt>
      <trkpt lat="44.38403" lon="3.49547">
        <ele>1011</ele>
        <time>2017-02-28T13:53:51Z</time>
      </trkpt>
      <trkpt lat="44.38377" lon="3.4955">
        <ele>1009</ele>
        <time>2017-02-28T13:55:51Z</time>
      </trkpt>
      <trkpt lat="44.38362" lon="3.49556">
        <ele>1008</ele>
        <time>2017-02-28T13:57:51Z</time>
      </trkpt>
      <trkpt lat="44.38351" lon="3.49565">
        <ele>1007</ele>
        <time>2017-02-28T13:59:51Z</time>
      </trkpt>
      <trkpt lat="44.38349" lon="3.49566">
        <ele>1007</ele>
        <time>2017-02-28T14:01:51Z</time>
      </trkpt>
      <trkpt lat="44.38343" lon="3.4957">
        <ele>1007</ele>
        <time>2017-02-28T14:03:51Z</time>
      </trkpt>
      <trkpt lat="44.38343" lon="3.4957">
        <ele>1007</ele>
        <time>2017-02-28T14:05:51Z</time>
      </trkpt>
      <trkpt lat="44.38335" lon="3.49572">
        <ele>1006</ele>
        <time>2017-02-28T14:07:51Z</time>
      </trkpt>
      <trkpt lat="44.3833" lon="3.49573">
        <ele>1006</ele>
        <time>2017-02-28T14:09:51Z</time>
      </trkpt>
      <trkpt lat="44.38324" lon="3.49572">
        <ele>1006</ele>
        <time>2017-02-28T14:11:51Z</time>
      </trkpt>
      <trkpt lat="44.3832" lon="3.49572">
        <ele>1006</ele>
        <time>2017-02-28T14:13:51Z</time>
      </trkpt>
      <trkpt lat="44.38315" lon="3.49572">
        <ele>1005</ele>
        <time>2017-02-28T14:15:51Z</time>
      </trkpt>
      <trkpt lat="44.38306" lon="3.4957">
        <ele>1005</ele>
        <time>2017-02-28T14:17:51Z</time>
      </trkpt>
      <trkpt lat="44.3829" lon="3.49566">
        <ele>1004</ele>
        <time>2017-02-28T14:19:51Z</time>
      </trkpt>
      <trkpt lat="44.38268" lon="3.49561">
        <ele>1003</ele>
        <time>2017-02-28T14:21:51Z</time>
      </trkpt>
      <trkpt lat="44.38262" lon="3.4956">
        <ele>1003</ele>
        <time>2017-02-28T14:23:51Z</time>
      </trkpt>
      <trkpt lat="44.38236" lon="3.49557">
        <ele>1001</ele>
        <time>2017-02-28T14:25:51Z</time>
      </trkpt>
      <trkpt lat="44.38219" lon="3.49551">
        <ele>1000</ele>
        <time>2017-02-28T14:27:51Z</time>
      </trkpt>
      <trkpt lat="44.38203" lon="3.49544">
        <ele>998</ele>
        <time>2017-02-28T14:29:51Z</time>
      </trkpt>
      <trkpt lat="44.3817" lon="3.49534">
        <ele>995</ele>
        <time>2017-02-28T14:31:51Z</time>
      </trkpt>
      <trkpt lat="44.38138" lon="3.49526">
        <ele>992</ele>
        <time>2017-02-28T14:33:51Z</time>
      </trkpt>
      <trkpt lat="44.38128" lon="3.4952">
        <ele>991</ele>
        <time>2017-02-28T14:35:51Z</time>
      </trkpt>
      <trkpt lat="44.38118" lon="3.49509">
        <ele>990</ele>
        <time>2017-02-28T14:37:51Z</time>
      </trkpt>
      <trkpt lat="44.38111" lon="3.49499">
        <ele>989</ele>
        <time>2017-02-28T14:39:51Z</time>
      </trkpt>
      <trkpt lat="44.38094" lon="3.49474">
        <ele>986</ele>
        <time>2017-02-28T14:41:51Z</time>
      </trkpt>
      <trkpt lat="44.38074" lon="3.49439">
        <ele>982</ele>
        <time>2017-02-28T14:43:51Z</time>
      </trkpt>
      <trkpt lat="44.38067" lon="3.49429">
        <ele>981</ele>
        <time>2017-02-28T14:45:51Z</time>
      </trkpt>
      <trkpt lat="44.38052" lon="3.49418">
        <ele>979</ele>
        <time>2017-02-28T14:47:51Z</time>
      </trkpt>
      <trkpt lat="44.38037" lon="3.49411">
        <ele>978</ele>
        <time>2017-02-28T14:49:51Z</time>
      </trkpt>
      <trkpt lat="44.38023" lon="3.49408">
        <ele>977</ele>
        <time>2017-02-28T14:51:51Z</time>
      </trkpt>
      <trkpt lat="44.38023" lon="3.49408">
        <ele>977</ele>
        <time>2017-02-28T14:53:51Z</time>
      </trkpt>
      <trkpt lat="44.38001" lon="3.49409">
        <ele>976</ele>
        <time>2017-02-28T14:55:51Z</time>
      </trkpt>
      <trkpt lat="44.37985" lon="3.49409">
        <ele>975</ele>
        <time>2017-02-28T14:57:51Z</time>
      </trkpt>
      <trkpt lat="44.37971" lon="3.49407">
        <ele>974</ele>
        <time>2017-02-28T14:59:51Z</time>
      </trkpt>
      <trkpt lat="44.37953" lon="3.49403">
        <ele>973</ele>
        <time>2017-02-28T15:01:51Z</time>
      </trkpt>
      <trkpt lat="44.3794" lon="3.49404">
        <ele>972</ele>
        <time>2017-02-28T15:03:51Z</time>
      </trkpt>
      <trkpt lat="44.37912" lon="3.49411">
        <ele>970</ele>
        <time>2017-02-28T15:05:51Z</time>
      </trkpt>
      <trkpt lat="44.37888" lon="3.49416">
        <ele>969</ele>
        <time>2017-02-28T15:07:51Z</time>
      </trkpt>
      <trkpt lat="44.37864" lon="3.49416">
        <ele>967</ele>
        <time>2017-02-28T15:09:51Z</time>
      </trkpt>
      <trkpt lat="44.37838" lon="3.49416">
        <ele>964</ele>
        <time>2017-02-28T15:11:51Z</time>
      </trkpt>
      <trkpt lat="44.37813" lon="3.49421">
        <ele>963</ele>
        <time>2017-02-28T15:13:51Z</time>
      </trkpt>
      <trkpt lat="44.37799" lon="3.49423">
        <ele>962</ele>
        <time>2017-02-28T15:15:51Z</time>
      </trkpt>
      <trkpt lat="44.37779" lon="3.49422">
        <ele>961</ele>
        <time>2017-02-28T15:17:51Z</time>
      </trkpt>
      <trkpt lat="44.37765" lon="3.49423">
        <ele>960</ele>
        <time>2017-02-28T15:19:51Z</time>
      </trkpt>
      <trkpt lat="44.37731" lon="3.49436">
        <ele>958</ele>
        <time>2017-02-28T15:21:51Z</time>
      </trkpt>
      <trkpt lat="44.37712" lon="3.49447">
        <ele>958</ele>
        <time>2017-02-28T15:23:51Z</time>
      </trkpt>
      <trkpt lat="44.37702" lon="3.49458">
        <ele>957</ele>
        <time>2017-02-28T15:25:51Z</time>
      </trkpt>
      <trkpt lat="44.37697" lon="3.4947">
        <ele>957</ele>
        <time>2017-02-28T15:27:51Z</time>
      </trkpt>
      <trkpt lat="44.37691" lon="3.4949">
        <ele>957</ele>
        <time>2017-02-28T15:29:51Z</time>
      </trkpt>
      <trkpt lat="44.37685" lon="3.49499">
        <ele>957</ele>
        <time>2017-02-28T15:31:51Z</time>
      </trkpt>
      <trkpt lat="44.37672" lon="3.49509">
        <ele>957</ele>
        <time>2017-02-28T15:33:51Z</time>
      </trkpt>
      <trkpt lat="44.37656" lon="3.49525">
        <ele>957</ele>
        <time>2017-02-28T15:35:51Z</time>
      </trkpt>
      <trkpt lat="44.37646" lon="3.49537">
        <ele>957</ele>
        <time>2017-02-28T15:37:51Z</time>
      </trkpt>
      <trkpt lat="44.37636" lon="3.49555">
        <ele>957</ele>
        <time>2017-02-28T15:39:51Z</time>
      </trkpt>
      <trkpt lat="44.3763" lon="3.49567">
        <ele>958</ele>
        <time>2017-02-28T15:41:51Z</time>
      </trkpt>
      <trkpt lat="44.37624" lon="3.49573">
        <ele>958</ele>
        <time>2017-02-28T15:43:51Z</time>
      </trkpt>
      <trkpt lat="44.376" lon="3.49588">
        <ele>958</ele>
        <time>2017-02-28T15:45:51Z</time>
      </trkpt>
      <trkpt lat="44.3758" lon="3.49601">
        <ele>958</ele>
        <time>2017-02-28T15:47:51Z</time>
      </trkpt>
      <trkpt lat="44.37568" lon="3.49611">
        <ele>957</ele>
        <time>2017-02-28T15:49:51Z</time>
      </trkpt>
      <trkpt lat="44.37552" lon="3.49624">
        <ele>957</ele>
        <time>2017-02-28T15:51:51Z</time>
      </trkpt>
      <trkpt lat="44.37539" lon="3.49633">
        <ele>957</ele>
        <time>2017-02-28T15:53:51Z</time>
      </trkpt>
      <trkpt lat="44.37525" lon="3.4964">
        <ele>956</ele>
        <time>2017-02-28T15:55:51Z</time>
      </trkpt>
      <trkpt lat="44.37515" lon="3.49648">
        <ele>956</ele>
        <time>2017-02-28T15:57:51Z</time>
      </trkpt>
      <trkpt lat="44.37505" lon="3.49656">
        <ele>955</ele>
        <time>2017-02-28T15:59:51Z</time>
      </trkpt>
      <trkpt lat="44.37495" lon="3.4966">
        <ele>955</ele>
        <time>2017-02-28T16:01:51Z</time>
      </trkpt>
      <trkpt lat="44.3748" lon="3.49661">
        <ele>954</ele>
        <time>2017-02-28T16:03:51Z</time>
      </trkpt>
      <trkpt lat="44.37462" lon="3.4966">
        <ele>953</ele>
        <time>2017-02-28T16:05:51Z</time>
      </trkpt>
      <trkpt lat="44.37442" lon="3.49663">
        <ele>952</ele>
        <time>2017-02-28T16:07:51Z</time>
      </trkpt>
      <trkpt lat="44.37423" lon="3.49671">
        <ele>951</ele>
        <time>2017-02-28T16:09:51Z</time>
      </trkpt>
      <trkpt lat="44.37399" lon="3.49686">
        <ele>950</ele>
        <time>2017-02-28T16:11:51Z</time>
      </trkpt>
      <trkpt lat="44.37361" lon="3.49705">
        <ele>949</ele>
        <time>2017-02-28T16:13:51Z</time>
      </trkpt>
      <trkpt lat="44.37324" lon="3.49721">
        <ele>949</ele>
        <time>2017-02-28T16:15:51Z</time>
      </trkpt>
      <trkpt lat="44.37295" lon="3.49733">
        <ele>950</ele>
        <time>2017-02-28T16:17:51Z</time>
      </trkpt>
      <trkpt lat="44.37286" lon="3.49737">
        <ele>950</ele>
        <time>2017-02-28T16:19:51Z</time>
      </trkpt>
      <trkpt lat="44.37257" lon="3.49746">
        <ele>951</ele>
        <time>2017-02-28T16:21:51Z</time>
      </trkpt>
      <trkpt lat="44.37225" lon="3.49754">
        <ele>951</ele>
        <time>2017-02-28T16:23:51Z</time>
      </trkpt>
      <trkpt lat="44.37195" lon="3.49764">
        <ele>951</ele>
        <time>2017-02-28T16:25:51Z</time>
      </trkpt>
      <trkpt lat="44.37177" lon="3.49772">
        <ele>951</ele>
        <time>2017-02-28T16:27:51Z</time>
      </trkpt>
      <trkpt lat="44.37165" lon="3.49781">
        <ele>951</ele>
        <time>2017-02-28T16:29:51Z</time>
      </trkpt>
      <trkpt lat="44.37132" lon="3.49812">
        <ele>953</ele>
        <time>2017-02-28T16:31:51Z</time>
      </trkpt>
      <trkpt lat="44.37104" lon="3.49833">
        <ele>955</ele>
        <time>2017-02-28T16:33:51Z</time>
      </trkpt>
      <trkpt lat="44.37085" lon="3.49848">
        <ele>955</ele>
        <time>2017-02-28T16:35:51Z</time>
      </trkpt>
      <trkpt lat="44.37079" lon="3.4985">
        <ele>956</ele>
        <time>2017-02-28T16:37:51Z</time>
      </trkpt>
      <trkpt lat="44.37066" lon="3.49854">
        <ele>957</ele>
        <time>2017-02-28T16:39:51Z</time>
      </trkpt>
      <trkpt lat="44.37018" lon="3.49855">
        <ele>960</ele>
        <time>2017-02-28T16:41:51Z</time>
      </trkpt>
      <trkpt lat="44.36996" lon="3.49855">
        <ele>961</ele>
        <time>2017-02-28T16:43:51Z</time>
      </trkpt>
      <trkpt lat="44.3697" lon="3.49859">
        <ele>963</ele>
        <time>2017-02-28T16:45:51Z</time>
      </trkpt>
      <trkpt lat="44.36952" lon="3.49859">
        <ele>964</ele>
        <time>2017-02-28T16:47:51Z</time>
      </trkpt>
      <trkpt lat="44.36926" lon="3.49856">
        <ele>965</ele>
        <time>2017-02-28T16:49:51Z</time>
      </trkpt>
      <trkpt lat="44.36893" lon="3.49854">
        <ele>966</ele>
        <time>2017-02-28T16:51:51Z</time>
      </trkpt>
      <trkpt lat="44.36871" lon="3.49856">
        <ele>967</ele>
        <time>2017-02-28T16:53:51Z</time>
      </trkpt>
      <trkpt lat="44.36846" lon="3.4986">
        <ele>967</ele>
        <time>2017-02-28T16:55:51Z</time>
      </trkpt>
      <trkpt lat="44.36824" lon="3.49862">
        <ele>967</ele>
        <time>2017-02-28T16:57:51Z</time>
      </trkpt>
      <trkpt lat="44.3681" lon="3.4986">
        <ele>968</ele>
        <time>2017-02-28T16:59:51Z</time>
      </trkpt>
      <trkpt lat="44.36763" lon="3.49852">
        <ele>972</ele>
        <time>2017-02-28T17:01:51Z</time>
      </trkpt>
      <trkpt lat="44.36721" lon="3.49845">
        <ele>975</ele>
        <time>2017-02-28T17:03:51Z</time>
      </trkpt>
      <trkpt lat="44.36706" lon="3.49842">
        <ele>976</ele>
        <time>2017-02-28T17:05:51Z</time>
      </trkpt>
      <trkpt lat="44.36694" lon="3.49838">
        <ele>977</ele>
        <time>2017-02-28T17:07:51Z</time>
      </trkpt>
      <trkpt lat="44.36669" lon="3.49822">
        <ele>979</ele>
        <time>2017-02-28T17:09:51Z</time>
      </trkpt>
      <trkpt lat="44.36651" lon="3.4981">
        <ele>980</ele>
        <time>2017-02-28T17:11:51Z</time>
      </trkpt>
      <trkpt lat="44.3664" lon="3.49803">
        <ele>980</ele>
        <time>2017-02-28T17:13:51Z</time>
      </trkpt>
      <trkpt lat="44.36625" lon="3.49795">
        <ele>981</ele>
        <time>2017-02-28T17:15:51Z</time>
      </trkpt>
      <trkpt lat="44.36614" lon="3.49794">
        <ele>981</ele>
        <time>2017-02-28T17:17:51Z</time>
      </trkpt>
      <trkpt lat="44.36605" lon="3.49795">
        <ele>981</ele>
        <time>2017-02-28T17:19:51Z</time>
      </trkpt>
      <trkpt lat="44.36594" lon="3.49801">
        <ele>981</ele>
        <time>2017-02-28T17:21:51Z</time>
      </trkpt>
      <trkpt lat="44.36577" lon="3.49816">
        <ele>980</ele>
        <time>2017-02-28T17:23:51Z</time>
      </trkpt>
      <trkpt lat="44.3655" lon="3.49841">
        <ele>978</ele>
        <time>2017-02-28T17:25:51Z</time>
      </trkpt>
      <trkpt lat="44.36523" lon="3.49861">
        <ele>975</ele>
        <time>2017-02-28T17:27:51Z</time>
      </trkpt>
      <trkpt lat="44.36509" lon="3.49868">
        <ele>974</ele>
        <time>2017-02-28T17:29:51Z</time>
      </trkpt>
      <trkpt lat="44.36498" lon="3.49871">
        <ele>974</ele>
        <time>2017-02-28T17:31:51Z</time>
      </trkpt>
      <trkpt lat="44.36485" lon="3.4987">
        <ele>974</ele>
        <time>2017-02-28T17:33:51Z</time>
      </trkpt>
      <trkpt lat="44.36472" lon="3.49866">
        <ele>973</ele>
        <time>2017-02-28T17:35:51Z</time>
      </trkpt>
      <trkpt lat="44.36435" lon="3.49854">
        <ele>973</ele>
        <time>2017-02-28T17:37:51Z</time>
      </trkpt>
      <trkpt lat="44.36414" lon="3.49848">
        <ele>973</ele>
        <time>2017-02-28T17:39:51Z</time>
      </trkpt>
      <trkpt lat="44.36409" lon="3.49847">
        <ele>974</ele>
        <time>2017-02-28T17:41:51Z</time>
      </trkpt>
      <trkpt lat="44.36403" lon="3.49849">
        <ele>974</ele>
        <time>2017-02-28T17:43:51Z</time>
      </trkpt>
      <trkpt lat="44.364" lon="3.49852">
        <ele>974</ele>
        <time>2017-02-28T17:45:51Z</time>
      </trkpt>
      <trkpt lat="44.364" lon="3.49852">
        <ele>974</ele>
        <time>2017-02-28T17:47:51Z</time>
      </trkpt>
      <trkpt lat="44.36399" lon="3.49855">
        <ele>974</ele>
        <time>2017-02-28T17:49:51Z</time>
      </trkpt>
      <trkpt lat="44.36391" lon="3.49874">
        <ele>973</ele>
        <time>2017-02-28T17:51:51Z</time>
      </trkpt>
      <trkpt lat="44.36382" lon="3.49887">
        <ele>972</ele>
        <time>2017-02-28T17:53:51Z</time>
      </trkpt>
      <trkpt lat="44.36367" lon="3.49905">
        <ele>971</ele>
        <time>2017-02-28T17:55:51Z</time>
      </trkpt>
      <trkpt lat="44.36348" lon="3.49927">
        <ele>968</ele>
        <time>2017-02-28T17:57:51Z</time>
      </trkpt>
      <trkpt lat="44.36338" lon="3.49939">
        <ele>967</ele>
        <time>2017-02-28T17:59:51Z</time>
      </trkpt>
      <trkpt lat="44.36328" lon="3.49955">
        <ele>964</ele>
        <time>2017-02-28T18:01:51Z</time>
      </trkpt>
      <trkpt lat="44.36315" lon="3.49975">
        <ele>961</ele>
        <time>2017-02-28T18:03:51Z</time>
      </trkpt>
      <trkpt lat="44.36305" lon="3.49988">
        <ele>959</ele>
        <time>2017-02-28T18:05:51Z</time>
      </trkpt>
      <trkpt lat="44.3629" lon="3.50004">
        <ele>957</ele>
        <time>2017-02-28T18:07:51Z</time>
      </trkpt>
      <trkpt lat="44.36268" lon="3.50029">
        <ele>954</ele>
        <time>2017-02-28T18:09:51Z</time>
      </trkpt>
      <trkpt lat="44.36248" lon="3.50052">
        <ele>952</ele>
        <time>2017-02-28T18:11:51Z</time>
      </trkpt>
      <trkpt lat="44.36239" lon="3.50065">
        <ele>952</ele>
        <time>2017-02-28T18:13:51Z</time>
      </trkpt>
      <trkpt lat="44.36236" lon="3.50076">
        <ele>952</ele>
        <time>2017-02-28T18:15:51Z</time>
      </trkpt>
      <trkpt lat="44.36234" lon="3.5009">
        <ele>951</ele>
        <time>2017-02-28T18:17:51Z</time>
      </trkpt>
      <trkpt lat="44.36233" lon="3.50108">
        <ele>950</ele>
        <time>2017-02-28T18:19:51Z</time>
      </trkpt>
      <trkpt lat="44.36233" lon="3.50137">
        <ele>948</ele>
        <time>2017-02-28T18:21:51Z</time>
      </trkpt>
      <trkpt lat="44.36232" lon="3.5016">
        <ele>947</ele>
        <time>2017-02-28T18:23:51Z</time>
      </trkpt>
      <trkpt lat="44.3623" lon="3.50182">
        <ele>946</ele>
        <time>2017-02-28T18:25:51Z</time>
      </trkpt>
      <trkpt lat="44.36222" lon="3.50221">
        <ele>945</ele>
        <time>2017-02-28T18:27:51Z</time>
      </trkpt>
      <trkpt lat="44.36215" lon="3.50252">
        <ele>945</ele>
        <time>2017-02-28T18:29:51Z</time>
      </trkpt>
      <trkpt lat="44.36207" lon="3.50285">
        <ele>943</ele>
        <time>2017-02-28T18:31:51Z</time>
      </trkpt>
      <trkpt lat="44.36199" lon="3.50326">
        <ele>941</ele>
        <time>2017-02-28T18:33:51Z</time>
      </trkpt>
      <trkpt lat="44.36192" lon="3.50358">
        <ele>940</ele>
        <time>2017-02-28T18:35:51Z</time>
      </trkpt>
      <trkpt lat="44.36184" lon="3.50394">
        <ele>938</ele>
        <time>2017-02-28T18:37:51Z</time>
      </trkpt>
      <trkpt lat="44.36178" lon="3.50427">
        <ele>935</ele>
        <time>2017-02-28T18:39:51Z</time>
      </trkpt>
      <trkpt lat="44.36172" lon="3.50445">
        <ele>933</ele>
        <time>2017-02-28T18:41:51Z</time>
      </trkpt>
      <trkpt lat="44.36168" lon="3.50458">
        <ele>931</ele>
        <time>2017-02-28T18:43:51Z</time>
      </trkpt>
      <trkpt lat="44.36164" lon="3.50469">
        <ele>930</ele>
        <time>2017-02-28T18:45:51Z</time>
      </trkpt>
      <trkpt lat="44.36162" lon="3.50482">
        <ele>928</ele>
        <time>2017-02-28T18:47:51Z</time>
      </trkpt>
      <trkpt lat="44.36159" lon="3.5049">
        <ele>927</ele>
        <time>2017-02-28T18:49:51Z</time>
      </trkpt>
      <trkpt lat="44.36159" lon="3.5049">
        <ele>927</ele>
        <time>2017-02-28T18:51:51Z</time>
      </trkpt>
      <trkpt lat="44.36156" lon="3.50493">
        <ele>927</ele>
        <time>2017-02-28T18:53:51Z</time>
      </trkpt>
      <trkpt lat="44.36143" lon="3.50502">
        <ele>926</ele>
        <time>2017-02-28T18:55:51Z</time>
      </trkpt>
      <trkpt lat="44.36136" lon="3.50507">
        <ele>926</ele>
        <time>2017-02-28T18:57:51Z</time>
      </trkpt>
      <trkpt lat="44.36132" lon="3.50511">
        <ele>926</ele>
        <time>2017-02-28T18:59:51Z</time>
      </trkpt>
      <trkpt lat="44.36132" lon="3.50511">
        <ele>926</ele>
        <time>2017-02-28T19:01:51Z</time>
      </trkpt>
      <trkpt lat="44.36126" lon="3.50504">
        <ele>926</ele>
        <time>2017-02-28T19:03:51Z</time>
      </trkpt>
      <trkpt lat="44.36123" lon="3.50503">
        <ele>926</ele>
        <time>2017-02-28T19:05:51Z</time>
      </trkpt>
      <trkpt lat="44.36112" lon="3.50496">
        <ele>927</ele>
        <time>2017-02-28T19:07:51Z</time>
      </trkpt>
      <trkpt lat="44.3608" lon="3.50481">
        <ele>929</ele>
        <time>2017-02-28T19:09:51Z</time>
      </trkpt>
      <trkpt lat="44.36069" lon="3.50475">
        <ele>929</ele>
        <time>2017-02-28T19:11:51Z</time>
      </trkpt>
      <trkpt lat="44.36069" lon="3.50475">
        <ele>929</ele>
        <time>2017-02-28T19:13:51Z</time>
      </trkpt>
      <trkpt lat="44.36063" lon="3.50479">
        <ele>929</ele>
        <time>2017-02-28T19:15:51Z</time>
      </trkpt>
      <trkpt lat="44.36055" lon="3.50484">
        <ele>928</ele>
        <time>2017-02-28T19:17:51Z</time>
      </trkpt>
      <trkpt lat="44.36049" lon="3.50488">
        <ele>928</ele>
        <time>2017-02-28T19:19:51Z</time>
      </trkpt>
      <trkpt lat="44.36046" lon="3.50492">
        <ele>927</ele>
        <time>2017-02-28T19:21:51Z</time>
      </trkpt>
      <trkpt lat="44.36043" lon="3.50494">
        <ele>927</ele>
        <time>2017-02-28T19:23:51Z</time>
      </trkpt>
      <trkpt lat="44.36036" lon="3.50493">
        <ele>927</ele>
        <time>2017-02-28T19:25:51Z</time>
      </trkpt>
      <trkpt lat="44.36029" lon="3.50494">
        <ele>927</ele>
        <time>2017-02-28T19:27:51Z</time>
      </trkpt>
      <trkpt lat="44.3602" lon="3.50495">
        <ele>927</ele>
        <time>2017-02-28T19:29:51Z</time>
      </trkpt>
      <trkpt lat="44.36008" lon="3.50496">
        <ele>926</ele>
        <time>2017-02-28T19:31:51Z</time>
      </trkpt>
      <trkpt lat="44.36" lon="3.505">
        <ele>926</ele>
        <time>2017-02-28T19:33:51Z</time>
      </trkpt>
      <trkpt lat="44.35986" lon="3.5051">
        <ele>925</ele>
        <time>2017-02-28T19:35:51Z</time>
      </trkpt>
      <trkpt lat="44.35966" lon="3.50523">
        <ele>924</ele>
        <time>2017-02-28T19:37:51Z</time>
      </trkpt>
      <trkpt lat="44.35943" lon="3.50536">
        <ele>923</ele>
        <time>2017-02-28T19:39:51Z</time>
      </trkpt>
      <trkpt lat="44.35934" lon="3.5054">
        <ele>922</ele>
        <time>2017-02-28T19:41:51Z</time>
      </trkpt>
      <trkpt lat="44.35926" lon="3.50541">
        <ele>922</ele>
        <time>2017-02-28T19:43:51Z</time>
      </trkpt>
      <trkpt lat="44.35918" lon="3.5054">
        <ele>922</ele>
        <time>2017-02-28T19:45:51Z</time>
      </trkpt>
      <trkpt lat="44.35912" lon="3.50543">
        <ele>922</ele>
        <time>2017-02-28T19:47:51Z</time>
      </trkpt>
      <trkpt lat="44.35903" lon="3.50553">
        <ele>922</ele>
        <time>2017-02-28T19:49:51Z</time>
      </trkpt>
      <trkpt lat="44.35889" lon="3.50566">
        <ele>921</ele>
        <time>2017-02-28T19:51:51Z</time>
      </trkpt>
      <trkpt lat="44.35878" lon="3.50574">
        <ele>921</ele>
        <time>2017-02-28T19:53:51Z</time>
      </trkpt>
      <trkpt lat="44.3587" lon="3.50584">
        <ele>920</ele>
        <time>2017-02-28T19:55:51Z</time>
      </trkpt>
      <trkpt lat="44.35856" lon="3.50595">
        <ele>920</ele>
        <time>2017-02-28T19:57:51Z</time>
      </trkpt>
      <trkpt lat="44.35846" lon="3.50604">
        <ele>920</ele>
        <time>2017-02-28T19:59:51Z</time>
      </trkpt>
      <trkpt lat="44.3584" lon="3.50613">
        <ele>920</ele>
        <time>2017-02-28T20:01:51Z</time>
      </trkpt>
      <trkpt lat="44.35834" lon="3.50625">
        <ele>919</ele>
        <time>2017-02-28T20:03:51Z</time>
      </trkpt>
      <trkpt lat="44.35825" lon="3.50638">
        <ele>918</ele>
        <time>2017-02-28T20:05:51Z</time>
      </trkpt>
      <trkpt lat="44.35817" lon="3.50652">
        <ele>917</ele>
        <time>2017-02-28T20:07:51Z</time>
      </trkpt>
      <trkpt lat="44.35809" lon="3.50666">
        <ele>916</ele>
        <time>2017-02-28T20:09:51Z</time>
      </trkpt>
      <trkpt lat="44.35791" lon="3.5069">
        <ele>915</ele>
        <time>2017-02-28T20:11:51Z</time>
      </trkpt>
      <trkpt lat="44.35772" lon="3.5072">
        <ele>913</ele>
        <time>2017-02-28T20:13:51Z</time>
      </trkpt>
      <trkpt lat="44.35759" lon="3.50733">
        <ele>912</ele>
        <time>2017-02-28T20:15:51Z</time>
      </trkpt>
      <trkpt lat="44.35747" lon="3.50746">
        <ele>909</ele>
        <time>2017-02-28T20:17:51Z</time>
      </trkpt>
      <trkpt lat="44.35736" lon="3.50755">
        <ele>905</ele>
        <time>2017-02-28T20:19:51Z</time>
      </trkpt>
      <trkpt lat="44.35728" lon="3.50756">
        <ele>903</ele>
        <time>2017-02-28T20:21:51Z</time>
      </trkpt>
      <trkpt lat="44.35725" lon="3.50757">
        <ele>901</ele>
        <time>2017-02-28T20:23:51Z</time>
      </trkpt>
      <trkpt lat="44.35722" lon="3.50757">
        <ele>901</ele>
        <time>2017-02-28T20:25:51Z</time>
      </trkpt>
      <trkpt lat="44.35722" lon="3.5076">
        <ele>900</ele>
        <time>2017-02-28T20:27:51Z</time>
      </trkpt>
      <trkpt lat="44.35724" lon="3.50764">
        <ele>900</ele>
        <time>2017-02-28T20:29:51Z</time>
      </trkpt>
      <trkpt lat="44.35732" lon="3.50779">
        <ele>900</ele>
        <time>2017-02-28T20:31:51Z</time>
      </trkpt>
      <trkpt lat="44.35735" lon="3.50787">
        <ele>899</ele>
        <time>2017-02-28T20:33:51Z</time>
      </trkpt>
      <trkpt lat="44.35738" lon="3.50804">
        <ele>898</ele>
        <time>2017-02-28T20:35:51Z</time>
      </trkpt>
      <trkpt lat="44.35739" lon="3.50809">
        <ele>897</ele>
        <time>2017-02-28T20:37:51Z</time>
      </trkpt>
      <trkpt lat="44.35738" lon="3.50811">
        <ele>897</ele>
        <time>2017-02-28T20:39:51Z</time>
      </trkpt>
      <trkpt lat="44.35736" lon="3.5081">
        <ele>896</ele>
        <time>2017-02-28T20:41:51Z</time>
      </trkpt>
      <trkpt lat="44.35732" lon="3.50803">
        <ele>895</ele>
        <time>2017-02-28T20:43:51Z</time>
      </trkpt>
      <trkpt lat="44.3573" lon="3.50801">
        <ele>895</ele>
        <time>2017-02-28T20:45:51Z</time>
      </trkpt>
      <trkpt lat="44.35726" lon="3.50796">
        <ele>894</ele>
        <time>2017-02-28T20:47:51Z</time>
      </trkpt>
      <trkpt lat="44.35725" lon="3.50795">
        <ele>894</ele>
        <time>2017-02-28T20:49:51Z</time>
      </trkpt>
      <trkpt lat="44.35724" lon="3.50796">
        <ele>893</ele>
        <time>2017-02-28T20:51:51Z</time>
      </trkpt>
      <trkpt lat="44.35724" lon="3.50799">
        <ele>893</ele>
        <time>2017-02-28T20:53:51Z</time>
      </trkpt>
      <trkpt lat="44.35729" lon="3.50824">
        <ele>890</ele>
        <time>2017-02-28T20:55:51Z</time>
      </trkpt>
      <trkpt lat="44.35733" lon="3.50844">
        <ele>888</ele>
        <time>2017-02-28T20:57:51Z</time>
      </trkpt>
      <trkpt lat="44.35734" lon="3.50857">
        <ele>886</ele>
        <time>2017-02-28T20:59:51Z</time>
      </trkpt>
      <trkpt lat="44.35737" lon="3.50882">
        <ele>882</ele>
        <time>2017-02-28T21:01:51Z</time>
      </trkpt>
      <trkpt lat="44.3574" lon="3.509">
        <ele>880</ele>
        <time>2017-02-28T21:03:51Z</time>
      </trkpt>
      <trkpt lat="44.35744" lon="3.50912">
        <ele>880</ele>
        <time>2017-02-28T21:05:51Z</time>
      </trkpt>
      <trkpt lat="44.35746" lon="3.50921">
        <ele>879</ele>
        <time>2017-02-28T21:07:51Z</time>
      </trkpt>
      <trkpt lat="44.35746" lon="3.5094">
        <ele>878</ele>
        <time>2017-02-28T21:09:51Z</time>
      </trkpt>
      <trkpt lat="44.35746" lon="3.50966">
        <ele>875</ele>
        <time>2017-02-28T21:11:51Z</time>
      </trkpt>
      <trkpt lat="44.35744" lon="3.50992">
        <ele>872</ele>
        <time>2017-02-28T21:13:51Z</time>
      </trkpt>
      <trkpt lat="44.35742" lon="3.51003">
        <ele>870</ele>
        <time>2017-02-28T21:15:51Z</time>
      </trkpt>
      <trkpt lat="44.35739" lon="3.51012">
        <ele>867</ele>
        <time>2017-02-28T21:17:51Z</time>
      </trkpt>
      <trkpt lat="44.35736" lon="3.51019">
        <ele>865</ele>
        <time>2017-02-28T21:19:51Z</time>
      </trkpt>
      <trkpt lat="44.35728" lon="3.51028">
        <ele>860</ele>
        <time>2017-02-28T21:21:51Z</time>
      </trkpt>
      <trkpt lat="44.35711" lon="3.51052">
        <ele>849</ele>
        <time>2017-02-28T21:23:51Z</time>
      </trkpt>
      <trkpt lat="44.35696" lon="3.51089">
        <ele>838</ele>
        <time>2017-02-28T21:25:51Z</time>
      </trkpt>
      <trkpt lat="44.35683" lon="3.51125">
        <ele>828</ele>
        <time>2017-02-28T21:27:51Z</time>
      </trkpt>
      <trkpt lat="44.35679" lon="3.51142">
        <ele>825</ele>
        <time>2017-02-28T21:29:51Z</time>
      </trkpt>
      <trkpt lat="44.35677" lon="3.51158">
        <ele>823</ele>
        <time>2017-02-28T21:31:51Z</time>
      </trkpt>
      <trkpt lat="44.35676" lon="3.51162">
        <ele>823</ele>
        <time>2017-02-28T21:33:51Z</time>
      </trkpt>
      <trkpt lat="44.35675" lon="3.51162">
        <ele>822</ele>
        <time>2017-02-28T21:35:51Z</time>
      </trkpt>
      <trkpt lat="44.35673" lon="3.51161">
        <ele>821</ele>
        <time>2017-02-28T21:37:51Z</time>
      </trkpt>
      <trkpt lat="44.3567" lon="3.51154">
        <ele>820</ele>
        <time>2017-02-28T21:39:51Z</time>
      </trkpt>
      <trkpt lat="44.35668" lon="3.5115">
        <ele>819</ele>
        <time>2017-02-28T21:41:51Z</time>
      </trkpt>
      <trkpt lat="44.35667" lon="3.51145">
        <ele>819</ele>
        <time>2017-02-28T21:43:51Z</time>
      </trkpt>
      <trkpt lat="44.35666" lon="3.51144">
        <ele>818</ele>
        <time>2017-02-28T21:45:51Z</time>
      </trkpt>
      <trkpt lat="44.35665" lon="3.51145">
        <ele>818</ele>
        <time>2017-02-28T21:47:51Z</time>
      </trkpt>
      <trkpt lat="44.35664" lon="3.5115">
        <ele>817</ele>
        <time>2017-02-28T21:49:51Z</time>
      </trkpt>
      <trkpt lat="44.35661" lon="3.51171">
        <ele>814</ele>
        <time>2017-02-28T21:51:51Z</time>
      </trkpt>
      <trkpt lat="44.35658" lon="3.51186">
        <ele>808</ele>
        <time>2017-02-28T21:53:51Z</time>
      </trkpt>
      <trkpt lat="44.35658" lon="3.51191">
        <ele>807</ele>
        <time>2017-02-28T21:55:51Z</time>
      </trkpt>
      <trkpt lat="44.35661" lon="3.51198">
        <ele>806</ele>
        <time>2017-02-28T21:57:51Z</time>
      </trkpt>
      <trkpt lat="44.35665" lon="3.51207">
        <ele>806</ele>
        <time>2017-02-28T21:59:51Z</time>
      </trkpt>
      <trkpt lat="44.35668" lon="3.51214">
        <ele>805</ele>
        <time>2017-02-28T22:01:51Z</time>
      </trkpt>
      <trkpt lat="44.35668" lon="3.51218">
        <ele>804</ele>
        <time>2017-02-28T22:03:51Z</time>
      </trkpt>
      <trkpt lat="44.35666" lon="3.51221">
        <ele>802</ele>
        <time>2017-02-28T22:05:51Z</time>
      </trkpt>
      <trkpt lat="44.35661" lon="3.51221">
        <ele>800</ele>
        <time>2017-02-28T22:07:51Z</time>
      </trkpt>
      <trkpt lat="44.35646" lon="3.51215">
        <ele>795</ele>
        <time>2017-02-28T22:09:51Z</time>
      </trkpt>
      <trkpt lat="44.35638" lon="3.51207">
        <ele>793</ele>
        <time>2017-02-28T22:11:51Z</time>
      </trkpt>
      <trkpt lat="44.35632" lon="3.51197">
        <ele>792</ele>
        <time>2017-02-28T22:13:51Z</time>
      </trkpt>
      <trkpt lat="44.35625" lon="3.5118">
        <ele>792</ele>
        <time>2017-02-28T22:15:51Z</time>
      </trkpt>
      <trkpt lat="44.35623" lon="3.51175">
        <ele>791</ele>
        <time>2017-02-28T22:17:51Z</time>
      </trkpt>
      <trkpt lat="44.35621" lon="3.51175">
        <ele>790</ele>
        <time>2017-02-28T22:19:51Z</time>
      </trkpt>
      <trkpt lat="44.3562" lon="3.51178">
        <ele>789</ele>
        <time>2017-02-28T22:21:51Z</time>
      </trkpt>
      <trkpt lat="44.35618" lon="3.51189">
        <ele>787</ele>
        <time>2017-02-28T22:23:51Z</time>
      </trkpt>
      <trkpt lat="44.35616" lon="3.51209">
        <ele>783</ele>
        <time>2017-02-28T22:25:51Z</time>
      </trkpt>
      <trkpt lat="44.35615" lon="3.51222">
        <ele>781</ele>
        <time>2017-02-28T22:27:51Z</time>
      </trkpt>
      <trkpt lat="44.35616" lon="3.51245">
        <ele>779</ele>
        <time>2017-02-28T22:29:51Z</time>
      </trkpt>
      <trkpt lat="44.35618" lon="3.51262">
        <ele>775</ele>
        <time>2017-02-28T22:31:51Z</time>
      </trkpt>
      <trkpt lat="44.35617" lon="3.51267">
        <ele>773</ele>
        <time>2017-02-28T22:33:51Z</time>
      </trkpt>
      <trkpt lat="44.35616" lon="3.51269">
        <ele>772</ele>
        <time>2017-02-28T22:35:51Z</time>
      </trkpt>
      <trkpt lat="44.35613" lon="3.51268">
        <ele>772</ele>
        <time>2017-02-28T22:37:51Z</time>
      </trkpt>
      <trkpt lat="44.35605" lon="3.51262">
        <ele>771</ele>
        <time>2017-02-28T22:39:51Z</time>
      </trkpt>
      <trkpt lat="44.356" lon="3.51255">
        <ele>772</ele>
        <time>2017-02-28T22:41:51Z</time>
      </trkpt>
      <trkpt lat="44.35595" lon="3.51248">
        <ele>772</ele>
        <time>2017-02-28T22:43:51Z</time>
      </trkpt>
      <trkpt lat="44.35591" lon="3.51238">
        <ele>771</ele>
        <time>2017-02-28T22:45:51Z</time>
      </trkpt>
      <trkpt lat="44.35589" lon="3.51236">
        <ele>770</ele>
        <time>2017-02-28T22:47:51Z</time>
      </trkpt>
      <trkpt lat="44.35586" lon="3.51238">
        <ele>769</ele>
        <time>2017-02-28T22:49:51Z</time>
      </trkpt>
      <trkpt lat="44.35586" lon="3.51245">
        <ele>769</ele>
        <time>2017-02-28T22:51:51Z</time>
      </trkpt>
      <trkpt lat="44.35582" lon="3.51259">
        <ele>765</ele>
        <time>2017-02-28T22:53:51Z</time>
      </trkpt>
      <trkpt lat="44.35579" lon="3.51275">
        <ele>759</ele>
        <time>2017-02-28T22:55:51Z</time>
      </trkpt>
      <trkpt lat="44.35577" lon="3.51299">
        <ele>753</ele>
        <time>2017-02-28T22:57:51Z</time>
      </trkpt>
      <trkpt lat="44.35574" lon="3.5132">
        <ele>747</ele>
        <time>2017-02-28T22:59:51Z</time>
      </trkpt>
      <trkpt lat="44.35571" lon="3.51326">
        <ele>744</ele>
        <time>2017-02-28T23:01:51Z</time>
      </trkpt>
      <trkpt lat="44.35567" lon="3.51328">
        <ele>742</ele>
        <time>2017-02-28T23:03:51Z</time>
      </trkpt>
      <trkpt lat="44.35561" lon="3.51325">
        <ele>741</ele>
        <time>2017-02-28T23:05:51Z</time>
      </trkpt>
      <trkpt lat="44.35556" lon="3.51318">
        <ele>740</ele>
        <time>2017-02-28T23:07:51Z</time>
      </trkpt>
      <trkpt lat="44.3555" lon="3.51301">
        <ele>740</ele>
        <time>2017-02-28T23:09:51Z</time>
      </trkpt>
      <trkpt lat="44.35547" lon="3.51288">
        <ele>741</ele>
        <time>2017-02-28T23:11:51Z</time>
      </trkpt>
      <trkpt lat="44.35544" lon="3.51286">
        <ele>739</ele>
        <time>2017-02-28T23:13:51Z</time>
      </trkpt>
      <trkpt lat="44.35542" lon="3.51288">
        <ele>738</ele>
        <time>2017-02-28T23:15:51Z</time>
      </trkpt>
      <trkpt lat="44.35538" lon="3.51306">
        <ele>734</ele>
        <time>2017-02-28T23:17:51Z</time>
      </trkpt>
      <trkpt lat="44.35536" lon="3.51321">
        <ele>731</ele>
        <time>2017-02-28T23:19:51Z</time>
      </trkpt>
      <trkpt lat="44.35535" lon="3.51333">
        <ele>730</ele>
        <time>2017-02-28T23:21:51Z</time>
      </trkpt>
      <trkpt lat="44.35537" lon="3.51343">
        <ele>728</ele>
        <time>2017-02-28T23:23:51Z</time>
      </trkpt>
      <trkpt lat="44.35544" lon="3.51365">
        <ele>724</ele>
        <time>2017-02-28T23:25:51Z</time>
      </trkpt>
      <trkpt lat="44.3555" lon="3.51378">
        <ele>722</ele>
        <time>2017-02-28T23:27:51Z</time>
      </trkpt>
      <trkpt lat="44.35558" lon="3.51384">
        <ele>721</ele>
        <time>2017-02-28T23:29:51Z</time>
      </trkpt>
      <trkpt lat="44.35574" lon="3.51392">
        <ele>722</ele>
        <time>2017-02-28T23:31:51Z</time>
      </trkpt>
      <trkpt lat="44.35595" lon="3.51403">
        <ele>720</ele>
        <time>2017-02-28T23:33:51Z</time>
      </trkpt>
      <trkpt lat="44.35611" lon="3.5141">
        <ele>718</ele>
        <time>2017-02-28T23:35:51Z</time>
      </trkpt>
      <trkpt lat="44.35632" lon="3.51418">
        <ele>716</ele>
        <time>2017-02-28T23:37:51Z</time>
      </trkpt>
      <trkpt lat="44.35642" lon="3.51422">
        <ele>715</ele>
        <time>2017-02-28T23:39:51Z</time>
      </trkpt>
      <trkpt lat="44.35648" lon="3.51426">
        <ele>713</ele>
        <time>2017-02-28T23:41:51Z</time>
      </trkpt>
      <trkpt lat="44.35658" lon="3.5143">
        <ele>712</ele>
        <time>2017-02-28T23:43:51Z</time>
      </trkpt>
      <trkpt lat="44.35668" lon="3.51435">
        <ele>711</ele>
        <time>2017-02-28T23:45:51Z</time>
      </trkpt>
      <trkpt lat="44.35677" lon="3.51444">
        <ele>709</ele>
        <time>2017-02-28T23:47:51Z</time>
      </trkpt>
      <trkpt lat="44.35684" lon="3.51452">
        <ele>708</ele>
        <time>2017-02-28T23:49:51Z</time>
      </trkpt>
      <trkpt lat="44.35691" lon="3.51462">
        <ele>705</ele>
        <time>2017-02-28T23:51:51Z</time>
      </trkpt>
      <trkpt lat="44.35699" lon="3.51473">
        <ele>702</ele>
        <time>2017-02-28T23:53:51Z</time>
      </trkpt>
      <trkpt lat="44.35708" lon="3.51486">
        <ele>699</ele>
        <time>2017-02-28T23:55:51Z</time>
      </trkpt>
      <trkpt lat="44.3572" lon="3.51501">
        <ele>695</ele>
        <time>2017-02-28T23:57:51Z</time>
      </trkpt>
      <trkpt lat="44.3573" lon="3.51513">
        <ele>692</ele>
        <time>2017-02-28T23:59:51Z</time>
      </trkpt>
      <trkpt lat="44.35739" lon="3.51525">
        <ele>690</ele>
        <time>2017-03-01T00:01:51Z</time>
      </trkpt>
      <trkpt lat="44.35746" lon="3.51533">
        <ele>688</ele>
        <time>2017-03-01T00:03:51Z</time>
      </trkpt>
      <trkpt lat="44.3575" lon="3.51537">
        <ele>687</ele>
        <time>2017-03-01T00:05:51Z</time>
      </trkpt>
      <trkpt lat="44.35755" lon="3.51545">
        <ele>686</ele>
        <time>2017-03-01T00:07:51Z</time>
      </trkpt>
      <trkpt lat="44.35759" lon="3.51551">
        <ele>685</ele>
        <time>2017-03-01T00:09:51Z</time>
      </trkpt>
      <trkpt lat="44.35763" lon="3.51559">
        <ele>683</ele>
        <time>2017-03-01T00:11:51Z</time>
      </trkpt>
      <trkpt lat="44.35768" lon="3.51567">
        <ele>681</ele>
        <time>2017-03-01T00:13:51Z</time>
      </trkpt>
      <trkpt lat="44.35773" lon="3.51573">
        <ele>680</ele>
        <time>2017-03-01T00:15:51Z</time>
      </trkpt>
      <trkpt lat="44.35777" lon="3.51577">
        <ele>680</ele>
        <time>2017-03-01T00:17:51Z</time>
      </trkpt>
      <trkpt lat="44.35781" lon="3.51583">
        <ele>679</ele>
        <time>2017-03-01T00:19:51Z</time>
      </trkpt>
      <trkpt lat="44.35785" lon="3.51588">
        <ele>678</ele>
        <time>2017-03-01T00:21:51Z</time>
      </trkpt>
      <trkpt lat="44.35789" lon="3.51593">
        <ele>678</ele>
        <time>2017-03-01T00:23:51Z</time>
      </trkpt>
      <trkpt lat="44.35794" lon="3.51598">
        <ele>678</ele>
        <time>2017-03-01T00:25:51Z</time>
      </trkpt>
      <trkpt lat="44.35807" lon="3.51615">
        <ele>676</ele>
        <time>2017-03-01T00:27:51Z</time>
      </trkpt>
      <trkpt lat="44.35814" lon="3.51625">
        <ele>675</ele>
        <time>2017-03-01T00:29:51Z</time>
      </trkpt>
      <trkpt lat="44.35824" lon="3.51638">
        <ele>673</ele>
        <time>2017-03-01T00:31:51Z</time>
      </trkpt>
      <trkpt lat="44.3583" lon="3.51645">
        <ele>672</ele>
        <time>2017-03-01T00:33:51Z</time>
      </trkpt>
      <trkpt lat="44.35835" lon="3.51652">
        <ele>671</ele>
        <time>2017-03-01T00:35:51Z</time>
      </trkpt>
      <trkpt lat="44.35841" lon="3.51658">
        <ele>672</ele>
        <time>2017-03-01T00:37:51Z</time>
      </trkpt>
      <trkpt lat="44.35846" lon="3.51664">
        <ele>672</ele>
        <time>2017-03-01T00:39:51Z</time>
      </trkpt>
      <trkpt lat="44.3585" lon="3.51672">
        <ele>672</ele>
        <time>2017-03-01T00:41:51Z</time>
      </trkpt>
      <trkpt lat="44.35855" lon="3.51681">
        <ele>671</ele>
        <time>2017-03-01T00:43:51Z</time>
      </trkpt>
      <trkpt lat="44.35857" lon="3.51686">
        <ele>671</ele>
        <time>2017-03-01T00:45:51Z</time>
      </trkpt>
      <trkpt lat="44.35857" lon="3.51687">
        <ele>670</ele>
        <time>2017-03-01T00:47:51Z</time>
      </trkpt>
      <trkpt lat="44.35856" lon="3.51688">
        <ele>670</ele>
        <time>2017-03-01T00:49:51Z</time>
      </trkpt>
      <trkpt lat="44.35854" lon="3.51687">
        <ele>669</ele>
        <time>2017-03-01T00:51:51Z</time>
      </trkpt>
      <trkpt lat="44.35853" lon="3.51686">
        <ele>669</ele>
        <time>2017-03-01T00:53:51Z</time>
      </trkpt>
      <trkpt lat="44.35851" lon="3.51685">
        <ele>668</ele>
        <time>2017-03-01T00:55:51Z</time>
      </trkpt>
      <trkpt lat="44.35847" lon="3.51684">
        <ele>666</ele>
        <time>2017-03-01T00:57:51Z</time>
      </trkpt>
      <trkpt lat="44.35843" lon="3.51683">
        <ele>665</ele>
        <time>2017-03-01T00:59:51Z</time>
      </trkpt>
      <trkpt lat="44.35841" lon="3.51681">
        <ele>664</ele>
        <time>2017-03-01T01:01:51Z</time>
      </trkpt>
      <trkpt lat="44.35839" lon="3.5168">
        <ele>664</ele>
        <time>2017-03-01T01:03:51Z</time>
      </trkpt>
      <trkpt lat="44.35833" lon="3.5168">
        <ele>661</ele>
        <time>2017-03-01T01:05:51Z</time>
      </trkpt>
      <trkpt lat="44.35831" lon="3.51681">
        <ele>660</ele>
        <time>2017-03-01T01:07:51Z</time>
      </trkpt>
      <trkpt lat="44.35831" lon="3.51682">
        <ele>660</ele>
        <time>2017-03-01T01:09:51Z</time>
      </trkpt>
      <trkpt lat="44.35832" lon="3.51684">
        <ele>659</ele>
        <time>2017-03-01T01:11:51Z</time>
      </trkpt>
      <trkpt lat="44.35834" lon="3.51688">
        <ele>659</ele>
        <time>2017-03-01T01:13:51Z</time>
      </trkpt>
      <trkpt lat="44.35839" lon="3.517">
        <ele>658</ele>
        <time>2017-03-01T01:15:51Z</time>
      </trkpt>
      <trkpt lat="44.35845" lon="3.51713">
        <ele>657</ele>
        <time>2017-03-01T01:17:51Z</time>
      </trkpt>
      <trkpt lat="44.35847" lon="3.51718">
        <ele>656</ele>
        <time>2017-03-01T01:19:51Z</time>
      </trkpt>
      <trkpt lat="44.35848" lon="3.51719">
        <ele>656</ele>
        <time>2017-03-01T01:21:51Z</time>
      </trkpt>
      <trkpt lat="44.35847" lon="3.51723">
        <ele>654</ele>
        <time>2017-03-01T01:23:51Z</time>
      </trkpt>
      <trkpt lat="44.35847" lon="3.51727">
        <ele>653</ele>
        <time>2017-03-01T01:25:51Z</time>
      </trkpt>
      <trkpt lat="44.35848" lon="3.5173">
        <ele>653</ele>
        <time>2017-03-01T01:27:51Z</time>
      </trkpt>
      <trkpt lat="44.35849" lon="3.51732">
        <ele>653</ele>
        <time>2017-03-01T01:29:51Z</time>
      </trkpt>
      <trkpt lat="44.35851" lon="3.51734">
        <ele>653</ele>
        <time>2017-03-01T01:31:51Z</time>
      </trkpt>
      <trkpt lat="44.35851" lon="3.51736">
        <ele>652</ele>
        <time>2017-03-01T01:33:51Z</time>
      </trkpt>
      <trkpt lat="44.35852" lon="3.51743">
        <ele>651</ele>
        <time>2017-03-01T01:35:51Z</time>
      </trkpt>
      <trkpt lat="44.35852" lon="3.51749">
        <ele>649</ele>
        <time>2017-03-01T01:37:51Z</time>
      </trkpt>
      <trkpt lat="44.35853" lon="3.51752">
        <ele>648</ele>
        <time>2017-03-01T01:39:51Z</time>
      </trkpt>
      <trkpt lat="44.35853" lon="3.51757">
        <ele>647</ele>
        <time>2017-03-01T01:41:51Z</time>
      </trkpt>
      <trkpt lat="44.35854" lon="3.51762">
        <ele>646</ele>
        <time>2017-03-01T01:43:51Z</time>
      </trkpt>
      <trkpt lat="44.35855" lon="3.51766">
        <ele>645</ele>
        <time>2017-03-01T01:45:51Z</time>
      </trkpt>
      <trkpt lat="44.35856" lon="3.51768">
        <ele>645</ele>
        <time>2017-03-01T01:47:51Z</time>
      </trkpt>
      <trkpt lat="44.35855" lon="3.51769">
        <ele>644</ele>
        <time>2017-03-01T01:49:51Z</time>
      </trkpt>
      <trkpt lat="44.35854" lon="3.51768">
        <ele>644</ele>
        <time>2017-03-01T01:51:51Z</time>
      </trkpt>
      <trkpt lat="44.35849" lon="3.51761">
        <ele>644</ele>
        <time>2017-03-01T01:53:51Z</time>
      </trkpt>
      <trkpt lat="44.35845" lon="3.51755">
        <ele>644</ele>
        <time>2017-03-01T01:55:51Z</time>
      </trkpt>
      <trkpt lat="44.35839" lon="3.51749">
        <ele>643</ele>
        <time>2017-03-01T01:57:51Z</time>
      </trkpt>
      <trkpt lat="44.35838" lon="3.51748">
        <ele>643</ele>
        <time>2017-03-01T01:59:51Z</time>
      </trkpt>
      <trkpt lat="44.35837" lon="3.51749">
        <ele>642</ele>
        <time>2017-03-01T02:01:51Z</time>
      </trkpt>
      <trkpt lat="44.35837" lon="3.51752">
        <ele>641</ele>
        <time>2017-03-01T02:03:51Z</time>
      </trkpt>
      <trkpt lat="44.35838" lon="3.51758">
        <ele>640</ele>
        <time>2017-03-01T02:05:51Z</time>
      </trkpt>
      <trkpt lat="44.35845" lon="3.51803">
        <ele>630</ele>
        <time>2017-03-01T02:07:51Z</time>
      </trkpt>
      <trkpt lat="44.35847" lon="3.51811">
        <ele>628</ele>
        <time>2017-03-01T02:09:51Z</time>
      </trkpt>
      <trkpt lat="44.35847" lon="3.51814">
        <ele>627</ele>
        <time>2017-03-01T02:11:51Z</time>
      </trkpt>
      <trkpt lat="44.35846" lon="3.51815">
        <ele>626</ele>
        <time>2017-03-01T02:13:51Z</time>
      </trkpt>
      <trkpt lat="44.35844" lon="3.51815">
        <ele>626</ele>
        <time>2017-03-01T02:15:51Z</time>
      </trkpt>
      <trkpt lat="44.35842" lon="3.51813">
        <ele>625</ele>
        <time>2017-03-01T02:17:51Z</time>
      </trkpt>
      <trkpt lat="44.35841" lon="3.51811">
        <ele>626</ele>
        <time>2017-03-01T02:19:51Z</time>
      </trkpt>
      <trkpt lat="44.35839" lon="3.51805">
        <ele>627</ele>
        <time>2017-03-01T02:21:51Z</time>
      </trkpt>
      <trkpt lat="44.35836" lon="3.518">
        <ele>627</ele>
        <time>2017-03-01T02:23:51Z</time>
      </trkpt>
      <trkpt lat="44.35833" lon="3.51793">
        <ele>628</ele>
        <time>2017-03-01T02:25:51Z</time>
      </trkpt>
      <trkpt lat="44.35831" lon="3.5179">
        <ele>628</ele>
        <time>2017-03-01T02:27:51Z</time>
      </trkpt>
      <trkpt lat="44.35828" lon="3.51788">
        <ele>627</ele>
        <time>2017-03-01T02:29:51Z</time>
      </trkpt>
      <trkpt lat="44.35819" lon="3.51784">
        <ele>625</ele>
        <time>2017-03-01T02:31:51Z</time>
      </trkpt>
      <trkpt lat="44.35808" lon="3.5178">
        <ele>623</ele>
        <time>2017-03-01T02:33:51Z</time>
      </trkpt>
      <trkpt lat="44.35802" lon="3.51778">
        <ele>622</ele>
        <time>2017-03-01T02:35:51Z</time>
      </trkpt>
      <trkpt lat="44.35795" lon="3.51778">
        <ele>619</ele>
        <time>2017-03-01T02:37:51Z</time>
      </trkpt>
      <trkpt lat="44.35788" lon="3.5178">
        <ele>616</ele>
        <time>2017-03-01T02:39:51Z</time>
      </trkpt>
      <trkpt lat="44.35777" lon="3.51786">
        <ele>611</ele>
        <time>2017-03-01T02:41:51Z</time>
      </trkpt>
      <trkpt lat="44.35769" lon="3.51792">
        <ele>607</ele>
        <time>2017-03-01T02:43:51Z</time>
      </trkpt>
      <trkpt lat="44.35762" lon="3.51796">
        <ele>603</ele>
        <time>2017-03-01T02:45:51Z</time>
      </trkpt>
      <trkpt lat="44.35756" lon="3.51799">
        <ele>600</ele>
        <time>2017-03-01T02:47:51Z</time>
      </trkpt>
      <trkpt lat="44.35747" lon="3.51805">
        <ele>596</ele>
        <time>2017-03-01T02:49:51Z</time>
      </trkpt>
      <trkpt lat="44.3574" lon="3.51807">
        <ele>593</ele>
        <time>2017-03-01T02:51:51Z</time>
      </trkpt>
      <trkpt lat="44.3573" lon="3.51809">
        <ele>589</ele>
        <time>2017-03-01T02:53:51Z</time>
      </trkpt>
      <trkpt lat="44.35715" lon="3.5181">
        <ele>584</ele>
        <time>2017-03-01T02:55:51Z</time>
      </trkpt>
      <trkpt lat="44.35711" lon="3.5181">
        <ele>583</ele>
        <time>2017-03-01T02:57:51Z</time>
      </trkpt>
      <trkpt lat="44.35706" lon="3.51808">
        <ele>582</ele>
        <time>2017-03-01T02:59:51Z</time>
      </trkpt>
      <trkpt lat="44.35703" lon="3.51807">
        <ele>581</ele>
        <time>2017-03-01T03:01:51Z</time>
      </trkpt>
      <trkpt lat="44.357" lon="3.51805">
        <ele>581</ele>
        <time>2017-03-01T03:03:51Z</time>
      </trkpt>
      <trkpt lat="44.35697" lon="3.51805">
        <ele>580</ele>
        <time>2017-03-01T03:05:51Z</time>
      </trkpt>
      <trkpt lat="44.35696" lon="3.51808">
        <ele>579</ele>
        <time>2017-03-01T03:07:51Z</time>
      </trkpt>
      <trkpt lat="44.35696" lon="3.51814">
        <ele>577</ele>
        <time>2017-03-01T03:09:51Z</time>
      </trkpt>
      <trkpt lat="44.35697" lon="3.51818">
        <ele>576</ele>
        <time>2017-03-01T03:11:51Z</time>
      </trkpt>
      <trkpt lat="44.35697" lon="3.51821">
        <ele>575</ele>
        <time>2017-03-01T03:13:51Z</time>
      </trkpt>
      <trkpt lat="44.35696" lon="3.51823">
        <ele>574</ele>
        <time>2017-03-01T03:15:51Z</time>
      </trkpt>
      <trkpt lat="44.35694" lon="3.51824">
        <ele>574</ele>
        <time>2017-03-01T03:17:51Z</time>
      </trkpt>
      <trkpt lat="44.35685" lon="3.51824">
        <ele>571</ele>
        <time>2017-03-01T03:19:51Z</time>
      </trkpt>
      <trkpt lat="44.35678" lon="3.51823">
        <ele>569</ele>
        <time>2017-03-01T03:21:51Z</time>
      </trkpt>
      <trkpt lat="44.35674" lon="3.51821">
        <ele>568</ele>
        <time>2017-03-01T03:23:51Z</time>
      </trkpt>
      <trkpt lat="44.3567" lon="3.51818">
        <ele>567</ele>
        <time>2017-03-01T03:25:51Z</time>
      </trkpt>
      <trkpt lat="44.35667" lon="3.51814">
        <ele>568</ele>
        <time>2017-03-01T03:27:51Z</time>
      </trkpt>
      <trkpt lat="44.35664" lon="3.51812">
        <ele>567</ele>
        <time>2017-03-01T03:29:51Z</time>
      </trkpt>
      <trkpt lat="44.3566" lon="3.51811">
        <ele>566</ele>
        <time>2017-03-01T03:31:51Z</time>
      </trkpt>
      <trkpt lat="44.35651" lon="3.51809">
        <ele>563</ele>
        <time>2017-03-01T03:33:51Z</time>
      </trkpt>
      <trkpt lat="44.35643" lon="3.51808">
        <ele>561</ele>
        <time>2017-03-01T03:35:51Z</time>
      </trkpt>
      <trkpt lat="44.35638" lon="3.5181">
        <ele>558</ele>
        <time>2017-03-01T03:37:51Z</time>
      </trkpt>
      <trkpt lat="44.35634" lon="3.5181">
        <ele>557</ele>
        <time>2017-03-01T03:39:51Z</time>
      </trkpt>
      <trkpt lat="44.35631" lon="3.5181">
        <ele>556</ele>
        <time>2017-03-01T03:41:51Z</time>
      </trkpt>
      <trkpt lat="44.35628" lon="3.5181">
        <ele>555</ele>
        <time>2017-03-01T03:43:51Z</time>
      </trkpt>
      <trkpt lat="44.35623" lon="3.5181">
        <ele>553</ele>
        <time>2017-03-01T03:45:51Z</time>
      </trkpt>
      <trkpt lat="44.3562" lon="3.5181">
        <ele>552</ele>
        <time>2017-03-01T03:47:51Z</time>
      </trkpt>
      <trkpt lat="44.35618" lon="3.51808">
        <ele>552</ele>
        <time>2017-03-01T03:49:51Z</time>
      </trkpt>
      <trkpt lat="44.35615" lon="3.51809">
        <ele>550</ele>
        <time>2017-03-01T03:51:51Z</time>
      </trkpt>
      <trkpt lat="44.35614" lon="3.51811">
        <ele>549</ele>
        <time>2017-03-01T03:53:51Z</time>
      </trkpt>
      <trkpt lat="44.35615" lon="3.51814">
        <ele>549</ele>
        <time>2017-03-01T03:55:51Z</time>
      </trkpt>
      <trkpt lat="44.35616" lon="3.51818">
        <ele>548</ele>
        <time>2017-03-01T03:57:51Z</time>
      </trkpt>
      <trkpt lat="44.35619" lon="3.51823">
        <ele>547</ele>
        <time>2017-03-01T03:59:51Z</time>
      </trkpt>
      <trkpt lat="44.35622" lon="3.51827">
        <ele>547</ele>
        <time>2017-03-01T04:01:51Z</time>
      </trkpt>
      <trkpt lat="44.35624" lon="3.51831">
        <ele>546</ele>
        <time>2017-03-01T04:03:51Z</time>
      </trkpt>
      <trkpt lat="44.35624" lon="3.51833">
        <ele>546</ele>
        <time>2017-03-01T04:05:51Z</time>
      </trkpt>
      <trkpt lat="44.35623" lon="3.51836">
        <ele>545</ele>
        <time>2017-03-01T04:07:51Z</time>
      </trkpt>
      <trkpt lat="44.3562" lon="3.51836">
        <ele>543</ele>
        <time>2017-03-01T04:09:51Z</time>
      </trkpt>
      <trkpt lat="44.35615" lon="3.51837">
        <ele>541</ele>
        <time>2017-03-01T04:11:51Z</time>
      </trkpt>
      <trkpt lat="44.35604" lon="3.51836">
        <ele>537</ele>
        <time>2017-03-01T04:13:51Z</time>
      </trkpt>
      <trkpt lat="44.35594" lon="3.51836">
        <ele>533</ele>
        <time>2017-03-01T04:15:51Z</time>
      </trkpt>
      <trkpt lat="44.35588" lon="3.51834">
        <ele>532</ele>
        <time>2017-03-01T04:17:51Z</time>
      </trkpt>
      <trkpt lat="44.35582" lon="3.51832">
        <ele>530</ele>
        <time>2017-03-01T04:19:51Z</time>
      </trkpt>
      <trkpt lat="44.35574" lon="3.51831">
        <ele>529</ele>
        <time>2017-03-01T04:21:51Z</time>
      </trkpt>
      <trkpt lat="44.35566" lon="3.51831">
        <ele>526</ele>
        <time>2017-03-01T04:23:51Z</time>
      </trkpt>
      <trkpt lat="44.35561" lon="3.51831">
        <ele>525</ele>
        <time>2017-03-01T04:25:51Z</time>
      </trkpt>
      <trkpt lat="44.35559" lon="3.51834">
        <ele>524</ele>
        <time>2017-03-01T04:27:51Z</time>
      </trkpt>
      <trkpt lat="44.35557" lon="3.51837">
        <ele>523</ele>
        <time>2017-03-01T04:29:51Z</time>
      </trkpt>
      <trkpt lat="44.35554" lon="3.51846">
        <ele>520</ele>
        <time>2017-03-01T04:31:51Z</time>
      </trkpt>
      <trkpt lat="44.35551" lon="3.51853">
        <ele>518</ele>
        <time>2017-03-01T04:33:51Z</time>
      </trkpt>
      <trkpt lat="44.3555" lon="3.51853">
        <ele>518</ele>
        <time>2017-03-01T04:35:51Z</time>
      </trkpt>
      <trkpt lat="44.35545" lon="3.51849">
        <ele>518</ele>
        <time>2017-03-01T04:37:51Z</time>
      </trkpt>
      <trkpt lat="44.35542" lon="3.51846">
        <ele>517</ele>
        <time>2017-03-01T04:39:51Z</time>
      </trkpt>
      <trkpt lat="44.35536" lon="3.51842">
        <ele>517</ele>
        <time>2017-03-01T04:41:51Z</time>
      </trkpt>
      <trkpt lat="44.35535" lon="3.51841">
        <ele>517</ele>
        <time>2017-03-01T04:43:51Z</time>
      </trkpt>
      <trkpt lat="44.35533" lon="3.51841">
        <ele>516</ele>
        <time>2017-03-01T04:45:51Z</time>
      </trkpt>
      <trkpt lat="44.35532" lon="3.51842">
        <ele>516</ele>
        <time>2017-03-01T04:47:51Z</time>
      </trkpt>
      <trkpt lat="44.35528" lon="3.51846">
        <ele>514</ele>
        <time>2017-03-01T04:49:51Z</time>
      </trkpt>
      <trkpt lat="44.35528" lon="3.51846">
        <ele>514</ele>
        <time>2017-03-01T04:51:51Z</time>
      </trkpt>
      <trkpt lat="44.35557" lon="3.51876">
        <ele>515</ele>
        <time>2017-03-01T04:53:51Z</time>
      </trkpt>
      <trkpt lat="44.3557" lon="3.51889">
        <ele>515</ele>
        <time>2017-03-01T04:55:51Z</time>
      </trkpt>
      <trkpt lat="44.35581" lon="3.51902">
        <ele>515</ele>
        <time>2017-03-01T04:57:51Z</time>
      </trkpt>
      <trkpt lat="44.3559" lon="3.5191">
        <ele>516</ele>
        <time>2017-03-01T04:59:51Z</time>
      </trkpt>
      <trkpt lat="44.35608" lon="3.51929">
        <ele>517</ele>
        <time>2017-03-01T05:01:51Z</time>
      </trkpt>
      <trkpt lat="44.35625" lon="3.51948">
        <ele>518</ele>
        <time>2017-03-01T05:03:51Z</time>
      </trkpt>
      <trkpt lat="44.35638" lon="3.5196">
        <ele>519</ele>
        <time>2017-03-01T05:05:51Z</time>
      </trkpt>
      <trkpt lat="44.35653" lon="3.51972">
        <ele>519</ele>
        <time>2017-03-01T05:07:51Z</time>
      </trkpt>
      <trkpt lat="44.35677" lon="3.51988">
        <ele>520</ele>
        <time>2017-03-01T05:09:51Z</time>
      </trkpt>
      <trkpt lat="44.35694" lon="3.52002">
        <ele>521</ele>
        <time>2017-03-01T05:11:51Z</time>
      </trkpt>
      <trkpt lat="44.3571" lon="3.52021">
        <ele>522</ele>
        <time>2017-03-01T05:13:51Z</time>
      </trkpt>
      <trkpt lat="44.35726" lon="3.52043">
        <ele>520</ele>
        <time>2017-03-01T05:15:51Z</time>
      </trkpt>
      <trkpt lat="44.35734" lon="3.52055">
        <ele>518</ele>
        <time>2017-03-01T05:17:51Z</time>
      </trkpt>
      <trkpt lat="44.35738" lon="3.52059">
        <ele>517</ele>
        <time>2017-03-01T05:19:51Z</time>
      </trkpt>
      <trkpt lat="44.35744" lon="3.52064">
        <ele>517</ele>
        <time>2017-03-01T05:21:51Z</time>
      </trkpt>
      <trkpt lat="44.35753" lon="3.52071">
        <ele>516</ele>
        <time>2017-03-01T05:23:51Z</time>
      </trkpt>
      <trkpt lat="44.35776" lon="3.52083">
        <ele>516</ele>
        <time>2017-03-01T05:25:51Z</time>
      </trkpt>
      <trkpt lat="44.35796" lon="3.52094">
        <ele>517</ele>
        <time>2017-03-01T05:27:51Z</time>
      </trkpt>
      <trkpt lat="44.35826" lon="3.52113">
        <ele>517</ele>
        <time>2017-03-01T05:29:51Z</time>
      </trkpt>
      <trkpt lat="44.35842" lon="3.52124">
        <ele>516</ele>
        <time>2017-03-01T05:31:51Z</time>
      </trkpt>
      <trkpt lat="44.35861" lon="3.52134">
        <ele>515</ele>
        <time>2017-03-01T05:33:51Z</time>
      </trkpt>
      <trkpt lat="44.35889" lon="3.52147">
        <ele>514</ele>
        <time>2017-03-01T05:35:51Z</time>
      </trkpt>
      <trkpt lat="44.3591" lon="3.52154">
        <ele>513</ele>
        <time>2017-03-01T05:37:51Z</time>
      </trkpt>
      <trkpt lat="44.35939" lon="3.5216">
        <ele>511</ele>
        <time>2017-03-01T05:39:51Z</time>
      </trkpt>
      <trkpt lat="44.35984" lon="3.52167">
        <ele>509</ele>
        <time>2017-03-01T05:41:51Z</time>
      </trkpt>
      <trkpt lat="44.36013" lon="3.52171">
        <ele>509</ele>
        <time>2017-03-01T05:43:51Z</time>
      </trkpt>
      <trkpt lat="44.36043" lon="3.52173">
        <ele>511</ele>
        <time>2017-03-01T05:45:51Z</time>
      </trkpt>
      <trkpt lat="44.36057" lon="3.52176">
        <ele>511</ele>
        <time>2017-03-01T05:47:51Z</time>
      </trkpt>
      <trkpt lat="44.36076" lon="3.52184">
        <ele>511</ele>
        <time>2017-03-01T05:49:51Z</time>
      </trkpt>
      <trkpt lat="44.36096" lon="3.52195">
        <ele>510</ele>
        <time>2017-03-01T05:51:51Z</time>
      </trkpt>
      <trkpt lat="44.36121" lon="3.52209">
        <ele>510</ele>
        <time>2017-03-01T05:53:51Z</time>
      </trkpt>
      <trkpt lat="44.36125" lon="3.52211">
        <ele>510</ele>
        <time>2017-03-01T05:55:51Z</time>
      </trkpt>
      <trkpt lat="44.36132" lon="3.52214">
        <ele>510</ele>
        <time>2017-03-01T05:57:51Z</time>
      </trkpt>
      <trkpt lat="44.36137" lon="3.52215">
        <ele>510</ele>
        <time>2017-03-01T05:59:51Z</time>
      </trkpt>
      <trkpt lat="44.36143" lon="3.52215">
        <ele>510</ele>
        <time>2017-03-01T06:01:51Z</time>
      </trkpt>
      <trkpt lat="44.36151" lon="3.52215">
        <ele>511</ele>
        <time>2017-03-01T06:03:51Z</time>
      </trkpt>
      <trkpt lat="44.36163" lon="3.52215">
        <ele>511</ele>
        <time>2017-03-01T06:05:51Z</time>
      </trkpt>
      <trkpt lat="44.36178" lon="3.52213">
        <ele>512</ele>
        <time>2017-03-01T06:07:51Z</time>
      </trkpt>
      <trkpt lat="44.36192" lon="3.52212">
        <ele>513</ele>
        <time>2017-03-01T06:09:51Z</time>
      </trkpt>
      <trkpt lat="44.36201" lon="3.52213">
        <ele>513</ele>
        <time>2017-03-01T06:11:51Z</time>
      </trkpt>
      <trkpt lat="44.36208" lon="3.52215">
        <ele>513</ele>
        <time>2017-03-01T06:13:51Z</time>
      </trkpt>
      <trkpt lat="44.36221" lon="3.5222">
        <ele>512</ele>
        <time>2017-03-01T06:15:51Z</time>
      </trkpt>
      <trkpt lat="44.36243" lon="3.52231">
        <ele>510</ele>
        <time>2017-03-01T06:17:51Z</time>
      </trkpt>
      <trkpt lat="44.36261" lon="3.5224">
        <ele>508</ele>
        <time>2017-03-01T06:19:51Z</time>
      </trkpt>
      <trkpt lat="44.36268" lon="3.52242">
        <ele>507</ele>
        <time>2017-03-01T06:21:51Z</time>
      </trkpt>
      <trkpt lat="44.36276" lon="3.52244">
        <ele>506</ele>
        <time>2017-03-01T06:23:51Z</time>
      </trkpt>
      <trkpt lat="44.36288" lon="3.52246">
        <ele>506</ele>
        <time>2017-03-01T06:25:51Z</time>
      </trkpt>
      <trkpt lat="44.36301" lon="3.52246">
        <ele>506</ele>
        <time>2017-03-01T06:27:51Z</time>
      </trkpt>
      <trkpt lat="44.36311" lon="3.52246">
        <ele>505</ele>
        <time>2017-03-01T06:29:51Z</time>
      </trkpt>
      <trkpt lat="44.36338" lon="3.52241">
        <ele>506</ele>
        <time>2017-03-01T06:31:51Z</time>
      </trkpt>
      <trkpt lat="44.36358" lon="3.52236">
        <ele>507</ele>
        <time>2017-03-01T06:33:51Z</time>
      </trkpt>
      <trkpt lat="44.3638" lon="3.52229">
        <ele>508</ele>
        <time>2017-03-01T06:35:51Z</time>
      </trkpt>
      <trkpt lat="44.36407" lon="3.52219">
        <ele>510</ele>
        <time>2017-03-01T06:37:51Z</time>
      </trkpt>
      <trkpt lat="44.36431" lon="3.5221">
        <ele>511</ele>
        <time>2017-03-01T06:39:51Z</time>
      </trkpt>
      <trkpt lat="44.36446" lon="3.52206">
        <ele>511</ele>
        <time>2017-03-01T06:41:51Z</time>
      </trkpt>
      <trkpt lat="44.36455" lon="3.52202">
        <ele>511</ele>
        <time>2017-03-01T06:43:51Z</time>
      </trkpt>
      <trkpt lat="44.36466" lon="3.52202">
        <ele>510</ele>
        <time>2017-03-01T06:45:51Z</time>
      </trkpt>
      <trkpt lat="44.36499" lon="3.52201">
        <ele>509</ele>
        <time>2017-03-01T06:47:51Z</time>
      </trkpt>
      <trkpt lat="44.36501" lon="3.52201">
        <ele>508</ele>
        <time>2017-03-01T06:49:51Z</time>
      </trkpt>
      <trkpt lat="44.36559" lon="3.522">
        <ele>508</ele>
        <time>2017-03-01T06:51:51Z</time>
      </trkpt>
      <trkpt lat="44.36571" lon="3.52199">
        <ele>507</ele>
        <time>2017-03-01T06:53:51Z</time>
      </trkpt>
      <trkpt lat="44.36586" lon="3.52194">
        <ele>508</ele>
        <time>2017-03-01T06:55:51Z</time>
      </trkpt>
      <trkpt lat="44.36609" lon="3.52182">
        <ele>508</ele>
        <time>2017-03-01T06:57:51Z</time>
      </trkpt>
      <trkpt lat="44.36642" lon="3.52163">
        <ele>509</ele>
        <time>2017-03-01T06:59:51Z</time>
      </trkpt>
      <trkpt lat="44.36671" lon="3.52144">
        <ele>513</ele>
        <time>2017-03-01T07:01:51Z</time>
      </trkpt>
      <trkpt lat="44.36733" lon="3.52112">
        <ele>512</ele>
        <time>2017-03-01T07:03:51Z</time>
      </trkpt>
      <trkpt lat="44.36765" lon="3.52099">
        <ele>511</ele>
        <time>2017-03-01T07:05:51Z</time>
      </trkpt>
      <trkpt lat="44.36782" lon="3.52092">
        <ele>511</ele>
        <time>2017-03-01T07:07:51Z</time>
      </trkpt>
      <trkpt lat="44.368" lon="3.52086">
        <ele>510</ele>
        <time>2017-03-01T07:09:51Z</time>
      </trkpt>
      <trkpt lat="44.36815" lon="3.52081">
        <ele>511</ele>
        <time>2017-03-01T07:11:51Z</time>
      </trkpt>
      <trkpt lat="44.3683" lon="3.52075">
        <ele>512</ele>
        <time>2017-03-01T07:13:51Z</time>
      </trkpt>
      <trkpt lat="44.36849" lon="3.52062">
        <ele>515</ele>
        <time>2017-03-01T07:15:51Z</time>
      </trkpt>
      <trkpt lat="44.36876" lon="3.52042">
        <ele>516</ele>
        <time>2017-03-01T07:17:51Z</time>
      </trkpt>
      <trkpt lat="44.36904" lon="3.52022">
        <ele>514</ele>
        <time>2017-03-01T07:19:51Z</time>
      </trkpt>
      <trkpt lat="44.36927" lon="3.52007">
        <ele>512</ele>
        <time>2017-03-01T07:21:51Z</time>
      </trkpt>
      <trkpt lat="44.37005" lon="3.51966">
        <ele>522</ele>
        <time>2017-03-01T07:23:51Z</time>
      </trkpt>
      <trkpt lat="44.37043" lon="3.5195">
        <ele>523</ele>
        <time>2017-03-01T07:25:51Z</time>
      </trkpt>
      <trkpt lat="44.37074" lon="3.51937">
        <ele>522</ele>
        <time>2017-03-01T07:27:51Z</time>
      </trkpt>
      <trkpt lat="44.37098" lon="3.51927">
        <ele>521</ele>
        <time>2017-03-01T07:29:51Z</time>
      </trkpt>
      <trkpt lat="44.37115" lon="3.51918">
        <ele>521</ele>
        <time>2017-03-01T07:31:51Z</time>
      </trkpt>
      <trkpt lat="44.37133" lon="3.5191">
        <ele>523</ele>
        <time>2017-03-01T07:33:51Z</time>
      </trkpt>
      <trkpt lat="44.37146" lon="3.51907">
        <ele>523</ele>
        <time>2017-03-01T07:35:51Z</time>
      </trkpt>
      <trkpt lat="44.37155" lon="3.51907">
        <ele>522</ele>
        <time>2017-03-01T07:37:51Z</time>
      </trkpt>
      <trkpt lat="44.37166" lon="3.51908">
        <ele>519</ele>
        <time>2017-03-01T07:39:51Z</time>
      </trkpt>
      <trkpt lat="44.37189" lon="3.51909">
        <ele>519</ele>
        <time>2017-03-01T07:41:51Z</time>
      </trkpt>
      <trkpt lat="44.37216" lon="3.51909">
        <ele>519</ele>
        <time>2017-03-01T07:43:51Z</time>
      </trkpt>
      <trkpt lat="44.3724" lon="3.51909">
        <ele>518</ele>
        <time>2017-03-01T07:45:51Z</time>
      </trkpt>
      <trkpt lat="44.37244" lon="3.5191">
        <ele>518</ele>
        <time>2017-03-01T07:47:51Z</time>
      </trkpt>
      <trkpt lat="44.37252" lon="3.51912">
        <ele>518</ele>
        <time>2017-03-01T07:49:51Z</time>
      </trkpt>
      <trkpt lat="44.37259" lon="3.51914">
        <ele>518</ele>
        <time>2017-03-01T07:51:51Z</time>
      </trkpt>
      <trkpt lat="44.37275" lon="3.5192">
        <ele>520</ele>
        <time>2017-03-01T07:53:51Z</time>
      </trkpt>
      <trkpt lat="44.37306" lon="3.51937">
        <ele>523</ele>
        <time>2017-03-01T07:55:51Z</time>
      </trkpt>
      <trkpt lat="44.37335" lon="3.51957">
        <ele>522</ele>
        <time>2017-03-01T07:57:51Z</time>
      </trkpt>
      <trkpt lat="44.37378" lon="3.51981">
        <ele>521</ele>
        <time>2017-03-01T07:59:51Z</time>
      </trkpt>
      <trkpt lat="44.37399" lon="3.5199">
        <ele>520</ele>
        <time>2017-03-01T08:01:51Z</time>
      </trkpt>
      <trkpt lat="44.37416" lon="3.51995">
        <ele>520</ele>
        <time>2017-03-01T08:03:51Z</time>
      </trkpt>
      <trkpt lat="44.37436" lon="3.51998">
        <ele>522</ele>
        <time>2017-03-01T08:05:51Z</time>
      </trkpt>
      <trkpt lat="44.37457" lon="3.52003">
        <ele>525</ele>
        <time>2017-03-01T08:07:51Z</time>
      </trkpt>
      <trkpt lat="44.37475" lon="3.52011">
        <ele>526</ele>
        <time>2017-03-01T08:09:51Z</time>
      </trkpt>
      <trkpt lat="44.37485" lon="3.52016">
        <ele>526</ele>
        <time>2017-03-01T08:11:51Z</time>
      </trkpt>
      <trkpt lat="44.37501" lon="3.52028">
        <ele>525</ele>
        <time>2017-03-01T08:13:51Z</time>
      </trkpt>
      <trkpt lat="44.37525" lon="3.52049">
        <ele>521</ele>
        <time>2017-03-01T08:15:51Z</time>
      </trkpt>
      <trkpt lat="44.37553" lon="3.52078">
        <ele>515</ele>
        <time>2017-03-01T08:17:51Z</time>
      </trkpt>
      <trkpt lat="44.37571" lon="3.52098">
        <ele>514</ele>
        <time>2017-03-01T08:19:51Z</time>
      </trkpt>
      <trkpt lat="44.37587" lon="3.52115">
        <ele>513</ele>
        <time>2017-03-01T08:21:51Z</time>
      </trkpt>
      <trkpt lat="44.37597" lon="3.52125">
        <ele>513</ele>
        <time>2017-03-01T08:23:51Z</time>
      </trkpt>
      <trkpt lat="44.37604" lon="3.52129">
        <ele>513</ele>
        <time>2017-03-01T08:25:51Z</time>
      </trkpt>
      <trkpt lat="44.37612" lon="3.52131">
        <ele>513</ele>
        <time>2017-03-01T08:27:51Z</time>
      </trkpt>
      <trkpt lat="44.3762" lon="3.5213">
        <ele>514</ele>
        <time>2017-03-01T08:29:51Z</time>
      </trkpt>
      <trkpt lat="44.37631" lon="3.52127">
        <ele>515</ele>
        <time>2017-03-01T08:31:51Z</time>
      </trkpt>
      <trkpt lat="44.37641" lon="3.52125">
        <ele>515</ele>
        <time>2017-03-01T08:33:51Z</time>
      </trkpt>
      <trkpt lat="44.37649" lon="3.52122">
        <ele>516</ele>
        <time>2017-03-01T08:35:51Z</time>
      </trkpt>
      <trkpt lat="44.37654" lon="3.52122">
        <ele>517</ele>
        <time>2017-03-01T08:37:51Z</time>
      </trkpt>
      <trkpt lat="44.37658" lon="3.52123">
        <ele>517</ele>
        <time>2017-03-01T08:39:51Z</time>
      </trkpt>
      <trkpt lat="44.37665" lon="3.52128">
        <ele>517</ele>
        <time>2017-03-01T08:41:51Z</time>
      </trkpt>
      <trkpt lat="44.3767" lon="3.52133">
        <ele>516</ele>
        <time>2017-03-01T08:43:51Z</time>
      </trkpt>
      <trkpt lat="44.37676" lon="3.5214">
        <ele>515</ele>
        <time>2017-03-01T08:45:51Z</time>
      </trkpt>
      <trkpt lat="44.37681" lon="3.52149">
        <ele>515</ele>
        <time>2017-03-01T08:47:51Z</time>
      </trkpt>
      <trkpt lat="44.37684" lon="3.52159">
        <ele>514</ele>
        <time>2017-03-01T08:49:51Z</time>
      </trkpt>
      <trkpt lat="44.37685" lon="3.52168">
        <ele>513</ele>
        <time>2017-03-01T08:51:51Z</time>
      </trkpt>
      <trkpt lat="44.37685" lon="3.52181">
        <ele>513</ele>
        <time>2017-03-01T08:53:51Z</time>
      </trkpt>
      <trkpt lat="44.37685" lon="3.52184">
        <ele>513</ele>
        <time>2017-03-01T08:55:51Z</time>
      </trkpt>
      <trkpt lat="44.37687" lon="3.5222">
        <ele>513</ele>
        <time>2017-03-01T08:57:51Z</time>
      </trkpt>
      <trkpt lat="44.37687" lon="3.52247">
        <ele>513</ele>
        <time>2017-03-01T08:59:51Z</time>
      </trkpt>
      <trkpt lat="44.37686" lon="3.52274">
        <ele>513</ele>
        <time>2017-03-01T09:01:51Z</time>
      </trkpt>
      <trkpt lat="44.3768" lon="3.52336">
        <ele>512</ele>
        <time>2017-03-01T09:03:51Z</time>
      </trkpt>
      <trkpt lat="44.37677" lon="3.52384">
        <ele>513</ele>
        <time>2017-03-01T09:05:51Z</time>
      </trkpt>
      <trkpt lat="44.37676" lon="3.52408">
        <ele>514</ele>
        <time>2017-03-01T09:07:51Z</time>
      </trkpt>
      <trkpt lat="44.37674" lon="3.52435">
        <ele>514</ele>
        <time>2017-03-01T09:09:51Z</time>
      </trkpt>
      <trkpt lat="44.37671" lon="3.52471">
        <ele>515</ele>
        <time>2017-03-01T09:11:51Z</time>
      </trkpt>
      <trkpt lat="44.37669" lon="3.52484">
        <ele>516</ele>
        <time>2017-03-01T09:13:51Z</time>
      </trkpt>
      <trkpt lat="44.37666" lon="3.52496">
        <ele>516</ele>
        <time>2017-03-01T09:15:51Z</time>
      </trkpt>
      <trkpt lat="44.37662" lon="3.52508">
        <ele>516</ele>
        <time>2017-03-01T09:17:51Z</time>
      </trkpt>
      <trkpt lat="44.37654" lon="3.52524">
        <ele>515</ele>
        <time>2017-03-01T09:19:51Z</time>
      </trkpt>
      <trkpt lat="44.37648" lon="3.52535">
        <ele>515</ele>
        <time>2017-03-01T09:21:51Z</time>
      </trkpt>
      <trkpt lat="44.37627" lon="3.52573">
        <ele>514</ele>
        <time>2017-03-01T09:23:51Z</time>
      </trkpt>
      <trkpt lat="44.37611" lon="3.52604">
        <ele>514</ele>
        <time>2017-03-01T09:25:51Z</time>
      </trkpt>
      <trkpt lat="44.37601" lon="3.52623">
        <ele>513</ele>
        <time>2017-03-01T09:27:51Z</time>
      </trkpt>
      <trkpt lat="44.37594" lon="3.52646">
        <ele>514</ele>
        <time>2017-03-01T09:29:51Z</time>
      </trkpt>
      <trkpt lat="44.37584" lon="3.5269">
        <ele>514</ele>
        <time>2017-03-01T09:31:51Z</time>
      </trkpt>
      <trkpt lat="44.37576" lon="3.52735">
        <ele>515</ele>
        <time>2017-03-01T09:33:51Z</time>
      </trkpt>
      <trkpt lat="44.37569" lon="3.52771">
        <ele>515</ele>
        <time>2017-03-01T09:35:51Z</time>
      </trkpt>
      <trkpt lat="44.37569" lon="3.52771">
        <ele>515</ele>
        <time>2017-03-01T09:37:51Z</time>
      </trkpt>
      <trkpt lat="44.37514" lon="3.5275">
        <ele>511</ele>
        <time>2017-03-01T09:39:51Z</time>
      </trkpt>
      <trkpt lat="44.37486" lon="3.52737">
        <ele>509</ele>
        <time>2017-03-01T09:41:51Z</time>
      </trkpt>
      <trkpt lat="44.37475" lon="3.52731">
        <ele>508</ele>
        <time>2017-03-01T09:43:51Z</time>
      </trkpt>
      <trkpt lat="44.37469" lon="3.52725">
        <ele>508</ele>
        <time>2017-03-01T09:45:51Z</time>
      </trkpt>
      <trkpt lat="44.37463" lon="3.52715">
        <ele>508</ele>
        <time>2017-03-01T09:47:51Z</time>
      </trkpt>
      <trkpt lat="44.37455" lon="3.52699">
        <ele>507</ele>
        <time>2017-03-01T09:49:51Z</time>
      </trkpt>
      <trkpt lat="44.37446" lon="3.52674">
        <ele>506</ele>
        <time>2017-03-01T09:51:51Z</time>
      </trkpt>
      <trkpt lat="44.37435" lon="3.52647">
        <ele>505</ele>
        <time>2017-03-01T09:53:51Z</time>
      </trkpt>
      <trkpt lat="44.3742" lon="3.52607">
        <ele>504</ele>
        <time>2017-03-01T09:55:51Z</time>
      </trkpt>
      <trkpt lat="44.37417" lon="3.52599">
        <ele>503</ele>
        <time>2017-03-01T09:57:51Z</time>
      </trkpt>
      <trkpt lat="44.37415" lon="3.52593">
        <ele>503</ele>
        <time>2017-03-01T09:59:51Z</time>
      </trkpt>
      <trkpt lat="44.37413" lon="3.52588">
        <ele>503</ele>
        <time>2017-03-01T10:01:51Z</time>
      </trkpt>
      <trkpt lat="44.37411" lon="3.52583">
        <ele>503</ele>
        <time>2017-03-01T10:03:51Z</time>
      </trkpt>
      <trkpt lat="44.37407" lon="3.52572">
        <ele>503</ele>
        <time>2017-03-01T10:05:51Z</time>
      </trkpt>
      <trkpt lat="44.37405" lon="3.52569">
        <ele>503</ele>
        <time>2017-03-01T10:07:51Z</time>
      </trkpt>
      <trkpt lat="44.37397" lon="3.52548">
        <ele>504</ele>
        <time>2017-03-01T10:09:51Z</time>
      </trkpt>
      <trkpt lat="44.37396" lon="3.52547">
        <ele>504</ele>
        <time>2017-03-01T10:11:51Z</time>
      </trkpt>
      <trkpt lat="44.37395" lon="3.52545">
        <ele>504</ele>
        <time>2017-03-01T10:13:51Z</time>
      </trkpt>
      <trkpt lat="44.37388" lon="3.52527">
        <ele>504</ele>
        <time>2017-03-01T10:15:51Z</time>
      </trkpt>
      <trkpt lat="44.37384" lon="3.52517">
        <ele>505</ele>
        <time>2017-03-01T10:17:51Z</time>
      </trkpt>
      <trkpt lat="44.37374" lon="3.5249">
        <ele>506</ele>
        <time>2017-03-01T10:19:51Z</time>
      </trkpt>
      <trkpt lat="44.37368" lon="3.52477">
        <ele>506</ele>
        <time>2017-03-01T10:21:51Z</time>
      </trkpt>
      <trkpt lat="44.37363" lon="3.52465">
        <ele>506</ele>
        <time>2017-03-01T10:23:51Z</time>
      </trkpt>
      <trkpt lat="44.37356" lon="3.52456">
        <ele>507</ele>
        <time>2017-03-01T10:25:51Z</time>
      </trkpt>
      <trkpt lat="44.37339" lon="3.52434">
        <ele>508</ele>
        <time>2017-03-01T10:27:51Z</time>
      </trkpt>
      <trkpt lat="44.3733" lon="3.52424">
        <ele>508</ele>
        <time>2017-03-01T10:29:51Z</time>
      </trkpt>
      <trkpt lat="44.3733" lon="3.52424">
        <ele>508</ele>
        <time>2017-03-01T10:31:51Z</time>
      </trkpt>
      <trkpt lat="44.37323" lon="3.52416">
        <ele>508</ele>
        <time>2017-03-01T10:33:51Z</time>
      </trkpt>
      <trkpt lat="44.37323" lon="3.52416">
        <ele>508</ele>
        <time>2017-03-01T10:35:51Z</time>
      </trkpt>
      <trkpt lat="44.37321" lon="3.52426">
        <ele>509</ele>
        <time>2017-03-01T10:37:51Z</time>
      </trkpt>
      <trkpt lat="44.3732" lon="3.52435">
        <ele>509</ele>
        <time>2017-03-01T10:39:51Z</time>
      </trkpt>
      <trkpt lat="44.37317" lon="3.52444">
        <ele>509</ele>
        <time>2017-03-01T10:41:51Z</time>
      </trkpt>
      <trkpt lat="44.37306" lon="3.52463">
        <ele>510</ele>
        <time>2017-03-01T10:43:51Z</time>
      </trkpt>
      <trkpt lat="44.37294" lon="3.52484">
        <ele>511</ele>
        <time>2017-03-01T10:45:51Z</time>
      </trkpt>
      <trkpt lat="44.3728" lon="3.52509">
        <ele>512</ele>
        <time>2017-03-01T10:47:51Z</time>
      </trkpt>
      <trkpt lat="44.37269" lon="3.52522">
        <ele>513</ele>
        <time>2017-03-01T10:49:51Z</time>
      </trkpt>
      <trkpt lat="44.37237" lon="3.52557">
        <ele>515</ele>
        <time>2017-03-01T10:51:51Z</time>
      </trkpt>
      <trkpt lat="44.37209" lon="3.52591">
        <ele>519</ele>
        <time>2017-03-01T10:53:51Z</time>
      </trkpt>
      <trkpt lat="44.372" lon="3.52604">
        <ele>520</ele>
        <time>2017-03-01T10:55:51Z</time>
      </trkpt>
      <trkpt lat="44.37192" lon="3.52611">
        <ele>521</ele>
        <time>2017-03-01T10:57:51Z</time>
      </trkpt>
      <trkpt lat="44.37188" lon="3.52613">
        <ele>522</ele>
        <time>2017-03-01T10:59:51Z</time>
      </trkpt>
      <trkpt lat="44.37188" lon="3.52613">
        <ele>522</ele>
        <time>2017-03-01T11:01:51Z</time>
      </trkpt>
      <trkpt lat="44.37186" lon="3.52618">
        <ele>522</ele>
        <time>2017-03-01T11:03:51Z</time>
      </trkpt>
      <trkpt lat="44.37179" lon="3.52624">
        <ele>523</ele>
        <time>2017-03-01T11:05:51Z</time>
      </trkpt>
      <trkpt lat="44.37165" lon="3.52633">
        <ele>525</ele>
        <time>2017-03-01T11:07:51Z</time>
      </trkpt>
      <trkpt lat="44.3715" lon="3.52641">
        <ele>527</ele>
        <time>2017-03-01T11:09:51Z</time>
      </trkpt>
      <trkpt lat="44.37127" lon="3.52657">
        <ele>531</ele>
        <time>2017-03-01T11:11:51Z</time>
      </trkpt>
      <trkpt lat="44.37115" lon="3.52666">
        <ele>535</ele>
        <time>2017-03-01T11:13:51Z</time>
      </trkpt>
      <trkpt lat="44.3711" lon="3.52671">
        <ele>535</ele>
        <time>2017-03-01T11:15:51Z</time>
      </trkpt>
      <trkpt lat="44.37104" lon="3.52674">
        <ele>536</ele>
        <time>2017-03-01T11:17:51Z</time>
      </trkpt>
      <trkpt lat="44.37083" lon="3.52684">
        <ele>539</ele>
        <time>2017-03-01T11:19:51Z</time>
      </trkpt>
      <trkpt lat="44.3707" lon="3.52691">
        <ele>541</ele>
        <time>2017-03-01T11:21:51Z</time>
      </trkpt>
      <trkpt lat="44.37065" lon="3.52695">
        <ele>542</ele>
        <time>2017-03-01T11:23:51Z</time>
      </trkpt>
      <trkpt lat="44.37061" lon="3.52699">
        <ele>542</ele>
        <time>2017-03-01T11:25:51Z</time>
      </trkpt>
      <trkpt lat="44.37053" lon="3.52702">
        <ele>544</ele>
        <time>2017-03-01T11:27:51Z</time>
      </trkpt>
      <trkpt lat="44.37033" lon="3.52713">
        <ele>548</ele>
        <time>2017-03-01T11:29:51Z</time>
      </trkpt>
      <trkpt lat="44.3701" lon="3.52725">
        <ele>556</ele>
        <time>2017-03-01T11:31:51Z</time>
      </trkpt>
      <trkpt lat="44.36999" lon="3.52729">
        <ele>559</ele>
        <time>2017-03-01T11:33:51Z</time>
      </trkpt>
      <trkpt lat="44.36986" lon="3.52733">
        <ele>561</ele>
        <time>2017-03-01T11:35:51Z</time>
      </trkpt>
      <trkpt lat="44.36963" lon="3.52745">
        <ele>565</ele>
        <time>2017-03-01T11:37:51Z</time>
      </trkpt>
      <trkpt lat="44.36939" lon="3.52759">
        <ele>568</ele>
        <time>2017-03-01T11:39:51Z</time>
      </trkpt>
      <trkpt lat="44.36924" lon="3.52771">
        <ele>570</ele>
        <time>2017-03-01T11:41:51Z</time>
      </trkpt>
      <trkpt lat="44.36909" lon="3.52788">
        <ele>571</ele>
        <time>2017-03-01T11:43:51Z</time>
      </trkpt>
      <trkpt lat="44.36898" lon="3.52805">
        <ele>571</ele>
        <time>2017-03-01T11:45:51Z</time>
      </trkpt>
      <trkpt lat="44.36887" lon="3.52826">
        <ele>572</ele>
        <time>2017-03-01T11:47:51Z</time>
      </trkpt>
      <trkpt lat="44.36876" lon="3.52848">
        <ele>569</ele>
        <time>2017-03-01T11:49:51Z</time>
      </trkpt>
      <trkpt lat="44.36865" lon="3.52865">
        <ele>567</ele>
        <time>2017-03-01T11:51:51Z</time>
      </trkpt>
      <trkpt lat="44.36852" lon="3.52887">
        <ele>567</ele>
        <time>2017-03-01T11:53:51Z</time>
      </trkpt>
      <trkpt lat="44.36842" lon="3.52903">
        <ele>569</ele>
        <time>2017-03-01T11:55:51Z</time>
      </trkpt>
      <trkpt lat="44.36831" lon="3.52918">
        <ele>572</ele>
        <time>2017-03-01T11:57:51Z</time>
      </trkpt>
      <trkpt lat="44.36821" lon="3.52932">
        <ele>570</ele>
        <time>2017-03-01T11:59:51Z</time>
      </trkpt>
      <trkpt lat="44.36812" lon="3.52943">
        <ele>569</ele>
        <time>2017-03-01T12:01:51Z</time>
      </trkpt>
      <trkpt lat="44.36797" lon="3.52953">
        <ele>570</ele>
        <time>2017-03-01T12:03:51Z</time>
      </trkpt>
      <trkpt lat="44.3678" lon="3.52964">
        <ele>573</ele>
        <time>2017-03-01T12:05:51Z</time>
      </trkpt>
      <trkpt lat="44.36764" lon="3.52977">
        <ele>577</ele>
        <time>2017-03-01T12:07:51Z</time>
      </trkpt>
      <trkpt lat="44.3674" lon="3.52999">
        <ele>584</ele>
        <time>2017-03-01T12:09:51Z</time>
      </trkpt>
      <trkpt lat="44.36721" lon="3.53017">
        <ele>584</ele>
        <time>2017-03-01T12:11:51Z</time>
      </trkpt>
      <trkpt lat="44.36704" lon="3.53036">
        <ele>586</ele>
        <time>2017-03-01T12:13:51Z</time>
      </trkpt>
      <trkpt lat="44.36696" lon="3.53043">
        <ele>587</ele>
        <time>2017-03-01T12:15:51Z</time>
      </trkpt>
      <trkpt lat="44.36695" lon="3.53044">
        <ele>587</ele>
        <time>2017-03-01T12:17:51Z</time>
      </trkpt>
      <trkpt lat="44.36685" lon="3.5305">
        <ele>589</ele>
        <time>2017-03-01T12:19:51Z</time>
      </trkpt>
      <trkpt lat="44.36673" lon="3.53057">
        <ele>592</ele>
        <time>2017-03-01T12:21:51Z</time>
      </trkpt>
      <trkpt lat="44.36666" lon="3.53064">
        <ele>594</ele>
        <time>2017-03-01T12:23:51Z</time>
      </trkpt>
      <trkpt lat="44.36662" lon="3.53068">
        <ele>595</ele>
        <time>2017-03-01T12:25:51Z</time>
      </trkpt>
      <trkpt lat="44.3666" lon="3.53069">
        <ele>595</ele>
        <time>2017-03-01T12:27:51Z</time>
      </trkpt>
      <trkpt lat="44.36658" lon="3.5307">
        <ele>596</ele>
        <time>2017-03-01T12:29:51Z</time>
      </trkpt>
      <trkpt lat="44.36653" lon="3.53082">
        <ele>597</ele>
        <time>2017-03-01T12:31:51Z</time>
      </trkpt>
      <trkpt lat="44.36638" lon="3.53112">
        <ele>600</ele>
        <time>2017-03-01T12:33:51Z</time>
      </trkpt>
      <trkpt lat="44.36625" lon="3.5314">
        <ele>603</ele>
        <time>2017-03-01T12:35:51Z</time>
      </trkpt>
      <trkpt lat="44.3661" lon="3.53168">
        <ele>607</ele>
        <time>2017-03-01T12:37:51Z</time>
      </trkpt>
      <trkpt lat="44.36609" lon="3.53169">
        <ele>607</ele>
        <time>2017-03-01T12:39:51Z</time>
      </trkpt>
      <trkpt lat="44.36592" lon="3.53198">
        <ele>610</ele>
        <time>2017-03-01T12:41:51Z</time>
      </trkpt>
      <trkpt lat="44.36574" lon="3.53225">
        <ele>614</ele>
        <time>2017-03-01T12:43:51Z</time>
      </trkpt>
      <trkpt lat="44.3656" lon="3.53242">
        <ele>617</ele>
        <time>2017-03-01T12:45:51Z</time>
      </trkpt>
      <trkpt lat="44.36548" lon="3.53252">
        <ele>618</ele>
        <time>2017-03-01T12:47:51Z</time>
      </trkpt>
      <trkpt lat="44.36537" lon="3.53256">
        <ele>620</ele>
        <time>2017-03-01T12:49:51Z</time>
      </trkpt>
      <trkpt lat="44.36533" lon="3.53257">
        <ele>620</ele>
        <time>2017-03-01T12:51:51Z</time>
      </trkpt>
      <trkpt lat="44.36514" lon="3.53261">
        <ele>623</ele>
        <time>2017-03-01T12:53:51Z</time>
      </trkpt>
      <trkpt lat="44.36502" lon="3.53265">
        <ele>625</ele>
        <time>2017-03-01T12:55:51Z</time>
      </trkpt>
      <trkpt lat="44.36477" lon="3.53281">
        <ele>630</ele>
        <time>2017-03-01T12:57:51Z</time>
      </trkpt>
      <trkpt lat="44.36458" lon="3.53295">
        <ele>633</ele>
        <time>2017-03-01T12:59:51Z</time>
      </trkpt>
      <trkpt lat="44.36442" lon="3.53305">
        <ele>636</ele>
        <time>2017-03-01T13:01:51Z</time>
      </trkpt>
      <trkpt lat="44.36427" lon="3.53312">
        <ele>639</ele>
        <time>2017-03-01T13:03:51Z</time>
      </trkpt>
      <trkpt lat="44.36416" lon="3.53315">
        <ele>641</ele>
        <time>2017-03-01T13:05:51Z</time>
      </trkpt>
      <trkpt lat="44.36406" lon="3.53316">
        <ele>645</ele>
        <time>2017-03-01T13:07:51Z</time>
      </trkpt>
      <trkpt lat="44.36402" lon="3.53318">
        <ele>646</ele>
        <time>2017-03-01T13:09:51Z</time>
      </trkpt>
      <trkpt lat="44.36393" lon="3.53324">
        <ele>650</ele>
        <time>2017-03-01T13:11:51Z</time>
      </trkpt>
      <trkpt lat="44.36385" lon="3.53332">
        <ele>653</ele>
        <time>2017-03-01T13:13:51Z</time>
      </trkpt>
      <trkpt lat="44.36382" lon="3.53334">
        <ele>654</ele>
        <time>2017-03-01T13:15:51Z</time>
      </trkpt>
      <trkpt lat="44.3638" lon="3.53332">
        <ele>655</ele>
        <time>2017-03-01T13:17:51Z</time>
      </trkpt>
      <trkpt lat="44.36378" lon="3.5333">
        <ele>656</ele>
        <time>2017-03-01T13:19:51Z</time>
      </trkpt>
      <trkpt lat="44.36378" lon="3.53324">
        <ele>656</ele>
        <time>2017-03-01T13:21:51Z</time>
      </trkpt>
      <trkpt lat="44.36383" lon="3.53313">
        <ele>654</ele>
        <time>2017-03-01T13:23:51Z</time>
      </trkpt>
      <trkpt lat="44.36387" lon="3.53305">
        <ele>652</ele>
        <time>2017-03-01T13:25:51Z</time>
      </trkpt>
      <trkpt lat="44.36387" lon="3.53296">
        <ele>652</ele>
        <time>2017-03-01T13:27:51Z</time>
      </trkpt>
      <trkpt lat="44.36384" lon="3.53285">
        <ele>653</ele>
        <time>2017-03-01T13:29:51Z</time>
      </trkpt>
      <trkpt lat="44.36378" lon="3.53273">
        <ele>655</ele>
        <time>2017-03-01T13:31:51Z</time>
      </trkpt>
      <trkpt lat="44.3637" lon="3.53263">
        <ele>657</ele>
        <time>2017-03-01T13:33:51Z</time>
      </trkpt>
      <trkpt lat="44.36363" lon="3.53256">
        <ele>659</ele>
        <time>2017-03-01T13:35:51Z</time>
      </trkpt>
      <trkpt lat="44.36359" lon="3.53254">
        <ele>660</ele>
        <time>2017-03-01T13:37:51Z</time>
      </trkpt>
      <trkpt lat="44.36352" lon="3.53252">
        <ele>661</ele>
        <time>2017-03-01T13:39:51Z</time>
      </trkpt>
      <trkpt lat="44.36332" lon="3.53252">
        <ele>666</ele>
        <time>2017-03-01T13:41:51Z</time>
      </trkpt>
      <trkpt lat="44.36313" lon="3.53253">
        <ele>668</ele>
        <time>2017-03-01T13:43:51Z</time>
      </trkpt>
      <trkpt lat="44.36299" lon="3.53255">
        <ele>670</ele>
        <time>2017-03-01T13:45:51Z</time>
      </trkpt>
      <trkpt lat="44.36284" lon="3.53261">
        <ele>672</ele>
        <time>2017-03-01T13:47:51Z</time>
      </trkpt>
      <trkpt lat="44.36263" lon="3.53271">
        <ele>676</ele>
        <time>2017-03-01T13:49:51Z</time>
      </trkpt>
      <trkpt lat="44.36241" lon="3.53281">
        <ele>681</ele>
        <time>2017-03-01T13:51:51Z</time>
      </trkpt>
      <trkpt lat="44.36222" lon="3.53287">
        <ele>683</ele>
        <time>2017-03-01T13:53:51Z</time>
      </trkpt>
      <trkpt lat="44.36208" lon="3.53291">
        <ele>684</ele>
        <time>2017-03-01T13:55:51Z</time>
      </trkpt>
      <trkpt lat="44.36202" lon="3.53293">
        <ele>685</ele>
        <time>2017-03-01T13:57:51Z</time>
      </trkpt>
      <trkpt lat="44.36197" lon="3.53299">
        <ele>686</ele>
        <time>2017-03-01T13:59:51Z</time>
      </trkpt>
      <trkpt lat="44.36191" lon="3.53303">
        <ele>687</ele>
        <time>2017-03-01T14:01:51Z</time>
      </trkpt>
      <trkpt lat="44.36184" lon="3.53306">
        <ele>688</ele>
        <time>2017-03-01T14:03:51Z</time>
      </trkpt>
      <trkpt lat="44.36139" lon="3.53319">
        <ele>693</ele>
        <time>2017-03-01T14:05:51Z</time>
      </trkpt>
      <trkpt lat="44.36108" lon="3.53331">
        <ele>698</ele>
        <time>2017-03-01T14:07:51Z</time>
      </trkpt>
      <trkpt lat="44.36068" lon="3.53352">
        <ele>706</ele>
        <time>2017-03-01T14:09:51Z</time>
      </trkpt>
      <trkpt lat="44.36055" lon="3.53363">
        <ele>710</ele>
        <time>2017-03-01T14:11:51Z</time>
      </trkpt>
      <trkpt lat="44.36048" lon="3.53368">
        <ele>712</ele>
        <time>2017-03-01T14:13:51Z</time>
      </trkpt>
      <trkpt lat="44.36047" lon="3.53369">
        <ele>712</ele>
        <time>2017-03-01T14:15:51Z</time>
      </trkpt>
      <trkpt lat="44.36045" lon="3.53369">
        <ele>713</ele>
        <time>2017-03-01T14:17:51Z</time>
      </trkpt>
      <trkpt lat="44.36043" lon="3.53369">
        <ele>713</ele>
        <time>2017-03-01T14:19:51Z</time>
      </trkpt>
      <trkpt lat="44.36041" lon="3.53368">
        <ele>713</ele>
        <time>2017-03-01T14:21:51Z</time>
      </trkpt>
      <trkpt lat="44.36032" lon="3.5336">
        <ele>712</ele>
        <time>2017-03-01T14:23:51Z</time>
      </trkpt>
      <trkpt lat="44.36021" lon="3.53352">
        <ele>711</ele>
        <time>2017-03-01T14:25:51Z</time>
      </trkpt>
      <trkpt lat="44.36012" lon="3.53346">
        <ele>710</ele>
        <time>2017-03-01T14:27:51Z</time>
      </trkpt>
      <trkpt lat="44.35997" lon="3.53342">
        <ele>711</ele>
        <time>2017-03-01T14:29:51Z</time>
      </trkpt>
      <trkpt lat="44.35979" lon="3.53338">
        <ele>713</ele>
        <time>2017-03-01T14:31:51Z</time>
      </trkpt>
      <trkpt lat="44.35972" lon="3.53336">
        <ele>713</ele>
        <time>2017-03-01T14:33:51Z</time>
      </trkpt>
      <trkpt lat="44.35962" lon="3.53333">
        <ele>714</ele>
        <time>2017-03-01T14:35:51Z</time>
      </trkpt>
      <trkpt lat="44.3596" lon="3.53332">
        <ele>714</ele>
        <time>2017-03-01T14:37:51Z</time>
      </trkpt>
      <trkpt lat="44.35956" lon="3.53329">
        <ele>714</ele>
        <time>2017-03-01T14:39:51Z</time>
      </trkpt>
      <trkpt lat="44.35952" lon="3.53325">
        <ele>714</ele>
        <time>2017-03-01T14:41:51Z</time>
      </trkpt>
      <trkpt lat="44.3595" lon="3.53324">
        <ele>714</ele>
        <time>2017-03-01T14:43:51Z</time>
      </trkpt>
      <trkpt lat="44.35949" lon="3.53324">
        <ele>715</ele>
        <time>2017-03-01T14:45:51Z</time>
      </trkpt>
      <trkpt lat="44.35946" lon="3.53325">
        <ele>715</ele>
        <time>2017-03-01T14:47:51Z</time>
      </trkpt>
      <trkpt lat="44.35946" lon="3.53325">
        <ele>715</ele>
        <time>2017-03-01T14:49:51Z</time>
      </trkpt>
      <trkpt lat="44.35946" lon="3.5333">
        <ele>716</ele>
        <time>2017-03-01T14:51:51Z</time>
      </trkpt>
      <trkpt lat="44.35946" lon="3.53332">
        <ele>717</ele>
        <time>2017-03-01T14:53:51Z</time>
      </trkpt>
      <trkpt lat="44.35948" lon="3.53334">
        <ele>717</ele>
        <time>2017-03-01T14:55:51Z</time>
      </trkpt>
      <trkpt lat="44.35949" lon="3.53336">
        <ele>717</ele>
        <time>2017-03-01T14:57:51Z</time>
      </trkpt>
      <trkpt lat="44.35962" lon="3.53347">
        <ele>718</ele>
        <time>2017-03-01T14:59:51Z</time>
      </trkpt>
      <trkpt lat="44.35979" lon="3.53359">
        <ele>719</ele>
        <time>2017-03-01T15:01:51Z</time>
      </trkpt>
      <trkpt lat="44.35995" lon="3.5337">
        <ele>719</ele>
        <time>2017-03-01T15:03:51Z</time>
      </trkpt>
      <trkpt lat="44.36012" lon="3.53383">
        <ele>721</ele>
        <time>2017-03-01T15:05:51Z</time>
      </trkpt>
      <trkpt lat="44.36024" lon="3.53399">
        <ele>723</ele>
        <time>2017-03-01T15:07:51Z</time>
      </trkpt>
      <trkpt lat="44.36038" lon="3.53418">
        <ele>725</ele>
        <time>2017-03-01T15:09:51Z</time>
      </trkpt>
      <trkpt lat="44.36052" lon="3.5344">
        <ele>727</ele>
        <time>2017-03-01T15:11:51Z</time>
      </trkpt>
      <trkpt lat="44.36066" lon="3.53461">
        <ele>728</ele>
        <time>2017-03-01T15:13:51Z</time>
      </trkpt>
      <trkpt lat="44.36071" lon="3.53469">
        <ele>728</ele>
        <time>2017-03-01T15:15:51Z</time>
      </trkpt>
      <trkpt lat="44.36074" lon="3.53481">
        <ele>730</ele>
        <time>2017-03-01T15:17:51Z</time>
      </trkpt>
      <trkpt lat="44.36076" lon="3.53489">
        <ele>730</ele>
        <time>2017-03-01T15:19:51Z</time>
      </trkpt>
      <trkpt lat="44.36076" lon="3.535">
        <ele>732</ele>
        <time>2017-03-01T15:21:51Z</time>
      </trkpt>
      <trkpt lat="44.36075" lon="3.53513">
        <ele>734</ele>
        <time>2017-03-01T15:23:51Z</time>
      </trkpt>
      <trkpt lat="44.36071" lon="3.53539">
        <ele>737</ele>
        <time>2017-03-01T15:25:51Z</time>
      </trkpt>
      <trkpt lat="44.3607" lon="3.53549">
        <ele>739</ele>
        <time>2017-03-01T15:27:51Z</time>
      </trkpt>
      <trkpt lat="44.36069" lon="3.5356">
        <ele>740</ele>
        <time>2017-03-01T15:29:51Z</time>
      </trkpt>
      <trkpt lat="44.3607" lon="3.53579">
        <ele>741</ele>
        <time>2017-03-01T15:31:51Z</time>
      </trkpt>
      <trkpt lat="44.36072" lon="3.53595">
        <ele>744</ele>
        <time>2017-03-01T15:33:51Z</time>
      </trkpt>
      <trkpt lat="44.36076" lon="3.53608">
        <ele>745</ele>
        <time>2017-03-01T15:35:51Z</time>
      </trkpt>
      <trkpt lat="44.36082" lon="3.53618">
        <ele>745</ele>
        <time>2017-03-01T15:37:51Z</time>
      </trkpt>
      <trkpt lat="44.36084" lon="3.53622">
        <ele>745</ele>
        <time>2017-03-01T15:39:51Z</time>
      </trkpt>
      <trkpt lat="44.36085" lon="3.53626">
        <ele>745</ele>
        <time>2017-03-01T15:41:51Z</time>
      </trkpt>
      <trkpt lat="44.36084" lon="3.5363">
        <ele>746</ele>
        <time>2017-03-01T15:43:51Z</time>
      </trkpt>
      <trkpt lat="44.36081" lon="3.53632">
        <ele>748</ele>
        <time>2017-03-01T15:45:51Z</time>
      </trkpt>
      <trkpt lat="44.36076" lon="3.53633">
        <ele>750</ele>
        <time>2017-03-01T15:47:51Z</time>
      </trkpt>
      <trkpt lat="44.36072" lon="3.5363">
        <ele>751</ele>
        <time>2017-03-01T15:49:51Z</time>
      </trkpt>
      <trkpt lat="44.36069" lon="3.53627">
        <ele>751</ele>
        <time>2017-03-01T15:51:51Z</time>
      </trkpt>
      <trkpt lat="44.36066" lon="3.5362">
        <ele>751</ele>
        <time>2017-03-01T15:53:51Z</time>
      </trkpt>
      <trkpt lat="44.3606" lon="3.53607">
        <ele>751</ele>
        <time>2017-03-01T15:55:51Z</time>
      </trkpt>
      <trkpt lat="44.36051" lon="3.53581">
        <ele>748</ele>
        <time>2017-03-01T15:57:51Z</time>
      </trkpt>
      <trkpt lat="44.36046" lon="3.53568">
        <ele>749</ele>
        <time>2017-03-01T15:59:51Z</time>
      </trkpt>
      <trkpt lat="44.36041" lon="3.53557">
        <ele>749</ele>
        <time>2017-03-01T16:01:51Z</time>
      </trkpt>
      <trkpt lat="44.36035" lon="3.53546">
        <ele>750</ele>
        <time>2017-03-01T16:03:51Z</time>
      </trkpt>
      <trkpt lat="44.36026" lon="3.53535">
        <ele>752</ele>
        <time>2017-03-01T16:05:51Z</time>
      </trkpt>
      <trkpt lat="44.36001" lon="3.53515">
        <ele>757</ele>
        <time>2017-03-01T16:07:51Z</time>
      </trkpt>
      <trkpt lat="44.35992" lon="3.53507">
        <ele>757</ele>
        <time>2017-03-01T16:09:51Z</time>
      </trkpt>
      <trkpt lat="44.35986" lon="3.53505">
        <ele>757</ele>
        <time>2017-03-01T16:11:51Z</time>
      </trkpt>
      <trkpt lat="44.3598" lon="3.53506">
        <ele>757</ele>
        <time>2017-03-01T16:13:51Z</time>
      </trkpt>
      <trkpt lat="44.35969" lon="3.53511">
        <ele>759</ele>
        <time>2017-03-01T16:15:51Z</time>
      </trkpt>
      <trkpt lat="44.35958" lon="3.53517">
        <ele>761</ele>
        <time>2017-03-01T16:17:51Z</time>
      </trkpt>
      <trkpt lat="44.35948" lon="3.53522">
        <ele>763</ele>
        <time>2017-03-01T16:19:51Z</time>
      </trkpt>
      <trkpt lat="44.35939" lon="3.53528">
        <ele>766</ele>
        <time>2017-03-01T16:21:51Z</time>
      </trkpt>
      <trkpt lat="44.35926" lon="3.53537">
        <ele>769</ele>
        <time>2017-03-01T16:23:51Z</time>
      </trkpt>
      <trkpt lat="44.35915" lon="3.53541">
        <ele>772</ele>
        <time>2017-03-01T16:25:51Z</time>
      </trkpt>
      <trkpt lat="44.35905" lon="3.53542">
        <ele>774</ele>
        <time>2017-03-01T16:27:51Z</time>
      </trkpt>
      <trkpt lat="44.35891" lon="3.53542">
        <ele>777</ele>
        <time>2017-03-01T16:29:51Z</time>
      </trkpt>
      <trkpt lat="44.35882" lon="3.53537">
        <ele>777</ele>
        <time>2017-03-01T16:31:51Z</time>
      </trkpt>
      <trkpt lat="44.35873" lon="3.53529">
        <ele>776</ele>
        <time>2017-03-01T16:33:51Z</time>
      </trkpt>
      <trkpt lat="44.35865" lon="3.53518">
        <ele>773</ele>
        <time>2017-03-01T16:35:51Z</time>
      </trkpt>
      <trkpt lat="44.35858" lon="3.53511">
        <ele>772</ele>
        <time>2017-03-01T16:37:51Z</time>
      </trkpt>
      <trkpt lat="44.35851" lon="3.53507">
        <ele>772</ele>
        <time>2017-03-01T16:39:51Z</time>
      </trkpt>
      <trkpt lat="44.35841" lon="3.53508">
        <ele>773</ele>
        <time>2017-03-01T16:41:51Z</time>
      </trkpt>
      <trkpt lat="44.35822" lon="3.53511">
        <ele>778</ele>
        <time>2017-03-01T16:43:51Z</time>
      </trkpt>
      <trkpt lat="44.35807" lon="3.5351">
        <ele>781</ele>
        <time>2017-03-01T16:45:51Z</time>
      </trkpt>
      <trkpt lat="44.35784" lon="3.53507">
        <ele>784</ele>
        <time>2017-03-01T16:47:51Z</time>
      </trkpt>
      <trkpt lat="44.35758" lon="3.53501">
        <ele>787</ele>
        <time>2017-03-01T16:49:51Z</time>
      </trkpt>
      <trkpt lat="44.35734" lon="3.53494">
        <ele>793</ele>
        <time>2017-03-01T16:51:51Z</time>
      </trkpt>
      <trkpt lat="44.3572" lon="3.53488">
        <ele>796</ele>
        <time>2017-03-01T16:53:51Z</time>
      </trkpt>
      <trkpt lat="44.35708" lon="3.53478">
        <ele>798</ele>
        <time>2017-03-01T16:55:51Z</time>
      </trkpt>
      <trkpt lat="44.35698" lon="3.53465">
        <ele>798</ele>
        <time>2017-03-01T16:57:51Z</time>
      </trkpt>
      <trkpt lat="44.35691" lon="3.53452">
        <ele>798</ele>
        <time>2017-03-01T16:59:51Z</time>
      </trkpt>
      <trkpt lat="44.35678" lon="3.53426">
        <ele>795</ele>
        <time>2017-03-01T17:01:51Z</time>
      </trkpt>
      <trkpt lat="44.35665" lon="3.53401">
        <ele>794</ele>
        <time>2017-03-01T17:03:51Z</time>
      </trkpt>
      <trkpt lat="44.35655" lon="3.53386">
        <ele>792</ele>
        <time>2017-03-01T17:05:51Z</time>
      </trkpt>
      <trkpt lat="44.35636" lon="3.53362">
        <ele>787</ele>
        <time>2017-03-01T17:07:51Z</time>
      </trkpt>
      <trkpt lat="44.35632" lon="3.53358">
        <ele>787</ele>
        <time>2017-03-01T17:09:51Z</time>
      </trkpt>
      <trkpt lat="44.35628" lon="3.53357">
        <ele>786</ele>
        <time>2017-03-01T17:11:51Z</time>
      </trkpt>
      <trkpt lat="44.35624" lon="3.53357">
        <ele>787</ele>
        <time>2017-03-01T17:13:51Z</time>
      </trkpt>
      <trkpt lat="44.35622" lon="3.53358">
        <ele>787</ele>
        <time>2017-03-01T17:15:51Z</time>
      </trkpt>
      <trkpt lat="44.35619" lon="3.53364">
        <ele>789</ele>
        <time>2017-03-01T17:17:51Z</time>
      </trkpt>
      <trkpt lat="44.35618" lon="3.53378">
        <ele>793</ele>
        <time>2017-03-01T17:19:51Z</time>
      </trkpt>
      <trkpt lat="44.35616" lon="3.53391">
        <ele>796</ele>
        <time>2017-03-01T17:21:51Z</time>
      </trkpt>
      <trkpt lat="44.3561" lon="3.53406">
        <ele>801</ele>
        <time>2017-03-01T17:23:51Z</time>
      </trkpt>
      <trkpt lat="44.35605" lon="3.53415">
        <ele>804</ele>
        <time>2017-03-01T17:25:51Z</time>
      </trkpt>
      <trkpt lat="44.35594" lon="3.53426">
        <ele>809</ele>
        <time>2017-03-01T17:27:51Z</time>
      </trkpt>
      <trkpt lat="44.35578" lon="3.53433">
        <ele>812</ele>
        <time>2017-03-01T17:29:51Z</time>
      </trkpt>
      <trkpt lat="44.35561" lon="3.53436">
        <ele>810</ele>
        <time>2017-03-01T17:31:51Z</time>
      </trkpt>
      <trkpt lat="44.35542" lon="3.5344">
        <ele>807</ele>
        <time>2017-03-01T17:33:51Z</time>
      </trkpt>
      <trkpt lat="44.35528" lon="3.53448">
        <ele>808</ele>
        <time>2017-03-01T17:35:51Z</time>
      </trkpt>
      <trkpt lat="44.3552" lon="3.53452">
        <ele>808</ele>
        <time>2017-03-01T17:37:51Z</time>
      </trkpt>
      <trkpt lat="44.35503" lon="3.53461">
        <ele>809</ele>
        <time>2017-03-01T17:39:51Z</time>
      </trkpt>
      <trkpt lat="44.35497" lon="3.53466">
        <ele>810</ele>
        <time>2017-03-01T17:41:51Z</time>
      </trkpt>
      <trkpt lat="44.35492" lon="3.5347">
        <ele>809</ele>
        <time>2017-03-01T17:43:51Z</time>
      </trkpt>
      <trkpt lat="44.35489" lon="3.53475">
        <ele>810</ele>
        <time>2017-03-01T17:45:51Z</time>
      </trkpt>
      <trkpt lat="44.35484" lon="3.53483">
        <ele>812</ele>
        <time>2017-03-01T17:47:51Z</time>
      </trkpt>
      <trkpt lat="44.3548" lon="3.53491">
        <ele>814</ele>
        <time>2017-03-01T17:49:51Z</time>
      </trkpt>
      <trkpt lat="44.35476" lon="3.535">
        <ele>816</ele>
        <time>2017-03-01T17:51:51Z</time>
      </trkpt>
      <trkpt lat="44.35466" lon="3.53515">
        <ele>816</ele>
        <time>2017-03-01T17:53:51Z</time>
      </trkpt>
      <trkpt lat="44.35464" lon="3.53519">
        <ele>816</ele>
        <time>2017-03-01T17:55:51Z</time>
      </trkpt>
      <trkpt lat="44.35464" lon="3.53523">
        <ele>817</ele>
        <time>2017-03-01T17:57:51Z</time>
      </trkpt>
      <trkpt lat="44.35463" lon="3.5354">
        <ele>823</ele>
        <time>2017-03-01T17:59:51Z</time>
      </trkpt>
      <trkpt lat="44.35461" lon="3.53552">
        <ele>826</ele>
        <time>2017-03-01T18:01:51Z</time>
      </trkpt>
      <trkpt lat="44.35458" lon="3.53562">
        <ele>828</ele>
        <time>2017-03-01T18:03:51Z</time>
      </trkpt>
      <trkpt lat="44.35454" lon="3.5357">
        <ele>828</ele>
        <time>2017-03-01T18:05:51Z</time>
      </trkpt>
      <trkpt lat="44.35451" lon="3.53578">
        <ele>829</ele>
        <time>2017-03-01T18:07:51Z</time>
      </trkpt>
      <trkpt lat="44.35448" lon="3.53586">
        <ele>830</ele>
        <time>2017-03-01T18:09:51Z</time>
      </trkpt>
      <trkpt lat="44.35446" lon="3.53598">
        <ele>832</ele>
        <time>2017-03-01T18:11:51Z</time>
      </trkpt>
      <trkpt lat="44.35445" lon="3.53608">
        <ele>834</ele>
        <time>2017-03-01T18:13:51Z</time>
      </trkpt>
      <trkpt lat="44.35442" lon="3.53616">
        <ele>835</ele>
        <time>2017-03-01T18:15:51Z</time>
      </trkpt>
      <trkpt lat="44.35439" lon="3.53621">
        <ele>834</ele>
        <time>2017-03-01T18:17:51Z</time>
      </trkpt>
      <trkpt lat="44.3543" lon="3.53627">
        <ele>831</ele>
        <time>2017-03-01T18:19:51Z</time>
      </trkpt>
      <trkpt lat="44.35414" lon="3.53638">
        <ele>826</ele>
        <time>2017-03-01T18:21:51Z</time>
      </trkpt>
      <trkpt lat="44.35404" lon="3.53646">
        <ele>826</ele>
        <time>2017-03-01T18:23:51Z</time>
      </trkpt>
      <trkpt lat="44.35394" lon="3.53659">
        <ele>827</ele>
        <time>2017-03-01T18:25:51Z</time>
      </trkpt>
      <trkpt lat="44.35392" lon="3.53664">
        <ele>828</ele>
        <time>2017-03-01T18:27:51Z</time>
      </trkpt>
      <trkpt lat="44.3539" lon="3.5367">
        <ele>828</ele>
        <time>2017-03-01T18:29:51Z</time>
      </trkpt>
      <trkpt lat="44.3539" lon="3.53677">
        <ele>830</ele>
        <time>2017-03-01T18:31:51Z</time>
      </trkpt>
      <trkpt lat="44.35391" lon="3.53684">
        <ele>832</ele>
        <time>2017-03-01T18:33:51Z</time>
      </trkpt>
      <trkpt lat="44.35398" lon="3.53707">
        <ele>838</ele>
        <time>2017-03-01T18:35:51Z</time>
      </trkpt>
      <trkpt lat="44.35403" lon="3.53724">
        <ele>843</ele>
        <time>2017-03-01T18:37:51Z</time>
      </trkpt>
      <trkpt lat="44.35404" lon="3.53733">
        <ele>846</ele>
        <time>2017-03-01T18:39:51Z</time>
      </trkpt>
      <trkpt lat="44.35404" lon="3.5374">
        <ele>847</ele>
        <time>2017-03-01T18:41:51Z</time>
      </trkpt>
      <trkpt lat="44.35402" lon="3.53746">
        <ele>848</ele>
        <time>2017-03-01T18:43:51Z</time>
      </trkpt>
      <trkpt lat="44.35401" lon="3.53746">
        <ele>847</ele>
        <time>2017-03-01T18:45:51Z</time>
      </trkpt>
      <trkpt lat="44.35396" lon="3.5375">
        <ele>847</ele>
        <time>2017-03-01T18:47:51Z</time>
      </trkpt>
      <trkpt lat="44.35386" lon="3.53752">
        <ele>844</ele>
        <time>2017-03-01T18:49:51Z</time>
      </trkpt>
      <trkpt lat="44.35372" lon="3.53752">
        <ele>840</ele>
        <time>2017-03-01T18:51:51Z</time>
      </trkpt>
      <trkpt lat="44.35365" lon="3.53755">
        <ele>838</ele>
        <time>2017-03-01T18:53:51Z</time>
      </trkpt>
      <trkpt lat="44.35361" lon="3.5376">
        <ele>838</ele>
        <time>2017-03-01T18:55:51Z</time>
      </trkpt>
      <trkpt lat="44.35357" lon="3.53764">
        <ele>838</ele>
        <time>2017-03-01T18:57:51Z</time>
      </trkpt>
      <trkpt lat="44.35352" lon="3.53776">
        <ele>839</ele>
        <time>2017-03-01T18:59:51Z</time>
      </trkpt>
      <trkpt lat="44.35345" lon="3.53801">
        <ele>843</ele>
        <time>2017-03-01T19:01:51Z</time>
      </trkpt>
      <trkpt lat="44.35338" lon="3.53828">
        <ele>846</ele>
        <time>2017-03-01T19:03:51Z</time>
      </trkpt>
      <trkpt lat="44.35335" lon="3.53843">
        <ele>849</ele>
        <time>2017-03-01T19:05:51Z</time>
      </trkpt>
      <trkpt lat="44.35334" lon="3.53855">
        <ele>852</ele>
        <time>2017-03-01T19:07:51Z</time>
      </trkpt>
      <trkpt lat="44.35335" lon="3.53865">
        <ele>855</ele>
        <time>2017-03-01T19:09:51Z</time>
      </trkpt>
      <trkpt lat="44.35337" lon="3.53873">
        <ele>858</ele>
        <time>2017-03-01T19:11:51Z</time>
      </trkpt>
      <trkpt lat="44.35344" lon="3.53894">
        <ele>865</ele>
        <time>2017-03-01T19:13:51Z</time>
      </trkpt>
      <trkpt lat="44.35346" lon="3.53903">
        <ele>868</ele>
        <time>2017-03-01T19:15:51Z</time>
      </trkpt>
      <trkpt lat="44.35346" lon="3.53905">
        <ele>869</ele>
        <time>2017-03-01T19:17:51Z</time>
      </trkpt>
      <trkpt lat="44.35347" lon="3.53906">
        <ele>870</ele>
        <time>2017-03-01T19:19:51Z</time>
      </trkpt>
      <trkpt lat="44.35348" lon="3.53909">
        <ele>871</ele>
        <time>2017-03-01T19:21:51Z</time>
      </trkpt>
      <trkpt lat="44.35347" lon="3.53913">
        <ele>871</ele>
        <time>2017-03-01T19:23:51Z</time>
      </trkpt>
      <trkpt lat="44.35344" lon="3.53918">
        <ele>872</ele>
        <time>2017-03-01T19:25:51Z</time>
      </trkpt>
      <trkpt lat="44.3534" lon="3.53918">
        <ele>871</ele>
        <time>2017-03-01T19:27:51Z</time>
      </trkpt>
      <trkpt lat="44.35334" lon="3.53919">
        <ele>869</ele>
        <time>2017-03-01T19:29:51Z</time>
      </trkpt>
      <trkpt lat="44.35327" lon="3.53922">
        <ele>870</ele>
        <time>2017-03-01T19:31:51Z</time>
      </trkpt>
      <trkpt lat="44.3532" lon="3.53928">
        <ele>872</ele>
        <time>2017-03-01T19:33:51Z</time>
      </trkpt>
      <trkpt lat="44.35316" lon="3.5393">
        <ele>873</ele>
        <time>2017-03-01T19:35:51Z</time>
      </trkpt>
      <trkpt lat="44.35312" lon="3.5393">
        <ele>873</ele>
        <time>2017-03-01T19:37:51Z</time>
      </trkpt>
      <trkpt lat="44.35309" lon="3.53928">
        <ele>872</ele>
        <time>2017-03-01T19:39:51Z</time>
      </trkpt>
      <trkpt lat="44.35307" lon="3.53924">
        <ele>871</ele>
        <time>2017-03-01T19:41:51Z</time>
      </trkpt>
      <trkpt lat="44.35306" lon="3.53922">
        <ele>870</ele>
        <time>2017-03-01T19:43:51Z</time>
      </trkpt>
      <trkpt lat="44.35303" lon="3.53919">
        <ele>869</ele>
        <time>2017-03-01T19:45:51Z</time>
      </trkpt>
      <trkpt lat="44.35296" lon="3.53914">
        <ele>867</ele>
        <time>2017-03-01T19:47:51Z</time>
      </trkpt>
      <trkpt lat="44.35292" lon="3.53913">
        <ele>867</ele>
        <time>2017-03-01T19:49:51Z</time>
      </trkpt>
      <trkpt lat="44.35285" lon="3.53913">
        <ele>867</ele>
        <time>2017-03-01T19:51:51Z</time>
      </trkpt>
      <trkpt lat="44.35268" lon="3.53915">
        <ele>868</ele>
        <time>2017-03-01T19:53:51Z</time>
      </trkpt>
      <trkpt lat="44.3525" lon="3.53916">
        <ele>868</ele>
        <time>2017-03-01T19:55:51Z</time>
      </trkpt>
      <trkpt lat="44.35238" lon="3.53917">
        <ele>871</ele>
        <time>2017-03-01T19:57:51Z</time>
      </trkpt>
      <trkpt lat="44.35223" lon="3.53916">
        <ele>875</ele>
        <time>2017-03-01T19:59:51Z</time>
      </trkpt>
      <trkpt lat="44.35208" lon="3.5391">
        <ele>880</ele>
        <time>2017-03-01T20:01:51Z</time>
      </trkpt>
      <trkpt lat="44.35187" lon="3.53905">
        <ele>886</ele>
        <time>2017-03-01T20:03:51Z</time>
      </trkpt>
      <trkpt lat="44.35175" lon="3.53899">
        <ele>890</ele>
        <time>2017-03-01T20:05:51Z</time>
      </trkpt>
      <trkpt lat="44.35169" lon="3.53894">
        <ele>893</ele>
        <time>2017-03-01T20:07:51Z</time>
      </trkpt>
      <trkpt lat="44.35168" lon="3.53891">
        <ele>894</ele>
        <time>2017-03-01T20:09:51Z</time>
      </trkpt>
      <trkpt lat="44.3517" lon="3.53881">
        <ele>894</ele>
        <time>2017-03-01T20:11:51Z</time>
      </trkpt>
      <trkpt lat="44.35177" lon="3.53871">
        <ele>892</ele>
        <time>2017-03-01T20:13:51Z</time>
      </trkpt>
      <trkpt lat="44.35193" lon="3.53851">
        <ele>886</ele>
        <time>2017-03-01T20:15:51Z</time>
      </trkpt>
      <trkpt lat="44.35203" lon="3.53837">
        <ele>881</ele>
        <time>2017-03-01T20:17:51Z</time>
      </trkpt>
      <trkpt lat="44.35208" lon="3.53826">
        <ele>879</ele>
        <time>2017-03-01T20:19:51Z</time>
      </trkpt>
      <trkpt lat="44.35209" lon="3.53819">
        <ele>879</ele>
        <time>2017-03-01T20:21:51Z</time>
      </trkpt>
      <trkpt lat="44.35208" lon="3.53805">
        <ele>881</ele>
        <time>2017-03-01T20:23:51Z</time>
      </trkpt>
      <trkpt lat="44.35205" lon="3.53784">
        <ele>885</ele>
        <time>2017-03-01T20:25:51Z</time>
      </trkpt>
      <trkpt lat="44.35202" lon="3.53761">
        <ele>889</ele>
        <time>2017-03-01T20:27:51Z</time>
      </trkpt>
      <trkpt lat="44.35199" lon="3.53744">
        <ele>891</ele>
        <time>2017-03-01T20:29:51Z</time>
      </trkpt>
      <trkpt lat="44.35196" lon="3.53724">
        <ele>892</ele>
        <time>2017-03-01T20:31:51Z</time>
      </trkpt>
      <trkpt lat="44.35191" lon="3.53707">
        <ele>893</ele>
        <time>2017-03-01T20:33:51Z</time>
      </trkpt>
      <trkpt lat="44.35182" lon="3.53685">
        <ele>898</ele>
        <time>2017-03-01T20:35:51Z</time>
      </trkpt>
      <trkpt lat="44.35181" lon="3.53682">
        <ele>898</ele>
        <time>2017-03-01T20:37:51Z</time>
      </trkpt>
      <trkpt lat="44.35178" lon="3.53668">
        <ele>899</ele>
        <time>2017-03-01T20:39:51Z</time>
      </trkpt>
      <trkpt lat="44.35176" lon="3.53644">
        <ele>897</ele>
        <time>2017-03-01T20:41:51Z</time>
      </trkpt>
      <trkpt lat="44.35175" lon="3.53623">
        <ele>896</ele>
        <time>2017-03-01T20:43:51Z</time>
      </trkpt>
      <trkpt lat="44.35176" lon="3.53596">
        <ele>892</ele>
        <time>2017-03-01T20:45:51Z</time>
      </trkpt>
      <trkpt lat="44.35175" lon="3.53578">
        <ele>890</ele>
        <time>2017-03-01T20:47:51Z</time>
      </trkpt>
      <trkpt lat="44.35173" lon="3.53571">
        <ele>889</ele>
        <time>2017-03-01T20:49:51Z</time>
      </trkpt>
      <trkpt lat="44.35172" lon="3.53568">
        <ele>889</ele>
        <time>2017-03-01T20:51:51Z</time>
      </trkpt>
      <trkpt lat="44.35165" lon="3.53563">
        <ele>892</ele>
        <time>2017-03-01T20:53:51Z</time>
      </trkpt>
      <trkpt lat="44.35156" lon="3.53558">
        <ele>894</ele>
        <time>2017-03-01T20:55:51Z</time>
      </trkpt>
      <trkpt lat="44.35146" lon="3.53549">
        <ele>895</ele>
        <time>2017-03-01T20:57:51Z</time>
      </trkpt>
      <trkpt lat="44.35137" lon="3.53536">
        <ele>895</ele>
        <time>2017-03-01T20:59:51Z</time>
      </trkpt>
      <trkpt lat="44.35131" lon="3.53523">
        <ele>893</ele>
        <time>2017-03-01T21:01:51Z</time>
      </trkpt>
      <trkpt lat="44.35122" lon="3.53514">
        <ele>893</ele>
        <time>2017-03-01T21:03:51Z</time>
      </trkpt>
      <trkpt lat="44.35113" lon="3.5351">
        <ele>895</ele>
        <time>2017-03-01T21:05:51Z</time>
      </trkpt>
      <trkpt lat="44.35107" lon="3.53509">
        <ele>896</ele>
        <time>2017-03-01T21:07:51Z</time>
      </trkpt>
      <trkpt lat="44.35099" lon="3.53506">
        <ele>898</ele>
        <time>2017-03-01T21:09:51Z</time>
      </trkpt>
      <trkpt lat="44.35088" lon="3.53499">
        <ele>898</ele>
        <time>2017-03-01T21:11:51Z</time>
      </trkpt>
      <trkpt lat="44.35073" lon="3.53481">
        <ele>900</ele>
        <time>2017-03-01T21:13:51Z</time>
      </trkpt>
      <trkpt lat="44.35065" lon="3.53473">
        <ele>901</ele>
        <time>2017-03-01T21:15:51Z</time>
      </trkpt>
      <trkpt lat="44.35054" lon="3.53461">
        <ele>903</ele>
        <time>2017-03-01T21:17:51Z</time>
      </trkpt>
      <trkpt lat="44.35044" lon="3.53445">
        <ele>903</ele>
        <time>2017-03-01T21:19:51Z</time>
      </trkpt>
      <trkpt lat="44.35035" lon="3.53422">
        <ele>901</ele>
        <time>2017-03-01T21:21:51Z</time>
      </trkpt>
      <trkpt lat="44.3503" lon="3.53411">
        <ele>902</ele>
        <time>2017-03-01T21:23:51Z</time>
      </trkpt>
      <trkpt lat="44.35025" lon="3.53401">
        <ele>904</ele>
        <time>2017-03-01T21:25:51Z</time>
      </trkpt>
      <trkpt lat="44.35016" lon="3.53393">
        <ele>907</ele>
        <time>2017-03-01T21:27:51Z</time>
      </trkpt>
      <trkpt lat="44.35004" lon="3.53386">
        <ele>910</ele>
        <time>2017-03-01T21:29:51Z</time>
      </trkpt>
      <trkpt lat="44.34989" lon="3.53383">
        <ele>912</ele>
        <time>2017-03-01T21:31:51Z</time>
      </trkpt>
      <trkpt lat="44.34978" lon="3.5338">
        <ele>913</ele>
        <time>2017-03-01T21:33:51Z</time>
      </trkpt>
      <trkpt lat="44.34969" lon="3.53372">
        <ele>914</ele>
        <time>2017-03-01T21:35:51Z</time>
      </trkpt>
      <trkpt lat="44.34964" lon="3.53364">
        <ele>914</ele>
        <time>2017-03-01T21:37:51Z</time>
      </trkpt>
      <trkpt lat="44.34961" lon="3.53356">
        <ele>914</ele>
        <time>2017-03-01T21:39:51Z</time>
      </trkpt>
      <trkpt lat="44.34962" lon="3.5335">
        <ele>914</ele>
        <time>2017-03-01T21:41:51Z</time>
      </trkpt>
      <trkpt lat="44.34967" lon="3.53342">
        <ele>914</ele>
        <time>2017-03-01T21:43:51Z</time>
      </trkpt>
      <trkpt lat="44.34977" lon="3.53336">
        <ele>913</ele>
        <time>2017-03-01T21:45:51Z</time>
      </trkpt>
      <trkpt lat="44.3499" lon="3.53332">
        <ele>913</ele>
        <time>2017-03-01T21:47:51Z</time>
      </trkpt>
      <trkpt lat="44.35003" lon="3.53329">
        <ele>912</ele>
        <time>2017-03-01T21:49:51Z</time>
      </trkpt>
      <trkpt lat="44.35007" lon="3.53326">
        <ele>912</ele>
        <time>2017-03-01T21:51:51Z</time>
      </trkpt>
      <trkpt lat="44.3501" lon="3.53323">
        <ele>912</ele>
        <time>2017-03-01T21:53:51Z</time>
      </trkpt>
      <trkpt lat="44.3501" lon="3.53318">
        <ele>913</ele>
        <time>2017-03-01T21:55:51Z</time>
      </trkpt>
      <trkpt lat="44.35007" lon="3.53315">
        <ele>914</ele>
        <time>2017-03-01T21:57:51Z</time>
      </trkpt>
      <trkpt lat="44.34997" lon="3.53314">
        <ele>916</ele>
        <time>2017-03-01T21:59:51Z</time>
      </trkpt>
      <trkpt lat="44.34984" lon="3.53317">
        <ele>916</ele>
        <time>2017-03-01T22:01:51Z</time>
      </trkpt>
      <trkpt lat="44.3497" lon="3.53325">
        <ele>915</ele>
        <time>2017-03-01T22:03:51Z</time>
      </trkpt>
      <trkpt lat="44.34951" lon="3.53338">
        <ele>915</ele>
        <time>2017-03-01T22:05:51Z</time>
      </trkpt>
      <trkpt lat="44.34934" lon="3.53352">
        <ele>916</ele>
        <time>2017-03-01T22:07:51Z</time>
      </trkpt>
      <trkpt lat="44.34927" lon="3.53363">
        <ele>916</ele>
        <time>2017-03-01T22:09:51Z</time>
      </trkpt>
      <trkpt lat="44.34917" lon="3.53377">
        <ele>917</ele>
        <time>2017-03-01T22:11:51Z</time>
      </trkpt>
      <trkpt lat="44.34908" lon="3.53389">
        <ele>917</ele>
        <time>2017-03-01T22:13:51Z</time>
      </trkpt>
      <trkpt lat="44.34902" lon="3.53396">
        <ele>917</ele>
        <time>2017-03-01T22:15:51Z</time>
      </trkpt>
      <trkpt lat="44.34881" lon="3.53413">
        <ele>917</ele>
        <time>2017-03-01T22:17:51Z</time>
      </trkpt>
      <trkpt lat="44.34859" lon="3.53434">
        <ele>921</ele>
        <time>2017-03-01T22:19:51Z</time>
      </trkpt>
      <trkpt lat="44.34841" lon="3.53452">
        <ele>923</ele>
        <time>2017-03-01T22:21:51Z</time>
      </trkpt>
      <trkpt lat="44.34823" lon="3.53467">
        <ele>925</ele>
        <time>2017-03-01T22:23:51Z</time>
      </trkpt>
      <trkpt lat="44.34804" lon="3.53483">
        <ele>927</ele>
        <time>2017-03-01T22:25:51Z</time>
      </trkpt>
      <trkpt lat="44.34795" lon="3.53491">
        <ele>928</ele>
        <time>2017-03-01T22:27:51Z</time>
      </trkpt>
      <trkpt lat="44.34788" lon="3.53501">
        <ele>929</ele>
        <time>2017-03-01T22:29:51Z</time>
      </trkpt>
      <trkpt lat="44.34774" lon="3.5352">
        <ele>931</ele>
        <time>2017-03-01T22:31:51Z</time>
      </trkpt>
      <trkpt lat="44.34751" lon="3.53552">
        <ele>934</ele>
        <time>2017-03-01T22:33:51Z</time>
      </trkpt>
      <trkpt lat="44.34722" lon="3.53595">
        <ele>939</ele>
        <time>2017-03-01T22:35:51Z</time>
      </trkpt>
      <trkpt lat="44.34706" lon="3.53621">
        <ele>942</ele>
        <time>2017-03-01T22:37:51Z</time>
      </trkpt>
      <trkpt lat="44.34698" lon="3.53634">
        <ele>944</ele>
        <time>2017-03-01T22:39:51Z</time>
      </trkpt>
      <trkpt lat="44.34686" lon="3.53647">
        <ele>945</ele>
        <time>2017-03-01T22:41:51Z</time>
      </trkpt>
      <trkpt lat="44.34664" lon="3.53666">
        <ele>946</ele>
        <time>2017-03-01T22:43:51Z</time>
      </trkpt>
      <trkpt lat="44.34658" lon="3.53672">
        <ele>947</ele>
        <time>2017-03-01T22:45:51Z</time>
      </trkpt>
      <trkpt lat="44.34655" lon="3.53675">
        <ele>948</ele>
        <time>2017-03-01T22:47:51Z</time>
      </trkpt>
      <trkpt lat="44.34649" lon="3.53676">
        <ele>949</ele>
        <time>2017-03-01T22:49:51Z</time>
      </trkpt>
      <trkpt lat="44.34644" lon="3.53676">
        <ele>949</ele>
        <time>2017-03-01T22:51:51Z</time>
      </trkpt>
      <trkpt lat="44.34639" lon="3.53675">
        <ele>949</ele>
        <time>2017-03-01T22:53:51Z</time>
      </trkpt>
      <trkpt lat="44.34621" lon="3.5367">
        <ele>950</ele>
        <time>2017-03-01T22:55:51Z</time>
      </trkpt>
      <trkpt lat="44.34606" lon="3.53665">
        <ele>950</ele>
        <time>2017-03-01T22:57:51Z</time>
      </trkpt>
      <trkpt lat="44.34591" lon="3.53663">
        <ele>951</ele>
        <time>2017-03-01T22:59:51Z</time>
      </trkpt>
      <trkpt lat="44.34582" lon="3.53662">
        <ele>951</ele>
        <time>2017-03-01T23:01:51Z</time>
      </trkpt>
      <trkpt lat="44.34574" lon="3.53663">
        <ele>951</ele>
        <time>2017-03-01T23:03:51Z</time>
      </trkpt>
      <trkpt lat="44.34564" lon="3.53667">
        <ele>952</ele>
        <time>2017-03-01T23:05:51Z</time>
      </trkpt>
      <trkpt lat="44.34545" lon="3.53677">
        <ele>953</ele>
        <time>2017-03-01T23:07:51Z</time>
      </trkpt>
      <trkpt lat="44.34534" lon="3.53685">
        <ele>954</ele>
        <time>2017-03-01T23:09:51Z</time>
      </trkpt>
      <trkpt lat="44.34529" lon="3.53694">
        <ele>955</ele>
        <time>2017-03-01T23:11:51Z</time>
      </trkpt>
      <trkpt lat="44.34527" lon="3.53703">
        <ele>956</ele>
        <time>2017-03-01T23:13:51Z</time>
      </trkpt>
      <trkpt lat="44.34526" lon="3.53711">
        <ele>957</ele>
        <time>2017-03-01T23:15:51Z</time>
      </trkpt>
      <trkpt lat="44.34527" lon="3.5372">
        <ele>958</ele>
        <time>2017-03-01T23:17:51Z</time>
      </trkpt>
      <trkpt lat="44.3453" lon="3.53734">
        <ele>960</ele>
        <time>2017-03-01T23:19:51Z</time>
      </trkpt>
      <trkpt lat="44.34537" lon="3.53765">
        <ele>963</ele>
        <time>2017-03-01T23:21:51Z</time>
      </trkpt>
      <trkpt lat="44.34541" lon="3.53791">
        <ele>965</ele>
        <time>2017-03-01T23:23:51Z</time>
      </trkpt>
      <trkpt lat="44.34542" lon="3.53819">
        <ele>968</ele>
        <time>2017-03-01T23:25:51Z</time>
      </trkpt>
      <trkpt lat="44.3454" lon="3.53848">
        <ele>970</ele>
        <time>2017-03-01T23:27:51Z</time>
      </trkpt>
      <trkpt lat="44.34537" lon="3.53875">
        <ele>970</ele>
        <time>2017-03-01T23:29:51Z</time>
      </trkpt>
      <trkpt lat="44.34528" lon="3.53921">
        <ele>972</ele>
        <time>2017-03-01T23:31:51Z</time>
      </trkpt>
      <trkpt lat="44.34518" lon="3.53979">
        <ele>974</ele>
        <time>2017-03-01T23:33:51Z</time>
      </trkpt>
      <trkpt lat="44.34508" lon="3.54041">
        <ele>976</ele>
        <time>2017-03-01T23:35:51Z</time>
      </trkpt>
      <trkpt lat="44.34493" lon="3.54101">
        <ele>979</ele>
        <time>2017-03-01T23:37:51Z</time>
      </trkpt>
      <trkpt lat="44.34493" lon="3.54101">
        <ele>979</ele>
        <time>2017-03-01T23:39:51Z</time>
      </trkpt>
      <trkpt lat="44.34488" lon="3.54098">
        <ele>979</ele>
        <time>2017-03-01T23:41:51Z</time>
      </trkpt>
      <trkpt lat="44.34484" lon="3.54094">
        <ele>979</ele>
        <time>2017-03-01T23:43:51Z</time>
      </trkpt>
      <trkpt lat="44.34478" lon="3.54087">
        <ele>979</ele>
        <time>2017-03-01T23:45:51Z</time>
      </trkpt>
      <trkpt lat="44.34473" lon="3.54077">
        <ele>979</ele>
        <time>2017-03-01T23:47:51Z</time>
      </trkpt>
      <trkpt lat="44.34468" lon="3.5407">
        <ele>979</ele>
        <time>2017-03-01T23:49:51Z</time>
      </trkpt>
      <trkpt lat="44.3446" lon="3.5406">
        <ele>979</ele>
        <time>2017-03-01T23:51:51Z</time>
      </trkpt>
      <trkpt lat="44.34455" lon="3.54055">
        <ele>979</ele>
        <time>2017-03-01T23:53:51Z</time>
      </trkpt>
      <trkpt lat="44.34452" lon="3.54051">
        <ele>979</ele>
        <time>2017-03-01T23:55:51Z</time>
      </trkpt>
      <trkpt lat="44.3445" lon="3.54048">
        <ele>979</ele>
        <time>2017-03-01T23:57:51Z</time>
      </trkpt>
      <trkpt lat="44.3445" lon="3.54038">
        <ele>979</ele>
        <time>2017-03-01T23:59:51Z</time>
      </trkpt>
      <trkpt lat="44.34449" lon="3.54022">
        <ele>978</ele>
        <time>2017-03-02T00:01:51Z</time>
      </trkpt>
      <trkpt lat="44.34447" lon="3.54008">
        <ele>978</ele>
        <time>2017-03-02T00:03:51Z</time>
      </trkpt>
      <trkpt lat="44.34446" lon="3.53997">
        <ele>977</ele>
        <time>2017-03-02T00:05:51Z</time>
      </trkpt>
      <trkpt lat="44.34445" lon="3.53983">
        <ele>977</ele>
        <time>2017-03-02T00:07:51Z</time>
      </trkpt>
      <trkpt lat="44.34445" lon="3.53968">
        <ele>976</ele>
        <time>2017-03-02T00:09:51Z</time>
      </trkpt>
      <trkpt lat="44.34444" lon="3.53955">
        <ele>976</ele>
        <time>2017-03-02T00:11:51Z</time>
      </trkpt>
      <trkpt lat="44.34444" lon="3.53943">
        <ele>976</ele>
        <time>2017-03-02T00:13:51Z</time>
      </trkpt>
      <trkpt lat="44.34444" lon="3.53932">
        <ele>975</ele>
        <time>2017-03-02T00:15:51Z</time>
      </trkpt>
      <trkpt lat="44.34442" lon="3.53914">
        <ele>975</ele>
        <time>2017-03-02T00:17:51Z</time>
      </trkpt>
      <trkpt lat="44.34442" lon="3.53907">
        <ele>975</ele>
        <time>2017-03-02T00:19:51Z</time>
      </trkpt>
      <trkpt lat="44.34441" lon="3.53893">
        <ele>975</ele>
        <time>2017-03-02T00:21:51Z</time>
      </trkpt>
      <trkpt lat="44.3444" lon="3.53879">
        <ele>975</ele>
        <time>2017-03-02T00:23:51Z</time>
      </trkpt>
      <trkpt lat="44.34435" lon="3.53866">
        <ele>976</ele>
        <time>2017-03-02T00:25:51Z</time>
      </trkpt>
      <trkpt lat="44.34431" lon="3.53852">
        <ele>976</ele>
        <time>2017-03-02T00:27:51Z</time>
      </trkpt>
      <trkpt lat="44.34426" lon="3.53837">
        <ele>976</ele>
        <time>2017-03-02T00:29:51Z</time>
      </trkpt>
      <trkpt lat="44.34423" lon="3.5383">
        <ele>976</ele>
        <time>2017-03-02T00:31:51Z</time>
      </trkpt>
      <trkpt lat="44.34421" lon="3.53827">
        <ele>976</ele>
        <time>2017-03-02T00:33:51Z</time>
      </trkpt>
      <trkpt lat="44.34418" lon="3.53825">
        <ele>976</ele>
        <time>2017-03-02T00:35:51Z</time>
      </trkpt>
      <trkpt lat="44.34407" lon="3.5382">
        <ele>976</ele>
        <time>2017-03-02T00:37:51Z</time>
      </trkpt>
      <trkpt lat="44.34399" lon="3.53814">
        <ele>976</ele>
        <time>2017-03-02T00:39:51Z</time>
      </trkpt>
      <trkpt lat="44.34395" lon="3.53808">
        <ele>975</ele>
        <time>2017-03-02T00:41:51Z</time>
      </trkpt>
      <trkpt lat="44.34388" lon="3.538">
        <ele>975</ele>
        <time>2017-03-02T00:43:51Z</time>
      </trkpt>
      <trkpt lat="44.34381" lon="3.53794">
        <ele>975</ele>
        <time>2017-03-02T00:45:51Z</time>
      </trkpt>
      <trkpt lat="44.34371" lon="3.53789">
        <ele>975</ele>
        <time>2017-03-02T00:47:51Z</time>
      </trkpt>
      <trkpt lat="44.34371" lon="3.53789">
        <ele>975</ele>
        <time>2017-03-02T00:49:51Z</time>
      </trkpt>
      <trkpt lat="44.34359" lon="3.53782">
        <ele>975</ele>
        <time>2017-03-02T00:51:51Z</time>
      </trkpt>
      <trkpt lat="44.34342" lon="3.53774">
        <ele>975</ele>
        <time>2017-03-02T00:53:51Z</time>
      </trkpt>
      <trkpt lat="44.3433" lon="3.53768">
        <ele>976</ele>
        <time>2017-03-02T00:55:51Z</time>
      </trkpt>
      <trkpt lat="44.34322" lon="3.53763">
        <ele>976</ele>
        <time>2017-03-02T00:57:51Z</time>
      </trkpt>
      <trkpt lat="44.34318" lon="3.53758">
        <ele>976</ele>
        <time>2017-03-02T00:59:51Z</time>
      </trkpt>
      <trkpt lat="44.34312" lon="3.53751">
        <ele>976</ele>
        <time>2017-03-02T01:01:51Z</time>
      </trkpt>
      <trkpt lat="44.34306" lon="3.53741">
        <ele>975</ele>
        <time>2017-03-02T01:03:51Z</time>
      </trkpt>
      <trkpt lat="44.34302" lon="3.53737">
        <ele>974</ele>
        <time>2017-03-02T01:05:51Z</time>
      </trkpt>
      <trkpt lat="44.34296" lon="3.53732">
        <ele>974</ele>
        <time>2017-03-02T01:07:51Z</time>
      </trkpt>
      <trkpt lat="44.34291" lon="3.53729">
        <ele>973</ele>
        <time>2017-03-02T01:09:51Z</time>
      </trkpt>
      <trkpt lat="44.34287" lon="3.53724">
        <ele>973</ele>
        <time>2017-03-02T01:11:51Z</time>
      </trkpt>
      <trkpt lat="44.34276" lon="3.53712">
        <ele>971</ele>
        <time>2017-03-02T01:13:51Z</time>
      </trkpt>
      <trkpt lat="44.34261" lon="3.537">
        <ele>970</ele>
        <time>2017-03-02T01:15:51Z</time>
      </trkpt>
      <trkpt lat="44.34246" lon="3.53688">
        <ele>969</ele>
        <time>2017-03-02T01:17:51Z</time>
      </trkpt>
      <trkpt lat="44.34228" lon="3.53676">
        <ele>968</ele>
        <time>2017-03-02T01:19:51Z</time>
      </trkpt>
      <trkpt lat="44.34208" lon="3.53665">
        <ele>967</ele>
        <time>2017-03-02T01:21:51Z</time>
      </trkpt>
      <trkpt lat="44.34192" lon="3.53655">
        <ele>966</ele>
        <time>2017-03-02T01:23:51Z</time>
      </trkpt>
      <trkpt lat="44.34174" lon="3.53644">
        <ele>965</ele>
        <time>2017-03-02T01:25:51Z</time>
      </trkpt>
      <trkpt lat="44.34154" lon="3.53632">
        <ele>964</ele>
        <time>2017-03-02T01:27:51Z</time>
      </trkpt>
      <trkpt lat="44.34142" lon="3.53622">
        <ele>963</ele>
        <time>2017-03-02T01:29:51Z</time>
      </trkpt>
      <trkpt lat="44.3413" lon="3.53611">
        <ele>961</ele>
        <time>2017-03-02T01:31:51Z</time>
      </trkpt>
      <trkpt lat="44.34119" lon="3.53601">
        <ele>960</ele>
        <time>2017-03-02T01:33:51Z</time>
      </trkpt>
      <trkpt lat="44.3411" lon="3.53594">
        <ele>959</ele>
        <time>2017-03-02T01:35:51Z</time>
      </trkpt>
      <trkpt lat="44.34101" lon="3.53587">
        <ele>958</ele>
        <time>2017-03-02T01:37:51Z</time>
      </trkpt>
      <trkpt lat="44.34092" lon="3.53578">
        <ele>957</ele>
        <time>2017-03-02T01:39:51Z</time>
      </trkpt>
      <trkpt lat="44.34083" lon="3.53569">
        <ele>956</ele>
        <time>2017-03-02T01:41:51Z</time>
      </trkpt>
      <trkpt lat="44.34077" lon="3.53563">
        <ele>955</ele>
        <time>2017-03-02T01:43:51Z</time>
      </trkpt>
      <trkpt lat="44.34067" lon="3.53556">
        <ele>954</ele>
        <time>2017-03-02T01:45:51Z</time>
      </trkpt>
      <trkpt lat="44.34052" lon="3.53549">
        <ele>952</ele>
        <time>2017-03-02T01:47:51Z</time>
      </trkpt>
      <trkpt lat="44.34028" lon="3.53541">
        <ele>951</ele>
        <time>2017-03-02T01:49:51Z</time>
      </trkpt>
      <trkpt lat="44.34008" lon="3.53536">
        <ele>950</ele>
        <time>2017-03-02T01:51:51Z</time>
      </trkpt>
      <trkpt lat="44.33999" lon="3.53536">
        <ele>951</ele>
        <time>2017-03-02T01:53:51Z</time>
      </trkpt>
      <trkpt lat="44.33988" lon="3.53537">
        <ele>951</ele>
        <time>2017-03-02T01:55:51Z</time>
      </trkpt>
      <trkpt lat="44.33963" lon="3.53541">
        <ele>954</ele>
        <time>2017-03-02T01:57:51Z</time>
      </trkpt>
      <trkpt lat="44.33956" lon="3.5354">
        <ele>954</ele>
        <time>2017-03-02T01:59:51Z</time>
      </trkpt>
      <trkpt lat="44.3395" lon="3.53536">
        <ele>954</ele>
        <time>2017-03-02T02:01:51Z</time>
      </trkpt>
      <trkpt lat="44.33946" lon="3.53532">
        <ele>953</ele>
        <time>2017-03-02T02:03:51Z</time>
      </trkpt>
      <trkpt lat="44.33941" lon="3.53525">
        <ele>952</ele>
        <time>2017-03-02T02:05:51Z</time>
      </trkpt>
      <trkpt lat="44.33927" lon="3.53504">
        <ele>950</ele>
        <time>2017-03-02T02:07:51Z</time>
      </trkpt>
      <trkpt lat="44.33917" lon="3.53489">
        <ele>949</ele>
        <time>2017-03-02T02:09:51Z</time>
      </trkpt>
      <trkpt lat="44.33911" lon="3.53477">
        <ele>948</ele>
        <time>2017-03-02T02:11:51Z</time>
      </trkpt>
      <trkpt lat="44.33909" lon="3.53472">
        <ele>947</ele>
        <time>2017-03-02T02:13:51Z</time>
      </trkpt>
      <trkpt lat="44.33909" lon="3.53465">
        <ele>946</ele>
        <time>2017-03-02T02:15:51Z</time>
      </trkpt>
      <trkpt lat="44.33909" lon="3.5346">
        <ele>946</ele>
        <time>2017-03-02T02:17:51Z</time>
      </trkpt>
      <trkpt lat="44.33911" lon="3.53435">
        <ele>943</ele>
        <time>2017-03-02T02:19:51Z</time>
      </trkpt>
      <trkpt lat="44.33914" lon="3.53417">
        <ele>941</ele>
        <time>2017-03-02T02:21:51Z</time>
      </trkpt>
      <trkpt lat="44.33917" lon="3.53408">
        <ele>942</ele>
        <time>2017-03-02T02:23:51Z</time>
      </trkpt>
      <trkpt lat="44.33917" lon="3.534">
        <ele>942</ele>
        <time>2017-03-02T02:25:51Z</time>
      </trkpt>
      <trkpt lat="44.33916" lon="3.53394">
        <ele>942</ele>
        <time>2017-03-02T02:27:51Z</time>
      </trkpt>
      <trkpt lat="44.33914" lon="3.53389">
        <ele>942</ele>
        <time>2017-03-02T02:29:51Z</time>
      </trkpt>
      <trkpt lat="44.3391" lon="3.53386">
        <ele>942</ele>
        <time>2017-03-02T02:31:51Z</time>
      </trkpt>
      <trkpt lat="44.33909" lon="3.53386">
        <ele>942</ele>
        <time>2017-03-02T02:33:51Z</time>
      </trkpt>
      <trkpt lat="44.33909" lon="3.53386">
        <ele>942</ele>
        <time>2017-03-02T02:35:51Z</time>
      </trkpt>
      <trkpt lat="44.33903" lon="3.53383">
        <ele>942</ele>
        <time>2017-03-02T02:37:51Z</time>
      </trkpt>
      <trkpt lat="44.33894" lon="3.53377">
        <ele>942</ele>
        <time>2017-03-02T02:39:51Z</time>
      </trkpt>
      <trkpt lat="44.33887" lon="3.53371">
        <ele>941</ele>
        <time>2017-03-02T02:41:51Z</time>
      </trkpt>
      <trkpt lat="44.33882" lon="3.53363">
        <ele>941</ele>
        <time>2017-03-02T02:43:51Z</time>
      </trkpt>
      <trkpt lat="44.33877" lon="3.53354">
        <ele>941</ele>
        <time>2017-03-02T02:45:51Z</time>
      </trkpt>
      <trkpt lat="44.33874" lon="3.53348">
        <ele>941</ele>
        <time>2017-03-02T02:47:51Z</time>
      </trkpt>
      <trkpt lat="44.33869" lon="3.53342">
        <ele>940</ele>
        <time>2017-03-02T02:49:51Z</time>
      </trkpt>
      <trkpt lat="44.33865" lon="3.53337">
        <ele>940</ele>
        <time>2017-03-02T02:51:51Z</time>
      </trkpt>
      <trkpt lat="44.33849" lon="3.53322">
        <ele>939</ele>
        <time>2017-03-02T02:53:51Z</time>
      </trkpt>
      <trkpt lat="44.33842" lon="3.53312">
        <ele>939</ele>
        <time>2017-03-02T02:55:51Z</time>
      </trkpt>
      <trkpt lat="44.33836" lon="3.53304">
        <ele>939</ele>
        <time>2017-03-02T02:57:51Z</time>
      </trkpt>
      <trkpt lat="44.33832" lon="3.53297">
        <ele>939</ele>
        <time>2017-03-02T02:59:51Z</time>
      </trkpt>
      <trkpt lat="44.33828" lon="3.53292">
        <ele>939</ele>
        <time>2017-03-02T03:01:51Z</time>
      </trkpt>
      <trkpt lat="44.33824" lon="3.53289">
        <ele>939</ele>
        <time>2017-03-02T03:03:51Z</time>
      </trkpt>
      <trkpt lat="44.33811" lon="3.53282">
        <ele>937</ele>
        <time>2017-03-02T03:05:51Z</time>
      </trkpt>
      <trkpt lat="44.33806" lon="3.53277">
        <ele>937</ele>
        <time>2017-03-02T03:07:51Z</time>
      </trkpt>
      <trkpt lat="44.33799" lon="3.53266">
        <ele>936</ele>
        <time>2017-03-02T03:09:51Z</time>
      </trkpt>
      <trkpt lat="44.33792" lon="3.53255">
        <ele>936</ele>
        <time>2017-03-02T03:11:51Z</time>
      </trkpt>
      <trkpt lat="44.33787" lon="3.5325">
        <ele>935</ele>
        <time>2017-03-02T03:13:51Z</time>
      </trkpt>
      <trkpt lat="44.33781" lon="3.53245">
        <ele>934</ele>
        <time>2017-03-02T03:15:51Z</time>
      </trkpt>
      <trkpt lat="44.33763" lon="3.53236">
        <ele>932</ele>
        <time>2017-03-02T03:17:51Z</time>
      </trkpt>
      <trkpt lat="44.33742" lon="3.53226">
        <ele>929</ele>
        <time>2017-03-02T03:19:51Z</time>
      </trkpt>
      <trkpt lat="44.33735" lon="3.5322">
        <ele>929</ele>
        <time>2017-03-02T03:21:51Z</time>
      </trkpt>
      <trkpt lat="44.33726" lon="3.5321">
        <ele>929</ele>
        <time>2017-03-02T03:23:51Z</time>
      </trkpt>
      <trkpt lat="44.33713" lon="3.53197">
        <ele>928</ele>
        <time>2017-03-02T03:25:51Z</time>
      </trkpt>
      <trkpt lat="44.337" lon="3.53185">
        <ele>927</ele>
        <time>2017-03-02T03:27:51Z</time>
      </trkpt>
      <trkpt lat="44.33694" lon="3.53178">
        <ele>927</ele>
        <time>2017-03-02T03:29:51Z</time>
      </trkpt>
      <trkpt lat="44.33688" lon="3.53169">
        <ele>927</ele>
        <time>2017-03-02T03:31:51Z</time>
      </trkpt>
      <trkpt lat="44.3368" lon="3.53159">
        <ele>926</ele>
        <time>2017-03-02T03:33:51Z</time>
      </trkpt>
      <trkpt lat="44.33672" lon="3.53151">
        <ele>926</ele>
        <time>2017-03-02T03:35:51Z</time>
      </trkpt>
      <trkpt lat="44.33662" lon="3.53142">
        <ele>925</ele>
        <time>2017-03-02T03:37:51Z</time>
      </trkpt>
      <trkpt lat="44.33654" lon="3.53134">
        <ele>924</ele>
        <time>2017-03-02T03:39:51Z</time>
      </trkpt>
      <trkpt lat="44.3365" lon="3.53125">
        <ele>924</ele>
        <time>2017-03-02T03:41:51Z</time>
      </trkpt>
      <trkpt lat="44.33646" lon="3.53113">
        <ele>923</ele>
        <time>2017-03-02T03:43:51Z</time>
      </trkpt>
      <trkpt lat="44.33645" lon="3.53102">
        <ele>924</ele>
        <time>2017-03-02T03:45:51Z</time>
      </trkpt>
      <trkpt lat="44.33644" lon="3.53087">
        <ele>924</ele>
        <time>2017-03-02T03:47:51Z</time>
      </trkpt>
      <trkpt lat="44.33643" lon="3.53078">
        <ele>925</ele>
        <time>2017-03-02T03:49:51Z</time>
      </trkpt>
      <trkpt lat="44.3364" lon="3.53068">
        <ele>926</ele>
        <time>2017-03-02T03:51:51Z</time>
      </trkpt>
      <trkpt lat="44.33636" lon="3.53061">
        <ele>926</ele>
        <time>2017-03-02T03:53:51Z</time>
      </trkpt>
      <trkpt lat="44.33629" lon="3.53054">
        <ele>925</ele>
        <time>2017-03-02T03:55:51Z</time>
      </trkpt>
      <trkpt lat="44.33619" lon="3.53046">
        <ele>924</ele>
        <time>2017-03-02T03:57:51Z</time>
      </trkpt>
      <trkpt lat="44.33611" lon="3.53037">
        <ele>924</ele>
        <time>2017-03-02T03:59:51Z</time>
      </trkpt>
      <trkpt lat="44.33602" lon="3.53027">
        <ele>924</ele>
        <time>2017-03-02T04:01:51Z</time>
      </trkpt>
      <trkpt lat="44.33595" lon="3.53021">
        <ele>923</ele>
        <time>2017-03-02T04:03:51Z</time>
      </trkpt>
      <trkpt lat="44.33585" lon="3.53017">
        <ele>922</ele>
        <time>2017-03-02T04:05:51Z</time>
      </trkpt>
      <trkpt lat="44.33559" lon="3.53014">
        <ele>919</ele>
        <time>2017-03-02T04:07:51Z</time>
      </trkpt>
      <trkpt lat="44.33522" lon="3.53012">
        <ele>914</ele>
        <time>2017-03-02T04:09:51Z</time>
      </trkpt>
      <trkpt lat="44.3351" lon="3.53011">
        <ele>912</ele>
        <time>2017-03-02T04:11:51Z</time>
      </trkpt>
      <trkpt lat="44.33497" lon="3.53008">
        <ele>911</ele>
        <time>2017-03-02T04:13:51Z</time>
      </trkpt>
      <trkpt lat="44.33479" lon="3.53002">
        <ele>910</ele>
        <time>2017-03-02T04:15:51Z</time>
      </trkpt>
      <trkpt lat="44.33468" lon="3.53">
        <ele>909</ele>
        <time>2017-03-02T04:17:51Z</time>
      </trkpt>
      <trkpt lat="44.33463" lon="3.52997">
        <ele>908</ele>
        <time>2017-03-02T04:19:51Z</time>
      </trkpt>
      <trkpt lat="44.33459" lon="3.52993">
        <ele>908</ele>
        <time>2017-03-02T04:21:51Z</time>
      </trkpt>
      <trkpt lat="44.33453" lon="3.52988">
        <ele>907</ele>
        <time>2017-03-02T04:23:51Z</time>
      </trkpt>
      <trkpt lat="44.33446" lon="3.52985">
        <ele>907</ele>
        <time>2017-03-02T04:25:51Z</time>
      </trkpt>
      <trkpt lat="44.3344" lon="3.52982">
        <ele>906</ele>
        <time>2017-03-02T04:27:51Z</time>
      </trkpt>
      <trkpt lat="44.33434" lon="3.52981">
        <ele>905</ele>
        <time>2017-03-02T04:29:51Z</time>
      </trkpt>
      <trkpt lat="44.33429" lon="3.5298">
        <ele>905</ele>
        <time>2017-03-02T04:31:51Z</time>
      </trkpt>
      <trkpt lat="44.33425" lon="3.52976">
        <ele>905</ele>
        <time>2017-03-02T04:33:51Z</time>
      </trkpt>
      <trkpt lat="44.33421" lon="3.52971">
        <ele>904</ele>
        <time>2017-03-02T04:35:51Z</time>
      </trkpt>
      <trkpt lat="44.33412" lon="3.52956">
        <ele>904</ele>
        <time>2017-03-02T04:37:51Z</time>
      </trkpt>
      <trkpt lat="44.334" lon="3.52938">
        <ele>903</ele>
        <time>2017-03-02T04:39:51Z</time>
      </trkpt>
      <trkpt lat="44.33387" lon="3.52916">
        <ele>903</ele>
        <time>2017-03-02T04:41:51Z</time>
      </trkpt>
      <trkpt lat="44.33378" lon="3.52899">
        <ele>902</ele>
        <time>2017-03-02T04:43:51Z</time>
      </trkpt>
      <trkpt lat="44.33376" lon="3.52895">
        <ele>902</ele>
        <time>2017-03-02T04:45:51Z</time>
      </trkpt>
      <trkpt lat="44.33371" lon="3.52889">
        <ele>902</ele>
        <time>2017-03-02T04:47:51Z</time>
      </trkpt>
      <trkpt lat="44.33362" lon="3.52877">
        <ele>902</ele>
        <time>2017-03-02T04:49:51Z</time>
      </trkpt>
      <trkpt lat="44.33354" lon="3.52864">
        <ele>901</ele>
        <time>2017-03-02T04:51:51Z</time>
      </trkpt>
      <trkpt lat="44.33343" lon="3.5285">
        <ele>900</ele>
        <time>2017-03-02T04:53:51Z</time>
      </trkpt>
      <trkpt lat="44.33327" lon="3.52833">
        <ele>898</ele>
        <time>2017-03-02T04:55:51Z</time>
      </trkpt>
      <trkpt lat="44.33314" lon="3.52819">
        <ele>899</ele>
        <time>2017-03-02T04:57:51Z</time>
      </trkpt>
      <trkpt lat="44.3329" lon="3.52796">
        <ele>898</ele>
        <time>2017-03-02T04:59:51Z</time>
      </trkpt>
      <trkpt lat="44.3327" lon="3.52775">
        <ele>898</ele>
        <time>2017-03-02T05:01:51Z</time>
      </trkpt>
      <trkpt lat="44.33252" lon="3.52754">
        <ele>898</ele>
        <time>2017-03-02T05:03:51Z</time>
      </trkpt>
      <trkpt lat="44.33238" lon="3.52738">
        <ele>899</ele>
        <time>2017-03-02T05:05:51Z</time>
      </trkpt>
      <trkpt lat="44.33222" lon="3.52724">
        <ele>899</ele>
        <time>2017-03-02T05:07:51Z</time>
      </trkpt>
      <trkpt lat="44.33213" lon="3.52718">
        <ele>899</ele>
        <time>2017-03-02T05:09:51Z</time>
      </trkpt>
      <trkpt lat="44.33203" lon="3.52714">
        <ele>898</ele>
        <time>2017-03-02T05:11:51Z</time>
      </trkpt>
      <trkpt lat="44.33174" lon="3.52704">
        <ele>896</ele>
        <time>2017-03-02T05:13:51Z</time>
      </trkpt>
      <trkpt lat="44.33165" lon="3.52699">
        <ele>896</ele>
        <time>2017-03-02T05:15:51Z</time>
      </trkpt>
      <trkpt lat="44.33153" lon="3.52693">
        <ele>895</ele>
        <time>2017-03-02T05:17:51Z</time>
      </trkpt>
      <trkpt lat="44.3314" lon="3.52684">
        <ele>895</ele>
        <time>2017-03-02T05:19:51Z</time>
      </trkpt>
      <trkpt lat="44.33131" lon="3.52676">
        <ele>895</ele>
        <time>2017-03-02T05:21:51Z</time>
      </trkpt>
      <trkpt lat="44.3312" lon="3.52669">
        <ele>894</ele>
        <time>2017-03-02T05:23:51Z</time>
      </trkpt>
      <trkpt lat="44.33112" lon="3.52664">
        <ele>894</ele>
        <time>2017-03-02T05:25:51Z</time>
      </trkpt>
      <trkpt lat="44.33108" lon="3.52662">
        <ele>894</ele>
        <time>2017-03-02T05:27:51Z</time>
      </trkpt>
      <trkpt lat="44.33099" lon="3.52657">
        <ele>894</ele>
        <time>2017-03-02T05:29:51Z</time>
      </trkpt>
      <trkpt lat="44.33084" lon="3.52649">
        <ele>893</ele>
        <time>2017-03-02T05:31:51Z</time>
      </trkpt>
      <trkpt lat="44.33072" lon="3.5264">
        <ele>893</ele>
        <time>2017-03-02T05:33:51Z</time>
      </trkpt>
      <trkpt lat="44.33063" lon="3.5263">
        <ele>893</ele>
        <time>2017-03-02T05:35:51Z</time>
      </trkpt>
      <trkpt lat="44.33053" lon="3.52618">
        <ele>893</ele>
        <time>2017-03-02T05:37:51Z</time>
      </trkpt>
      <trkpt lat="44.33041" lon="3.52605">
        <ele>893</ele>
        <time>2017-03-02T05:39:51Z</time>
      </trkpt>
      <trkpt lat="44.33028" lon="3.52593">
        <ele>892</ele>
        <time>2017-03-02T05:41:51Z</time>
      </trkpt>
      <trkpt lat="44.33014" lon="3.52582">
        <ele>891</ele>
        <time>2017-03-02T05:43:51Z</time>
      </trkpt>
      <trkpt lat="44.32994" lon="3.52569">
        <ele>890</ele>
        <time>2017-03-02T05:45:51Z</time>
      </trkpt>
      <trkpt lat="44.32977" lon="3.52561">
        <ele>890</ele>
        <time>2017-03-02T05:47:51Z</time>
      </trkpt>
      <trkpt lat="44.32953" lon="3.52544">
        <ele>890</ele>
        <time>2017-03-02T05:49:51Z</time>
      </trkpt>
      <trkpt lat="44.32932" lon="3.5253">
        <ele>889</ele>
        <time>2017-03-02T05:51:51Z</time>
      </trkpt>
      <trkpt lat="44.32913" lon="3.52517">
        <ele>889</ele>
        <time>2017-03-02T05:53:51Z</time>
      </trkpt>
      <trkpt lat="44.32895" lon="3.52504">
        <ele>890</ele>
        <time>2017-03-02T05:55:51Z</time>
      </trkpt>
      <trkpt lat="44.32882" lon="3.52496">
        <ele>890</ele>
        <time>2017-03-02T05:57:51Z</time>
      </trkpt>
      <trkpt lat="44.32869" lon="3.52492">
        <ele>890</ele>
        <time>2017-03-02T05:59:51Z</time>
      </trkpt>
      <trkpt lat="44.32863" lon="3.5249">
        <ele>890</ele>
        <time>2017-03-02T06:01:51Z</time>
      </trkpt>
      <trkpt lat="44.32856" lon="3.5249">
        <ele>890</ele>
        <time>2017-03-02T06:03:51Z</time>
      </trkpt>
      <trkpt lat="44.32845" lon="3.52493">
        <ele>890</ele>
        <time>2017-03-02T06:05:51Z</time>
      </trkpt>
      <trkpt lat="44.32832" lon="3.525">
        <ele>890</ele>
        <time>2017-03-02T06:07:51Z</time>
      </trkpt>
      <trkpt lat="44.32817" lon="3.52507">
        <ele>890</ele>
        <time>2017-03-02T06:09:51Z</time>
      </trkpt>
      <trkpt lat="44.32817" lon="3.52507">
        <ele>890</ele>
        <time>2017-03-02T06:11:51Z</time>
      </trkpt>
      <trkpt lat="44.3281" lon="3.52502">
        <ele>891</ele>
        <time>2017-03-02T06:13:51Z</time>
      </trkpt>
      <trkpt lat="44.32801" lon="3.52494">
        <ele>891</ele>
        <time>2017-03-02T06:15:51Z</time>
      </trkpt>
      <trkpt lat="44.32792" lon="3.52485">
        <ele>891</ele>
        <time>2017-03-02T06:17:51Z</time>
      </trkpt>
      <trkpt lat="44.32777" lon="3.52467">
        <ele>891</ele>
        <time>2017-03-02T06:19:51Z</time>
      </trkpt>
      <trkpt lat="44.32765" lon="3.52456">
        <ele>891</ele>
        <time>2017-03-02T06:21:51Z</time>
      </trkpt>
      <trkpt lat="44.32758" lon="3.52445">
        <ele>891</ele>
        <time>2017-03-02T06:23:51Z</time>
      </trkpt>
      <trkpt lat="44.32754" lon="3.52438">
        <ele>891</ele>
        <time>2017-03-02T06:25:51Z</time>
      </trkpt>
      <trkpt lat="44.32749" lon="3.5243">
        <ele>891</ele>
        <time>2017-03-02T06:27:51Z</time>
      </trkpt>
      <trkpt lat="44.32739" lon="3.5242">
        <ele>890</ele>
        <time>2017-03-02T06:29:51Z</time>
      </trkpt>
      <trkpt lat="44.32729" lon="3.52412">
        <ele>890</ele>
        <time>2017-03-02T06:31:51Z</time>
      </trkpt>
      <trkpt lat="44.3272" lon="3.52407">
        <ele>890</ele>
        <time>2017-03-02T06:33:51Z</time>
      </trkpt>
      <trkpt lat="44.32711" lon="3.52403">
        <ele>890</ele>
        <time>2017-03-02T06:35:51Z</time>
      </trkpt>
      <trkpt lat="44.32704" lon="3.524">
        <ele>890</ele>
        <time>2017-03-02T06:37:51Z</time>
      </trkpt>
      <trkpt lat="44.32697" lon="3.52396">
        <ele>890</ele>
        <time>2017-03-02T06:39:51Z</time>
      </trkpt>
      <trkpt lat="44.32692" lon="3.52395">
        <ele>890</ele>
        <time>2017-03-02T06:41:51Z</time>
      </trkpt>
      <trkpt lat="44.32682" lon="3.52396">
        <ele>891</ele>
        <time>2017-03-02T06:43:51Z</time>
      </trkpt>
      <trkpt lat="44.32671" lon="3.52394">
        <ele>891</ele>
        <time>2017-03-02T06:45:51Z</time>
      </trkpt>
      <trkpt lat="44.32661" lon="3.5239">
        <ele>892</ele>
        <time>2017-03-02T06:47:51Z</time>
      </trkpt>
      <trkpt lat="44.32642" lon="3.52379">
        <ele>893</ele>
        <time>2017-03-02T06:49:51Z</time>
      </trkpt>
      <trkpt lat="44.32629" lon="3.52371">
        <ele>895</ele>
        <time>2017-03-02T06:51:51Z</time>
      </trkpt>
      <trkpt lat="44.32625" lon="3.52367">
        <ele>895</ele>
        <time>2017-03-02T06:53:51Z</time>
      </trkpt>
      <trkpt lat="44.3262" lon="3.52363">
        <ele>895</ele>
        <time>2017-03-02T06:55:51Z</time>
      </trkpt>
      <trkpt lat="44.32619" lon="3.5236">
        <ele>895</ele>
        <time>2017-03-02T06:57:51Z</time>
      </trkpt>
      <trkpt lat="44.32614" lon="3.52352">
        <ele>896</ele>
        <time>2017-03-02T06:59:51Z</time>
      </trkpt>
      <trkpt lat="44.3261" lon="3.52347">
        <ele>896</ele>
        <time>2017-03-02T07:01:51Z</time>
      </trkpt>
      <trkpt lat="44.32606" lon="3.52343">
        <ele>897</ele>
        <time>2017-03-02T07:03:51Z</time>
      </trkpt>
      <trkpt lat="44.32603" lon="3.52339">
        <ele>897</ele>
        <time>2017-03-02T07:05:51Z</time>
      </trkpt>
      <trkpt lat="44.32601" lon="3.52334">
        <ele>897</ele>
        <time>2017-03-02T07:07:51Z</time>
      </trkpt>
      <trkpt lat="44.32598" lon="3.52325">
        <ele>897</ele>
        <time>2017-03-02T07:09:51Z</time>
      </trkpt>
      <trkpt lat="44.3259" lon="3.52312">
        <ele>898</ele>
        <time>2017-03-02T07:11:51Z</time>
      </trkpt>
      <trkpt lat="44.32583" lon="3.52295">
        <ele>899</ele>
        <time>2017-03-02T07:13:51Z</time>
      </trkpt>
      <trkpt lat="44.32576" lon="3.5228">
        <ele>899</ele>
        <time>2017-03-02T07:15:51Z</time>
      </trkpt>
      <trkpt lat="44.32565" lon="3.52255">
        <ele>900</ele>
        <time>2017-03-02T07:17:51Z</time>
      </trkpt>
      <trkpt lat="44.32555" lon="3.52232">
        <ele>900</ele>
        <time>2017-03-02T07:19:51Z</time>
      </trkpt>
      <trkpt lat="44.32549" lon="3.5222">
        <ele>900</ele>
        <time>2017-03-02T07:21:51Z</time>
      </trkpt>
      <trkpt lat="44.32545" lon="3.52215">
        <ele>900</ele>
        <time>2017-03-02T07:23:51Z</time>
      </trkpt>
      <trkpt lat="44.32538" lon="3.52208">
        <ele>900</ele>
        <time>2017-03-02T07:25:51Z</time>
      </trkpt>
      <trkpt lat="44.32529" lon="3.52202">
        <ele>900</ele>
        <time>2017-03-02T07:27:51Z</time>
      </trkpt>
      <trkpt lat="44.3252" lon="3.52199">
        <ele>901</ele>
        <time>2017-03-02T07:29:51Z</time>
      </trkpt>
      <trkpt lat="44.32513" lon="3.52198">
        <ele>901</ele>
        <time>2017-03-02T07:31:51Z</time>
      </trkpt>
      <trkpt lat="44.32506" lon="3.52197">
        <ele>902</ele>
        <time>2017-03-02T07:33:51Z</time>
      </trkpt>
      <trkpt lat="44.32502" lon="3.52196">
        <ele>902</ele>
        <time>2017-03-02T07:35:51Z</time>
      </trkpt>
      <trkpt lat="44.325" lon="3.52195">
        <ele>902</ele>
        <time>2017-03-02T07:37:51Z</time>
      </trkpt>
      <trkpt lat="44.32494" lon="3.52191">
        <ele>902</ele>
        <time>2017-03-02T07:39:51Z</time>
      </trkpt>
      <trkpt lat="44.32489" lon="3.52191">
        <ele>902</ele>
        <time>2017-03-02T07:41:51Z</time>
      </trkpt>
      <trkpt lat="44.32477" lon="3.52193">
        <ele>903</ele>
        <time>2017-03-02T07:43:51Z</time>
      </trkpt>
      <trkpt lat="44.3246" lon="3.52193">
        <ele>903</ele>
        <time>2017-03-02T07:45:51Z</time>
      </trkpt>
      <trkpt lat="44.32438" lon="3.52192">
        <ele>904</ele>
        <time>2017-03-02T07:47:51Z</time>
      </trkpt>
      <trkpt lat="44.3243" lon="3.52188">
        <ele>904</ele>
        <time>2017-03-02T07:49:51Z</time>
      </trkpt>
      <trkpt lat="44.32421" lon="3.52181">
        <ele>903</ele>
        <time>2017-03-02T07:51:51Z</time>
      </trkpt>
      <trkpt lat="44.32413" lon="3.52172">
        <ele>901</ele>
        <time>2017-03-02T07:53:51Z</time>
      </trkpt>
      <trkpt lat="44.32407" lon="3.52162">
        <ele>900</ele>
        <time>2017-03-02T07:55:51Z</time>
      </trkpt>
      <trkpt lat="44.324" lon="3.52155">
        <ele>900</ele>
        <time>2017-03-02T07:57:51Z</time>
      </trkpt>
      <trkpt lat="44.32384" lon="3.5214">
        <ele>898</ele>
        <time>2017-03-02T07:59:51Z</time>
      </trkpt>
      <trkpt lat="44.32379" lon="3.52137">
        <ele>898</ele>
        <time>2017-03-02T08:01:51Z</time>
      </trkpt>
      <trkpt lat="44.32374" lon="3.52136">
        <ele>898</ele>
        <time>2017-03-02T08:03:51Z</time>
      </trkpt>
      <trkpt lat="44.32362" lon="3.52134">
        <ele>898</ele>
        <time>2017-03-02T08:05:51Z</time>
      </trkpt>
      <trkpt lat="44.32347" lon="3.52132">
        <ele>898</ele>
        <time>2017-03-02T08:07:51Z</time>
      </trkpt>
      <trkpt lat="44.3234" lon="3.5213">
        <ele>897</ele>
        <time>2017-03-02T08:09:51Z</time>
      </trkpt>
      <trkpt lat="44.32337" lon="3.52128">
        <ele>897</ele>
        <time>2017-03-02T08:11:51Z</time>
      </trkpt>
      <trkpt lat="44.32335" lon="3.52126">
        <ele>897</ele>
        <time>2017-03-02T08:13:51Z</time>
      </trkpt>
      <trkpt lat="44.32332" lon="3.52122">
        <ele>896</ele>
        <time>2017-03-02T08:15:51Z</time>
      </trkpt>
      <trkpt lat="44.3233" lon="3.52116">
        <ele>895</ele>
        <time>2017-03-02T08:17:51Z</time>
      </trkpt>
      <trkpt lat="44.32328" lon="3.52108">
        <ele>894</ele>
        <time>2017-03-02T08:19:51Z</time>
      </trkpt>
      <trkpt lat="44.32325" lon="3.52101">
        <ele>894</ele>
        <time>2017-03-02T08:21:51Z</time>
      </trkpt>
      <trkpt lat="44.32318" lon="3.5209">
        <ele>892</ele>
        <time>2017-03-02T08:23:51Z</time>
      </trkpt>
      <trkpt lat="44.32307" lon="3.52074">
        <ele>891</ele>
        <time>2017-03-02T08:25:51Z</time>
      </trkpt>
      <trkpt lat="44.32298" lon="3.52062">
        <ele>890</ele>
        <time>2017-03-02T08:27:51Z</time>
      </trkpt>
      <trkpt lat="44.32291" lon="3.52053">
        <ele>890</ele>
        <time>2017-03-02T08:29:51Z</time>
      </trkpt>
      <trkpt lat="44.32286" lon="3.52047">
        <ele>890</ele>
        <time>2017-03-02T08:31:51Z</time>
      </trkpt>
      <trkpt lat="44.3228" lon="3.52043">
        <ele>890</ele>
        <time>2017-03-02T08:33:51Z</time>
      </trkpt>
      <trkpt lat="44.32271" lon="3.52041">
        <ele>890</ele>
        <time>2017-03-02T08:35:51Z</time>
      </trkpt>
      <trkpt lat="44.3226" lon="3.5204">
        <ele>890</ele>
        <time>2017-03-02T08:37:51Z</time>
      </trkpt>
      <trkpt lat="44.32249" lon="3.5204">
        <ele>890</ele>
        <time>2017-03-02T08:39:51Z</time>
      </trkpt>
      <trkpt lat="44.32242" lon="3.52041">
        <ele>890</ele>
        <time>2017-03-02T08:41:51Z</time>
      </trkpt>
      <trkpt lat="44.32236" lon="3.5204">
        <ele>890</ele>
        <time>2017-03-02T08:43:51Z</time>
      </trkpt>
      <trkpt lat="44.32233" lon="3.52038">
        <ele>889</ele>
        <time>2017-03-02T08:45:51Z</time>
      </trkpt>
      <trkpt lat="44.32231" lon="3.52032">
        <ele>889</ele>
        <time>2017-03-02T08:47:51Z</time>
      </trkpt>
      <trkpt lat="44.3223" lon="3.52026">
        <ele>888</ele>
        <time>2017-03-02T08:49:51Z</time>
      </trkpt>
      <trkpt lat="44.32229" lon="3.52017">
        <ele>888</ele>
        <time>2017-03-02T08:51:51Z</time>
      </trkpt>
      <trkpt lat="44.32228" lon="3.52">
        <ele>886</ele>
        <time>2017-03-02T08:53:51Z</time>
      </trkpt>
      <trkpt lat="44.32228" lon="3.51994">
        <ele>886</ele>
        <time>2017-03-02T08:55:51Z</time>
      </trkpt>
      <trkpt lat="44.32226" lon="3.51988">
        <ele>885</ele>
        <time>2017-03-02T08:57:51Z</time>
      </trkpt>
      <trkpt lat="44.3222" lon="3.51966">
        <ele>884</ele>
        <time>2017-03-02T08:59:51Z</time>
      </trkpt>
      <trkpt lat="44.32218" lon="3.5196">
        <ele>884</ele>
        <time>2017-03-02T09:01:51Z</time>
      </trkpt>
      <trkpt lat="44.32216" lon="3.51958">
        <ele>883</ele>
        <time>2017-03-02T09:03:51Z</time>
      </trkpt>
      <trkpt lat="44.32213" lon="3.51957">
        <ele>883</ele>
        <time>2017-03-02T09:05:51Z</time>
      </trkpt>
      <trkpt lat="44.32209" lon="3.51955">
        <ele>883</ele>
        <time>2017-03-02T09:07:51Z</time>
      </trkpt>
      <trkpt lat="44.322" lon="3.51947">
        <ele>883</ele>
        <time>2017-03-02T09:09:51Z</time>
      </trkpt>
      <trkpt lat="44.32196" lon="3.51943">
        <ele>882</ele>
        <time>2017-03-02T09:11:51Z</time>
      </trkpt>
      <trkpt lat="44.32193" lon="3.51938">
        <ele>882</ele>
        <time>2017-03-02T09:13:51Z</time>
      </trkpt>
      <trkpt lat="44.32192" lon="3.51936">
        <ele>882</ele>
        <time>2017-03-02T09:15:51Z</time>
      </trkpt>
      <trkpt lat="44.32189" lon="3.51933">
        <ele>882</ele>
        <time>2017-03-02T09:17:51Z</time>
      </trkpt>
      <trkpt lat="44.32187" lon="3.5193">
        <ele>882</ele>
        <time>2017-03-02T09:19:51Z</time>
      </trkpt>
      <trkpt lat="44.32186" lon="3.51928">
        <ele>882</ele>
        <time>2017-03-02T09:21:51Z</time>
      </trkpt>
      <trkpt lat="44.32186" lon="3.5192">
        <ele>881</ele>
        <time>2017-03-02T09:23:51Z</time>
      </trkpt>
      <trkpt lat="44.32188" lon="3.51914">
        <ele>881</ele>
        <time>2017-03-02T09:25:51Z</time>
      </trkpt>
      <trkpt lat="44.32191" lon="3.5191">
        <ele>881</ele>
        <time>2017-03-02T09:27:51Z</time>
      </trkpt>
      <trkpt lat="44.32192" lon="3.51905">
        <ele>881</ele>
        <time>2017-03-02T09:29:51Z</time>
      </trkpt>
      <trkpt lat="44.32196" lon="3.5189">
        <ele>880</ele>
        <time>2017-03-02T09:31:51Z</time>
      </trkpt>
      <trkpt lat="44.32202" lon="3.51872">
        <ele>880</ele>
        <time>2017-03-02T09:33:51Z</time>
      </trkpt>
      <trkpt lat="44.32207" lon="3.51861">
        <ele>879</ele>
        <time>2017-03-02T09:35:51Z</time>
      </trkpt>
      <trkpt lat="44.32212" lon="3.5185">
        <ele>879</ele>
        <time>2017-03-02T09:37:51Z</time>
      </trkpt>
      <trkpt lat="44.32216" lon="3.51838">
        <ele>878</ele>
        <time>2017-03-02T09:39:51Z</time>
      </trkpt>
      <trkpt lat="44.32217" lon="3.5183">
        <ele>878</ele>
        <time>2017-03-02T09:41:51Z</time>
      </trkpt>
      <trkpt lat="44.3222" lon="3.5182">
        <ele>878</ele>
        <time>2017-03-02T09:43:51Z</time>
      </trkpt>
      <trkpt lat="44.32221" lon="3.51818">
        <ele>878</ele>
        <time>2017-03-02T09:45:51Z</time>
      </trkpt>
      <trkpt lat="44.32223" lon="3.51817">
        <ele>878</ele>
        <time>2017-03-02T09:47:51Z</time>
      </trkpt>
      <trkpt lat="44.32228" lon="3.51819">
        <ele>877</ele>
        <time>2017-03-02T09:49:51Z</time>
      </trkpt>
      <trkpt lat="44.32231" lon="3.51821">
        <ele>877</ele>
        <time>2017-03-02T09:51:51Z</time>
      </trkpt>
      <trkpt lat="44.32234" lon="3.51824">
        <ele>877</ele>
        <time>2017-03-02T09:53:51Z</time>
      </trkpt>
      <trkpt lat="44.32237" lon="3.51824">
        <ele>877</ele>
        <time>2017-03-02T09:55:51Z</time>
      </trkpt>
      <trkpt lat="44.3224" lon="3.51821">
        <ele>877</ele>
        <time>2017-03-02T09:57:51Z</time>
      </trkpt>
      <trkpt lat="44.32242" lon="3.51818">
        <ele>877</ele>
        <time>2017-03-02T09:59:51Z</time>
      </trkpt>
      <trkpt lat="44.32249" lon="3.51814">
        <ele>876</ele>
        <time>2017-03-02T10:01:51Z</time>
      </trkpt>
      <trkpt lat="44.32258" lon="3.51815">
        <ele>877</ele>
        <time>2017-03-02T10:03:51Z</time>
      </trkpt>
      <trkpt lat="44.32266" lon="3.51819">
        <ele>878</ele>
        <time>2017-03-02T10:05:51Z</time>
      </trkpt>
      <trkpt lat="44.32271" lon="3.51822">
        <ele>879</ele>
        <time>2017-03-02T10:07:51Z</time>
      </trkpt>
      <trkpt lat="44.32275" lon="3.5182">
        <ele>879</ele>
        <time>2017-03-02T10:09:51Z</time>
      </trkpt>
      <trkpt lat="44.32279" lon="3.51817">
        <ele>879</ele>
        <time>2017-03-02T10:11:51Z</time>
      </trkpt>
      <trkpt lat="44.32279" lon="3.51817">
        <ele>879</ele>
        <time>2017-03-02T10:13:51Z</time>
      </trkpt>
      <trkpt lat="44.32278" lon="3.51804">
        <ele>879</ele>
        <time>2017-03-02T10:15:51Z</time>
      </trkpt>
      <trkpt lat="44.32278" lon="3.51792">
        <ele>878</ele>
        <time>2017-03-02T10:17:51Z</time>
      </trkpt>
      <trkpt lat="44.32283" lon="3.51779">
        <ele>878</ele>
        <time>2017-03-02T10:19:51Z</time>
      </trkpt>
      <trkpt lat="44.3229" lon="3.51758">
        <ele>877</ele>
        <time>2017-03-02T10:21:51Z</time>
      </trkpt>
      <trkpt lat="44.32294" lon="3.51748">
        <ele>877</ele>
        <time>2017-03-02T10:23:51Z</time>
      </trkpt>
      <trkpt lat="44.32294" lon="3.51744">
        <ele>877</ele>
        <time>2017-03-02T10:25:51Z</time>
      </trkpt>
      <trkpt lat="44.32293" lon="3.51741">
        <ele>877</ele>
        <time>2017-03-02T10:27:51Z</time>
      </trkpt>
      <trkpt lat="44.3229" lon="3.51741">
        <ele>876</ele>
        <time>2017-03-02T10:29:51Z</time>
      </trkpt>
      <trkpt lat="44.32288" lon="3.51742">
        <ele>876</ele>
        <time>2017-03-02T10:31:51Z</time>
      </trkpt>
      <trkpt lat="44.32285" lon="3.51746">
        <ele>876</ele>
        <time>2017-03-02T10:33:51Z</time>
      </trkpt>
      <trkpt lat="44.32278" lon="3.51757">
        <ele>876</ele>
        <time>2017-03-02T10:35:51Z</time>
      </trkpt>
      <trkpt lat="44.32266" lon="3.5177">
        <ele>876</ele>
        <time>2017-03-02T10:37:51Z</time>
      </trkpt>
      <trkpt lat="44.32257" lon="3.51779">
        <ele>876</ele>
        <time>2017-03-02T10:39:51Z</time>
      </trkpt>
      <trkpt lat="44.3225" lon="3.51785">
        <ele>875</ele>
        <time>2017-03-02T10:41:51Z</time>
      </trkpt>
      <trkpt lat="44.32243" lon="3.5179">
        <ele>876</ele>
        <time>2017-03-02T10:43:51Z</time>
      </trkpt>
      <trkpt lat="44.32237" lon="3.51793">
        <ele>876</ele>
        <time>2017-03-02T10:45:51Z</time>
      </trkpt>
      <trkpt lat="44.32233" lon="3.51792">
        <ele>876</ele>
        <time>2017-03-02T10:47:51Z</time>
      </trkpt>
      <trkpt lat="44.32232" lon="3.51792">
        <ele>876</ele>
        <time>2017-03-02T10:49:51Z</time>
      </trkpt>
      <trkpt lat="44.32228" lon="3.5179">
        <ele>877</ele>
        <time>2017-03-02T10:51:51Z</time>
      </trkpt>
      <trkpt lat="44.32225" lon="3.51785">
        <ele>877</ele>
        <time>2017-03-02T10:53:51Z</time>
      </trkpt>
      <trkpt lat="44.32224" lon="3.5178">
        <ele>877</ele>
        <time>2017-03-02T10:55:51Z</time>
      </trkpt>
      <trkpt lat="44.32224" lon="3.51768">
        <ele>876</ele>
        <time>2017-03-02T10:57:51Z</time>
      </trkpt>
      <trkpt lat="44.32226" lon="3.51756">
        <ele>876</ele>
        <time>2017-03-02T10:59:51Z</time>
      </trkpt>
      <trkpt lat="44.32228" lon="3.51746">
        <ele>875</ele>
        <time>2017-03-02T11:01:51Z</time>
      </trkpt>
      <trkpt lat="44.32229" lon="3.51743">
        <ele>875</ele>
        <time>2017-03-02T11:03:51Z</time>
      </trkpt>
      <trkpt lat="44.32231" lon="3.51734">
        <ele>874</ele>
        <time>2017-03-02T11:05:51Z</time>
      </trkpt>
      <trkpt lat="44.32231" lon="3.51724">
        <ele>874</ele>
        <time>2017-03-02T11:07:51Z</time>
      </trkpt>
      <trkpt lat="44.32227" lon="3.51711">
        <ele>873</ele>
        <time>2017-03-02T11:09:51Z</time>
      </trkpt>
      <trkpt lat="44.32218" lon="3.51692">
        <ele>873</ele>
        <time>2017-03-02T11:11:51Z</time>
      </trkpt>
      <trkpt lat="44.32211" lon="3.51681">
        <ele>873</ele>
        <time>2017-03-02T11:13:51Z</time>
      </trkpt>
      <trkpt lat="44.32204" lon="3.51675">
        <ele>873</ele>
        <time>2017-03-02T11:15:51Z</time>
      </trkpt>
      <trkpt lat="44.32187" lon="3.51667">
        <ele>874</ele>
        <time>2017-03-02T11:17:51Z</time>
      </trkpt>
      <trkpt lat="44.32171" lon="3.51664">
        <ele>875</ele>
        <time>2017-03-02T11:19:51Z</time>
      </trkpt>
      <trkpt lat="44.32155" lon="3.51665">
        <ele>876</ele>
        <time>2017-03-02T11:21:51Z</time>
      </trkpt>
      <trkpt lat="44.32148" lon="3.51664">
        <ele>877</ele>
        <time>2017-03-02T11:23:51Z</time>
      </trkpt>
      <trkpt lat="44.32142" lon="3.51661">
        <ele>877</ele>
        <time>2017-03-02T11:25:51Z</time>
      </trkpt>
      <trkpt lat="44.32134" lon="3.51652">
        <ele>878</ele>
        <time>2017-03-02T11:27:51Z</time>
      </trkpt>
      <trkpt lat="44.32129" lon="3.51645">
        <ele>878</ele>
        <time>2017-03-02T11:29:51Z</time>
      </trkpt>
      <trkpt lat="44.32122" lon="3.51637">
        <ele>879</ele>
        <time>2017-03-02T11:31:51Z</time>
      </trkpt>
      <trkpt lat="44.32118" lon="3.51631">
        <ele>879</ele>
        <time>2017-03-02T11:33:51Z</time>
      </trkpt>
      <trkpt lat="44.32112" lon="3.51628">
        <ele>880</ele>
        <time>2017-03-02T11:35:51Z</time>
      </trkpt>
      <trkpt lat="44.32109" lon="3.51624">
        <ele>880</ele>
        <time>2017-03-02T11:37:51Z</time>
      </trkpt>
      <trkpt lat="44.32108" lon="3.51623">
        <ele>880</ele>
        <time>2017-03-02T11:39:51Z</time>
      </trkpt>
      <trkpt lat="44.32108" lon="3.51621">
        <ele>880</ele>
        <time>2017-03-02T11:41:51Z</time>
      </trkpt>
      <trkpt lat="44.32108" lon="3.51615">
        <ele>880</ele>
        <time>2017-03-02T11:43:51Z</time>
      </trkpt>
      <trkpt lat="44.32109" lon="3.5161">
        <ele>880</ele>
        <time>2017-03-02T11:45:51Z</time>
      </trkpt>
      <trkpt lat="44.32113" lon="3.51606">
        <ele>880</ele>
        <time>2017-03-02T11:47:51Z</time>
      </trkpt>
      <trkpt lat="44.3212" lon="3.51602">
        <ele>880</ele>
        <time>2017-03-02T11:49:51Z</time>
      </trkpt>
      <trkpt lat="44.32142" lon="3.51592">
        <ele>878</ele>
        <time>2017-03-02T11:51:51Z</time>
      </trkpt>
      <trkpt lat="44.32169" lon="3.5158">
        <ele>877</ele>
        <time>2017-03-02T11:53:51Z</time>
      </trkpt>
      <trkpt lat="44.32187" lon="3.51569">
        <ele>876</ele>
        <time>2017-03-02T11:55:51Z</time>
      </trkpt>
      <trkpt lat="44.32197" lon="3.51564">
        <ele>875</ele>
        <time>2017-03-02T11:57:51Z</time>
      </trkpt>
      <trkpt lat="44.32203" lon="3.51557">
        <ele>874</ele>
        <time>2017-03-02T11:59:51Z</time>
      </trkpt>
      <trkpt lat="44.3221" lon="3.51544">
        <ele>874</ele>
        <time>2017-03-02T12:01:51Z</time>
      </trkpt>
      <trkpt lat="44.32218" lon="3.51527">
        <ele>874</ele>
        <time>2017-03-02T12:03:51Z</time>
      </trkpt>
      <trkpt lat="44.32224" lon="3.51505">
        <ele>874</ele>
        <time>2017-03-02T12:05:51Z</time>
      </trkpt>
      <trkpt lat="44.3223" lon="3.51481">
        <ele>875</ele>
        <time>2017-03-02T12:07:51Z</time>
      </trkpt>
      <trkpt lat="44.32239" lon="3.51444">
        <ele>878</ele>
        <time>2017-03-02T12:09:51Z</time>
      </trkpt>
      <trkpt lat="44.32248" lon="3.51408">
        <ele>880</ele>
        <time>2017-03-02T12:11:51Z</time>
      </trkpt>
      <trkpt lat="44.32256" lon="3.51373">
        <ele>880</ele>
        <time>2017-03-02T12:13:51Z</time>
      </trkpt>
      <trkpt lat="44.32262" lon="3.51343">
        <ele>881</ele>
        <time>2017-03-02T12:15:51Z</time>
      </trkpt>
      <trkpt lat="44.32263" lon="3.51327">
        <ele>882</ele>
        <time>2017-03-02T12:17:51Z</time>
      </trkpt>
      <trkpt lat="44.32263" lon="3.51303">
        <ele>882</ele>
        <time>2017-03-02T12:19:51Z</time>
      </trkpt>
      <trkpt lat="44.32259" lon="3.51276">
        <ele>884</ele>
        <time>2017-03-02T12:21:51Z</time>
      </trkpt>
      <trkpt lat="44.32257" lon="3.5125">
        <ele>885</ele>
        <time>2017-03-02T12:23:51Z</time>
      </trkpt>
      <trkpt lat="44.32256" lon="3.51234">
        <ele>885</ele>
        <time>2017-03-02T12:25:51Z</time>
      </trkpt>
      <trkpt lat="44.32255" lon="3.51222">
        <ele>884</ele>
        <time>2017-03-02T12:27:51Z</time>
      </trkpt>
      <trkpt lat="44.32251" lon="3.51208">
        <ele>885</ele>
        <time>2017-03-02T12:29:51Z</time>
      </trkpt>
      <trkpt lat="44.32244" lon="3.51191">
        <ele>886</ele>
        <time>2017-03-02T12:31:51Z</time>
      </trkpt>
      <trkpt lat="44.3224" lon="3.51178">
        <ele>886</ele>
        <time>2017-03-02T12:33:51Z</time>
      </trkpt>
      <trkpt lat="44.32238" lon="3.51165">
        <ele>886</ele>
        <time>2017-03-02T12:35:51Z</time>
      </trkpt>
      <trkpt lat="44.32235" lon="3.51148">
        <ele>884</ele>
        <time>2017-03-02T12:37:51Z</time>
      </trkpt>
      <trkpt lat="44.32234" lon="3.51129">
        <ele>882</ele>
        <time>2017-03-02T12:39:51Z</time>
      </trkpt>
      <trkpt lat="44.32232" lon="3.51114">
        <ele>881</ele>
        <time>2017-03-02T12:41:51Z</time>
      </trkpt>
      <trkpt lat="44.32226" lon="3.5109">
        <ele>880</ele>
        <time>2017-03-02T12:43:51Z</time>
      </trkpt>
      <trkpt lat="44.3222" lon="3.51075">
        <ele>879</ele>
        <time>2017-03-02T12:45:51Z</time>
      </trkpt>
      <trkpt lat="44.3221" lon="3.51054">
        <ele>880</ele>
        <time>2017-03-02T12:47:51Z</time>
      </trkpt>
      <trkpt lat="44.32206" lon="3.51044">
        <ele>879</ele>
        <time>2017-03-02T12:49:51Z</time>
      </trkpt>
      <trkpt lat="44.32204" lon="3.5103">
        <ele>878</ele>
        <time>2017-03-02T12:51:51Z</time>
      </trkpt>
      <trkpt lat="44.32202" lon="3.51004">
        <ele>876</ele>
        <time>2017-03-02T12:53:51Z</time>
      </trkpt>
      <trkpt lat="44.32202" lon="3.50984">
        <ele>874</ele>
        <time>2017-03-02T12:55:51Z</time>
      </trkpt>
      <trkpt lat="44.32203" lon="3.50962">
        <ele>872</ele>
        <time>2017-03-02T12:57:51Z</time>
      </trkpt>
      <trkpt lat="44.32204" lon="3.50939">
        <ele>870</ele>
        <time>2017-03-02T12:59:51Z</time>
      </trkpt>
      <trkpt lat="44.32203" lon="3.50926">
        <ele>870</ele>
        <time>2017-03-02T13:01:51Z</time>
      </trkpt>
      <trkpt lat="44.32201" lon="3.50919">
        <ele>869</ele>
        <time>2017-03-02T13:03:51Z</time>
      </trkpt>
      <trkpt lat="44.32198" lon="3.50907">
        <ele>870</ele>
        <time>2017-03-02T13:05:51Z</time>
      </trkpt>
      <trkpt lat="44.32194" lon="3.50892">
        <ele>871</ele>
        <time>2017-03-02T13:07:51Z</time>
      </trkpt>
      <trkpt lat="44.32189" lon="3.50884">
        <ele>872</ele>
        <time>2017-03-02T13:09:51Z</time>
      </trkpt>
      <trkpt lat="44.32188" lon="3.50881">
        <ele>872</ele>
        <time>2017-03-02T13:11:51Z</time>
      </trkpt>
      <trkpt lat="44.32188" lon="3.5088">
        <ele>872</ele>
        <time>2017-03-02T13:13:51Z</time>
      </trkpt>
      <trkpt lat="44.32188" lon="3.50876">
        <ele>872</ele>
        <time>2017-03-02T13:15:51Z</time>
      </trkpt>
      <trkpt lat="44.3219" lon="3.50868">
        <ele>872</ele>
        <time>2017-03-02T13:17:51Z</time>
      </trkpt>
      <trkpt lat="44.32191" lon="3.5086">
        <ele>873</ele>
        <time>2017-03-02T13:19:51Z</time>
      </trkpt>
      <trkpt lat="44.3219" lon="3.50849">
        <ele>873</ele>
        <time>2017-03-02T13:21:51Z</time>
      </trkpt>
      <trkpt lat="44.32191" lon="3.5084">
        <ele>874</ele>
        <time>2017-03-02T13:23:51Z</time>
      </trkpt>
      <trkpt lat="44.32193" lon="3.50832">
        <ele>874</ele>
        <time>2017-03-02T13:25:51Z</time>
      </trkpt>
      <trkpt lat="44.32198" lon="3.50817">
        <ele>876</ele>
        <time>2017-03-02T13:27:51Z</time>
      </trkpt>
      <trkpt lat="44.32202" lon="3.50797">
        <ele>877</ele>
        <time>2017-03-02T13:29:51Z</time>
      </trkpt>
      <trkpt lat="44.32205" lon="3.50778">
        <ele>879</ele>
        <time>2017-03-02T13:31:51Z</time>
      </trkpt>
      <trkpt lat="44.32208" lon="3.50765">
        <ele>881</ele>
        <time>2017-03-02T13:33:51Z</time>
      </trkpt>
      <trkpt lat="44.32209" lon="3.50757">
        <ele>882</ele>
        <time>2017-03-02T13:35:51Z</time>
      </trkpt>
      <trkpt lat="44.32209" lon="3.50739">
        <ele>884</ele>
        <time>2017-03-02T13:37:51Z</time>
      </trkpt>
      <trkpt lat="44.32211" lon="3.50713">
        <ele>886</ele>
        <time>2017-03-02T13:39:51Z</time>
      </trkpt>
      <trkpt lat="44.32213" lon="3.50685">
        <ele>889</ele>
        <time>2017-03-02T13:41:51Z</time>
      </trkpt>
      <trkpt lat="44.32213" lon="3.50663">
        <ele>891</ele>
        <time>2017-03-02T13:43:51Z</time>
      </trkpt>
      <trkpt lat="44.32215" lon="3.50636">
        <ele>895</ele>
        <time>2017-03-02T13:45:51Z</time>
      </trkpt>
      <trkpt lat="44.32217" lon="3.5061">
        <ele>899</ele>
        <time>2017-03-02T13:47:51Z</time>
      </trkpt>
      <trkpt lat="44.32219" lon="3.50584">
        <ele>902</ele>
        <time>2017-03-02T13:49:51Z</time>
      </trkpt>
      <trkpt lat="44.3222" lon="3.50564">
        <ele>905</ele>
        <time>2017-03-02T13:51:51Z</time>
      </trkpt>
      <trkpt lat="44.32222" lon="3.50547">
        <ele>908</ele>
        <time>2017-03-02T13:53:51Z</time>
      </trkpt>
      <trkpt lat="44.32225" lon="3.50522">
        <ele>912</ele>
        <time>2017-03-02T13:55:51Z</time>
      </trkpt>
      <trkpt lat="44.32225" lon="3.50516">
        <ele>913</ele>
        <time>2017-03-02T13:57:51Z</time>
      </trkpt>
      <trkpt lat="44.32226" lon="3.50498">
        <ele>915</ele>
        <time>2017-03-02T13:59:51Z</time>
      </trkpt>
      <trkpt lat="44.32226" lon="3.50476">
        <ele>918</ele>
        <time>2017-03-02T14:01:51Z</time>
      </trkpt>
      <trkpt lat="44.32227" lon="3.50453">
        <ele>922</ele>
        <time>2017-03-02T14:03:51Z</time>
      </trkpt>
      <trkpt lat="44.32228" lon="3.50434">
        <ele>924</ele>
        <time>2017-03-02T14:05:51Z</time>
      </trkpt>
      <trkpt lat="44.32227" lon="3.50417">
        <ele>927</ele>
        <time>2017-03-02T14:07:51Z</time>
      </trkpt>
      <trkpt lat="44.32226" lon="3.50396">
        <ele>929</ele>
        <time>2017-03-02T14:09:51Z</time>
      </trkpt>
      <trkpt lat="44.32224" lon="3.50382">
        <ele>931</ele>
        <time>2017-03-02T14:11:51Z</time>
      </trkpt>
      <trkpt lat="44.32221" lon="3.50368">
        <ele>933</ele>
        <time>2017-03-02T14:13:51Z</time>
      </trkpt>
      <trkpt lat="44.32216" lon="3.50354">
        <ele>935</ele>
        <time>2017-03-02T14:15:51Z</time>
      </trkpt>
      <trkpt lat="44.3221" lon="3.50341">
        <ele>937</ele>
        <time>2017-03-02T14:17:51Z</time>
      </trkpt>
      <trkpt lat="44.32203" lon="3.50333">
        <ele>939</ele>
        <time>2017-03-02T14:19:51Z</time>
      </trkpt>
      <trkpt lat="44.32198" lon="3.50324">
        <ele>941</ele>
        <time>2017-03-02T14:21:51Z</time>
      </trkpt>
      <trkpt lat="44.32193" lon="3.50308">
        <ele>944</ele>
        <time>2017-03-02T14:23:51Z</time>
      </trkpt>
      <trkpt lat="44.32187" lon="3.50287">
        <ele>947</ele>
        <time>2017-03-02T14:25:51Z</time>
      </trkpt>
      <trkpt lat="44.3218" lon="3.50265">
        <ele>950</ele>
        <time>2017-03-02T14:27:51Z</time>
      </trkpt>
      <trkpt lat="44.32176" lon="3.50254">
        <ele>951</ele>
        <time>2017-03-02T14:29:51Z</time>
      </trkpt>
      <trkpt lat="44.32175" lon="3.50245">
        <ele>953</ele>
        <time>2017-03-02T14:31:51Z</time>
      </trkpt>
      <trkpt lat="44.32175" lon="3.5024">
        <ele>953</ele>
        <time>2017-03-02T14:33:51Z</time>
      </trkpt>
      <trkpt lat="44.32177" lon="3.50236">
        <ele>954</ele>
        <time>2017-03-02T14:35:51Z</time>
      </trkpt>
      <trkpt lat="44.32179" lon="3.50231">
        <ele>954</ele>
        <time>2017-03-02T14:37:51Z</time>
      </trkpt>
      <trkpt lat="44.32181" lon="3.50224">
        <ele>955</ele>
        <time>2017-03-02T14:39:51Z</time>
      </trkpt>
      <trkpt lat="44.32186" lon="3.502">
        <ele>958</ele>
        <time>2017-03-02T14:41:51Z</time>
      </trkpt>
      <trkpt lat="44.32192" lon="3.50169">
        <ele>962</ele>
        <time>2017-03-02T14:43:51Z</time>
      </trkpt>
      <trkpt lat="44.32195" lon="3.50151">
        <ele>963</ele>
        <time>2017-03-02T14:45:51Z</time>
      </trkpt>
      <trkpt lat="44.32199" lon="3.50135">
        <ele>963</ele>
        <time>2017-03-02T14:47:51Z</time>
      </trkpt>
      <trkpt lat="44.32202" lon="3.50126">
        <ele>964</ele>
        <time>2017-03-02T14:49:51Z</time>
      </trkpt>
      <trkpt lat="44.32202" lon="3.50117">
        <ele>964</ele>
        <time>2017-03-02T14:51:51Z</time>
      </trkpt>
      <trkpt lat="44.32203" lon="3.501">
        <ele>965</ele>
        <time>2017-03-02T14:53:51Z</time>
      </trkpt>
      <trkpt lat="44.32204" lon="3.50073">
        <ele>966</ele>
        <time>2017-03-02T14:55:51Z</time>
      </trkpt>
      <trkpt lat="44.32204" lon="3.5005">
        <ele>965</ele>
        <time>2017-03-02T14:57:51Z</time>
      </trkpt>
      <trkpt lat="44.32204" lon="3.50028">
        <ele>965</ele>
        <time>2017-03-02T14:59:51Z</time>
      </trkpt>
      <trkpt lat="44.32204" lon="3.49997">
        <ele>964</ele>
        <time>2017-03-02T15:01:51Z</time>
      </trkpt>
      <trkpt lat="44.32205" lon="3.49982">
        <ele>963</ele>
        <time>2017-03-02T15:03:51Z</time>
      </trkpt>
      <trkpt lat="44.32206" lon="3.49968">
        <ele>963</ele>
        <time>2017-03-02T15:05:51Z</time>
      </trkpt>
      <trkpt lat="44.32206" lon="3.49955">
        <ele>962</ele>
        <time>2017-03-02T15:07:51Z</time>
      </trkpt>
      <trkpt lat="44.32205" lon="3.49944">
        <ele>962</ele>
        <time>2017-03-02T15:09:51Z</time>
      </trkpt>
      <trkpt lat="44.32202" lon="3.49922">
        <ele>961</ele>
        <time>2017-03-02T15:11:51Z</time>
      </trkpt>
      <trkpt lat="44.32197" lon="3.49898">
        <ele>960</ele>
        <time>2017-03-02T15:13:51Z</time>
      </trkpt>
      <trkpt lat="44.32195" lon="3.49885">
        <ele>960</ele>
        <time>2017-03-02T15:15:51Z</time>
      </trkpt>
      <trkpt lat="44.32194" lon="3.49871">
        <ele>960</ele>
        <time>2017-03-02T15:17:51Z</time>
      </trkpt>
      <trkpt lat="44.32194" lon="3.49852">
        <ele>959</ele>
        <time>2017-03-02T15:19:51Z</time>
      </trkpt>
      <trkpt lat="44.32194" lon="3.49833">
        <ele>958</ele>
        <time>2017-03-02T15:21:51Z</time>
      </trkpt>
      <trkpt lat="44.32193" lon="3.49798">
        <ele>958</ele>
        <time>2017-03-02T15:23:51Z</time>
      </trkpt>
      <trkpt lat="44.32191" lon="3.49776">
        <ele>957</ele>
        <time>2017-03-02T15:25:51Z</time>
      </trkpt>
      <trkpt lat="44.32191" lon="3.49766">
        <ele>957</ele>
        <time>2017-03-02T15:27:51Z</time>
      </trkpt>
      <trkpt lat="44.32192" lon="3.49757">
        <ele>957</ele>
        <time>2017-03-02T15:29:51Z</time>
      </trkpt>
      <trkpt lat="44.32196" lon="3.49741">
        <ele>956</ele>
        <time>2017-03-02T15:31:51Z</time>
      </trkpt>
      <trkpt lat="44.32198" lon="3.49729">
        <ele>956</ele>
        <time>2017-03-02T15:33:51Z</time>
      </trkpt>
      <trkpt lat="44.322" lon="3.49712">
        <ele>955</ele>
        <time>2017-03-02T15:35:51Z</time>
      </trkpt>
      <trkpt lat="44.32201" lon="3.49691">
        <ele>955</ele>
        <time>2017-03-02T15:37:51Z</time>
      </trkpt>
      <trkpt lat="44.32203" lon="3.49677">
        <ele>954</ele>
        <time>2017-03-02T15:39:51Z</time>
      </trkpt>
      <trkpt lat="44.32205" lon="3.49668">
        <ele>954</ele>
        <time>2017-03-02T15:41:51Z</time>
      </trkpt>
      <trkpt lat="44.32208" lon="3.49658">
        <ele>953</ele>
        <time>2017-03-02T15:43:51Z</time>
      </trkpt>
      <trkpt lat="44.32215" lon="3.49644">
        <ele>953</ele>
        <time>2017-03-02T15:45:51Z</time>
      </trkpt>
      <trkpt lat="44.3222" lon="3.49629">
        <ele>952</ele>
        <time>2017-03-02T15:47:51Z</time>
      </trkpt>
      <trkpt lat="44.32223" lon="3.49618">
        <ele>951</ele>
        <time>2017-03-02T15:49:51Z</time>
      </trkpt>
      <trkpt lat="44.32224" lon="3.4961">
        <ele>950</ele>
        <time>2017-03-02T15:51:51Z</time>
      </trkpt>
      <trkpt lat="44.32226" lon="3.49597">
        <ele>949</ele>
        <time>2017-03-02T15:53:51Z</time>
      </trkpt>
      <trkpt lat="44.32228" lon="3.49587">
        <ele>949</ele>
        <time>2017-03-02T15:55:51Z</time>
      </trkpt>
      <trkpt lat="44.3223" lon="3.49582">
        <ele>948</ele>
        <time>2017-03-02T15:57:51Z</time>
      </trkpt>
      <trkpt lat="44.32238" lon="3.49568">
        <ele>948</ele>
        <time>2017-03-02T15:59:51Z</time>
      </trkpt>
      <trkpt lat="44.32249" lon="3.49552">
        <ele>947</ele>
        <time>2017-03-02T16:01:51Z</time>
      </trkpt>
      <trkpt lat="44.32257" lon="3.49538">
        <ele>947</ele>
        <time>2017-03-02T16:03:51Z</time>
      </trkpt>
      <trkpt lat="44.32264" lon="3.49524">
        <ele>946</ele>
        <time>2017-03-02T16:05:51Z</time>
      </trkpt>
      <trkpt lat="44.32266" lon="3.49515">
        <ele>945</ele>
        <time>2017-03-02T16:07:51Z</time>
      </trkpt>
      <trkpt lat="44.32266" lon="3.49505">
        <ele>945</ele>
        <time>2017-03-02T16:09:51Z</time>
      </trkpt>
      <trkpt lat="44.32265" lon="3.4949">
        <ele>944</ele>
        <time>2017-03-02T16:11:51Z</time>
      </trkpt>
      <trkpt lat="44.32266" lon="3.49472">
        <ele>943</ele>
        <time>2017-03-02T16:13:51Z</time>
      </trkpt>
      <trkpt lat="44.32266" lon="3.49454">
        <ele>942</ele>
        <time>2017-03-02T16:15:51Z</time>
      </trkpt>
      <trkpt lat="44.32267" lon="3.49445">
        <ele>942</ele>
        <time>2017-03-02T16:17:51Z</time>
      </trkpt>
      <trkpt lat="44.32267" lon="3.49443">
        <ele>942</ele>
        <time>2017-03-02T16:19:51Z</time>
      </trkpt>
      <trkpt lat="44.32268" lon="3.49427">
        <ele>941</ele>
        <time>2017-03-02T16:21:51Z</time>
      </trkpt>
      <trkpt lat="44.32271" lon="3.49415">
        <ele>941</ele>
        <time>2017-03-02T16:23:51Z</time>
      </trkpt>
      <trkpt lat="44.32275" lon="3.49399">
        <ele>940</ele>
        <time>2017-03-02T16:25:51Z</time>
      </trkpt>
      <trkpt lat="44.32281" lon="3.49374">
        <ele>938</ele>
        <time>2017-03-02T16:27:51Z</time>
      </trkpt>
      <trkpt lat="44.32289" lon="3.49348">
        <ele>936</ele>
        <time>2017-03-02T16:29:51Z</time>
      </trkpt>
      <trkpt lat="44.32295" lon="3.49331">
        <ele>935</ele>
        <time>2017-03-02T16:31:51Z</time>
      </trkpt>
      <trkpt lat="44.32298" lon="3.4932">
        <ele>934</ele>
        <time>2017-03-02T16:33:51Z</time>
      </trkpt>
      <trkpt lat="44.323" lon="3.4931">
        <ele>934</ele>
        <time>2017-03-02T16:35:51Z</time>
      </trkpt>
      <trkpt lat="44.32302" lon="3.49293">
        <ele>933</ele>
        <time>2017-03-02T16:37:51Z</time>
      </trkpt>
      <trkpt lat="44.32302" lon="3.49292">
        <ele>933</ele>
        <time>2017-03-02T16:39:51Z</time>
      </trkpt>
      <trkpt lat="44.32304" lon="3.49277">
        <ele>933</ele>
        <time>2017-03-02T16:41:51Z</time>
      </trkpt>
      <trkpt lat="44.32308" lon="3.49257">
        <ele>932</ele>
        <time>2017-03-02T16:43:51Z</time>
      </trkpt>
      <trkpt lat="44.32311" lon="3.49237">
        <ele>932</ele>
        <time>2017-03-02T16:45:51Z</time>
      </trkpt>
      <trkpt lat="44.32314" lon="3.49228">
        <ele>931</ele>
        <time>2017-03-02T16:47:51Z</time>
      </trkpt>
      <trkpt lat="44.32317" lon="3.49221">
        <ele>931</ele>
        <time>2017-03-02T16:49:51Z</time>
      </trkpt>
      <trkpt lat="44.32324" lon="3.4921">
        <ele>931</ele>
        <time>2017-03-02T16:51:51Z</time>
      </trkpt>
      <trkpt lat="44.32333" lon="3.49199">
        <ele>930</ele>
        <time>2017-03-02T16:53:51Z</time>
      </trkpt>
      <trkpt lat="44.32338" lon="3.49191">
        <ele>930</ele>
        <time>2017-03-02T16:55:51Z</time>
      </trkpt>
      <trkpt lat="44.32344" lon="3.49182">
        <ele>929</ele>
        <time>2017-03-02T16:57:51Z</time>
      </trkpt>
      <trkpt lat="44.32352" lon="3.49166">
        <ele>929</ele>
        <time>2017-03-02T16:59:51Z</time>
      </trkpt>
      <trkpt lat="44.32359" lon="3.49155">
        <ele>928</ele>
        <time>2017-03-02T17:01:51Z</time>
      </trkpt>
      <trkpt lat="44.32367" lon="3.49146">
        <ele>927</ele>
        <time>2017-03-02T17:03:51Z</time>
      </trkpt>
      <trkpt lat="44.3238" lon="3.49131">
        <ele>926</ele>
        <time>2017-03-02T17:05:51Z</time>
      </trkpt>
      <trkpt lat="44.32387" lon="3.49123">
        <ele>926</ele>
        <time>2017-03-02T17:07:51Z</time>
      </trkpt>
      <trkpt lat="44.32398" lon="3.49116">
        <ele>925</ele>
        <time>2017-03-02T17:09:51Z</time>
      </trkpt>
      <trkpt lat="44.32406" lon="3.49109">
        <ele>925</ele>
        <time>2017-03-02T17:11:51Z</time>
      </trkpt>
      <trkpt lat="44.32412" lon="3.49102">
        <ele>925</ele>
        <time>2017-03-02T17:13:51Z</time>
      </trkpt>
      <trkpt lat="44.32417" lon="3.49097">
        <ele>925</ele>
        <time>2017-03-02T17:15:51Z</time>
      </trkpt>
      <trkpt lat="44.32426" lon="3.49087">
        <ele>924</ele>
        <time>2017-03-02T17:17:51Z</time>
      </trkpt>
      <trkpt lat="44.32437" lon="3.49079">
        <ele>924</ele>
        <time>2017-03-02T17:19:51Z</time>
      </trkpt>
      <trkpt lat="44.32452" lon="3.49066">
        <ele>923</ele>
        <time>2017-03-02T17:21:51Z</time>
      </trkpt>
      <trkpt lat="44.32457" lon="3.49062">
        <ele>923</ele>
        <time>2017-03-02T17:23:51Z</time>
      </trkpt>
      <trkpt lat="44.32457" lon="3.49062">
        <ele>923</ele>
        <time>2017-03-02T17:25:51Z</time>
      </trkpt>
      <trkpt lat="44.32462" lon="3.49097">
        <ele>922</ele>
        <time>2017-03-02T17:27:51Z</time>
      </trkpt>
      <trkpt lat="44.32466" lon="3.49124">
        <ele>922</ele>
        <time>2017-03-02T17:29:51Z</time>
      </trkpt>
      <trkpt lat="44.32468" lon="3.49141">
        <ele>922</ele>
        <time>2017-03-02T17:31:51Z</time>
      </trkpt>
      <trkpt lat="44.3247" lon="3.4916">
        <ele>921</ele>
        <time>2017-03-02T17:33:51Z</time>
      </trkpt>
      <trkpt lat="44.32473" lon="3.49175">
        <ele>922</ele>
        <time>2017-03-02T17:35:51Z</time>
      </trkpt>
      <trkpt lat="44.32478" lon="3.49192">
        <ele>922</ele>
        <time>2017-03-02T17:37:51Z</time>
      </trkpt>
      <trkpt lat="44.32485" lon="3.49211">
        <ele>922</ele>
        <time>2017-03-02T17:39:51Z</time>
      </trkpt>
      <trkpt lat="44.32491" lon="3.49224">
        <ele>922</ele>
        <time>2017-03-02T17:41:51Z</time>
      </trkpt>
      <trkpt lat="44.32494" lon="3.49231">
        <ele>923</ele>
        <time>2017-03-02T17:43:51Z</time>
      </trkpt>
      <trkpt lat="44.32498" lon="3.49236">
        <ele>923</ele>
        <time>2017-03-02T17:45:51Z</time>
      </trkpt>
      <trkpt lat="44.32503" lon="3.49237">
        <ele>922</ele>
        <time>2017-03-02T17:47:51Z</time>
      </trkpt>
      <trkpt lat="44.32509" lon="3.49236">
        <ele>922</ele>
        <time>2017-03-02T17:49:51Z</time>
      </trkpt>
      <trkpt lat="44.32517" lon="3.4923">
        <ele>922</ele>
        <time>2017-03-02T17:51:51Z</time>
      </trkpt>
      <trkpt lat="44.32532" lon="3.49215">
        <ele>921</ele>
        <time>2017-03-02T17:53:51Z</time>
      </trkpt>
      <trkpt lat="44.32544" lon="3.49203">
        <ele>920</ele>
        <time>2017-03-02T17:55:51Z</time>
      </trkpt>
      <trkpt lat="44.32555" lon="3.49192">
        <ele>919</ele>
        <time>2017-03-02T17:57:51Z</time>
      </trkpt>
      <trkpt lat="44.32556" lon="3.49187">
        <ele>919</ele>
        <time>2017-03-02T17:59:51Z</time>
      </trkpt>
      <trkpt lat="44.32558" lon="3.49181">
        <ele>919</ele>
        <time>2017-03-02T18:01:51Z</time>
      </trkpt>
      <trkpt lat="44.32562" lon="3.49175">
        <ele>918</ele>
        <time>2017-03-02T18:03:51Z</time>
      </trkpt>
      <trkpt lat="44.32568" lon="3.49171">
        <ele>918</ele>
        <time>2017-03-02T18:05:51Z</time>
      </trkpt>
      <trkpt lat="44.32572" lon="3.49167">
        <ele>917</ele>
        <time>2017-03-02T18:07:51Z</time>
      </trkpt>
      <trkpt lat="44.32575" lon="3.49163">
        <ele>917</ele>
        <time>2017-03-02T18:09:51Z</time>
      </trkpt>
      <trkpt lat="44.32583" lon="3.49155">
        <ele>917</ele>
        <time>2017-03-02T18:11:51Z</time>
      </trkpt>
      <trkpt lat="44.32586" lon="3.49153">
        <ele>917</ele>
        <time>2017-03-02T18:13:51Z</time>
      </trkpt>
      <trkpt lat="44.32593" lon="3.49152">
        <ele>916</ele>
        <time>2017-03-02T18:15:51Z</time>
      </trkpt>
      <trkpt lat="44.32599" lon="3.49151">
        <ele>916</ele>
        <time>2017-03-02T18:17:51Z</time>
      </trkpt>
      <trkpt lat="44.32603" lon="3.4915">
        <ele>915</ele>
        <time>2017-03-02T18:19:51Z</time>
      </trkpt>
      <trkpt lat="44.32609" lon="3.49148">
        <ele>915</ele>
        <time>2017-03-02T18:21:51Z</time>
      </trkpt>
      <trkpt lat="44.32614" lon="3.49148">
        <ele>914</ele>
        <time>2017-03-02T18:23:51Z</time>
      </trkpt>
      <trkpt lat="44.32618" lon="3.49149">
        <ele>914</ele>
        <time>2017-03-02T18:25:51Z</time>
      </trkpt>
      <trkpt lat="44.32629" lon="3.49155">
        <ele>912</ele>
        <time>2017-03-02T18:27:51Z</time>
      </trkpt>
      <trkpt lat="44.32638" lon="3.4916">
        <ele>911</ele>
        <time>2017-03-02T18:29:51Z</time>
      </trkpt>
      <trkpt lat="44.32646" lon="3.49165">
        <ele>910</ele>
        <time>2017-03-02T18:31:51Z</time>
      </trkpt>
      <trkpt lat="44.32653" lon="3.49168">
        <ele>909</ele>
        <time>2017-03-02T18:33:51Z</time>
      </trkpt>
      <trkpt lat="44.32656" lon="3.49172">
        <ele>908</ele>
        <time>2017-03-02T18:35:51Z</time>
      </trkpt>
      <trkpt lat="44.32659" lon="3.4918">
        <ele>908</ele>
        <time>2017-03-02T18:37:51Z</time>
      </trkpt>
      <trkpt lat="44.32662" lon="3.49187">
        <ele>908</ele>
        <time>2017-03-02T18:39:51Z</time>
      </trkpt>
      <trkpt lat="44.32666" lon="3.49194">
        <ele>908</ele>
        <time>2017-03-02T18:41:51Z</time>
      </trkpt>
      <trkpt lat="44.32672" lon="3.49202">
        <ele>907</ele>
        <time>2017-03-02T18:43:51Z</time>
      </trkpt>
      <trkpt lat="44.32679" lon="3.49207">
        <ele>906</ele>
        <time>2017-03-02T18:45:51Z</time>
      </trkpt>
      <trkpt lat="44.32689" lon="3.49213">
        <ele>904</ele>
        <time>2017-03-02T18:47:51Z</time>
      </trkpt>
      <trkpt lat="44.32695" lon="3.49218">
        <ele>903</ele>
        <time>2017-03-02T18:49:51Z</time>
      </trkpt>
      <trkpt lat="44.32698" lon="3.49219">
        <ele>902</ele>
        <time>2017-03-02T18:51:51Z</time>
      </trkpt>
      <trkpt lat="44.32704" lon="3.49221">
        <ele>901</ele>
        <time>2017-03-02T18:53:51Z</time>
      </trkpt>
      <trkpt lat="44.32713" lon="3.49224">
        <ele>899</ele>
        <time>2017-03-02T18:55:51Z</time>
      </trkpt>
      <trkpt lat="44.32727" lon="3.49228">
        <ele>896</ele>
        <time>2017-03-02T18:57:51Z</time>
      </trkpt>
      <trkpt lat="44.3274" lon="3.49233">
        <ele>893</ele>
        <time>2017-03-02T18:59:51Z</time>
      </trkpt>
      <trkpt lat="44.32747" lon="3.49233">
        <ele>891</ele>
        <time>2017-03-02T19:01:51Z</time>
      </trkpt>
      <trkpt lat="44.32759" lon="3.49232">
        <ele>889</ele>
        <time>2017-03-02T19:03:51Z</time>
      </trkpt>
      <trkpt lat="44.32774" lon="3.49228">
        <ele>885</ele>
        <time>2017-03-02T19:05:51Z</time>
      </trkpt>
      <trkpt lat="44.32784" lon="3.49228">
        <ele>883</ele>
        <time>2017-03-02T19:07:51Z</time>
      </trkpt>
      <trkpt lat="44.32791" lon="3.49225">
        <ele>882</ele>
        <time>2017-03-02T19:09:51Z</time>
      </trkpt>
      <trkpt lat="44.32798" lon="3.49222">
        <ele>880</ele>
        <time>2017-03-02T19:11:51Z</time>
      </trkpt>
      <trkpt lat="44.32804" lon="3.4922">
        <ele>878</ele>
        <time>2017-03-02T19:13:51Z</time>
      </trkpt>
      <trkpt lat="44.3281" lon="3.49216">
        <ele>877</ele>
        <time>2017-03-02T19:15:51Z</time>
      </trkpt>
      <trkpt lat="44.32814" lon="3.49214">
        <ele>876</ele>
        <time>2017-03-02T19:17:51Z</time>
      </trkpt>
      <trkpt lat="44.32824" lon="3.49213">
        <ele>873</ele>
        <time>2017-03-02T19:19:51Z</time>
      </trkpt>
      <trkpt lat="44.32836" lon="3.49213">
        <ele>870</ele>
        <time>2017-03-02T19:21:51Z</time>
      </trkpt>
      <trkpt lat="44.32847" lon="3.49215">
        <ele>866</ele>
        <time>2017-03-02T19:23:51Z</time>
      </trkpt>
      <trkpt lat="44.32853" lon="3.49217">
        <ele>864</ele>
        <time>2017-03-02T19:25:51Z</time>
      </trkpt>
      <trkpt lat="44.32858" lon="3.49217">
        <ele>862</ele>
        <time>2017-03-02T19:27:51Z</time>
      </trkpt>
      <trkpt lat="44.32863" lon="3.49217">
        <ele>860</ele>
        <time>2017-03-02T19:29:51Z</time>
      </trkpt>
      <trkpt lat="44.32871" lon="3.49218">
        <ele>856</ele>
        <time>2017-03-02T19:31:51Z</time>
      </trkpt>
      <trkpt lat="44.32874" lon="3.4922">
        <ele>855</ele>
        <time>2017-03-02T19:33:51Z</time>
      </trkpt>
      <trkpt lat="44.32875" lon="3.49223">
        <ele>855</ele>
        <time>2017-03-02T19:35:51Z</time>
      </trkpt>
      <trkpt lat="44.32875" lon="3.49226">
        <ele>855</ele>
        <time>2017-03-02T19:37:51Z</time>
      </trkpt>
      <trkpt lat="44.32875" lon="3.49226">
        <ele>855</ele>
        <time>2017-03-02T19:39:51Z</time>
      </trkpt>
      <trkpt lat="44.32877" lon="3.49226">
        <ele>854</ele>
        <time>2017-03-02T19:41:51Z</time>
      </trkpt>
      <trkpt lat="44.32889" lon="3.49346">
        <ele>826</ele>
        <time>2017-03-02T19:43:51Z</time>
      </trkpt>
      <trkpt lat="44.32834" lon="3.4943">
        <ele>846</ele>
        <time>2017-03-02T19:45:51Z</time>
      </trkpt>
      <trkpt lat="44.32845" lon="3.49481">
        <ele>824</ele>
        <time>2017-03-02T19:47:51Z</time>
      </trkpt>
      <trkpt lat="44.32813" lon="3.49533">
        <ele>836</ele>
        <time>2017-03-02T19:49:51Z</time>
      </trkpt>
      <trkpt lat="44.32827" lon="3.49593">
        <ele>811</ele>
        <time>2017-03-02T19:51:51Z</time>
      </trkpt>
      <trkpt lat="44.32821" lon="3.4964">
        <ele>799</ele>
        <time>2017-03-02T19:53:51Z</time>
      </trkpt>
      <trkpt lat="44.32865" lon="3.49599">
        <ele>783</ele>
        <time>2017-03-02T19:55:51Z</time>
      </trkpt>
      <trkpt lat="44.32857" lon="3.4966">
        <ele>771</ele>
        <time>2017-03-02T19:57:51Z</time>
      </trkpt>
      <trkpt lat="44.32796" lon="3.49765">
        <ele>767</ele>
        <time>2017-03-02T19:59:51Z</time>
      </trkpt>
      <trkpt lat="44.3279" lon="3.49814">
        <ele>765</ele>
        <time>2017-03-02T20:01:51Z</time>
      </trkpt>
      <trkpt lat="44.32808" lon="3.49846">
        <ele>753</ele>
        <time>2017-03-02T20:03:51Z</time>
      </trkpt>
      <trkpt lat="44.32876" lon="3.49906">
        <ele>730</ele>
        <time>2017-03-02T20:05:51Z</time>
      </trkpt>
      <trkpt lat="44.32948" lon="3.49956">
        <ele>701</ele>
        <time>2017-03-02T20:07:51Z</time>
      </trkpt>
      <trkpt lat="44.32985" lon="3.50003">
        <ele>691</ele>
        <time>2017-03-02T20:09:51Z</time>
      </trkpt>
      <trkpt lat="44.3302" lon="3.50029">
        <ele>674</ele>
        <time>2017-03-02T20:11:51Z</time>
      </trkpt>
      <trkpt lat="44.32996" lon="3.50071">
        <ele>683</ele>
        <time>2017-03-02T20:13:51Z</time>
      </trkpt>
      <trkpt lat="44.33002" lon="3.50106">
        <ele>686</ele>
        <time>2017-03-02T20:15:51Z</time>
      </trkpt>
      <trkpt lat="44.33051" lon="3.50138">
        <ele>673</ele>
        <time>2017-03-02T20:17:51Z</time>
      </trkpt>
      <trkpt lat="44.3316" lon="3.50198">
        <ele>644</ele>
        <time>2017-03-02T20:19:51Z</time>
      </trkpt>
      <trkpt lat="44.3325" lon="3.50228">
        <ele>621</ele>
        <time>2017-03-02T20:21:51Z</time>
      </trkpt>
      <trkpt lat="44.33284" lon="3.50267">
        <ele>613</ele>
        <time>2017-03-02T20:23:51Z</time>
      </trkpt>
      <trkpt lat="44.3331" lon="3.50391">
        <ele>579</ele>
        <time>2017-03-02T20:25:51Z</time>
      </trkpt>
      <trkpt lat="44.33263" lon="3.50445">
        <ele>578</ele>
        <time>2017-03-02T20:27:51Z</time>
      </trkpt>
      <trkpt lat="44.3324" lon="3.50488">
        <ele>577</ele>
        <time>2017-03-02T20:29:51Z</time>
      </trkpt>
      <trkpt lat="44.33281" lon="3.50501">
        <ele>571</ele>
        <time>2017-03-02T20:31:51Z</time>
      </trkpt>
      <trkpt lat="44.33306" lon="3.50483">
        <ele>571</ele>
        <time>2017-03-02T20:33:51Z</time>
      </trkpt>
      <trkpt lat="44.33336" lon="3.50479">
        <ele>570</ele>
        <time>2017-03-02T20:35:51Z</time>
      </trkpt>
      <trkpt lat="44.33395" lon="3.50563">
        <ele>581</ele>
        <time>2017-03-02T20:37:51Z</time>
      </trkpt>
      <trkpt lat="44.33416" lon="3.50593">
        <ele>585</ele>
        <time>2017-03-02T20:39:51Z</time>
      </trkpt>
      <trkpt lat="44.33416" lon="3.50589">
        <ele>583</ele>
        <time>2017-03-02T20:41:51Z</time>
      </trkpt>
      <trkpt lat="44.33417" lon="3.50588">
        <ele>583</ele>
        <time>2017-03-02T20:43:51Z</time>
      </trkpt>
      <trkpt lat="44.33419" lon="3.50587">
        <ele>583</ele>
        <time>2017-03-02T20:45:51Z</time>
      </trkpt>
      <trkpt lat="44.3342" lon="3.50584">
        <ele>582</ele>
        <time>2017-03-02T20:47:51Z</time>
      </trkpt>
      <trkpt lat="44.33423" lon="3.5058">
        <ele>582</ele>
        <time>2017-03-02T20:49:51Z</time>
      </trkpt>
      <trkpt lat="44.33426" lon="3.50576">
        <ele>581</ele>
        <time>2017-03-02T20:51:51Z</time>
      </trkpt>
      <trkpt lat="44.33429" lon="3.50573">
        <ele>581</ele>
        <time>2017-03-02T20:53:51Z</time>
      </trkpt>
      <trkpt lat="44.33435" lon="3.50567">
        <ele>580</ele>
        <time>2017-03-02T20:55:51Z</time>
      </trkpt>
      <trkpt lat="44.33439" lon="3.50563">
        <ele>579</ele>
        <time>2017-03-02T20:57:51Z</time>
      </trkpt>
      <trkpt lat="44.33444" lon="3.50558">
        <ele>579</ele>
        <time>2017-03-02T20:59:51Z</time>
      </trkpt>
      <trkpt lat="44.33449" lon="3.50554">
        <ele>578</ele>
        <time>2017-03-02T21:01:51Z</time>
      </trkpt>
      <trkpt lat="44.33454" lon="3.50552">
        <ele>579</ele>
        <time>2017-03-02T21:03:51Z</time>
      </trkpt>
      <trkpt lat="44.33457" lon="3.5055">
        <ele>579</ele>
        <time>2017-03-02T21:05:51Z</time>
      </trkpt>
      <trkpt lat="44.33461" lon="3.50549">
        <ele>579</ele>
        <time>2017-03-02T21:07:51Z</time>
      </trkpt>
      <trkpt lat="44.33467" lon="3.50546">
        <ele>579</ele>
        <time>2017-03-02T21:09:51Z</time>
      </trkpt>
      <trkpt lat="44.33471" lon="3.50545">
        <ele>580</ele>
        <time>2017-03-02T21:11:51Z</time>
      </trkpt>
      <trkpt lat="44.33476" lon="3.50543">
        <ele>580</ele>
        <time>2017-03-02T21:13:51Z</time>
      </trkpt>
      <trkpt lat="44.3348" lon="3.50541">
        <ele>580</ele>
        <time>2017-03-02T21:15:51Z</time>
      </trkpt>
      <trkpt lat="44.33491" lon="3.50533">
        <ele>579</ele>
        <time>2017-03-02T21:17:51Z</time>
      </trkpt>
      <trkpt lat="44.33503" lon="3.50524">
        <ele>577</ele>
        <time>2017-03-02T21:19:51Z</time>
      </trkpt>
      <trkpt lat="44.33506" lon="3.50521">
        <ele>576</ele>
        <time>2017-03-02T21:21:51Z</time>
      </trkpt>
      <trkpt lat="44.33509" lon="3.50518">
        <ele>575</ele>
        <time>2017-03-02T21:23:51Z</time>
      </trkpt>
      <trkpt lat="44.33516" lon="3.5051">
        <ele>573</ele>
        <time>2017-03-02T21:25:51Z</time>
      </trkpt>
      <trkpt lat="44.33518" lon="3.50506">
        <ele>572</ele>
        <time>2017-03-02T21:27:51Z</time>
      </trkpt>
      <trkpt lat="44.33521" lon="3.50503">
        <ele>572</ele>
        <time>2017-03-02T21:29:51Z</time>
      </trkpt>
      <trkpt lat="44.33527" lon="3.50491">
        <ele>570</ele>
        <time>2017-03-02T21:31:51Z</time>
      </trkpt>
      <trkpt lat="44.33529" lon="3.50488">
        <ele>569</ele>
        <time>2017-03-02T21:33:51Z</time>
      </trkpt>
      <trkpt lat="44.3353" lon="3.50486">
        <ele>569</ele>
        <time>2017-03-02T21:35:51Z</time>
      </trkpt>
      <trkpt lat="44.33532" lon="3.50482">
        <ele>569</ele>
        <time>2017-03-02T21:37:51Z</time>
      </trkpt>
      <trkpt lat="44.33535" lon="3.5048">
        <ele>569</ele>
        <time>2017-03-02T21:39:51Z</time>
      </trkpt>
      <trkpt lat="44.33537" lon="3.50479">
        <ele>569</ele>
        <time>2017-03-02T21:41:51Z</time>
      </trkpt>
      <trkpt lat="44.33553" lon="3.50473">
        <ele>573</ele>
        <time>2017-03-02T21:43:51Z</time>
      </trkpt>
      <trkpt lat="44.33566" lon="3.50468">
        <ele>577</ele>
        <time>2017-03-02T21:45:51Z</time>
      </trkpt>
      <trkpt lat="44.33583" lon="3.5046">
        <ele>580</ele>
        <time>2017-03-02T21:47:51Z</time>
      </trkpt>
      <trkpt lat="44.33593" lon="3.50455">
        <ele>578</ele>
        <time>2017-03-02T21:49:51Z</time>
      </trkpt>
      <trkpt lat="44.33604" lon="3.50449">
        <ele>577</ele>
        <time>2017-03-02T21:51:51Z</time>
      </trkpt>
      <trkpt lat="44.33604" lon="3.50449">
        <ele>577</ele>
        <time>2017-03-02T21:53:51Z</time>
      </trkpt>
      <trkpt lat="44.33605" lon="3.50446">
        <ele>576</ele>
        <time>2017-03-02T21:55:51Z</time>
      </trkpt>
      <trkpt lat="44.33606" lon="3.50444">
        <ele>576</ele>
        <time>2017-03-02T21:57:51Z</time>
      </trkpt>
      <trkpt lat="44.33607" lon="3.50441">
        <ele>575</ele>
        <time>2017-03-02T21:59:51Z</time>
      </trkpt>
      <trkpt lat="44.33608" lon="3.50439">
        <ele>575</ele>
        <time>2017-03-02T22:01:51Z</time>
      </trkpt>
      <trkpt lat="44.33611" lon="3.50436">
        <ele>574</ele>
        <time>2017-03-02T22:03:51Z</time>
      </trkpt>
      <trkpt lat="44.33615" lon="3.50432">
        <ele>574</ele>
        <time>2017-03-02T22:05:51Z</time>
      </trkpt>
      <trkpt lat="44.33618" lon="3.5043">
        <ele>574</ele>
        <time>2017-03-02T22:07:51Z</time>
      </trkpt>
      <trkpt lat="44.33621" lon="3.50428">
        <ele>573</ele>
        <time>2017-03-02T22:09:51Z</time>
      </trkpt>
      <trkpt lat="44.33624" lon="3.50426">
        <ele>573</ele>
        <time>2017-03-02T22:11:51Z</time>
      </trkpt>
      <trkpt lat="44.33628" lon="3.50423">
        <ele>573</ele>
        <time>2017-03-02T22:13:51Z</time>
      </trkpt>
      <trkpt lat="44.33632" lon="3.5042">
        <ele>574</ele>
        <time>2017-03-02T22:15:51Z</time>
      </trkpt>
      <trkpt lat="44.33634" lon="3.50418">
        <ele>574</ele>
        <time>2017-03-02T22:17:51Z</time>
      </trkpt>
      <trkpt lat="44.33637" lon="3.50415">
        <ele>573</ele>
        <time>2017-03-02T22:19:51Z</time>
      </trkpt>
      <trkpt lat="44.3364" lon="3.50412">
        <ele>573</ele>
        <time>2017-03-02T22:21:51Z</time>
      </trkpt>
      <trkpt lat="44.33643" lon="3.5041">
        <ele>572</ele>
        <time>2017-03-02T22:23:51Z</time>
      </trkpt>
      <trkpt lat="44.33644" lon="3.50408">
        <ele>572</ele>
        <time>2017-03-02T22:25:51Z</time>
      </trkpt>
      <trkpt lat="44.33647" lon="3.50405">
        <ele>571</ele>
        <time>2017-03-02T22:27:51Z</time>
      </trkpt>
      <trkpt lat="44.33649" lon="3.50402">
        <ele>570</ele>
        <time>2017-03-02T22:29:51Z</time>
      </trkpt>
      <trkpt lat="44.33651" lon="3.50401">
        <ele>570</ele>
        <time>2017-03-02T22:31:51Z</time>
      </trkpt>
      <trkpt lat="44.33653" lon="3.504">
        <ele>570</ele>
        <time>2017-03-02T22:33:51Z</time>
      </trkpt>
      <trkpt lat="44.33656" lon="3.50399">
        <ele>570</ele>
        <time>2017-03-02T22:35:51Z</time>
      </trkpt>
      <trkpt lat="44.33662" lon="3.50398">
        <ele>571</ele>
        <time>2017-03-02T22:37:51Z</time>
      </trkpt>
      <trkpt lat="44.33668" lon="3.50398">
        <ele>571</ele>
        <time>2017-03-02T22:39:51Z</time>
      </trkpt>
      <trkpt lat="44.33668" lon="3.50398">
        <ele>571</ele>
        <time>2017-03-02T22:41:51Z</time>
      </trkpt>
      <trkpt lat="44.33667" lon="3.50391">
        <ele>569</ele>
        <time>2017-03-02T22:43:51Z</time>
      </trkpt>
      <trkpt lat="44.33666" lon="3.50389">
        <ele>569</ele>
        <time>2017-03-02T22:45:51Z</time>
      </trkpt>
      <trkpt lat="44.33666" lon="3.50387">
        <ele>568</ele>
        <time>2017-03-02T22:47:51Z</time>
      </trkpt>
      <trkpt lat="44.33667" lon="3.50384">
        <ele>567</ele>
        <time>2017-03-02T22:49:51Z</time>
      </trkpt>
      <trkpt lat="44.33668" lon="3.50382">
        <ele>567</ele>
        <time>2017-03-02T22:51:51Z</time>
      </trkpt>
      <trkpt lat="44.33668" lon="3.5038">
        <ele>566</ele>
        <time>2017-03-02T22:53:51Z</time>
      </trkpt>
      <trkpt lat="44.33673" lon="3.50374">
        <ele>564</ele>
        <time>2017-03-02T22:55:51Z</time>
      </trkpt>
      <trkpt lat="44.33677" lon="3.50369">
        <ele>562</ele>
        <time>2017-03-02T22:57:51Z</time>
      </trkpt>
      <trkpt lat="44.33681" lon="3.50364">
        <ele>561</ele>
        <time>2017-03-02T22:59:51Z</time>
      </trkpt>
      <trkpt lat="44.33684" lon="3.50361">
        <ele>560</ele>
        <time>2017-03-02T23:01:51Z</time>
      </trkpt>
      <trkpt lat="44.33689" lon="3.50356">
        <ele>559</ele>
        <time>2017-03-02T23:03:51Z</time>
      </trkpt>
      <trkpt lat="44.33693" lon="3.50351">
        <ele>558</ele>
        <time>2017-03-02T23:05:51Z</time>
      </trkpt>
      <trkpt lat="44.33699" lon="3.50343">
        <ele>556</ele>
        <time>2017-03-02T23:07:51Z</time>
      </trkpt>
      <trkpt lat="44.33701" lon="3.5034">
        <ele>555</ele>
        <time>2017-03-02T23:09:51Z</time>
      </trkpt>
      <trkpt lat="44.33703" lon="3.50337">
        <ele>555</ele>
        <time>2017-03-02T23:11:51Z</time>
      </trkpt>
      <trkpt lat="44.33706" lon="3.50332">
        <ele>554</ele>
        <time>2017-03-02T23:13:51Z</time>
      </trkpt>
      <trkpt lat="44.33708" lon="3.50328">
        <ele>553</ele>
        <time>2017-03-02T23:15:51Z</time>
      </trkpt>
      <trkpt lat="44.3371" lon="3.50325">
        <ele>552</ele>
        <time>2017-03-02T23:17:51Z</time>
      </trkpt>
      <trkpt lat="44.33715" lon="3.50318">
        <ele>551</ele>
        <time>2017-03-02T23:19:51Z</time>
      </trkpt>
      <trkpt lat="44.33721" lon="3.50307">
        <ele>548</ele>
        <time>2017-03-02T23:21:51Z</time>
      </trkpt>
      <trkpt lat="44.33721" lon="3.50307">
        <ele>548</ele>
        <time>2017-03-02T23:23:51Z</time>
      </trkpt>
      <trkpt lat="44.33725" lon="3.503">
        <ele>547</ele>
        <time>2017-03-02T23:25:51Z</time>
      </trkpt>
      <trkpt lat="44.33731" lon="3.50289">
        <ele>545</ele>
        <time>2017-03-02T23:27:51Z</time>
      </trkpt>
      <trkpt lat="44.33739" lon="3.50274">
        <ele>542</ele>
        <time>2017-03-02T23:29:51Z</time>
      </trkpt>
      <trkpt lat="44.3374" lon="3.50269">
        <ele>541</ele>
        <time>2017-03-02T23:31:51Z</time>
      </trkpt>
      <trkpt lat="44.33742" lon="3.50264">
        <ele>541</ele>
        <time>2017-03-02T23:33:51Z</time>
      </trkpt>
      <trkpt lat="44.33743" lon="3.50259">
        <ele>540</ele>
        <time>2017-03-02T23:35:51Z</time>
      </trkpt>
      <trkpt lat="44.33745" lon="3.50253">
        <ele>539</ele>
        <time>2017-03-02T23:37:51Z</time>
      </trkpt>
      <trkpt lat="44.33746" lon="3.50245">
        <ele>537</ele>
        <time>2017-03-02T23:39:51Z</time>
      </trkpt>
      <trkpt lat="44.33747" lon="3.50239">
        <ele>536</ele>
        <time>2017-03-02T23:41:51Z</time>
      </trkpt>
      <trkpt lat="44.33747" lon="3.50234">
        <ele>536</ele>
        <time>2017-03-02T23:43:51Z</time>
      </trkpt>
      <trkpt lat="44.33748" lon="3.50229">
        <ele>535</ele>
        <time>2017-03-02T23:45:51Z</time>
      </trkpt>
      <trkpt lat="44.33748" lon="3.50223">
        <ele>534</ele>
        <time>2017-03-02T23:47:51Z</time>
      </trkpt>
      <trkpt lat="44.33748" lon="3.50218">
        <ele>533</ele>
        <time>2017-03-02T23:49:51Z</time>
      </trkpt>
      <trkpt lat="44.33748" lon="3.50213">
        <ele>532</ele>
        <time>2017-03-02T23:51:51Z</time>
      </trkpt>
      <trkpt lat="44.33748" lon="3.50205">
        <ele>531</ele>
        <time>2017-03-02T23:53:51Z</time>
      </trkpt>
      <trkpt lat="44.33749" lon="3.50195">
        <ele>529</ele>
        <time>2017-03-02T23:55:51Z</time>
      </trkpt>
      <trkpt lat="44.33749" lon="3.50186">
        <ele>527</ele>
        <time>2017-03-02T23:57:51Z</time>
      </trkpt>
      <trkpt lat="44.33749" lon="3.50182">
        <ele>527</ele>
        <time>2017-03-02T23:59:51Z</time>
      </trkpt>
      <trkpt lat="44.33749" lon="3.5018">
        <ele>526</ele>
        <time>2017-03-03T00:01:51Z</time>
      </trkpt>
      <trkpt lat="44.33749" lon="3.50175">
        <ele>525</ele>
        <time>2017-03-03T00:03:51Z</time>
      </trkpt>
      <trkpt lat="44.33748" lon="3.50171">
        <ele>525</ele>
        <time>2017-03-03T00:05:51Z</time>
      </trkpt>
      <trkpt lat="44.33747" lon="3.50167">
        <ele>524</ele>
        <time>2017-03-03T00:07:51Z</time>
      </trkpt>
      <trkpt lat="44.33745" lon="3.50163">
        <ele>523</ele>
        <time>2017-03-03T00:09:51Z</time>
      </trkpt>
      <trkpt lat="44.33744" lon="3.50157">
        <ele>522</ele>
        <time>2017-03-03T00:11:51Z</time>
      </trkpt>
      <trkpt lat="44.33742" lon="3.50149">
        <ele>521</ele>
        <time>2017-03-03T00:13:51Z</time>
      </trkpt>
      <trkpt lat="44.33741" lon="3.50139">
        <ele>520</ele>
        <time>2017-03-03T00:15:51Z</time>
      </trkpt>
      <trkpt lat="44.33739" lon="3.5013">
        <ele>518</ele>
        <time>2017-03-03T00:17:51Z</time>
      </trkpt>
      <trkpt lat="44.33739" lon="3.50126">
        <ele>518</ele>
        <time>2017-03-03T00:19:51Z</time>
      </trkpt>
      <trkpt lat="44.33739" lon="3.50124">
        <ele>518</ele>
        <time>2017-03-03T00:21:51Z</time>
      </trkpt>
      <trkpt lat="44.33739" lon="3.50118">
        <ele>517</ele>
        <time>2017-03-03T00:23:51Z</time>
      </trkpt>
      <trkpt lat="44.33739" lon="3.50113">
        <ele>516</ele>
        <time>2017-03-03T00:25:51Z</time>
      </trkpt>
      <trkpt lat="44.33739" lon="3.50109">
        <ele>516</ele>
        <time>2017-03-03T00:27:51Z</time>
      </trkpt>
      <trkpt lat="44.33738" lon="3.50105">
        <ele>515</ele>
        <time>2017-03-03T00:29:51Z</time>
      </trkpt>
      <trkpt lat="44.33738" lon="3.50102">
        <ele>515</ele>
        <time>2017-03-03T00:31:51Z</time>
      </trkpt>
      <trkpt lat="44.33738" lon="3.50099">
        <ele>515</ele>
        <time>2017-03-03T00:33:51Z</time>
      </trkpt>
      <trkpt lat="44.33738" lon="3.50096">
        <ele>514</ele>
        <time>2017-03-03T00:35:51Z</time>
      </trkpt>
      <trkpt lat="44.33737" lon="3.50093">
        <ele>514</ele>
        <time>2017-03-03T00:37:51Z</time>
      </trkpt>
      <trkpt lat="44.33736" lon="3.50091">
        <ele>514</ele>
        <time>2017-03-03T00:39:51Z</time>
      </trkpt>
      <trkpt lat="44.33736" lon="3.50089">
        <ele>513</ele>
        <time>2017-03-03T00:41:51Z</time>
      </trkpt>
      <trkpt lat="44.33733" lon="3.50082">
        <ele>512</ele>
        <time>2017-03-03T00:43:51Z</time>
      </trkpt>
      <trkpt lat="44.33732" lon="3.5008">
        <ele>512</ele>
        <time>2017-03-03T00:45:51Z</time>
      </trkpt>
      <trkpt lat="44.33731" lon="3.50077">
        <ele>512</ele>
        <time>2017-03-03T00:47:51Z</time>
      </trkpt>
      <trkpt lat="44.3373" lon="3.50074">
        <ele>512</ele>
        <time>2017-03-03T00:49:51Z</time>
      </trkpt>
      <trkpt lat="44.3373" lon="3.50072">
        <ele>511</ele>
        <time>2017-03-03T00:51:51Z</time>
      </trkpt>
      <trkpt lat="44.33729" lon="3.5007">
        <ele>511</ele>
        <time>2017-03-03T00:53:51Z</time>
      </trkpt>
      <trkpt lat="44.33729" lon="3.50065">
        <ele>511</ele>
        <time>2017-03-03T00:55:51Z</time>
      </trkpt>
      <trkpt lat="44.3373" lon="3.50048">
        <ele>509</ele>
        <time>2017-03-03T00:57:51Z</time>
      </trkpt>
      <trkpt lat="44.33727" lon="3.50044">
        <ele>509</ele>
        <time>2017-03-03T00:59:51Z</time>
      </trkpt>
      <trkpt lat="44.33727" lon="3.50042">
        <ele>508</ele>
        <time>2017-03-03T01:01:51Z</time>
      </trkpt>
      <trkpt lat="44.33726" lon="3.5004">
        <ele>508</ele>
        <time>2017-03-03T01:03:51Z</time>
      </trkpt>
      <trkpt lat="44.33724" lon="3.50032">
        <ele>508</ele>
        <time>2017-03-03T01:05:51Z</time>
      </trkpt>
      <trkpt lat="44.33724" lon="3.50026">
        <ele>507</ele>
        <time>2017-03-03T01:07:51Z</time>
      </trkpt>
      <trkpt lat="44.33728" lon="3.50016">
        <ele>506</ele>
        <time>2017-03-03T01:09:51Z</time>
      </trkpt>
      <trkpt lat="44.33734" lon="3.5001">
        <ele>505</ele>
        <time>2017-03-03T01:11:51Z</time>
      </trkpt>
      <trkpt lat="44.33738" lon="3.50008">
        <ele>505</ele>
        <time>2017-03-03T01:13:51Z</time>
      </trkpt>
      <trkpt lat="44.33753" lon="3.50008">
        <ele>504</ele>
        <time>2017-03-03T01:15:51Z</time>
      </trkpt>
      <trkpt lat="44.33762" lon="3.5001">
        <ele>503</ele>
        <time>2017-03-03T01:17:51Z</time>
      </trkpt>
      <trkpt lat="44.33769" lon="3.50015">
        <ele>504</ele>
        <time>2017-03-03T01:19:51Z</time>
      </trkpt>
      <trkpt lat="44.33777" lon="3.5002">
        <ele>504</ele>
        <time>2017-03-03T01:21:51Z</time>
      </trkpt>
      <trkpt lat="44.33783" lon="3.50021">
        <ele>503</ele>
        <time>2017-03-03T01:23:51Z</time>
      </trkpt>
      <trkpt lat="44.338" lon="3.50021">
        <ele>502</ele>
        <time>2017-03-03T01:25:51Z</time>
      </trkpt>
      <trkpt lat="44.33809" lon="3.50019">
        <ele>502</ele>
        <time>2017-03-03T01:27:51Z</time>
      </trkpt>
      <trkpt lat="44.33816" lon="3.50013">
        <ele>500</ele>
        <time>2017-03-03T01:29:51Z</time>
      </trkpt>
      <trkpt lat="44.33828" lon="3.49997">
        <ele>498</ele>
        <time>2017-03-03T01:31:51Z</time>
      </trkpt>
      <trkpt lat="44.33834" lon="3.49986">
        <ele>497</ele>
        <time>2017-03-03T01:33:51Z</time>
      </trkpt>
      <trkpt lat="44.33838" lon="3.49974">
        <ele>496</ele>
        <time>2017-03-03T01:35:51Z</time>
      </trkpt>
      <trkpt lat="44.33844" lon="3.49961">
        <ele>495</ele>
        <time>2017-03-03T01:37:51Z</time>
      </trkpt>
      <trkpt lat="44.33857" lon="3.49939">
        <ele>494</ele>
        <time>2017-03-03T01:39:51Z</time>
      </trkpt>
      <trkpt lat="44.3387" lon="3.49917">
        <ele>493</ele>
        <time>2017-03-03T01:41:51Z</time>
      </trkpt>
      <trkpt lat="44.33873" lon="3.49909">
        <ele>493</ele>
        <time>2017-03-03T01:43:51Z</time>
      </trkpt>
      <trkpt lat="44.33872" lon="3.499">
        <ele>493</ele>
        <time>2017-03-03T01:45:51Z</time>
      </trkpt>
      <trkpt lat="44.33872" lon="3.499">
        <ele>493</ele>
        <time>2017-03-03T01:47:51Z</time>
      </trkpt>
      <trkpt lat="44.33863" lon="3.49886">
        <ele>493</ele>
        <time>2017-03-03T01:49:51Z</time>
      </trkpt>
      <trkpt lat="44.33853" lon="3.49873">
        <ele>492</ele>
        <time>2017-03-03T01:51:51Z</time>
      </trkpt>
      <trkpt lat="44.33844" lon="3.49866">
        <ele>491</ele>
        <time>2017-03-03T01:53:51Z</time>
      </trkpt>
      <trkpt lat="44.33833" lon="3.49861">
        <ele>490</ele>
        <time>2017-03-03T01:55:51Z</time>
      </trkpt>
      <trkpt lat="44.33823" lon="3.49856">
        <ele>490</ele>
        <time>2017-03-03T01:57:51Z</time>
      </trkpt>
      <trkpt lat="44.33818" lon="3.49852">
        <ele>490</ele>
        <time>2017-03-03T01:59:51Z</time>
      </trkpt>
      <trkpt lat="44.33817" lon="3.49852">
        <ele>490</ele>
        <time>2017-03-03T02:01:51Z</time>
      </trkpt>
      <trkpt lat="44.33811" lon="3.49847">
        <ele>490</ele>
        <time>2017-03-03T02:03:51Z</time>
      </trkpt>
      <trkpt lat="44.33798" lon="3.49831">
        <ele>489</ele>
        <time>2017-03-03T02:05:51Z</time>
      </trkpt>
      <trkpt lat="44.33787" lon="3.49819">
        <ele>490</ele>
        <time>2017-03-03T02:07:51Z</time>
      </trkpt>
      <trkpt lat="44.33775" lon="3.49809">
        <ele>490</ele>
        <time>2017-03-03T02:09:51Z</time>
      </trkpt>
      <trkpt lat="44.33761" lon="3.49801">
        <ele>489</ele>
        <time>2017-03-03T02:11:51Z</time>
      </trkpt>
      <trkpt lat="44.33744" lon="3.49792">
        <ele>488</ele>
        <time>2017-03-03T02:13:51Z</time>
      </trkpt>
      <trkpt lat="44.33731" lon="3.49785">
        <ele>488</ele>
        <time>2017-03-03T02:15:51Z</time>
      </trkpt>
      <trkpt lat="44.33715" lon="3.49775">
        <ele>488</ele>
        <time>2017-03-03T02:17:51Z</time>
      </trkpt>
      <trkpt lat="44.337" lon="3.49766">
        <ele>488</ele>
        <time>2017-03-03T02:19:51Z</time>
      </trkpt>
      <trkpt lat="44.33692" lon="3.49762">
        <ele>488</ele>
        <time>2017-03-03T02:21:51Z</time>
      </trkpt>
      <trkpt lat="44.33683" lon="3.49757">
        <ele>488</ele>
        <time>2017-03-03T02:23:51Z</time>
      </trkpt>
      <trkpt lat="44.3367" lon="3.49749">
        <ele>488</ele>
        <time>2017-03-03T02:25:51Z</time>
      </trkpt>
      <trkpt lat="44.3366" lon="3.49741">
        <ele>489</ele>
        <time>2017-03-03T02:27:51Z</time>
      </trkpt>
      <trkpt lat="44.33647" lon="3.49737">
        <ele>490</ele>
        <time>2017-03-03T02:29:51Z</time>
      </trkpt>
      <trkpt lat="44.33634" lon="3.49738">
        <ele>491</ele>
        <time>2017-03-03T02:31:51Z</time>
      </trkpt>
      <trkpt lat="44.33619" lon="3.49741">
        <ele>491</ele>
        <time>2017-03-03T02:33:51Z</time>
      </trkpt>
      <trkpt lat="44.33611" lon="3.49744">
        <ele>491</ele>
        <time>2017-03-03T02:35:51Z</time>
      </trkpt>
      <trkpt lat="44.33598" lon="3.49744">
        <ele>492</ele>
        <time>2017-03-03T02:37:51Z</time>
      </trkpt>
      <trkpt lat="44.33592" lon="3.49743">
        <ele>492</ele>
        <time>2017-03-03T02:39:51Z</time>
      </trkpt>
      <trkpt lat="44.33585" lon="3.49742">
        <ele>492</ele>
        <time>2017-03-03T02:41:51Z</time>
      </trkpt>
      <trkpt lat="44.3356" lon="3.49739">
        <ele>493</ele>
        <time>2017-03-03T02:43:51Z</time>
      </trkpt>
      <trkpt lat="44.33542" lon="3.49737">
        <ele>493</ele>
        <time>2017-03-03T02:45:51Z</time>
      </trkpt>
      <trkpt lat="44.33524" lon="3.49736">
        <ele>494</ele>
        <time>2017-03-03T02:47:51Z</time>
      </trkpt>
      <trkpt lat="44.33505" lon="3.49733">
        <ele>494</ele>
        <time>2017-03-03T02:49:51Z</time>
      </trkpt>
      <trkpt lat="44.33485" lon="3.49729">
        <ele>495</ele>
        <time>2017-03-03T02:51:51Z</time>
      </trkpt>
      <trkpt lat="44.3346" lon="3.49721">
        <ele>495</ele>
        <time>2017-03-03T02:53:51Z</time>
      </trkpt>
      <trkpt lat="44.33446" lon="3.49716">
        <ele>495</ele>
        <time>2017-03-03T02:55:51Z</time>
      </trkpt>
      <trkpt lat="44.33437" lon="3.49713">
        <ele>495</ele>
        <time>2017-03-03T02:57:51Z</time>
      </trkpt>
      <trkpt lat="44.33423" lon="3.49713">
        <ele>495</ele>
        <time>2017-03-03T02:59:51Z</time>
      </trkpt>
      <trkpt lat="44.33412" lon="3.49716">
        <ele>495</ele>
        <time>2017-03-03T03:01:51Z</time>
      </trkpt>
      <trkpt lat="44.33398" lon="3.49722">
        <ele>496</ele>
        <time>2017-03-03T03:03:51Z</time>
      </trkpt>
      <trkpt lat="44.33383" lon="3.4973">
        <ele>498</ele>
        <time>2017-03-03T03:05:51Z</time>
      </trkpt>
      <trkpt lat="44.3337" lon="3.49736">
        <ele>499</ele>
        <time>2017-03-03T03:07:51Z</time>
      </trkpt>
      <trkpt lat="44.33357" lon="3.4974">
        <ele>500</ele>
        <time>2017-03-03T03:09:51Z</time>
      </trkpt>
      <trkpt lat="44.33348" lon="3.49741">
        <ele>501</ele>
        <time>2017-03-03T03:11:51Z</time>
      </trkpt>
      <trkpt lat="44.3334" lon="3.49739">
        <ele>501</ele>
        <time>2017-03-03T03:13:51Z</time>
      </trkpt>
      <trkpt lat="44.3333" lon="3.49735">
        <ele>502</ele>
        <time>2017-03-03T03:15:51Z</time>
      </trkpt>
      <trkpt lat="44.33318" lon="3.49728">
        <ele>503</ele>
        <time>2017-03-03T03:17:51Z</time>
      </trkpt>
      <trkpt lat="44.33304" lon="3.4972">
        <ele>504</ele>
        <time>2017-03-03T03:19:51Z</time>
      </trkpt>
      <trkpt lat="44.33293" lon="3.49711">
        <ele>504</ele>
        <time>2017-03-03T03:21:51Z</time>
      </trkpt>
      <trkpt lat="44.33283" lon="3.49703">
        <ele>504</ele>
        <time>2017-03-03T03:23:51Z</time>
      </trkpt>
      <trkpt lat="44.33279" lon="3.49701">
        <ele>504</ele>
        <time>2017-03-03T03:25:51Z</time>
      </trkpt>
      <trkpt lat="44.33262" lon="3.49693">
        <ele>505</ele>
        <time>2017-03-03T03:27:51Z</time>
      </trkpt>
      <trkpt lat="44.33236" lon="3.49678">
        <ele>509</ele>
        <time>2017-03-03T03:29:51Z</time>
      </trkpt>
      <trkpt lat="44.33219" lon="3.49667">
        <ele>515</ele>
        <time>2017-03-03T03:31:51Z</time>
      </trkpt>
      <trkpt lat="44.33207" lon="3.49657">
        <ele>519</ele>
        <time>2017-03-03T03:33:51Z</time>
      </trkpt>
      <trkpt lat="44.33199" lon="3.49647">
        <ele>521</ele>
        <time>2017-03-03T03:35:51Z</time>
      </trkpt>
      <trkpt lat="44.33194" lon="3.49637">
        <ele>522</ele>
        <time>2017-03-03T03:37:51Z</time>
      </trkpt>
      <trkpt lat="44.33189" lon="3.49624">
        <ele>522</ele>
        <time>2017-03-03T03:39:51Z</time>
      </trkpt>
      <trkpt lat="44.3318" lon="3.49607">
        <ele>522</ele>
        <time>2017-03-03T03:41:51Z</time>
      </trkpt>
      <trkpt lat="44.33169" lon="3.49586">
        <ele>523</ele>
        <time>2017-03-03T03:43:51Z</time>
      </trkpt>
      <trkpt lat="44.33164" lon="3.49574">
        <ele>526</ele>
        <time>2017-03-03T03:45:51Z</time>
      </trkpt>
      <trkpt lat="44.33162" lon="3.49565">
        <ele>528</ele>
        <time>2017-03-03T03:47:51Z</time>
      </trkpt>
      <trkpt lat="44.33162" lon="3.49557">
        <ele>528</ele>
        <time>2017-03-03T03:49:51Z</time>
      </trkpt>
      <trkpt lat="44.33163" lon="3.4955">
        <ele>527</ele>
        <time>2017-03-03T03:51:51Z</time>
      </trkpt>
      <trkpt lat="44.33168" lon="3.49539">
        <ele>524</ele>
        <time>2017-03-03T03:53:51Z</time>
      </trkpt>
      <trkpt lat="44.33175" lon="3.49526">
        <ele>521</ele>
        <time>2017-03-03T03:55:51Z</time>
      </trkpt>
      <trkpt lat="44.33181" lon="3.49515">
        <ele>518</ele>
        <time>2017-03-03T03:57:51Z</time>
      </trkpt>
      <trkpt lat="44.33183" lon="3.49507">
        <ele>518</ele>
        <time>2017-03-03T03:59:51Z</time>
      </trkpt>
      <trkpt lat="44.33183" lon="3.49494">
        <ele>518</ele>
        <time>2017-03-03T04:01:51Z</time>
      </trkpt>
      <trkpt lat="44.33182" lon="3.49478">
        <ele>520</ele>
        <time>2017-03-03T04:03:51Z</time>
      </trkpt>
      <trkpt lat="44.33183" lon="3.49468">
        <ele>521</ele>
        <time>2017-03-03T04:05:51Z</time>
      </trkpt>
      <trkpt lat="44.33185" lon="3.49457">
        <ele>521</ele>
        <time>2017-03-03T04:07:51Z</time>
      </trkpt>
      <trkpt lat="44.33187" lon="3.49444">
        <ele>522</ele>
        <time>2017-03-03T04:09:51Z</time>
      </trkpt>
      <trkpt lat="44.3319" lon="3.49435">
        <ele>521</ele>
        <time>2017-03-03T04:11:51Z</time>
      </trkpt>
      <trkpt lat="44.33195" lon="3.49423">
        <ele>519</ele>
        <time>2017-03-03T04:13:51Z</time>
      </trkpt>
      <trkpt lat="44.33201" lon="3.49409">
        <ele>519</ele>
        <time>2017-03-03T04:15:51Z</time>
      </trkpt>
      <trkpt lat="44.33204" lon="3.49398">
        <ele>521</ele>
        <time>2017-03-03T04:17:51Z</time>
      </trkpt>
      <trkpt lat="44.3321" lon="3.49383">
        <ele>523</ele>
        <time>2017-03-03T04:19:51Z</time>
      </trkpt>
      <trkpt lat="44.33215" lon="3.49374">
        <ele>522</ele>
        <time>2017-03-03T04:21:51Z</time>
      </trkpt>
      <trkpt lat="44.3323" lon="3.49352">
        <ele>519</ele>
        <time>2017-03-03T04:23:51Z</time>
      </trkpt>
      <trkpt lat="44.33247" lon="3.49328">
        <ele>516</ele>
        <time>2017-03-03T04:25:51Z</time>
      </trkpt>
      <trkpt lat="44.33268" lon="3.493">
        <ele>522</ele>
        <time>2017-03-03T04:27:51Z</time>
      </trkpt>
      <trkpt lat="44.3328" lon="3.49287">
        <ele>523</ele>
        <time>2017-03-03T04:29:51Z</time>
      </trkpt>
      <trkpt lat="44.33299" lon="3.49271">
        <ele>522</ele>
        <time>2017-03-03T04:31:51Z</time>
      </trkpt>
      <trkpt lat="44.33315" lon="3.49259">
        <ele>519</ele>
        <time>2017-03-03T04:33:51Z</time>
      </trkpt>
      <trkpt lat="44.33332" lon="3.49246">
        <ele>516</ele>
        <time>2017-03-03T04:35:51Z</time>
      </trkpt>
      <trkpt lat="44.33357" lon="3.49226">
        <ele>516</ele>
        <time>2017-03-03T04:37:51Z</time>
      </trkpt>
      <trkpt lat="44.33372" lon="3.49213">
        <ele>516</ele>
        <time>2017-03-03T04:39:51Z</time>
      </trkpt>
      <trkpt lat="44.3338" lon="3.49204">
        <ele>517</ele>
        <time>2017-03-03T04:41:51Z</time>
      </trkpt>
      <trkpt lat="44.33392" lon="3.49192">
        <ele>516</ele>
        <time>2017-03-03T04:43:51Z</time>
      </trkpt>
      <trkpt lat="44.33408" lon="3.49177">
        <ele>515</ele>
        <time>2017-03-03T04:45:51Z</time>
      </trkpt>
      <trkpt lat="44.33426" lon="3.49158">
        <ele>513</ele>
        <time>2017-03-03T04:47:51Z</time>
      </trkpt>
      <trkpt lat="44.33443" lon="3.4914">
        <ele>512</ele>
        <time>2017-03-03T04:49:51Z</time>
      </trkpt>
      <trkpt lat="44.33451" lon="3.49127">
        <ele>512</ele>
        <time>2017-03-03T04:51:51Z</time>
      </trkpt>
      <trkpt lat="44.33454" lon="3.4912">
        <ele>512</ele>
        <time>2017-03-03T04:53:51Z</time>
      </trkpt>
      <trkpt lat="44.33455" lon="3.49112">
        <ele>513</ele>
        <time>2017-03-03T04:55:51Z</time>
      </trkpt>
      <trkpt lat="44.33453" lon="3.49107">
        <ele>514</ele>
        <time>2017-03-03T04:57:51Z</time>
      </trkpt>
      <trkpt lat="44.33449" lon="3.49097">
        <ele>517</ele>
        <time>2017-03-03T04:59:51Z</time>
      </trkpt>
      <trkpt lat="44.33439" lon="3.4908">
        <ele>521</ele>
        <time>2017-03-03T05:01:51Z</time>
      </trkpt>
      <trkpt lat="44.33428" lon="3.49065">
        <ele>521</ele>
        <time>2017-03-03T05:03:51Z</time>
      </trkpt>
      <trkpt lat="44.33402" lon="3.49036">
        <ele>525</ele>
        <time>2017-03-03T05:05:51Z</time>
      </trkpt>
      <trkpt lat="44.33378" lon="3.4901">
        <ele>528</ele>
        <time>2017-03-03T05:07:51Z</time>
      </trkpt>
      <trkpt lat="44.33369" lon="3.49001">
        <ele>530</ele>
        <time>2017-03-03T05:09:51Z</time>
      </trkpt>
      <trkpt lat="44.33359" lon="3.48988">
        <ele>530</ele>
        <time>2017-03-03T05:11:51Z</time>
      </trkpt>
      <trkpt lat="44.33352" lon="3.48974">
        <ele>529</ele>
        <time>2017-03-03T05:13:51Z</time>
      </trkpt>
      <trkpt lat="44.33345" lon="3.48957">
        <ele>526</ele>
        <time>2017-03-03T05:15:51Z</time>
      </trkpt>
      <trkpt lat="44.33337" lon="3.48938">
        <ele>523</ele>
        <time>2017-03-03T05:17:51Z</time>
      </trkpt>
      <trkpt lat="44.33333" lon="3.48931">
        <ele>522</ele>
        <time>2017-03-03T05:19:51Z</time>
      </trkpt>
      <trkpt lat="44.33327" lon="3.48925">
        <ele>523</ele>
        <time>2017-03-03T05:21:51Z</time>
      </trkpt>
      <trkpt lat="44.33316" lon="3.4892">
        <ele>527</ele>
        <time>2017-03-03T05:23:51Z</time>
      </trkpt>
      <trkpt lat="44.33306" lon="3.48913">
        <ele>530</ele>
        <time>2017-03-03T05:25:51Z</time>
      </trkpt>
      <trkpt lat="44.33301" lon="3.48908">
        <ele>531</ele>
        <time>2017-03-03T05:27:51Z</time>
      </trkpt>
      <trkpt lat="44.33292" lon="3.48899">
        <ele>533</ele>
        <time>2017-03-03T05:29:51Z</time>
      </trkpt>
      <trkpt lat="44.33282" lon="3.48893">
        <ele>537</ele>
        <time>2017-03-03T05:31:51Z</time>
      </trkpt>
      <trkpt lat="44.33278" lon="3.4889">
        <ele>538</ele>
        <time>2017-03-03T05:33:51Z</time>
      </trkpt>
      <trkpt lat="44.33274" lon="3.48886">
        <ele>539</ele>
        <time>2017-03-03T05:35:51Z</time>
      </trkpt>
      <trkpt lat="44.3327" lon="3.48879">
        <ele>539</ele>
        <time>2017-03-03T05:37:51Z</time>
      </trkpt>
      <trkpt lat="44.33269" lon="3.48871">
        <ele>538</ele>
        <time>2017-03-03T05:39:51Z</time>
      </trkpt>
      <trkpt lat="44.3327" lon="3.48861">
        <ele>536</ele>
        <time>2017-03-03T05:41:51Z</time>
      </trkpt>
      <trkpt lat="44.33274" lon="3.48855">
        <ele>533</ele>
        <time>2017-03-03T05:43:51Z</time>
      </trkpt>
      <trkpt lat="44.33277" lon="3.48851">
        <ele>531</ele>
        <time>2017-03-03T05:45:51Z</time>
      </trkpt>
      <trkpt lat="44.33277" lon="3.48851">
        <ele>531</ele>
        <time>2017-03-03T05:47:51Z</time>
      </trkpt>
      <trkpt lat="44.3328" lon="3.48848">
        <ele>529</ele>
        <time>2017-03-03T05:49:51Z</time>
      </trkpt>
      <trkpt lat="44.33285" lon="3.48838">
        <ele>526</ele>
        <time>2017-03-03T05:51:51Z</time>
      </trkpt>
      <trkpt lat="44.33293" lon="3.48819">
        <ele>521</ele>
        <time>2017-03-03T05:53:51Z</time>
      </trkpt>
      <trkpt lat="44.33298" lon="3.48799">
        <ele>518</ele>
        <time>2017-03-03T05:55:51Z</time>
      </trkpt>
      <trkpt lat="44.33298" lon="3.48785">
        <ele>517</ele>
        <time>2017-03-03T05:57:51Z</time>
      </trkpt>
      <trkpt lat="44.33295" lon="3.4877">
        <ele>518</ele>
        <time>2017-03-03T05:59:51Z</time>
      </trkpt>
      <trkpt lat="44.33288" lon="3.48751">
        <ele>520</ele>
        <time>2017-03-03T06:01:51Z</time>
      </trkpt>
      <trkpt lat="44.3328" lon="3.48735">
        <ele>523</ele>
        <time>2017-03-03T06:03:51Z</time>
      </trkpt>
      <trkpt lat="44.33277" lon="3.48726">
        <ele>525</ele>
        <time>2017-03-03T06:05:51Z</time>
      </trkpt>
      <trkpt lat="44.33274" lon="3.48714">
        <ele>526</ele>
        <time>2017-03-03T06:07:51Z</time>
      </trkpt>
      <trkpt lat="44.33274" lon="3.48706">
        <ele>526</ele>
        <time>2017-03-03T06:09:51Z</time>
      </trkpt>
      <trkpt lat="44.33276" lon="3.48694">
        <ele>525</ele>
        <time>2017-03-03T06:11:51Z</time>
      </trkpt>
      <trkpt lat="44.33278" lon="3.48676">
        <ele>524</ele>
        <time>2017-03-03T06:13:51Z</time>
      </trkpt>
      <trkpt lat="44.33279" lon="3.48661">
        <ele>523</ele>
        <time>2017-03-03T06:15:51Z</time>
      </trkpt>
      <trkpt lat="44.33278" lon="3.48649">
        <ele>524</ele>
        <time>2017-03-03T06:17:51Z</time>
      </trkpt>
      <trkpt lat="44.33275" lon="3.4862">
        <ele>526</ele>
        <time>2017-03-03T06:19:51Z</time>
      </trkpt>
      <trkpt lat="44.33273" lon="3.48588">
        <ele>528</ele>
        <time>2017-03-03T06:21:51Z</time>
      </trkpt>
      <trkpt lat="44.33272" lon="3.48565">
        <ele>528</ele>
        <time>2017-03-03T06:23:51Z</time>
      </trkpt>
      <trkpt lat="44.33274" lon="3.48549">
        <ele>526</ele>
        <time>2017-03-03T06:25:51Z</time>
      </trkpt>
      <trkpt lat="44.33277" lon="3.48537">
        <ele>524</ele>
        <time>2017-03-03T06:27:51Z</time>
      </trkpt>
      <trkpt lat="44.33284" lon="3.48517">
        <ele>519</ele>
        <time>2017-03-03T06:29:51Z</time>
      </trkpt>
      <trkpt lat="44.33289" lon="3.48503">
        <ele>515</ele>
        <time>2017-03-03T06:31:51Z</time>
      </trkpt>
      <trkpt lat="44.33292" lon="3.48489">
        <ele>514</ele>
        <time>2017-03-03T06:33:51Z</time>
      </trkpt>
      <trkpt lat="44.33294" lon="3.48468">
        <ele>515</ele>
        <time>2017-03-03T06:35:51Z</time>
      </trkpt>
      <trkpt lat="44.33296" lon="3.48447">
        <ele>515</ele>
        <time>2017-03-03T06:37:51Z</time>
      </trkpt>
      <trkpt lat="44.33298" lon="3.48428">
        <ele>516</ele>
        <time>2017-03-03T06:39:51Z</time>
      </trkpt>
      <trkpt lat="44.33301" lon="3.4841">
        <ele>516</ele>
        <time>2017-03-03T06:41:51Z</time>
      </trkpt>
      <trkpt lat="44.33306" lon="3.48387">
        <ele>517</ele>
        <time>2017-03-03T06:43:51Z</time>
      </trkpt>
      <trkpt lat="44.33312" lon="3.48366">
        <ele>516</ele>
        <time>2017-03-03T06:45:51Z</time>
      </trkpt>
      <trkpt lat="44.33322" lon="3.48339">
        <ele>513</ele>
        <time>2017-03-03T06:47:51Z</time>
      </trkpt>
      <trkpt lat="44.3333" lon="3.48321">
        <ele>510</ele>
        <time>2017-03-03T06:49:51Z</time>
      </trkpt>
      <trkpt lat="44.3334" lon="3.48303">
        <ele>510</ele>
        <time>2017-03-03T06:51:51Z</time>
      </trkpt>
      <trkpt lat="44.33345" lon="3.48294">
        <ele>510</ele>
        <time>2017-03-03T06:53:51Z</time>
      </trkpt>
      <trkpt lat="44.33365" lon="3.48265">
        <ele>509</ele>
        <time>2017-03-03T06:55:51Z</time>
      </trkpt>
      <trkpt lat="44.33377" lon="3.48248">
        <ele>507</ele>
        <time>2017-03-03T06:57:51Z</time>
      </trkpt>
      <trkpt lat="44.33385" lon="3.48233">
        <ele>506</ele>
        <time>2017-03-03T06:59:51Z</time>
      </trkpt>
      <trkpt lat="44.33391" lon="3.4822">
        <ele>504</ele>
        <time>2017-03-03T07:01:51Z</time>
      </trkpt>
      <trkpt lat="44.33397" lon="3.48203">
        <ele>504</ele>
        <time>2017-03-03T07:03:51Z</time>
      </trkpt>
      <trkpt lat="44.33405" lon="3.48186">
        <ele>503</ele>
        <time>2017-03-03T07:05:51Z</time>
      </trkpt>
      <trkpt lat="44.33412" lon="3.4817">
        <ele>503</ele>
        <time>2017-03-03T07:07:51Z</time>
      </trkpt>
      <trkpt lat="44.33418" lon="3.48155">
        <ele>502</ele>
        <time>2017-03-03T07:09:51Z</time>
      </trkpt>
      <trkpt lat="44.33423" lon="3.48138">
        <ele>502</ele>
        <time>2017-03-03T07:11:51Z</time>
      </trkpt>
      <trkpt lat="44.33427" lon="3.4812">
        <ele>502</ele>
        <time>2017-03-03T07:13:51Z</time>
      </trkpt>
      <trkpt lat="44.3343" lon="3.48103">
        <ele>502</ele>
        <time>2017-03-03T07:15:51Z</time>
      </trkpt>
      <trkpt lat="44.33431" lon="3.48084">
        <ele>503</ele>
        <time>2017-03-03T07:17:51Z</time>
      </trkpt>
      <trkpt lat="44.33434" lon="3.48065">
        <ele>502</ele>
        <time>2017-03-03T07:19:51Z</time>
      </trkpt>
      <trkpt lat="44.33435" lon="3.48052">
        <ele>501</ele>
        <time>2017-03-03T07:21:51Z</time>
      </trkpt>
      <trkpt lat="44.33436" lon="3.48044">
        <ele>501</ele>
        <time>2017-03-03T07:23:51Z</time>
      </trkpt>
      <trkpt lat="44.33439" lon="3.48023">
        <ele>500</ele>
        <time>2017-03-03T07:25:51Z</time>
      </trkpt>
      <trkpt lat="44.3344" lon="3.48013">
        <ele>500</ele>
        <time>2017-03-03T07:27:51Z</time>
      </trkpt>
      <trkpt lat="44.3344" lon="3.48002">
        <ele>500</ele>
        <time>2017-03-03T07:29:51Z</time>
      </trkpt>
      <trkpt lat="44.3344" lon="3.47966">
        <ele>499</ele>
        <time>2017-03-03T07:31:51Z</time>
      </trkpt>
      <trkpt lat="44.33441" lon="3.4791">
        <ele>498</ele>
        <time>2017-03-03T07:33:51Z</time>
      </trkpt>
      <trkpt lat="44.3344" lon="3.4787">
        <ele>501</ele>
        <time>2017-03-03T07:35:51Z</time>
      </trkpt>
      <trkpt lat="44.3344" lon="3.47842">
        <ele>502</ele>
        <time>2017-03-03T07:37:51Z</time>
      </trkpt>
      <trkpt lat="44.3344" lon="3.47832">
        <ele>503</ele>
        <time>2017-03-03T07:39:51Z</time>
      </trkpt>
      <trkpt lat="44.3344" lon="3.47828">
        <ele>503</ele>
        <time>2017-03-03T07:41:51Z</time>
      </trkpt>
      <trkpt lat="44.3344" lon="3.47797">
        <ele>504</ele>
        <time>2017-03-03T07:43:51Z</time>
      </trkpt>
      <trkpt lat="44.3344" lon="3.47766">
        <ele>506</ele>
        <time>2017-03-03T07:45:51Z</time>
      </trkpt>
      <trkpt lat="44.3344" lon="3.47746">
        <ele>507</ele>
        <time>2017-03-03T07:47:51Z</time>
      </trkpt>
      <trkpt lat="44.33441" lon="3.47735">
        <ele>509</ele>
        <time>2017-03-03T07:49:51Z</time>
      </trkpt>
      <trkpt lat="44.33444" lon="3.47725">
        <ele>511</ele>
        <time>2017-03-03T07:51:51Z</time>
      </trkpt>
      <trkpt lat="44.33448" lon="3.47715">
        <ele>512</ele>
        <time>2017-03-03T07:53:51Z</time>
      </trkpt>
      <trkpt lat="44.3346" lon="3.47693">
        <ele>512</ele>
        <time>2017-03-03T07:55:51Z</time>
      </trkpt>
      <trkpt lat="44.33474" lon="3.47671">
        <ele>511</ele>
        <time>2017-03-03T07:57:51Z</time>
      </trkpt>
      <trkpt lat="44.33487" lon="3.47647">
        <ele>511</ele>
        <time>2017-03-03T07:59:51Z</time>
      </trkpt>
      <trkpt lat="44.33497" lon="3.47625">
        <ele>512</ele>
        <time>2017-03-03T08:01:51Z</time>
      </trkpt>
      <trkpt lat="44.33508" lon="3.47598">
        <ele>514</ele>
        <time>2017-03-03T08:03:51Z</time>
      </trkpt>
      <trkpt lat="44.33522" lon="3.47564">
        <ele>512</ele>
        <time>2017-03-03T08:05:51Z</time>
      </trkpt>
      <trkpt lat="44.33527" lon="3.47551">
        <ele>510</ele>
        <time>2017-03-03T08:07:51Z</time>
      </trkpt>
      <trkpt lat="44.33529" lon="3.47541">
        <ele>510</ele>
        <time>2017-03-03T08:09:51Z</time>
      </trkpt>
      <trkpt lat="44.33529" lon="3.47533">
        <ele>511</ele>
        <time>2017-03-03T08:11:51Z</time>
      </trkpt>
      <trkpt lat="44.33528" lon="3.47525">
        <ele>512</ele>
        <time>2017-03-03T08:13:51Z</time>
      </trkpt>
      <trkpt lat="44.3352" lon="3.47509">
        <ele>516</ele>
        <time>2017-03-03T08:15:51Z</time>
      </trkpt>
      <trkpt lat="44.33508" lon="3.47485">
        <ele>521</ele>
        <time>2017-03-03T08:17:51Z</time>
      </trkpt>
      <trkpt lat="44.33497" lon="3.47464">
        <ele>526</ele>
        <time>2017-03-03T08:19:51Z</time>
      </trkpt>
      <trkpt lat="44.33487" lon="3.47449">
        <ele>530</ele>
        <time>2017-03-03T08:21:51Z</time>
      </trkpt>
      <trkpt lat="44.33482" lon="3.4744">
        <ele>532</ele>
        <time>2017-03-03T08:23:51Z</time>
      </trkpt>
      <trkpt lat="44.3348" lon="3.47433">
        <ele>532</ele>
        <time>2017-03-03T08:25:51Z</time>
      </trkpt>
      <trkpt lat="44.3348" lon="3.47426">
        <ele>532</ele>
        <time>2017-03-03T08:27:51Z</time>
      </trkpt>
      <trkpt lat="44.33481" lon="3.47422">
        <ele>532</ele>
        <time>2017-03-03T08:29:51Z</time>
      </trkpt>
      <trkpt lat="44.33482" lon="3.4742">
        <ele>531</ele>
        <time>2017-03-03T08:31:51Z</time>
      </trkpt>
      <trkpt lat="44.33483" lon="3.47418">
        <ele>531</ele>
        <time>2017-03-03T08:33:51Z</time>
      </trkpt>
      <trkpt lat="44.33485" lon="3.47415">
        <ele>531</ele>
        <time>2017-03-03T08:35:51Z</time>
      </trkpt>
      <trkpt lat="44.33489" lon="3.47414">
        <ele>530</ele>
        <time>2017-03-03T08:37:51Z</time>
      </trkpt>
      <trkpt lat="44.33497" lon="3.47414">
        <ele>527</ele>
        <time>2017-03-03T08:39:51Z</time>
      </trkpt>
      <trkpt lat="44.33504" lon="3.47414">
        <ele>525</ele>
        <time>2017-03-03T08:41:51Z</time>
      </trkpt>
      <trkpt lat="44.33526" lon="3.47418">
        <ele>521</ele>
        <time>2017-03-03T08:43:51Z</time>
      </trkpt>
      <trkpt lat="44.33543" lon="3.47421">
        <ele>518</ele>
        <time>2017-03-03T08:45:51Z</time>
      </trkpt>
      <trkpt lat="44.33557" lon="3.47421">
        <ele>515</ele>
        <time>2017-03-03T08:47:51Z</time>
      </trkpt>
      <trkpt lat="44.33564" lon="3.47419">
        <ele>515</ele>
        <time>2017-03-03T08:49:51Z</time>
      </trkpt>
      <trkpt lat="44.33572" lon="3.47413">
        <ele>515</ele>
        <time>2017-03-03T08:51:51Z</time>
      </trkpt>
      <trkpt lat="44.33579" lon="3.47403">
        <ele>516</ele>
        <time>2017-03-03T08:53:51Z</time>
      </trkpt>
      <trkpt lat="44.33586" lon="3.47388">
        <ele>517</ele>
        <time>2017-03-03T08:55:51Z</time>
      </trkpt>
      <trkpt lat="44.33595" lon="3.47358">
        <ele>521</ele>
        <time>2017-03-03T08:57:51Z</time>
      </trkpt>
      <trkpt lat="44.33606" lon="3.47321">
        <ele>522</ele>
        <time>2017-03-03T08:59:51Z</time>
      </trkpt>
      <trkpt lat="44.33616" lon="3.47288">
        <ele>522</ele>
        <time>2017-03-03T09:01:51Z</time>
      </trkpt>
      <trkpt lat="44.33625" lon="3.47258">
        <ele>521</ele>
        <time>2017-03-03T09:03:51Z</time>
      </trkpt>
      <trkpt lat="44.33634" lon="3.4723">
        <ele>519</ele>
        <time>2017-03-03T09:05:51Z</time>
      </trkpt>
      <trkpt lat="44.33639" lon="3.47209">
        <ele>518</ele>
        <time>2017-03-03T09:07:51Z</time>
      </trkpt>
      <trkpt lat="44.33642" lon="3.47181">
        <ele>519</ele>
        <time>2017-03-03T09:09:51Z</time>
      </trkpt>
      <trkpt lat="44.33648" lon="3.47135">
        <ele>520</ele>
        <time>2017-03-03T09:11:51Z</time>
      </trkpt>
      <trkpt lat="44.33652" lon="3.47095">
        <ele>521</ele>
        <time>2017-03-03T09:13:51Z</time>
      </trkpt>
      <trkpt lat="44.33657" lon="3.47064">
        <ele>522</ele>
        <time>2017-03-03T09:15:51Z</time>
      </trkpt>
      <trkpt lat="44.3366" lon="3.47049">
        <ele>522</ele>
        <time>2017-03-03T09:17:51Z</time>
      </trkpt>
      <trkpt lat="44.33667" lon="3.47028">
        <ele>521</ele>
        <time>2017-03-03T09:19:51Z</time>
      </trkpt>
      <trkpt lat="44.33674" lon="3.47008">
        <ele>520</ele>
        <time>2017-03-03T09:21:51Z</time>
      </trkpt>
      <trkpt lat="44.33679" lon="3.46987">
        <ele>522</ele>
        <time>2017-03-03T09:23:51Z</time>
      </trkpt>
      <trkpt lat="44.33689" lon="3.46946">
        <ele>528</ele>
        <time>2017-03-03T09:25:51Z</time>
      </trkpt>
      <trkpt lat="44.33695" lon="3.46929">
        <ele>528</ele>
        <time>2017-03-03T09:27:51Z</time>
      </trkpt>
      <trkpt lat="44.33702" lon="3.46916">
        <ele>527</ele>
        <time>2017-03-03T09:29:51Z</time>
      </trkpt>
      <trkpt lat="44.33708" lon="3.46906">
        <ele>528</ele>
        <time>2017-03-03T09:31:51Z</time>
      </trkpt>
      <trkpt lat="44.33717" lon="3.46895">
        <ele>527</ele>
        <time>2017-03-03T09:33:51Z</time>
      </trkpt>
      <trkpt lat="44.33724" lon="3.46888">
        <ele>526</ele>
        <time>2017-03-03T09:35:51Z</time>
      </trkpt>
      <trkpt lat="44.33734" lon="3.46884">
        <ele>522</ele>
        <time>2017-03-03T09:37:51Z</time>
      </trkpt>
      <trkpt lat="44.33748" lon="3.4688">
        <ele>516</ele>
        <time>2017-03-03T09:39:51Z</time>
      </trkpt>
      <trkpt lat="44.33753" lon="3.46879">
        <ele>514</ele>
        <time>2017-03-03T09:41:51Z</time>
      </trkpt>
      <trkpt lat="44.33757" lon="3.46877">
        <ele>514</ele>
        <time>2017-03-03T09:43:51Z</time>
      </trkpt>
      <trkpt lat="44.33759" lon="3.46875">
        <ele>514</ele>
        <time>2017-03-03T09:45:51Z</time>
      </trkpt>
      <trkpt lat="44.33761" lon="3.46874">
        <ele>514</ele>
        <time>2017-03-03T09:47:51Z</time>
      </trkpt>
      <trkpt lat="44.33762" lon="3.46871">
        <ele>515</ele>
        <time>2017-03-03T09:49:51Z</time>
      </trkpt>
      <trkpt lat="44.33764" lon="3.46869">
        <ele>515</ele>
        <time>2017-03-03T09:51:51Z</time>
      </trkpt>
      <trkpt lat="44.33766" lon="3.46864">
        <ele>516</ele>
        <time>2017-03-03T09:53:51Z</time>
      </trkpt>
      <trkpt lat="44.33769" lon="3.46855">
        <ele>518</ele>
        <time>2017-03-03T09:55:51Z</time>
      </trkpt>
      <trkpt lat="44.33775" lon="3.46845">
        <ele>519</ele>
        <time>2017-03-03T09:57:51Z</time>
      </trkpt>
      <trkpt lat="44.33782" lon="3.46836">
        <ele>518</ele>
        <time>2017-03-03T09:59:51Z</time>
      </trkpt>
      <trkpt lat="44.33788" lon="3.46829">
        <ele>517</ele>
        <time>2017-03-03T10:01:51Z</time>
      </trkpt>
      <trkpt lat="44.33796" lon="3.46818">
        <ele>517</ele>
        <time>2017-03-03T10:03:51Z</time>
      </trkpt>
      <trkpt lat="44.33802" lon="3.46807">
        <ele>518</ele>
        <time>2017-03-03T10:05:51Z</time>
      </trkpt>
      <trkpt lat="44.33809" lon="3.46798">
        <ele>517</ele>
        <time>2017-03-03T10:07:51Z</time>
      </trkpt>
      <trkpt lat="44.33816" lon="3.46793">
        <ele>514</ele>
        <time>2017-03-03T10:09:51Z</time>
      </trkpt>
      <trkpt lat="44.33837" lon="3.46783">
        <ele>506</ele>
        <time>2017-03-03T10:11:51Z</time>
      </trkpt>
      <trkpt lat="44.33851" lon="3.46775">
        <ele>503</ele>
        <time>2017-03-03T10:13:51Z</time>
      </trkpt>
      <trkpt lat="44.33858" lon="3.46767">
        <ele>503</ele>
        <time>2017-03-03T10:15:51Z</time>
      </trkpt>
      <trkpt lat="44.33864" lon="3.46759">
        <ele>502</ele>
        <time>2017-03-03T10:17:51Z</time>
      </trkpt>
      <trkpt lat="44.33869" lon="3.46742">
        <ele>503</ele>
        <time>2017-03-03T10:19:51Z</time>
      </trkpt>
      <trkpt lat="44.33873" lon="3.46729">
        <ele>503</ele>
        <time>2017-03-03T10:21:51Z</time>
      </trkpt>
      <trkpt lat="44.33873" lon="3.46719">
        <ele>504</ele>
        <time>2017-03-03T10:23:51Z</time>
      </trkpt>
      <trkpt lat="44.3387" lon="3.467">
        <ele>508</ele>
        <time>2017-03-03T10:25:51Z</time>
      </trkpt>
      <trkpt lat="44.33868" lon="3.46687">
        <ele>510</ele>
        <time>2017-03-03T10:27:51Z</time>
      </trkpt>
      <trkpt lat="44.33865" lon="3.46677">
        <ele>513</ele>
        <time>2017-03-03T10:29:51Z</time>
      </trkpt>
      <trkpt lat="44.33865" lon="3.46672">
        <ele>514</ele>
        <time>2017-03-03T10:31:51Z</time>
      </trkpt>
      <trkpt lat="44.33865" lon="3.46666">
        <ele>514</ele>
        <time>2017-03-03T10:33:51Z</time>
      </trkpt>
      <trkpt lat="44.33866" lon="3.4666">
        <ele>514</ele>
        <time>2017-03-03T10:35:51Z</time>
      </trkpt>
      <trkpt lat="44.33868" lon="3.46654">
        <ele>514</ele>
        <time>2017-03-03T10:37:51Z</time>
      </trkpt>
      <trkpt lat="44.3387" lon="3.46648">
        <ele>514</ele>
        <time>2017-03-03T10:39:51Z</time>
      </trkpt>
      <trkpt lat="44.33874" lon="3.46638">
        <ele>513</ele>
        <time>2017-03-03T10:41:51Z</time>
      </trkpt>
      <trkpt lat="44.33879" lon="3.46627">
        <ele>511</ele>
        <time>2017-03-03T10:43:51Z</time>
      </trkpt>
      <trkpt lat="44.33889" lon="3.46612">
        <ele>508</ele>
        <time>2017-03-03T10:45:51Z</time>
      </trkpt>
      <trkpt lat="44.33896" lon="3.46604">
        <ele>505</ele>
        <time>2017-03-03T10:47:51Z</time>
      </trkpt>
      <trkpt lat="44.33906" lon="3.46597">
        <ele>500</ele>
        <time>2017-03-03T10:49:51Z</time>
      </trkpt>
      <trkpt lat="44.33917" lon="3.4659">
        <ele>495</ele>
        <time>2017-03-03T10:51:51Z</time>
      </trkpt>
      <trkpt lat="44.33925" lon="3.46584">
        <ele>495</ele>
        <time>2017-03-03T10:53:51Z</time>
      </trkpt>
      <trkpt lat="44.3393" lon="3.4658">
        <ele>495</ele>
        <time>2017-03-03T10:55:51Z</time>
      </trkpt>
      <trkpt lat="44.33934" lon="3.46573">
        <ele>496</ele>
        <time>2017-03-03T10:57:51Z</time>
      </trkpt>
      <trkpt lat="44.33938" lon="3.46565">
        <ele>497</ele>
        <time>2017-03-03T10:59:51Z</time>
      </trkpt>
      <trkpt lat="44.33951" lon="3.4653">
        <ele>501</ele>
        <time>2017-03-03T11:01:51Z</time>
      </trkpt>
      <trkpt lat="44.33957" lon="3.46511">
        <ele>502</ele>
        <time>2017-03-03T11:03:51Z</time>
      </trkpt>
      <trkpt lat="44.33959" lon="3.465">
        <ele>504</ele>
        <time>2017-03-03T11:05:51Z</time>
      </trkpt>
      <trkpt lat="44.3396" lon="3.46501">
        <ele>503</ele>
        <time>2017-03-03T11:07:51Z</time>
      </trkpt>
      <trkpt lat="44.33981" lon="3.46459">
        <ele>506</ele>
        <time>2017-03-03T11:09:51Z</time>
      </trkpt>
      <trkpt lat="44.3407" lon="3.46433">
        <ele>490</ele>
        <time>2017-03-03T11:11:51Z</time>
      </trkpt>
      <trkpt lat="44.34093" lon="3.4641">
        <ele>488</ele>
        <time>2017-03-03T11:13:51Z</time>
      </trkpt>
      <trkpt lat="44.34074" lon="3.46383">
        <ele>493</ele>
        <time>2017-03-03T11:15:51Z</time>
      </trkpt>
      <trkpt lat="44.34084" lon="3.46331">
        <ele>496</ele>
        <time>2017-03-03T11:17:51Z</time>
      </trkpt>
      <trkpt lat="44.34111" lon="3.46322">
        <ele>505</ele>
        <time>2017-03-03T11:19:51Z</time>
      </trkpt>
      <trkpt lat="44.34111" lon="3.4632">
        <ele>506</ele>
        <time>2017-03-03T11:21:51Z</time>
      </trkpt>
      <trkpt lat="44.34117" lon="3.46318">
        <ele>508</ele>
        <time>2017-03-03T11:23:51Z</time>
      </trkpt>
      <trkpt lat="44.34122" lon="3.46317">
        <ele>509</ele>
        <time>2017-03-03T11:25:51Z</time>
      </trkpt>
      <trkpt lat="44.34135" lon="3.46319">
        <ele>511</ele>
        <time>2017-03-03T11:27:51Z</time>
      </trkpt>
      <trkpt lat="44.34145" lon="3.46323">
        <ele>511</ele>
        <time>2017-03-03T11:29:51Z</time>
      </trkpt>
      <trkpt lat="44.34147" lon="3.46326">
        <ele>510</ele>
        <time>2017-03-03T11:31:51Z</time>
      </trkpt>
      <trkpt lat="44.34149" lon="3.46329">
        <ele>509</ele>
        <time>2017-03-03T11:33:51Z</time>
      </trkpt>
      <trkpt lat="44.34149" lon="3.46331">
        <ele>508</ele>
        <time>2017-03-03T11:35:51Z</time>
      </trkpt>
      <trkpt lat="44.34149" lon="3.46333">
        <ele>507</ele>
        <time>2017-03-03T11:37:51Z</time>
      </trkpt>
      <trkpt lat="44.3415" lon="3.46334">
        <ele>507</ele>
        <time>2017-03-03T11:39:51Z</time>
      </trkpt>
      <trkpt lat="44.34152" lon="3.46334">
        <ele>507</ele>
        <time>2017-03-03T11:41:51Z</time>
      </trkpt>
      <trkpt lat="44.34155" lon="3.46334">
        <ele>508</ele>
        <time>2017-03-03T11:43:51Z</time>
      </trkpt>
      <trkpt lat="44.3416" lon="3.46335">
        <ele>508</ele>
        <time>2017-03-03T11:45:51Z</time>
      </trkpt>
      <trkpt lat="44.34166" lon="3.46338">
        <ele>508</ele>
        <time>2017-03-03T11:47:51Z</time>
      </trkpt>
      <trkpt lat="44.34168" lon="3.46341">
        <ele>508</ele>
        <time>2017-03-03T11:49:51Z</time>
      </trkpt>
      <trkpt lat="44.34171" lon="3.46346">
        <ele>507</ele>
        <time>2017-03-03T11:51:51Z</time>
      </trkpt>
      <trkpt lat="44.34172" lon="3.46352">
        <ele>505</ele>
        <time>2017-03-03T11:53:51Z</time>
      </trkpt>
      <trkpt lat="44.34177" lon="3.46359">
        <ele>503</ele>
        <time>2017-03-03T11:55:51Z</time>
      </trkpt>
      <trkpt lat="44.34178" lon="3.4636">
        <ele>503</ele>
        <time>2017-03-03T11:57:51Z</time>
      </trkpt>
      <trkpt lat="44.34179" lon="3.4636">
        <ele>503</ele>
        <time>2017-03-03T11:59:51Z</time>
      </trkpt>
      <trkpt lat="44.3418" lon="3.4636">
        <ele>503</ele>
        <time>2017-03-03T12:01:51Z</time>
      </trkpt>
      <trkpt lat="44.3418" lon="3.46358">
        <ele>504</ele>
        <time>2017-03-03T12:03:51Z</time>
      </trkpt>
      <trkpt lat="44.3418" lon="3.46357">
        <ele>504</ele>
        <time>2017-03-03T12:05:51Z</time>
      </trkpt>
      <trkpt lat="44.3418" lon="3.46335">
        <ele>512</ele>
        <time>2017-03-03T12:07:51Z</time>
      </trkpt>
      <trkpt lat="44.3418" lon="3.46334">
        <ele>512</ele>
        <time>2017-03-03T12:09:51Z</time>
      </trkpt>
      <trkpt lat="44.34181" lon="3.46333">
        <ele>513</ele>
        <time>2017-03-03T12:11:51Z</time>
      </trkpt>
      <trkpt lat="44.34183" lon="3.46333">
        <ele>513</ele>
        <time>2017-03-03T12:13:51Z</time>
      </trkpt>
      <trkpt lat="44.34183" lon="3.46334">
        <ele>513</ele>
        <time>2017-03-03T12:15:51Z</time>
      </trkpt>
      <trkpt lat="44.34185" lon="3.46336">
        <ele>512</ele>
        <time>2017-03-03T12:17:51Z</time>
      </trkpt>
      <trkpt lat="44.34187" lon="3.46339">
        <ele>511</ele>
        <time>2017-03-03T12:19:51Z</time>
      </trkpt>
      <trkpt lat="44.34192" lon="3.46344">
        <ele>510</ele>
        <time>2017-03-03T12:21:51Z</time>
      </trkpt>
      <trkpt lat="44.34201" lon="3.46347">
        <ele>511</ele>
        <time>2017-03-03T12:23:51Z</time>
      </trkpt>
      <trkpt lat="44.34222" lon="3.46342">
        <ele>516</ele>
        <time>2017-03-03T12:25:51Z</time>
      </trkpt>
      <trkpt lat="44.34223" lon="3.46341">
        <ele>516</ele>
        <time>2017-03-03T12:27:51Z</time>
      </trkpt>
      <trkpt lat="44.34223" lon="3.46339">
        <ele>517</ele>
        <time>2017-03-03T12:29:51Z</time>
      </trkpt>
      <trkpt lat="44.34221" lon="3.46336">
        <ele>518</ele>
        <time>2017-03-03T12:31:51Z</time>
      </trkpt>
      <trkpt lat="44.34212" lon="3.4633">
        <ele>519</ele>
        <time>2017-03-03T12:33:51Z</time>
      </trkpt>
      <trkpt lat="44.34201" lon="3.4632">
        <ele>522</ele>
        <time>2017-03-03T12:35:51Z</time>
      </trkpt>
      <trkpt lat="44.342" lon="3.46319">
        <ele>522</ele>
        <time>2017-03-03T12:37:51Z</time>
      </trkpt>
      <trkpt lat="44.34201" lon="3.46317">
        <ele>523</ele>
        <time>2017-03-03T12:39:51Z</time>
      </trkpt>
      <trkpt lat="44.34201" lon="3.46316">
        <ele>524</ele>
        <time>2017-03-03T12:41:51Z</time>
      </trkpt>
      <trkpt lat="44.34203" lon="3.46315">
        <ele>525</ele>
        <time>2017-03-03T12:43:51Z</time>
      </trkpt>
      <trkpt lat="44.34204" lon="3.46315">
        <ele>525</ele>
        <time>2017-03-03T12:45:51Z</time>
      </trkpt>
      <trkpt lat="44.34206" lon="3.46316">
        <ele>525</ele>
        <time>2017-03-03T12:47:51Z</time>
      </trkpt>
      <trkpt lat="44.34212" lon="3.46318">
        <ele>525</ele>
        <time>2017-03-03T12:49:51Z</time>
      </trkpt>
      <trkpt lat="44.34234" lon="3.46312">
        <ele>531</ele>
        <time>2017-03-03T12:51:51Z</time>
      </trkpt>
      <trkpt lat="44.34261" lon="3.46296">
        <ele>541</ele>
        <time>2017-03-03T12:53:51Z</time>
      </trkpt>
      <trkpt lat="44.34288" lon="3.46274">
        <ele>550</ele>
        <time>2017-03-03T12:55:51Z</time>
      </trkpt>
      <trkpt lat="44.34308" lon="3.46254">
        <ele>559</ele>
        <time>2017-03-03T12:57:51Z</time>
      </trkpt>
      <trkpt lat="44.34324" lon="3.46244">
        <ele>563</ele>
        <time>2017-03-03T12:59:51Z</time>
      </trkpt>
      <trkpt lat="44.34324" lon="3.46243">
        <ele>563</ele>
        <time>2017-03-03T13:01:51Z</time>
      </trkpt>
      <trkpt lat="44.34324" lon="3.46242">
        <ele>564</ele>
        <time>2017-03-03T13:03:51Z</time>
      </trkpt>
      <trkpt lat="44.34323" lon="3.46241">
        <ele>564</ele>
        <time>2017-03-03T13:05:51Z</time>
      </trkpt>
      <trkpt lat="44.34318" lon="3.46241">
        <ele>565</ele>
        <time>2017-03-03T13:07:51Z</time>
      </trkpt>
      <trkpt lat="44.34311" lon="3.46241">
        <ele>565</ele>
        <time>2017-03-03T13:09:51Z</time>
      </trkpt>
      <trkpt lat="44.34287" lon="3.46252">
        <ele>561</ele>
        <time>2017-03-03T13:11:51Z</time>
      </trkpt>
      <trkpt lat="44.34259" lon="3.46256">
        <ele>561</ele>
        <time>2017-03-03T13:13:51Z</time>
      </trkpt>
      <trkpt lat="44.34234" lon="3.46258">
        <ele>557</ele>
        <time>2017-03-03T13:15:51Z</time>
      </trkpt>
      <trkpt lat="44.34232" lon="3.46258">
        <ele>557</ele>
        <time>2017-03-03T13:17:51Z</time>
      </trkpt>
      <trkpt lat="44.3423" lon="3.46257">
        <ele>557</ele>
        <time>2017-03-03T13:19:51Z</time>
      </trkpt>
      <trkpt lat="44.34228" lon="3.46255">
        <ele>557</ele>
        <time>2017-03-03T13:21:51Z</time>
      </trkpt>
      <trkpt lat="44.34229" lon="3.46253">
        <ele>558</ele>
        <time>2017-03-03T13:23:51Z</time>
      </trkpt>
      <trkpt lat="44.34231" lon="3.46252">
        <ele>559</ele>
        <time>2017-03-03T13:25:51Z</time>
      </trkpt>
      <trkpt lat="44.34233" lon="3.46251">
        <ele>560</ele>
        <time>2017-03-03T13:27:51Z</time>
      </trkpt>
      <trkpt lat="44.34248" lon="3.46248">
        <ele>565</ele>
        <time>2017-03-03T13:29:51Z</time>
      </trkpt>
      <trkpt lat="44.34265" lon="3.46241">
        <ele>567</ele>
        <time>2017-03-03T13:31:51Z</time>
      </trkpt>
      <trkpt lat="44.34292" lon="3.46227">
        <ele>573</ele>
        <time>2017-03-03T13:33:51Z</time>
      </trkpt>
      <trkpt lat="44.34315" lon="3.4621">
        <ele>581</ele>
        <time>2017-03-03T13:35:51Z</time>
      </trkpt>
      <trkpt lat="44.3432" lon="3.46209">
        <ele>581</ele>
        <time>2017-03-03T13:37:51Z</time>
      </trkpt>
      <trkpt lat="44.34327" lon="3.46209">
        <ele>581</ele>
        <time>2017-03-03T13:39:51Z</time>
      </trkpt>
      <trkpt lat="44.34355" lon="3.46215">
        <ele>573</ele>
        <time>2017-03-03T13:41:51Z</time>
      </trkpt>
      <trkpt lat="44.34358" lon="3.46214">
        <ele>573</ele>
        <time>2017-03-03T13:43:51Z</time>
      </trkpt>
      <trkpt lat="44.34363" lon="3.4621">
        <ele>574</ele>
        <time>2017-03-03T13:45:51Z</time>
      </trkpt>
      <trkpt lat="44.34392" lon="3.46183">
        <ele>583</ele>
        <time>2017-03-03T13:47:51Z</time>
      </trkpt>
      <trkpt lat="44.34455" lon="3.46118">
        <ele>596</ele>
        <time>2017-03-03T13:49:51Z</time>
      </trkpt>
      <trkpt lat="44.34499" lon="3.46064">
        <ele>602</ele>
        <time>2017-03-03T13:51:51Z</time>
      </trkpt>
      <trkpt lat="44.34536" lon="3.46023">
        <ele>605</ele>
        <time>2017-03-03T13:53:51Z</time>
      </trkpt>
      <trkpt lat="44.34567" lon="3.45979">
        <ele>611</ele>
        <time>2017-03-03T13:55:51Z</time>
      </trkpt>
      <trkpt lat="44.34601" lon="3.45924">
        <ele>618</ele>
        <time>2017-03-03T13:57:51Z</time>
      </trkpt>
      <trkpt lat="44.34613" lon="3.45896">
        <ele>620</ele>
        <time>2017-03-03T13:59:51Z</time>
      </trkpt>
      <trkpt lat="44.34621" lon="3.45874">
        <ele>621</ele>
        <time>2017-03-03T14:01:51Z</time>
      </trkpt>
      <trkpt lat="44.34625" lon="3.45846">
        <ele>627</ele>
        <time>2017-03-03T14:03:51Z</time>
      </trkpt>
      <trkpt lat="44.34626" lon="3.45809">
        <ele>629</ele>
        <time>2017-03-03T14:05:51Z</time>
      </trkpt>
      <trkpt lat="44.34621" lon="3.45775">
        <ele>631</ele>
        <time>2017-03-03T14:07:51Z</time>
      </trkpt>
      <trkpt lat="44.34611" lon="3.45739">
        <ele>635</ele>
        <time>2017-03-03T14:09:51Z</time>
      </trkpt>
      <trkpt lat="44.34598" lon="3.45709">
        <ele>639</ele>
        <time>2017-03-03T14:11:51Z</time>
      </trkpt>
      <trkpt lat="44.34579" lon="3.45679">
        <ele>647</ele>
        <time>2017-03-03T14:13:51Z</time>
      </trkpt>
      <trkpt lat="44.34569" lon="3.45662">
        <ele>652</ele>
        <time>2017-03-03T14:15:51Z</time>
      </trkpt>
      <trkpt lat="44.3456" lon="3.45627">
        <ele>657</ele>
        <time>2017-03-03T14:17:51Z</time>
      </trkpt>
      <trkpt lat="44.34556" lon="3.45603">
        <ele>658</ele>
        <time>2017-03-03T14:19:51Z</time>
      </trkpt>
      <trkpt lat="44.34558" lon="3.45578">
        <ele>656</ele>
        <time>2017-03-03T14:21:51Z</time>
      </trkpt>
      <trkpt lat="44.34564" lon="3.45539">
        <ele>654</ele>
        <time>2017-03-03T14:23:51Z</time>
      </trkpt>
      <trkpt lat="44.34571" lon="3.45501">
        <ele>653</ele>
        <time>2017-03-03T14:25:51Z</time>
      </trkpt>
      <trkpt lat="44.34573" lon="3.45453">
        <ele>661</ele>
        <time>2017-03-03T14:27:51Z</time>
      </trkpt>
      <trkpt lat="44.34574" lon="3.45422">
        <ele>667</ele>
        <time>2017-03-03T14:29:51Z</time>
      </trkpt>
      <trkpt lat="44.34574" lon="3.45409">
        <ele>670</ele>
        <time>2017-03-03T14:31:51Z</time>
      </trkpt>
      <trkpt lat="44.34576" lon="3.45401">
        <ele>671</ele>
        <time>2017-03-03T14:33:51Z</time>
      </trkpt>
      <trkpt lat="44.34578" lon="3.45394">
        <ele>672</ele>
        <time>2017-03-03T14:35:51Z</time>
      </trkpt>
      <trkpt lat="44.34579" lon="3.45387">
        <ele>673</ele>
        <time>2017-03-03T14:37:51Z</time>
      </trkpt>
      <trkpt lat="44.3458" lon="3.45383">
        <ele>674</ele>
        <time>2017-03-03T14:39:51Z</time>
      </trkpt>
      <trkpt lat="44.3458" lon="3.4538">
        <ele>674</ele>
        <time>2017-03-03T14:41:51Z</time>
      </trkpt>
      <trkpt lat="44.34578" lon="3.45377">
        <ele>676</ele>
        <time>2017-03-03T14:43:51Z</time>
      </trkpt>
      <trkpt lat="44.34576" lon="3.45376">
        <ele>677</ele>
        <time>2017-03-03T14:45:51Z</time>
      </trkpt>
      <trkpt lat="44.34574" lon="3.45377">
        <ele>678</ele>
        <time>2017-03-03T14:47:51Z</time>
      </trkpt>
      <trkpt lat="44.34573" lon="3.45378">
        <ele>678</ele>
        <time>2017-03-03T14:49:51Z</time>
      </trkpt>
      <trkpt lat="44.34572" lon="3.4538">
        <ele>678</ele>
        <time>2017-03-03T14:51:51Z</time>
      </trkpt>
      <trkpt lat="44.34571" lon="3.45381">
        <ele>678</ele>
        <time>2017-03-03T14:53:51Z</time>
      </trkpt>
      <trkpt lat="44.34562" lon="3.45402">
        <ele>677</ele>
        <time>2017-03-03T14:55:51Z</time>
      </trkpt>
      <trkpt lat="44.34549" lon="3.45456">
        <ele>675</ele>
        <time>2017-03-03T14:57:51Z</time>
      </trkpt>
      <trkpt lat="44.34531" lon="3.45522">
        <ele>680</ele>
        <time>2017-03-03T14:59:51Z</time>
      </trkpt>
      <trkpt lat="44.3452" lon="3.45574">
        <ele>686</ele>
        <time>2017-03-03T15:01:51Z</time>
      </trkpt>
      <trkpt lat="44.34516" lon="3.45611">
        <ele>690</ele>
        <time>2017-03-03T15:03:51Z</time>
      </trkpt>
      <trkpt lat="44.34516" lon="3.45654">
        <ele>692</ele>
        <time>2017-03-03T15:05:51Z</time>
      </trkpt>
      <trkpt lat="44.34519" lon="3.45705">
        <ele>695</ele>
        <time>2017-03-03T15:07:51Z</time>
      </trkpt>
      <trkpt lat="44.3452" lon="3.4571">
        <ele>695</ele>
        <time>2017-03-03T15:09:51Z</time>
      </trkpt>
      <trkpt lat="44.34524" lon="3.45724">
        <ele>694</ele>
        <time>2017-03-03T15:11:51Z</time>
      </trkpt>
      <trkpt lat="44.34528" lon="3.45737">
        <ele>692</ele>
        <time>2017-03-03T15:13:51Z</time>
      </trkpt>
      <trkpt lat="44.34528" lon="3.45764">
        <ele>693</ele>
        <time>2017-03-03T15:15:51Z</time>
      </trkpt>
      <trkpt lat="44.34528" lon="3.45793">
        <ele>691</ele>
        <time>2017-03-03T15:17:51Z</time>
      </trkpt>
      <trkpt lat="44.34526" lon="3.45807">
        <ele>691</ele>
        <time>2017-03-03T15:19:51Z</time>
      </trkpt>
      <trkpt lat="44.34521" lon="3.45819">
        <ele>694</ele>
        <time>2017-03-03T15:21:51Z</time>
      </trkpt>
      <trkpt lat="44.34517" lon="3.45826">
        <ele>696</ele>
        <time>2017-03-03T15:23:51Z</time>
      </trkpt>
      <trkpt lat="44.34503" lon="3.45836">
        <ele>702</ele>
        <time>2017-03-03T15:25:51Z</time>
      </trkpt>
      <trkpt lat="44.34475" lon="3.4585">
        <ele>710</ele>
        <time>2017-03-03T15:27:51Z</time>
      </trkpt>
      <trkpt lat="44.34454" lon="3.45867">
        <ele>713</ele>
        <time>2017-03-03T15:29:51Z</time>
      </trkpt>
      <trkpt lat="44.34427" lon="3.45884">
        <ele>718</ele>
        <time>2017-03-03T15:31:51Z</time>
      </trkpt>
      <trkpt lat="44.344" lon="3.45896">
        <ele>721</ele>
        <time>2017-03-03T15:33:51Z</time>
      </trkpt>
      <trkpt lat="44.34366" lon="3.45905">
        <ele>726</ele>
        <time>2017-03-03T15:35:51Z</time>
      </trkpt>
      <trkpt lat="44.34336" lon="3.45912">
        <ele>730</ele>
        <time>2017-03-03T15:37:51Z</time>
      </trkpt>
      <trkpt lat="44.34305" lon="3.45915">
        <ele>730</ele>
        <time>2017-03-03T15:39:51Z</time>
      </trkpt>
      <trkpt lat="44.343" lon="3.45914">
        <ele>731</ele>
        <time>2017-03-03T15:41:51Z</time>
      </trkpt>
      <trkpt lat="44.34292" lon="3.45912">
        <ele>732</ele>
        <time>2017-03-03T15:43:51Z</time>
      </trkpt>
      <trkpt lat="44.34287" lon="3.45912">
        <ele>732</ele>
        <time>2017-03-03T15:45:51Z</time>
      </trkpt>
      <trkpt lat="44.34274" lon="3.45913">
        <ele>732</ele>
        <time>2017-03-03T15:47:51Z</time>
      </trkpt>
      <trkpt lat="44.34241" lon="3.45911">
        <ele>732</ele>
        <time>2017-03-03T15:49:51Z</time>
      </trkpt>
      <trkpt lat="44.34206" lon="3.45906">
        <ele>730</ele>
        <time>2017-03-03T15:51:51Z</time>
      </trkpt>
      <trkpt lat="44.34175" lon="3.45897">
        <ele>730</ele>
        <time>2017-03-03T15:53:51Z</time>
      </trkpt>
      <trkpt lat="44.3415" lon="3.45881">
        <ele>731</ele>
        <time>2017-03-03T15:55:51Z</time>
      </trkpt>
      <trkpt lat="44.34129" lon="3.45864">
        <ele>731</ele>
        <time>2017-03-03T15:57:51Z</time>
      </trkpt>
      <trkpt lat="44.34119" lon="3.4585">
        <ele>733</ele>
        <time>2017-03-03T15:59:51Z</time>
      </trkpt>
      <trkpt lat="44.34104" lon="3.45815">
        <ele>742</ele>
        <time>2017-03-03T16:01:51Z</time>
      </trkpt>
      <trkpt lat="44.34087" lon="3.45773">
        <ele>751</ele>
        <time>2017-03-03T16:03:51Z</time>
      </trkpt>
      <trkpt lat="44.34071" lon="3.45747">
        <ele>756</ele>
        <time>2017-03-03T16:05:51Z</time>
      </trkpt>
      <trkpt lat="44.3405" lon="3.45723">
        <ele>759</ele>
        <time>2017-03-03T16:07:51Z</time>
      </trkpt>
      <trkpt lat="44.34018" lon="3.45692">
        <ele>762</ele>
        <time>2017-03-03T16:09:51Z</time>
      </trkpt>
      <trkpt lat="44.34004" lon="3.45677">
        <ele>765</ele>
        <time>2017-03-03T16:11:51Z</time>
      </trkpt>
      <trkpt lat="44.33997" lon="3.45655">
        <ele>773</ele>
        <time>2017-03-03T16:13:51Z</time>
      </trkpt>
      <trkpt lat="44.33989" lon="3.45636">
        <ele>781</ele>
        <time>2017-03-03T16:15:51Z</time>
      </trkpt>
      <trkpt lat="44.33986" lon="3.45633">
        <ele>782</ele>
        <time>2017-03-03T16:17:51Z</time>
      </trkpt>
      <trkpt lat="44.33986" lon="3.45632">
        <ele>783</ele>
        <time>2017-03-03T16:19:51Z</time>
      </trkpt>
      <trkpt lat="44.33983" lon="3.45631">
        <ele>784</ele>
        <time>2017-03-03T16:21:51Z</time>
      </trkpt>
      <trkpt lat="44.33975" lon="3.45633">
        <ele>784</ele>
        <time>2017-03-03T16:23:51Z</time>
      </trkpt>
      <trkpt lat="44.33941" lon="3.45657">
        <ele>780</ele>
        <time>2017-03-03T16:25:51Z</time>
      </trkpt>
      <trkpt lat="44.33932" lon="3.45662">
        <ele>780</ele>
        <time>2017-03-03T16:27:51Z</time>
      </trkpt>
      <trkpt lat="44.33921" lon="3.45662">
        <ele>781</ele>
        <time>2017-03-03T16:29:51Z</time>
      </trkpt>
      <trkpt lat="44.33904" lon="3.45654">
        <ele>790</ele>
        <time>2017-03-03T16:31:51Z</time>
      </trkpt>
      <trkpt lat="44.33898" lon="3.45653">
        <ele>793</ele>
        <time>2017-03-03T16:33:51Z</time>
      </trkpt>
      <trkpt lat="44.33896" lon="3.45653">
        <ele>793</ele>
        <time>2017-03-03T16:35:51Z</time>
      </trkpt>
      <trkpt lat="44.3389" lon="3.45656">
        <ele>795</ele>
        <time>2017-03-03T16:37:51Z</time>
      </trkpt>
      <trkpt lat="44.33888" lon="3.4566">
        <ele>794</ele>
        <time>2017-03-03T16:39:51Z</time>
      </trkpt>
      <trkpt lat="44.33881" lon="3.45684">
        <ele>789</ele>
        <time>2017-03-03T16:41:51Z</time>
      </trkpt>
      <trkpt lat="44.33874" lon="3.45694">
        <ele>788</ele>
        <time>2017-03-03T16:43:51Z</time>
      </trkpt>
      <trkpt lat="44.33867" lon="3.45699">
        <ele>790</ele>
        <time>2017-03-03T16:45:51Z</time>
      </trkpt>
      <trkpt lat="44.33842" lon="3.45705">
        <ele>799</ele>
        <time>2017-03-03T16:47:51Z</time>
      </trkpt>
      <trkpt lat="44.33833" lon="3.45707">
        <ele>803</ele>
        <time>2017-03-03T16:49:51Z</time>
      </trkpt>
      <trkpt lat="44.33831" lon="3.4571">
        <ele>803</ele>
        <time>2017-03-03T16:51:51Z</time>
      </trkpt>
      <trkpt lat="44.33828" lon="3.45716">
        <ele>803</ele>
        <time>2017-03-03T16:53:51Z</time>
      </trkpt>
      <trkpt lat="44.33827" lon="3.4575">
        <ele>794</ele>
        <time>2017-03-03T16:55:51Z</time>
      </trkpt>
      <trkpt lat="44.33828" lon="3.45773">
        <ele>789</ele>
        <time>2017-03-03T16:57:51Z</time>
      </trkpt>
      <trkpt lat="44.33826" lon="3.45785">
        <ele>787</ele>
        <time>2017-03-03T16:59:51Z</time>
      </trkpt>
      <trkpt lat="44.33817" lon="3.45801">
        <ele>787</ele>
        <time>2017-03-03T17:01:51Z</time>
      </trkpt>
      <trkpt lat="44.33791" lon="3.45826">
        <ele>789</ele>
        <time>2017-03-03T17:03:51Z</time>
      </trkpt>
      <trkpt lat="44.33771" lon="3.45838">
        <ele>790</ele>
        <time>2017-03-03T17:05:51Z</time>
      </trkpt>
      <trkpt lat="44.33741" lon="3.45847">
        <ele>793</ele>
        <time>2017-03-03T17:07:51Z</time>
      </trkpt>
      <trkpt lat="44.33723" lon="3.45844">
        <ele>796</ele>
        <time>2017-03-03T17:09:51Z</time>
      </trkpt>
      <trkpt lat="44.33707" lon="3.45832">
        <ele>803</ele>
        <time>2017-03-03T17:11:51Z</time>
      </trkpt>
      <trkpt lat="44.33687" lon="3.45811">
        <ele>814</ele>
        <time>2017-03-03T17:13:51Z</time>
      </trkpt>
      <trkpt lat="44.3367" lon="3.45799">
        <ele>821</ele>
        <time>2017-03-03T17:15:51Z</time>
      </trkpt>
      <trkpt lat="44.33665" lon="3.458">
        <ele>822</ele>
        <time>2017-03-03T17:17:51Z</time>
      </trkpt>
      <trkpt lat="44.3364" lon="3.45811">
        <ele>825</ele>
        <time>2017-03-03T17:19:51Z</time>
      </trkpt>
      <trkpt lat="44.33607" lon="3.45826">
        <ele>832</ele>
        <time>2017-03-03T17:21:51Z</time>
      </trkpt>
      <trkpt lat="44.33605" lon="3.45828">
        <ele>832</ele>
        <time>2017-03-03T17:23:51Z</time>
      </trkpt>
      <trkpt lat="44.33604" lon="3.45832">
        <ele>830</ele>
        <time>2017-03-03T17:25:51Z</time>
      </trkpt>
      <trkpt lat="44.336" lon="3.45856">
        <ele>828</ele>
        <time>2017-03-03T17:27:51Z</time>
      </trkpt>
      <trkpt lat="44.33596" lon="3.45872">
        <ele>827</ele>
        <time>2017-03-03T17:29:51Z</time>
      </trkpt>
      <trkpt lat="44.33587" lon="3.45892">
        <ele>829</ele>
        <time>2017-03-03T17:31:51Z</time>
      </trkpt>
      <trkpt lat="44.33583" lon="3.45899">
        <ele>830</ele>
        <time>2017-03-03T17:33:51Z</time>
      </trkpt>
      <trkpt lat="44.33582" lon="3.45904">
        <ele>830</ele>
        <time>2017-03-03T17:35:51Z</time>
      </trkpt>
      <trkpt lat="44.33583" lon="3.45908">
        <ele>829</ele>
        <time>2017-03-03T17:37:51Z</time>
      </trkpt>
      <trkpt lat="44.33586" lon="3.45928">
        <ele>826</ele>
        <time>2017-03-03T17:39:51Z</time>
      </trkpt>
      <trkpt lat="44.33588" lon="3.45948">
        <ele>825</ele>
        <time>2017-03-03T17:41:51Z</time>
      </trkpt>
      <trkpt lat="44.33587" lon="3.45969">
        <ele>825</ele>
        <time>2017-03-03T17:43:51Z</time>
      </trkpt>
      <trkpt lat="44.33583" lon="3.45996">
        <ele>827</ele>
        <time>2017-03-03T17:45:51Z</time>
      </trkpt>
      <trkpt lat="44.33573" lon="3.46025">
        <ele>830</ele>
        <time>2017-03-03T17:47:51Z</time>
      </trkpt>
      <trkpt lat="44.33559" lon="3.46055">
        <ele>834</ele>
        <time>2017-03-03T17:49:51Z</time>
      </trkpt>
      <trkpt lat="44.33537" lon="3.46082">
        <ele>842</ele>
        <time>2017-03-03T17:51:51Z</time>
      </trkpt>
      <trkpt lat="44.33517" lon="3.46112">
        <ele>841</ele>
        <time>2017-03-03T17:53:51Z</time>
      </trkpt>
      <trkpt lat="44.33497" lon="3.4614">
        <ele>840</ele>
        <time>2017-03-03T17:55:51Z</time>
      </trkpt>
      <trkpt lat="44.33474" lon="3.46162">
        <ele>844</ele>
        <time>2017-03-03T17:57:51Z</time>
      </trkpt>
      <trkpt lat="44.3345" lon="3.46184">
        <ele>852</ele>
        <time>2017-03-03T17:59:51Z</time>
      </trkpt>
      <trkpt lat="44.3343" lon="3.46209">
        <ele>857</ele>
        <time>2017-03-03T18:01:51Z</time>
      </trkpt>
      <trkpt lat="44.33406" lon="3.46243">
        <ele>859</ele>
        <time>2017-03-03T18:03:51Z</time>
      </trkpt>
      <trkpt lat="44.33397" lon="3.46261">
        <ele>860</ele>
        <time>2017-03-03T18:05:51Z</time>
      </trkpt>
      <trkpt lat="44.33396" lon="3.46276">
        <ele>860</ele>
        <time>2017-03-03T18:07:51Z</time>
      </trkpt>
      <trkpt lat="44.33397" lon="3.46281">
        <ele>859</ele>
        <time>2017-03-03T18:09:51Z</time>
      </trkpt>
      <trkpt lat="44.334" lon="3.46284">
        <ele>858</ele>
        <time>2017-03-03T18:11:51Z</time>
      </trkpt>
      <trkpt lat="44.33413" lon="3.46289">
        <ele>853</ele>
        <time>2017-03-03T18:13:51Z</time>
      </trkpt>
      <trkpt lat="44.33422" lon="3.46294">
        <ele>848</ele>
        <time>2017-03-03T18:15:51Z</time>
      </trkpt>
      <trkpt lat="44.33427" lon="3.46302">
        <ele>845</ele>
        <time>2017-03-03T18:17:51Z</time>
      </trkpt>
      <trkpt lat="44.33429" lon="3.46316">
        <ele>843</ele>
        <time>2017-03-03T18:19:51Z</time>
      </trkpt>
      <trkpt lat="44.33427" lon="3.46347">
        <ele>843</ele>
        <time>2017-03-03T18:21:51Z</time>
      </trkpt>
      <trkpt lat="44.33422" lon="3.46371">
        <ele>844</ele>
        <time>2017-03-03T18:23:51Z</time>
      </trkpt>
      <trkpt lat="44.33407" lon="3.46414">
        <ele>849</ele>
        <time>2017-03-03T18:25:51Z</time>
      </trkpt>
      <trkpt lat="44.33394" lon="3.4644">
        <ele>851</ele>
        <time>2017-03-03T18:27:51Z</time>
      </trkpt>
      <trkpt lat="44.33384" lon="3.4645">
        <ele>854</ele>
        <time>2017-03-03T18:29:51Z</time>
      </trkpt>
      <trkpt lat="44.33378" lon="3.46451">
        <ele>857</ele>
        <time>2017-03-03T18:31:51Z</time>
      </trkpt>
      <trkpt lat="44.33376" lon="3.46449">
        <ele>858</ele>
        <time>2017-03-03T18:33:51Z</time>
      </trkpt>
      <trkpt lat="44.33376" lon="3.46449">
        <ele>858</ele>
        <time>2017-03-03T18:35:51Z</time>
      </trkpt>
      <trkpt lat="44.33375" lon="3.46444">
        <ele>860</ele>
        <time>2017-03-03T18:37:51Z</time>
      </trkpt>
      <trkpt lat="44.33377" lon="3.46438">
        <ele>860</ele>
        <time>2017-03-03T18:39:51Z</time>
      </trkpt>
      <trkpt lat="44.33385" lon="3.46425">
        <ele>859</ele>
        <time>2017-03-03T18:41:51Z</time>
      </trkpt>
      <trkpt lat="44.33395" lon="3.46406">
        <ele>856</ele>
        <time>2017-03-03T18:43:51Z</time>
      </trkpt>
      <trkpt lat="44.33399" lon="3.46385">
        <ele>855</ele>
        <time>2017-03-03T18:45:51Z</time>
      </trkpt>
      <trkpt lat="44.33403" lon="3.46355">
        <ele>854</ele>
        <time>2017-03-03T18:47:51Z</time>
      </trkpt>
      <trkpt lat="44.33402" lon="3.4634">
        <ele>856</ele>
        <time>2017-03-03T18:49:51Z</time>
      </trkpt>
      <trkpt lat="44.33398" lon="3.46332">
        <ele>858</ele>
        <time>2017-03-03T18:51:51Z</time>
      </trkpt>
      <trkpt lat="44.33391" lon="3.46328">
        <ele>861</ele>
        <time>2017-03-03T18:53:51Z</time>
      </trkpt>
      <trkpt lat="44.33379" lon="3.46328">
        <ele>865</ele>
        <time>2017-03-03T18:55:51Z</time>
      </trkpt>
      <trkpt lat="44.3337" lon="3.46323">
        <ele>869</ele>
        <time>2017-03-03T18:57:51Z</time>
      </trkpt>
      <trkpt lat="44.3336" lon="3.46308">
        <ele>873</ele>
        <time>2017-03-03T18:59:51Z</time>
      </trkpt>
      <trkpt lat="44.33352" lon="3.46296">
        <ele>875</ele>
        <time>2017-03-03T19:01:51Z</time>
      </trkpt>
      <trkpt lat="44.3334" lon="3.46286">
        <ele>879</ele>
        <time>2017-03-03T19:03:51Z</time>
      </trkpt>
      <trkpt lat="44.33307" lon="3.46258">
        <ele>888</ele>
        <time>2017-03-03T19:05:51Z</time>
      </trkpt>
      <trkpt lat="44.333" lon="3.46248">
        <ele>890</ele>
        <time>2017-03-03T19:07:51Z</time>
      </trkpt>
      <trkpt lat="44.33297" lon="3.46238">
        <ele>893</ele>
        <time>2017-03-03T19:09:51Z</time>
      </trkpt>
      <trkpt lat="44.33299" lon="3.46228">
        <ele>895</ele>
        <time>2017-03-03T19:11:51Z</time>
      </trkpt>
      <trkpt lat="44.33303" lon="3.4622">
        <ele>895</ele>
        <time>2017-03-03T19:13:51Z</time>
      </trkpt>
      <trkpt lat="44.3331" lon="3.46215">
        <ele>894</ele>
        <time>2017-03-03T19:15:51Z</time>
      </trkpt>
      <trkpt lat="44.33327" lon="3.46209">
        <ele>892</ele>
        <time>2017-03-03T19:17:51Z</time>
      </trkpt>
      <trkpt lat="44.33345" lon="3.46199">
        <ele>889</ele>
        <time>2017-03-03T19:19:51Z</time>
      </trkpt>
      <trkpt lat="44.33355" lon="3.46189">
        <ele>889</ele>
        <time>2017-03-03T19:21:51Z</time>
      </trkpt>
      <trkpt lat="44.33366" lon="3.46164">
        <ele>892</ele>
        <time>2017-03-03T19:23:51Z</time>
      </trkpt>
      <trkpt lat="44.33385" lon="3.46122">
        <ele>897</ele>
        <time>2017-03-03T19:25:51Z</time>
      </trkpt>
      <trkpt lat="44.33399" lon="3.46079">
        <ele>905</ele>
        <time>2017-03-03T19:27:51Z</time>
      </trkpt>
      <trkpt lat="44.33417" lon="3.46025">
        <ele>910</ele>
        <time>2017-03-03T19:29:51Z</time>
      </trkpt>
      <trkpt lat="44.33433" lon="3.45985">
        <ele>909</ele>
        <time>2017-03-03T19:31:51Z</time>
      </trkpt>
      <trkpt lat="44.33448" lon="3.45938">
        <ele>909</ele>
        <time>2017-03-03T19:33:51Z</time>
      </trkpt>
      <trkpt lat="44.33449" lon="3.45929">
        <ele>910</ele>
        <time>2017-03-03T19:35:51Z</time>
      </trkpt>
      <trkpt lat="44.33447" lon="3.45922">
        <ele>912</ele>
        <time>2017-03-03T19:37:51Z</time>
      </trkpt>
      <trkpt lat="44.33446" lon="3.45919">
        <ele>913</ele>
        <time>2017-03-03T19:39:51Z</time>
      </trkpt>
      <trkpt lat="44.33444" lon="3.45917">
        <ele>914</ele>
        <time>2017-03-03T19:41:51Z</time>
      </trkpt>
      <trkpt lat="44.33444" lon="3.45917">
        <ele>914</ele>
        <time>2017-03-03T19:43:51Z</time>
      </trkpt>
      <trkpt lat="44.33442" lon="3.45918">
        <ele>915</ele>
        <time>2017-03-03T19:45:51Z</time>
      </trkpt>
      <trkpt lat="44.3344" lon="3.4592">
        <ele>916</ele>
        <time>2017-03-03T19:47:51Z</time>
      </trkpt>
      <trkpt lat="44.33436" lon="3.45925">
        <ele>917</ele>
        <time>2017-03-03T19:49:51Z</time>
      </trkpt>
      <trkpt lat="44.33431" lon="3.45943">
        <ele>917</ele>
        <time>2017-03-03T19:51:51Z</time>
      </trkpt>
      <trkpt lat="44.33426" lon="3.45951">
        <ele>918</ele>
        <time>2017-03-03T19:53:51Z</time>
      </trkpt>
      <trkpt lat="44.33414" lon="3.45963">
        <ele>921</ele>
        <time>2017-03-03T19:55:51Z</time>
      </trkpt>
      <trkpt lat="44.33398" lon="3.45975">
        <ele>922</ele>
        <time>2017-03-03T19:57:51Z</time>
      </trkpt>
      <trkpt lat="44.33375" lon="3.45987">
        <ele>925</ele>
        <time>2017-03-03T19:59:51Z</time>
      </trkpt>
      <trkpt lat="44.33354" lon="3.45994">
        <ele>928</ele>
        <time>2017-03-03T20:01:51Z</time>
      </trkpt>
      <trkpt lat="44.33324" lon="3.46001">
        <ele>931</ele>
        <time>2017-03-03T20:03:51Z</time>
      </trkpt>
      <trkpt lat="44.33292" lon="3.46007">
        <ele>931</ele>
        <time>2017-03-03T20:05:51Z</time>
      </trkpt>
      <trkpt lat="44.33285" lon="3.46006">
        <ele>932</ele>
        <time>2017-03-03T20:07:51Z</time>
      </trkpt>
      <trkpt lat="44.3328" lon="3.46">
        <ele>933</ele>
        <time>2017-03-03T20:09:51Z</time>
      </trkpt>
      <trkpt lat="44.33278" lon="3.45992">
        <ele>935</ele>
        <time>2017-03-03T20:11:51Z</time>
      </trkpt>
      <trkpt lat="44.33279" lon="3.45985">
        <ele>936</ele>
        <time>2017-03-03T20:13:51Z</time>
      </trkpt>
      <trkpt lat="44.33289" lon="3.45958">
        <ele>941</ele>
        <time>2017-03-03T20:15:51Z</time>
      </trkpt>
      <trkpt lat="44.33299" lon="3.45934">
        <ele>945</ele>
        <time>2017-03-03T20:17:51Z</time>
      </trkpt>
      <trkpt lat="44.33308" lon="3.45916">
        <ele>948</ele>
        <time>2017-03-03T20:19:51Z</time>
      </trkpt>
      <trkpt lat="44.33319" lon="3.45902">
        <ele>950</ele>
        <time>2017-03-03T20:21:51Z</time>
      </trkpt>
      <trkpt lat="44.33328" lon="3.45884">
        <ele>952</ele>
        <time>2017-03-03T20:23:51Z</time>
      </trkpt>
      <trkpt lat="44.33334" lon="3.4587">
        <ele>954</ele>
        <time>2017-03-03T20:25:51Z</time>
      </trkpt>
      <trkpt lat="44.33347" lon="3.45856">
        <ele>954</ele>
        <time>2017-03-03T20:27:51Z</time>
      </trkpt>
      <trkpt lat="44.33368" lon="3.45834">
        <ele>953</ele>
        <time>2017-03-03T20:29:51Z</time>
      </trkpt>
      <trkpt lat="44.33386" lon="3.45804">
        <ele>954</ele>
        <time>2017-03-03T20:31:51Z</time>
      </trkpt>
      <trkpt lat="44.33398" lon="3.45776">
        <ele>956</ele>
        <time>2017-03-03T20:33:51Z</time>
      </trkpt>
      <trkpt lat="44.33408" lon="3.45741">
        <ele>959</ele>
        <time>2017-03-03T20:35:51Z</time>
      </trkpt>
      <trkpt lat="44.33417" lon="3.45705">
        <ele>962</ele>
        <time>2017-03-03T20:37:51Z</time>
      </trkpt>
      <trkpt lat="44.33428" lon="3.45667">
        <ele>964</ele>
        <time>2017-03-03T20:39:51Z</time>
      </trkpt>
      <trkpt lat="44.33431" lon="3.45646">
        <ele>964</ele>
        <time>2017-03-03T20:41:51Z</time>
      </trkpt>
      <trkpt lat="44.33431" lon="3.45631">
        <ele>965</ele>
        <time>2017-03-03T20:43:51Z</time>
      </trkpt>
      <trkpt lat="44.33426" lon="3.45611">
        <ele>966</ele>
        <time>2017-03-03T20:45:51Z</time>
      </trkpt>
      <trkpt lat="44.33422" lon="3.45595">
        <ele>967</ele>
        <time>2017-03-03T20:47:51Z</time>
      </trkpt>
      <trkpt lat="44.33421" lon="3.45593">
        <ele>968</ele>
        <time>2017-03-03T20:49:51Z</time>
      </trkpt>
      <trkpt lat="44.3342" lon="3.45588">
        <ele>968</ele>
        <time>2017-03-03T20:51:51Z</time>
      </trkpt>
      <trkpt lat="44.3342" lon="3.45581">
        <ele>968</ele>
        <time>2017-03-03T20:53:51Z</time>
      </trkpt>
      <trkpt lat="44.33423" lon="3.45566">
        <ele>967</ele>
        <time>2017-03-03T20:55:51Z</time>
      </trkpt>
      <trkpt lat="44.33429" lon="3.45539">
        <ele>966</ele>
        <time>2017-03-03T20:57:51Z</time>
      </trkpt>
      <trkpt lat="44.33434" lon="3.45522">
        <ele>966</ele>
        <time>2017-03-03T20:59:51Z</time>
      </trkpt>
      <trkpt lat="44.33441" lon="3.45504">
        <ele>966</ele>
        <time>2017-03-03T21:01:51Z</time>
      </trkpt>
      <trkpt lat="44.33458" lon="3.4547">
        <ele>967</ele>
        <time>2017-03-03T21:03:51Z</time>
      </trkpt>
      <trkpt lat="44.33479" lon="3.45421">
        <ele>968</ele>
        <time>2017-03-03T21:05:51Z</time>
      </trkpt>
      <trkpt lat="44.33495" lon="3.45386">
        <ele>969</ele>
        <time>2017-03-03T21:07:51Z</time>
      </trkpt>
      <trkpt lat="44.33511" lon="3.45356">
        <ele>970</ele>
        <time>2017-03-03T21:09:51Z</time>
      </trkpt>
      <trkpt lat="44.33531" lon="3.45318">
        <ele>972</ele>
        <time>2017-03-03T21:11:51Z</time>
      </trkpt>
      <trkpt lat="44.3355" lon="3.45275">
        <ele>973</ele>
        <time>2017-03-03T21:13:51Z</time>
      </trkpt>
      <trkpt lat="44.3356" lon="3.45248">
        <ele>974</ele>
        <time>2017-03-03T21:15:51Z</time>
      </trkpt>
      <trkpt lat="44.33572" lon="3.45214">
        <ele>973</ele>
        <time>2017-03-03T21:17:51Z</time>
      </trkpt>
      <trkpt lat="44.33579" lon="3.45195">
        <ele>973</ele>
        <time>2017-03-03T21:19:51Z</time>
      </trkpt>
      <trkpt lat="44.33593" lon="3.45168">
        <ele>974</ele>
        <time>2017-03-03T21:21:51Z</time>
      </trkpt>
      <trkpt lat="44.33607" lon="3.45135">
        <ele>976</ele>
        <time>2017-03-03T21:23:51Z</time>
      </trkpt>
      <trkpt lat="44.33616" lon="3.45106">
        <ele>977</ele>
        <time>2017-03-03T21:25:51Z</time>
      </trkpt>
      <trkpt lat="44.33624" lon="3.4507">
        <ele>978</ele>
        <time>2017-03-03T21:27:51Z</time>
      </trkpt>
      <trkpt lat="44.33634" lon="3.45031">
        <ele>981</ele>
        <time>2017-03-03T21:29:51Z</time>
      </trkpt>
      <trkpt lat="44.3364" lon="3.44996">
        <ele>984</ele>
        <time>2017-03-03T21:31:51Z</time>
      </trkpt>
      <trkpt lat="44.33647" lon="3.44957">
        <ele>987</ele>
        <time>2017-03-03T21:33:51Z</time>
      </trkpt>
      <trkpt lat="44.33652" lon="3.44932">
        <ele>988</ele>
        <time>2017-03-03T21:35:51Z</time>
      </trkpt>
      <trkpt lat="44.33657" lon="3.44909">
        <ele>990</ele>
        <time>2017-03-03T21:37:51Z</time>
      </trkpt>
      <trkpt lat="44.33661" lon="3.4489">
        <ele>991</ele>
        <time>2017-03-03T21:39:51Z</time>
      </trkpt>
      <trkpt lat="44.33662" lon="3.44882">
        <ele>991</ele>
        <time>2017-03-03T21:41:51Z</time>
      </trkpt>
      <trkpt lat="44.33663" lon="3.44872">
        <ele>991</ele>
        <time>2017-03-03T21:43:51Z</time>
      </trkpt>
      <trkpt lat="44.33663" lon="3.44872">
        <ele>991</ele>
        <time>2017-03-03T21:45:51Z</time>
      </trkpt>
      <trkpt lat="44.33668" lon="3.44844">
        <ele>993</ele>
        <time>2017-03-03T21:47:51Z</time>
      </trkpt>
      <trkpt lat="44.3367" lon="3.4483">
        <ele>993</ele>
        <time>2017-03-03T21:49:51Z</time>
      </trkpt>
      <trkpt lat="44.33669" lon="3.44826">
        <ele>994</ele>
        <time>2017-03-03T21:51:51Z</time>
      </trkpt>
      <trkpt lat="44.33668" lon="3.44815">
        <ele>994</ele>
        <time>2017-03-03T21:53:51Z</time>
      </trkpt>
      <trkpt lat="44.33668" lon="3.44815">
        <ele>994</ele>
        <time>2017-03-03T21:55:51Z</time>
      </trkpt>
      <trkpt lat="44.33666" lon="3.44786">
        <ele>996</ele>
        <time>2017-03-03T21:57:51Z</time>
      </trkpt>
      <trkpt lat="44.33665" lon="3.4474">
        <ele>999</ele>
        <time>2017-03-03T21:59:51Z</time>
      </trkpt>
      <trkpt lat="44.33665" lon="3.44715">
        <ele>1001</ele>
        <time>2017-03-03T22:01:51Z</time>
      </trkpt>
      <trkpt lat="44.33667" lon="3.44701">
        <ele>1002</ele>
        <time>2017-03-03T22:03:51Z</time>
      </trkpt>
      <trkpt lat="44.33671" lon="3.4469">
        <ele>1003</ele>
        <time>2017-03-03T22:05:51Z</time>
      </trkpt>
      <trkpt lat="44.3368" lon="3.44681">
        <ele>1003</ele>
        <time>2017-03-03T22:07:51Z</time>
      </trkpt>
      <trkpt lat="44.3369" lon="3.44675">
        <ele>1004</ele>
        <time>2017-03-03T22:09:51Z</time>
      </trkpt>
      <trkpt lat="44.33706" lon="3.44668">
        <ele>1005</ele>
        <time>2017-03-03T22:11:51Z</time>
      </trkpt>
      <trkpt lat="44.33717" lon="3.4466">
        <ele>1005</ele>
        <time>2017-03-03T22:13:51Z</time>
      </trkpt>
      <trkpt lat="44.33725" lon="3.44652">
        <ele>1006</ele>
        <time>2017-03-03T22:15:51Z</time>
      </trkpt>
      <trkpt lat="44.33735" lon="3.44634">
        <ele>1007</ele>
        <time>2017-03-03T22:17:51Z</time>
      </trkpt>
      <trkpt lat="44.33743" lon="3.44612">
        <ele>1008</ele>
        <time>2017-03-03T22:19:51Z</time>
      </trkpt>
      <trkpt lat="44.33751" lon="3.44583">
        <ele>1010</ele>
        <time>2017-03-03T22:21:51Z</time>
      </trkpt>
      <trkpt lat="44.33758" lon="3.44545">
        <ele>1010</ele>
        <time>2017-03-03T22:23:51Z</time>
      </trkpt>
      <trkpt lat="44.33766" lon="3.44519">
        <ele>1011</ele>
        <time>2017-03-03T22:25:51Z</time>
      </trkpt>
      <trkpt lat="44.33775" lon="3.44495">
        <ele>1012</ele>
        <time>2017-03-03T22:27:51Z</time>
      </trkpt>
      <trkpt lat="44.33785" lon="3.44474">
        <ele>1012</ele>
        <time>2017-03-03T22:29:51Z</time>
      </trkpt>
      <trkpt lat="44.33797" lon="3.44456">
        <ele>1013</ele>
        <time>2017-03-03T22:31:51Z</time>
      </trkpt>
      <trkpt lat="44.33806" lon="3.4444">
        <ele>1013</ele>
        <time>2017-03-03T22:33:51Z</time>
      </trkpt>
      <trkpt lat="44.33812" lon="3.44423">
        <ele>1013</ele>
        <time>2017-03-03T22:35:51Z</time>
      </trkpt>
      <trkpt lat="44.33813" lon="3.44408">
        <ele>1013</ele>
        <time>2017-03-03T22:37:51Z</time>
      </trkpt>
      <trkpt lat="44.33813" lon="3.44408">
        <ele>1013</ele>
        <time>2017-03-03T22:39:51Z</time>
      </trkpt>
      <trkpt lat="44.33824" lon="3.44424">
        <ele>1014</ele>
        <time>2017-03-03T22:41:51Z</time>
      </trkpt>
      <trkpt lat="44.33824" lon="3.44424">
        <ele>1014</ele>
        <time>2017-03-03T22:43:51Z</time>
      </trkpt>
      <trkpt lat="44.33837" lon="3.44409">
        <ele>1015</ele>
        <time>2017-03-03T22:45:51Z</time>
      </trkpt>
      <trkpt lat="44.33845" lon="3.44396">
        <ele>1013</ele>
        <time>2017-03-03T22:47:51Z</time>
      </trkpt>
      <trkpt lat="44.3385" lon="3.44387">
        <ele>1012</ele>
        <time>2017-03-03T22:49:51Z</time>
      </trkpt>
      <trkpt lat="44.33855" lon="3.44369">
        <ele>1011</ele>
        <time>2017-03-03T22:51:51Z</time>
      </trkpt>
      <trkpt lat="44.33863" lon="3.44318">
        <ele>1008</ele>
        <time>2017-03-03T22:53:51Z</time>
      </trkpt>
      <trkpt lat="44.33869" lon="3.44276">
        <ele>1006</ele>
        <time>2017-03-03T22:55:51Z</time>
      </trkpt>
      <trkpt lat="44.33871" lon="3.44242">
        <ele>1006</ele>
        <time>2017-03-03T22:57:51Z</time>
      </trkpt>
      <trkpt lat="44.33874" lon="3.44223">
        <ele>1006</ele>
        <time>2017-03-03T22:59:51Z</time>
      </trkpt>
      <trkpt lat="44.33878" lon="3.4421">
        <ele>1006</ele>
        <time>2017-03-03T23:01:51Z</time>
      </trkpt>
      <trkpt lat="44.33884" lon="3.44198">
        <ele>1005</ele>
        <time>2017-03-03T23:03:51Z</time>
      </trkpt>
      <trkpt lat="44.33915" lon="3.44155">
        <ele>1000</ele>
        <time>2017-03-03T23:05:51Z</time>
      </trkpt>
      <trkpt lat="44.33941" lon="3.44119">
        <ele>997</ele>
        <time>2017-03-03T23:07:51Z</time>
      </trkpt>
      <trkpt lat="44.33963" lon="3.44093">
        <ele>995</ele>
        <time>2017-03-03T23:09:51Z</time>
      </trkpt>
      <trkpt lat="44.33977" lon="3.44075">
        <ele>994</ele>
        <time>2017-03-03T23:11:51Z</time>
      </trkpt>
      <trkpt lat="44.3399" lon="3.44061">
        <ele>993</ele>
        <time>2017-03-03T23:13:51Z</time>
      </trkpt>
      <trkpt lat="44.34001" lon="3.44045">
        <ele>992</ele>
        <time>2017-03-03T23:15:51Z</time>
      </trkpt>
      <trkpt lat="44.34017" lon="3.44023">
        <ele>992</ele>
        <time>2017-03-03T23:17:51Z</time>
      </trkpt>
      <trkpt lat="44.34043" lon="3.43992">
        <ele>991</ele>
        <time>2017-03-03T23:19:51Z</time>
      </trkpt>
      <trkpt lat="44.34075" lon="3.4396">
        <ele>989</ele>
        <time>2017-03-03T23:21:51Z</time>
      </trkpt>
      <trkpt lat="44.34099" lon="3.43932">
        <ele>989</ele>
        <time>2017-03-03T23:23:51Z</time>
      </trkpt>
      <trkpt lat="44.34118" lon="3.43911">
        <ele>988</ele>
        <time>2017-03-03T23:25:51Z</time>
      </trkpt>
      <trkpt lat="44.34133" lon="3.439">
        <ele>987</ele>
        <time>2017-03-03T23:27:51Z</time>
      </trkpt>
      <trkpt lat="44.34141" lon="3.43892">
        <ele>985</ele>
        <time>2017-03-03T23:29:51Z</time>
      </trkpt>
      <trkpt lat="44.34163" lon="3.43863">
        <ele>982</ele>
        <time>2017-03-03T23:31:51Z</time>
      </trkpt>
      <trkpt lat="44.3419" lon="3.43822">
        <ele>977</ele>
        <time>2017-03-03T23:33:51Z</time>
      </trkpt>
      <trkpt lat="44.34213" lon="3.43789">
        <ele>973</ele>
        <time>2017-03-03T23:35:51Z</time>
      </trkpt>
      <trkpt lat="44.3423" lon="3.4377">
        <ele>972</ele>
        <time>2017-03-03T23:37:51Z</time>
      </trkpt>
      <trkpt lat="44.34246" lon="3.43747">
        <ele>971</ele>
        <time>2017-03-03T23:39:51Z</time>
      </trkpt>
      <trkpt lat="44.3426" lon="3.43738">
        <ele>969</ele>
        <time>2017-03-03T23:41:51Z</time>
      </trkpt>
      <trkpt lat="44.34274" lon="3.4373">
        <ele>967</ele>
        <time>2017-03-03T23:43:51Z</time>
      </trkpt>
      <trkpt lat="44.34285" lon="3.43729">
        <ele>966</ele>
        <time>2017-03-03T23:45:51Z</time>
      </trkpt>
      <trkpt lat="44.34291" lon="3.4373">
        <ele>966</ele>
        <time>2017-03-03T23:47:51Z</time>
      </trkpt>
      <trkpt lat="44.34304" lon="3.43722">
        <ele>964</ele>
        <time>2017-03-03T23:49:51Z</time>
      </trkpt>
      <trkpt lat="44.34322" lon="3.43705">
        <ele>962</ele>
        <time>2017-03-03T23:51:51Z</time>
      </trkpt>
      <trkpt lat="44.34324" lon="3.43702">
        <ele>962</ele>
        <time>2017-03-03T23:53:51Z</time>
      </trkpt>
      <trkpt lat="44.34338" lon="3.43701">
        <ele>961</ele>
        <time>2017-03-03T23:55:51Z</time>
      </trkpt>
      <trkpt lat="44.34365" lon="3.43703">
        <ele>958</ele>
        <time>2017-03-03T23:57:51Z</time>
      </trkpt>
      <trkpt lat="44.34381" lon="3.43701">
        <ele>957</ele>
        <time>2017-03-03T23:59:51Z</time>
      </trkpt>
      <trkpt lat="44.34404" lon="3.43696">
        <ele>955</ele>
        <time>2017-03-04T00:01:51Z</time>
      </trkpt>
      <trkpt lat="44.34423" lon="3.43687">
        <ele>954</ele>
        <time>2017-03-04T00:03:51Z</time>
      </trkpt>
      <trkpt lat="44.34436" lon="3.43678">
        <ele>954</ele>
        <time>2017-03-04T00:05:51Z</time>
      </trkpt>
      <trkpt lat="44.34459" lon="3.43653">
        <ele>952</ele>
        <time>2017-03-04T00:07:51Z</time>
      </trkpt>
      <trkpt lat="44.34473" lon="3.43637">
        <ele>951</ele>
        <time>2017-03-04T00:09:51Z</time>
      </trkpt>
      <trkpt lat="44.34489" lon="3.43611">
        <ele>949</ele>
        <time>2017-03-04T00:11:51Z</time>
      </trkpt>
      <trkpt lat="44.34502" lon="3.43592">
        <ele>948</ele>
        <time>2017-03-04T00:13:51Z</time>
      </trkpt>
      <trkpt lat="44.34511" lon="3.43571">
        <ele>947</ele>
        <time>2017-03-04T00:15:51Z</time>
      </trkpt>
      <trkpt lat="44.34518" lon="3.43543">
        <ele>945</ele>
        <time>2017-03-04T00:17:51Z</time>
      </trkpt>
      <trkpt lat="44.34529" lon="3.43499">
        <ele>942</ele>
        <time>2017-03-04T00:19:51Z</time>
      </trkpt>
      <trkpt lat="44.34539" lon="3.43463">
        <ele>940</ele>
        <time>2017-03-04T00:21:51Z</time>
      </trkpt>
      <trkpt lat="44.34546" lon="3.43431">
        <ele>939</ele>
        <time>2017-03-04T00:23:51Z</time>
      </trkpt>
      <trkpt lat="44.34552" lon="3.43407">
        <ele>939</ele>
        <time>2017-03-04T00:25:51Z</time>
      </trkpt>
      <trkpt lat="44.34563" lon="3.43376">
        <ele>941</ele>
        <time>2017-03-04T00:27:51Z</time>
      </trkpt>
      <trkpt lat="44.34569" lon="3.43358">
        <ele>942</ele>
        <time>2017-03-04T00:29:51Z</time>
      </trkpt>
      <trkpt lat="44.34571" lon="3.43348">
        <ele>942</ele>
        <time>2017-03-04T00:31:51Z</time>
      </trkpt>
      <trkpt lat="44.34573" lon="3.43322">
        <ele>944</ele>
        <time>2017-03-04T00:33:51Z</time>
      </trkpt>
      <trkpt lat="44.34575" lon="3.43316">
        <ele>945</ele>
        <time>2017-03-04T00:35:51Z</time>
      </trkpt>
      <trkpt lat="44.34578" lon="3.43312">
        <ele>946</ele>
        <time>2017-03-04T00:37:51Z</time>
      </trkpt>
      <trkpt lat="44.34582" lon="3.43311">
        <ele>946</ele>
        <time>2017-03-04T00:39:51Z</time>
      </trkpt>
      <trkpt lat="44.34646" lon="3.43308">
        <ele>950</ele>
        <time>2017-03-04T00:41:51Z</time>
      </trkpt>
      <trkpt lat="44.34686" lon="3.43305">
        <ele>952</ele>
        <time>2017-03-04T00:43:51Z</time>
      </trkpt>
      <trkpt lat="44.34706" lon="3.433">
        <ele>953</ele>
        <time>2017-03-04T00:45:51Z</time>
      </trkpt>
      <trkpt lat="44.34726" lon="3.43291">
        <ele>954</ele>
        <time>2017-03-04T00:47:51Z</time>
      </trkpt>
      <trkpt lat="44.34741" lon="3.43286">
        <ele>955</ele>
        <time>2017-03-04T00:49:51Z</time>
      </trkpt>
      <trkpt lat="44.34747" lon="3.43285">
        <ele>955</ele>
        <time>2017-03-04T00:51:51Z</time>
      </trkpt>
      <trkpt lat="44.34752" lon="3.43283">
        <ele>956</ele>
        <time>2017-03-04T00:53:51Z</time>
      </trkpt>
      <trkpt lat="44.34757" lon="3.43278">
        <ele>956</ele>
        <time>2017-03-04T00:55:51Z</time>
      </trkpt>
      <trkpt lat="44.34781" lon="3.43248">
        <ele>960</ele>
        <time>2017-03-04T00:57:51Z</time>
      </trkpt>
      <trkpt lat="44.34792" lon="3.43236">
        <ele>962</ele>
        <time>2017-03-04T00:59:51Z</time>
      </trkpt>
      <trkpt lat="44.34804" lon="3.43221">
        <ele>965</ele>
        <time>2017-03-04T01:01:51Z</time>
      </trkpt>
      <trkpt lat="44.34819" lon="3.43211">
        <ele>968</ele>
        <time>2017-03-04T01:03:51Z</time>
      </trkpt>
      <trkpt lat="44.34819" lon="3.43211">
        <ele>968</ele>
        <time>2017-03-04T01:05:51Z</time>
      </trkpt>
      <trkpt lat="44.34819" lon="3.43188">
        <ele>970</ele>
        <time>2017-03-04T01:07:51Z</time>
      </trkpt>
      <trkpt lat="44.34818" lon="3.43149">
        <ele>974</ele>
        <time>2017-03-04T01:09:51Z</time>
      </trkpt>
      <trkpt lat="44.34814" lon="3.43122">
        <ele>976</ele>
        <time>2017-03-04T01:11:51Z</time>
      </trkpt>
      <trkpt lat="44.34806" lon="3.43092">
        <ele>979</ele>
        <time>2017-03-04T01:13:51Z</time>
      </trkpt>
      <trkpt lat="44.34803" lon="3.43071">
        <ele>981</ele>
        <time>2017-03-04T01:15:51Z</time>
      </trkpt>
      <trkpt lat="44.348" lon="3.43047">
        <ele>984</ele>
        <time>2017-03-04T01:17:51Z</time>
      </trkpt>
      <trkpt lat="44.34794" lon="3.43022">
        <ele>987</ele>
        <time>2017-03-04T01:19:51Z</time>
      </trkpt>
      <trkpt lat="44.34786" lon="3.43006">
        <ele>989</ele>
        <time>2017-03-04T01:21:51Z</time>
      </trkpt>
      <trkpt lat="44.3477" lon="3.42984">
        <ele>989</ele>
        <time>2017-03-04T01:23:51Z</time>
      </trkpt>
      <trkpt lat="44.34755" lon="3.4296">
        <ele>990</ele>
        <time>2017-03-04T01:25:51Z</time>
      </trkpt>
      <trkpt lat="44.34748" lon="3.42941">
        <ele>992</ele>
        <time>2017-03-04T01:27:51Z</time>
      </trkpt>
      <trkpt lat="44.34742" lon="3.42912">
        <ele>996</ele>
        <time>2017-03-04T01:29:51Z</time>
      </trkpt>
      <trkpt lat="44.34742" lon="3.42901">
        <ele>996</ele>
        <time>2017-03-04T01:31:51Z</time>
      </trkpt>
      <trkpt lat="44.34746" lon="3.42891">
        <ele>995</ele>
        <time>2017-03-04T01:33:51Z</time>
      </trkpt>
      <trkpt lat="44.34752" lon="3.42886">
        <ele>995</ele>
        <time>2017-03-04T01:35:51Z</time>
      </trkpt>
      <trkpt lat="44.34756" lon="3.42885">
        <ele>995</ele>
        <time>2017-03-04T01:37:51Z</time>
      </trkpt>
      <trkpt lat="44.34757" lon="3.42885">
        <ele>995</ele>
        <time>2017-03-04T01:39:51Z</time>
      </trkpt>
      <trkpt lat="44.34779" lon="3.42892">
        <ele>995</ele>
        <time>2017-03-04T01:41:51Z</time>
      </trkpt>
      <trkpt lat="44.34786" lon="3.42891">
        <ele>995</ele>
        <time>2017-03-04T01:43:51Z</time>
      </trkpt>
      <trkpt lat="44.34792" lon="3.42887">
        <ele>995</ele>
        <time>2017-03-04T01:45:51Z</time>
      </trkpt>
      <trkpt lat="44.34796" lon="3.4288">
        <ele>994</ele>
        <time>2017-03-04T01:47:51Z</time>
      </trkpt>
      <trkpt lat="44.34798" lon="3.42872">
        <ele>994</ele>
        <time>2017-03-04T01:49:51Z</time>
      </trkpt>
      <trkpt lat="44.34796" lon="3.42861">
        <ele>993</ele>
        <time>2017-03-04T01:51:51Z</time>
      </trkpt>
      <trkpt lat="44.34789" lon="3.42849">
        <ele>993</ele>
        <time>2017-03-04T01:53:51Z</time>
      </trkpt>
      <trkpt lat="44.34764" lon="3.42819">
        <ele>992</ele>
        <time>2017-03-04T01:55:51Z</time>
      </trkpt>
      <trkpt lat="44.34742" lon="3.42793">
        <ele>991</ele>
        <time>2017-03-04T01:57:51Z</time>
      </trkpt>
      <trkpt lat="44.34724" lon="3.42761">
        <ele>989</ele>
        <time>2017-03-04T01:59:51Z</time>
      </trkpt>
      <trkpt lat="44.34709" lon="3.42732">
        <ele>987</ele>
        <time>2017-03-04T02:01:51Z</time>
      </trkpt>
      <trkpt lat="44.34702" lon="3.4272">
        <ele>987</ele>
        <time>2017-03-04T02:03:51Z</time>
      </trkpt>
      <trkpt lat="44.34696" lon="3.42709">
        <ele>986</ele>
        <time>2017-03-04T02:05:51Z</time>
      </trkpt>
      <trkpt lat="44.34693" lon="3.42693">
        <ele>984</ele>
        <time>2017-03-04T02:07:51Z</time>
      </trkpt>
      <trkpt lat="44.34691" lon="3.42668">
        <ele>981</ele>
        <time>2017-03-04T02:09:51Z</time>
      </trkpt>
      <trkpt lat="44.34693" lon="3.42638">
        <ele>981</ele>
        <time>2017-03-04T02:11:51Z</time>
      </trkpt>
      <trkpt lat="44.34693" lon="3.42638">
        <ele>981</ele>
        <time>2017-03-04T02:13:51Z</time>
      </trkpt>
      <trkpt lat="44.34697" lon="3.42651">
        <ele>980</ele>
        <time>2017-03-04T02:15:51Z</time>
      </trkpt>
      <trkpt lat="44.34703" lon="3.4267">
        <ele>980</ele>
        <time>2017-03-04T02:17:51Z</time>
      </trkpt>
      <trkpt lat="44.34712" lon="3.42681">
        <ele>980</ele>
        <time>2017-03-04T02:19:51Z</time>
      </trkpt>
      <trkpt lat="44.34721" lon="3.42686">
        <ele>980</ele>
        <time>2017-03-04T02:21:51Z</time>
      </trkpt>
      <trkpt lat="44.34737" lon="3.42688">
        <ele>978</ele>
        <time>2017-03-04T02:23:51Z</time>
      </trkpt>
      <trkpt lat="44.34757" lon="3.42689">
        <ele>977</ele>
        <time>2017-03-04T02:25:51Z</time>
      </trkpt>
      <trkpt lat="44.34776" lon="3.42692">
        <ele>977</ele>
        <time>2017-03-04T02:27:51Z</time>
      </trkpt>
      <trkpt lat="44.3479" lon="3.42693">
        <ele>977</ele>
        <time>2017-03-04T02:29:51Z</time>
      </trkpt>
      <trkpt lat="44.34796" lon="3.42692">
        <ele>977</ele>
        <time>2017-03-04T02:31:51Z</time>
      </trkpt>
      <trkpt lat="44.34803" lon="3.42687">
        <ele>976</ele>
        <time>2017-03-04T02:33:51Z</time>
      </trkpt>
      <trkpt lat="44.34813" lon="3.42672">
        <ele>975</ele>
        <time>2017-03-04T02:35:51Z</time>
      </trkpt>
      <trkpt lat="44.34819" lon="3.42662">
        <ele>975</ele>
        <time>2017-03-04T02:37:51Z</time>
      </trkpt>
      <trkpt lat="44.34824" lon="3.42657">
        <ele>975</ele>
        <time>2017-03-04T02:39:51Z</time>
      </trkpt>
      <trkpt lat="44.34834" lon="3.42651">
        <ele>976</ele>
        <time>2017-03-04T02:41:51Z</time>
      </trkpt>
      <trkpt lat="44.34853" lon="3.42641">
        <ele>976</ele>
        <time>2017-03-04T02:43:51Z</time>
      </trkpt>
      <trkpt lat="44.34873" lon="3.4263">
        <ele>977</ele>
        <time>2017-03-04T02:45:51Z</time>
      </trkpt>
      <trkpt lat="44.34886" lon="3.42626">
        <ele>978</ele>
        <time>2017-03-04T02:47:51Z</time>
      </trkpt>
      <trkpt lat="44.34905" lon="3.42625">
        <ele>978</ele>
        <time>2017-03-04T02:49:51Z</time>
      </trkpt>
      <trkpt lat="44.34926" lon="3.42621">
        <ele>978</ele>
        <time>2017-03-04T02:51:51Z</time>
      </trkpt>
      <trkpt lat="44.34943" lon="3.42617">
        <ele>978</ele>
        <time>2017-03-04T02:53:51Z</time>
      </trkpt>
      <trkpt lat="44.34945" lon="3.42617">
        <ele>978</ele>
        <time>2017-03-04T02:55:51Z</time>
      </trkpt>
      <trkpt lat="44.34955" lon="3.42617">
        <ele>978</ele>
        <time>2017-03-04T02:57:51Z</time>
      </trkpt>
      <trkpt lat="44.34965" lon="3.4262">
        <ele>978</ele>
        <time>2017-03-04T02:59:51Z</time>
      </trkpt>
      <trkpt lat="44.34977" lon="3.42627">
        <ele>977</ele>
        <time>2017-03-04T03:01:51Z</time>
      </trkpt>
      <trkpt lat="44.34993" lon="3.42635">
        <ele>976</ele>
        <time>2017-03-04T03:03:51Z</time>
      </trkpt>
      <trkpt lat="44.35004" lon="3.4264">
        <ele>974</ele>
        <time>2017-03-04T03:05:51Z</time>
      </trkpt>
      <trkpt lat="44.35028" lon="3.42644">
        <ele>971</ele>
        <time>2017-03-04T03:07:51Z</time>
      </trkpt>
      <trkpt lat="44.35058" lon="3.42651">
        <ele>967</ele>
        <time>2017-03-04T03:09:51Z</time>
      </trkpt>
      <trkpt lat="44.35073" lon="3.42654">
        <ele>965</ele>
        <time>2017-03-04T03:11:51Z</time>
      </trkpt>
      <trkpt lat="44.35104" lon="3.42651">
        <ele>962</ele>
        <time>2017-03-04T03:13:51Z</time>
      </trkpt>
      <trkpt lat="44.35133" lon="3.42644">
        <ele>958</ele>
        <time>2017-03-04T03:15:51Z</time>
      </trkpt>
      <trkpt lat="44.3515" lon="3.42642">
        <ele>956</ele>
        <time>2017-03-04T03:17:51Z</time>
      </trkpt>
      <trkpt lat="44.35165" lon="3.42643">
        <ele>954</ele>
        <time>2017-03-04T03:19:51Z</time>
      </trkpt>
      <trkpt lat="44.35193" lon="3.42652">
        <ele>950</ele>
        <time>2017-03-04T03:21:51Z</time>
      </trkpt>
      <trkpt lat="44.3521" lon="3.42656">
        <ele>948</ele>
        <time>2017-03-04T03:23:51Z</time>
      </trkpt>
      <trkpt lat="44.35239" lon="3.4267">
        <ele>944</ele>
        <time>2017-03-04T03:25:51Z</time>
      </trkpt>
      <trkpt lat="44.35248" lon="3.42673">
        <ele>943</ele>
        <time>2017-03-04T03:27:51Z</time>
      </trkpt>
      <trkpt lat="44.35258" lon="3.42678">
        <ele>942</ele>
        <time>2017-03-04T03:29:51Z</time>
      </trkpt>
      <trkpt lat="44.35276" lon="3.42681">
        <ele>941</ele>
        <time>2017-03-04T03:31:51Z</time>
      </trkpt>
      <trkpt lat="44.35293" lon="3.42679">
        <ele>940</ele>
        <time>2017-03-04T03:33:51Z</time>
      </trkpt>
      <trkpt lat="44.35311" lon="3.42674">
        <ele>939</ele>
        <time>2017-03-04T03:35:51Z</time>
      </trkpt>
      <trkpt lat="44.35315" lon="3.42672">
        <ele>938</ele>
        <time>2017-03-04T03:37:51Z</time>
      </trkpt>
      <trkpt lat="44.35323" lon="3.42667">
        <ele>938</ele>
        <time>2017-03-04T03:39:51Z</time>
      </trkpt>
      <trkpt lat="44.35344" lon="3.42648">
        <ele>937</ele>
        <time>2017-03-04T03:41:51Z</time>
      </trkpt>
      <trkpt lat="44.35357" lon="3.42641">
        <ele>937</ele>
        <time>2017-03-04T03:43:51Z</time>
      </trkpt>
      <trkpt lat="44.35368" lon="3.42639">
        <ele>937</ele>
        <time>2017-03-04T03:45:51Z</time>
      </trkpt>
      <trkpt lat="44.35392" lon="3.4264">
        <ele>936</ele>
        <time>2017-03-04T03:47:51Z</time>
      </trkpt>
      <trkpt lat="44.3543" lon="3.42638">
        <ele>935</ele>
        <time>2017-03-04T03:49:51Z</time>
      </trkpt>
      <trkpt lat="44.35457" lon="3.42636">
        <ele>935</ele>
        <time>2017-03-04T03:51:51Z</time>
      </trkpt>
      <trkpt lat="44.35474" lon="3.42639">
        <ele>934</ele>
        <time>2017-03-04T03:53:51Z</time>
      </trkpt>
      <trkpt lat="44.3549" lon="3.4265">
        <ele>933</ele>
        <time>2017-03-04T03:55:51Z</time>
      </trkpt>
      <trkpt lat="44.35499" lon="3.42653">
        <ele>932</ele>
        <time>2017-03-04T03:57:51Z</time>
      </trkpt>
      <trkpt lat="44.35525" lon="3.42651">
        <ele>931</ele>
        <time>2017-03-04T03:59:51Z</time>
      </trkpt>
      <trkpt lat="44.35539" lon="3.42651">
        <ele>930</ele>
        <time>2017-03-04T04:01:51Z</time>
      </trkpt>
      <trkpt lat="44.35546" lon="3.42652">
        <ele>930</ele>
        <time>2017-03-04T04:03:51Z</time>
      </trkpt>
      <trkpt lat="44.3556" lon="3.42655">
        <ele>928</ele>
        <time>2017-03-04T04:05:51Z</time>
      </trkpt>
      <trkpt lat="44.35575" lon="3.42662">
        <ele>926</ele>
        <time>2017-03-04T04:07:51Z</time>
      </trkpt>
      <trkpt lat="44.35587" lon="3.42663">
        <ele>924</ele>
        <time>2017-03-04T04:09:51Z</time>
      </trkpt>
      <trkpt lat="44.35604" lon="3.42659">
        <ele>923</ele>
        <time>2017-03-04T04:11:51Z</time>
      </trkpt>
      <trkpt lat="44.35612" lon="3.42658">
        <ele>922</ele>
        <time>2017-03-04T04:13:51Z</time>
      </trkpt>
      <trkpt lat="44.35624" lon="3.42655">
        <ele>922</ele>
        <time>2017-03-04T04:15:51Z</time>
      </trkpt>
      <trkpt lat="44.35632" lon="3.42655">
        <ele>921</ele>
        <time>2017-03-04T04:17:51Z</time>
      </trkpt>
      <trkpt lat="44.35643" lon="3.42659">
        <ele>918</ele>
        <time>2017-03-04T04:19:51Z</time>
      </trkpt>
      <trkpt lat="44.35663" lon="3.42648">
        <ele>920</ele>
        <time>2017-03-04T04:21:51Z</time>
      </trkpt>
      <trkpt lat="44.3567" lon="3.42644">
        <ele>920</ele>
        <time>2017-03-04T04:23:51Z</time>
      </trkpt>
      <trkpt lat="44.3567" lon="3.42644">
        <ele>920</ele>
        <time>2017-03-04T04:25:51Z</time>
      </trkpt>
      <trkpt lat="44.35703" lon="3.4265">
        <ele>911</ele>
        <time>2017-03-04T04:27:51Z</time>
      </trkpt>
      <trkpt lat="44.35724" lon="3.4265">
        <ele>906</ele>
        <time>2017-03-04T04:29:51Z</time>
      </trkpt>
      <trkpt lat="44.35751" lon="3.42643">
        <ele>904</ele>
        <time>2017-03-04T04:31:51Z</time>
      </trkpt>
      <trkpt lat="44.35767" lon="3.42633">
        <ele>903</ele>
        <time>2017-03-04T04:33:51Z</time>
      </trkpt>
      <trkpt lat="44.35798" lon="3.42619">
        <ele>900</ele>
        <time>2017-03-04T04:35:51Z</time>
      </trkpt>
      <trkpt lat="44.35817" lon="3.42613">
        <ele>896</ele>
        <time>2017-03-04T04:37:51Z</time>
      </trkpt>
      <trkpt lat="44.35845" lon="3.42612">
        <ele>884</ele>
        <time>2017-03-04T04:39:51Z</time>
      </trkpt>
      <trkpt lat="44.35865" lon="3.42615">
        <ele>871</ele>
        <time>2017-03-04T04:41:51Z</time>
      </trkpt>
      <trkpt lat="44.35869" lon="3.42617">
        <ele>868</ele>
        <time>2017-03-04T04:43:51Z</time>
      </trkpt>
      <trkpt lat="44.3587" lon="3.4262">
        <ele>866</ele>
        <time>2017-03-04T04:45:51Z</time>
      </trkpt>
      <trkpt lat="44.3587" lon="3.42621">
        <ele>866</ele>
        <time>2017-03-04T04:47:51Z</time>
      </trkpt>
      <trkpt lat="44.35867" lon="3.42625">
        <ele>866</ele>
        <time>2017-03-04T04:49:51Z</time>
      </trkpt>
      <trkpt lat="44.35863" lon="3.42626">
        <ele>867</ele>
        <time>2017-03-04T04:51:51Z</time>
      </trkpt>
      <trkpt lat="44.3584" lon="3.42638">
        <ele>873</ele>
        <time>2017-03-04T04:53:51Z</time>
      </trkpt>
      <trkpt lat="44.35834" lon="3.4264">
        <ele>875</ele>
        <time>2017-03-04T04:55:51Z</time>
      </trkpt>
      <trkpt lat="44.35832" lon="3.42643">
        <ele>874</ele>
        <time>2017-03-04T04:57:51Z</time>
      </trkpt>
      <trkpt lat="44.35831" lon="3.42645">
        <ele>873</ele>
        <time>2017-03-04T04:59:51Z</time>
      </trkpt>
      <trkpt lat="44.35832" lon="3.42647">
        <ele>872</ele>
        <time>2017-03-04T05:01:51Z</time>
      </trkpt>
      <trkpt lat="44.35833" lon="3.42649">
        <ele>870</ele>
        <time>2017-03-04T05:03:51Z</time>
      </trkpt>
      <trkpt lat="44.35835" lon="3.42649">
        <ele>869</ele>
        <time>2017-03-04T05:05:51Z</time>
      </trkpt>
      <trkpt lat="44.35837" lon="3.42649">
        <ele>868</ele>
        <time>2017-03-04T05:07:51Z</time>
      </trkpt>
      <trkpt lat="44.35856" lon="3.4265">
        <ele>860</ele>
        <time>2017-03-04T05:09:51Z</time>
      </trkpt>
      <trkpt lat="44.35866" lon="3.42655">
        <ele>854</ele>
        <time>2017-03-04T05:11:51Z</time>
      </trkpt>
      <trkpt lat="44.35873" lon="3.42663">
        <ele>848</ele>
        <time>2017-03-04T05:13:51Z</time>
      </trkpt>
      <trkpt lat="44.3588" lon="3.42667">
        <ele>844</ele>
        <time>2017-03-04T05:15:51Z</time>
      </trkpt>
      <trkpt lat="44.35889" lon="3.4266">
        <ele>843</ele>
        <time>2017-03-04T05:17:51Z</time>
      </trkpt>
      <trkpt lat="44.35896" lon="3.42646">
        <ele>844</ele>
        <time>2017-03-04T05:19:51Z</time>
      </trkpt>
      <trkpt lat="44.35899" lon="3.42623">
        <ele>849</ele>
        <time>2017-03-04T05:21:51Z</time>
      </trkpt>
      <trkpt lat="44.35904" lon="3.4258">
        <ele>858</ele>
        <time>2017-03-04T05:23:51Z</time>
      </trkpt>
      <trkpt lat="44.35915" lon="3.4254">
        <ele>858</ele>
        <time>2017-03-04T05:25:51Z</time>
      </trkpt>
      <trkpt lat="44.35939" lon="3.42482">
        <ele>852</ele>
        <time>2017-03-04T05:27:51Z</time>
      </trkpt>
      <trkpt lat="44.35976" lon="3.42412">
        <ele>841</ele>
        <time>2017-03-04T05:29:51Z</time>
      </trkpt>
      <trkpt lat="44.35996" lon="3.42382">
        <ele>834</ele>
        <time>2017-03-04T05:31:51Z</time>
      </trkpt>
      <trkpt lat="44.36017" lon="3.42365">
        <ele>827</ele>
        <time>2017-03-04T05:33:51Z</time>
      </trkpt>
      <trkpt lat="44.36034" lon="3.42351">
        <ele>820</ele>
        <time>2017-03-04T05:35:51Z</time>
      </trkpt>
      <trkpt lat="44.36042" lon="3.42338">
        <ele>818</ele>
        <time>2017-03-04T05:37:51Z</time>
      </trkpt>
      <trkpt lat="44.36045" lon="3.42327">
        <ele>818</ele>
        <time>2017-03-04T05:39:51Z</time>
      </trkpt>
      <trkpt lat="44.36046" lon="3.42273">
        <ele>826</ele>
        <time>2017-03-04T05:41:51Z</time>
      </trkpt>
      <trkpt lat="44.3605" lon="3.42247">
        <ele>827</ele>
        <time>2017-03-04T05:43:51Z</time>
      </trkpt>
      <trkpt lat="44.36071" lon="3.42206">
        <ele>813</ele>
        <time>2017-03-04T05:45:51Z</time>
      </trkpt>
      <trkpt lat="44.36095" lon="3.4217">
        <ele>798</ele>
        <time>2017-03-04T05:47:51Z</time>
      </trkpt>
      <trkpt lat="44.36109" lon="3.42155">
        <ele>788</ele>
        <time>2017-03-04T05:49:51Z</time>
      </trkpt>
      <trkpt lat="44.36113" lon="3.42147">
        <ele>785</ele>
        <time>2017-03-04T05:51:51Z</time>
      </trkpt>
      <trkpt lat="44.36114" lon="3.42133">
        <ele>783</ele>
        <time>2017-03-04T05:53:51Z</time>
      </trkpt>
      <trkpt lat="44.36111" lon="3.42121">
        <ele>783</ele>
        <time>2017-03-04T05:55:51Z</time>
      </trkpt>
      <trkpt lat="44.36109" lon="3.42108">
        <ele>783</ele>
        <time>2017-03-04T05:57:51Z</time>
      </trkpt>
      <trkpt lat="44.36102" lon="3.42096">
        <ele>786</ele>
        <time>2017-03-04T05:59:51Z</time>
      </trkpt>
      <trkpt lat="44.36085" lon="3.42066">
        <ele>794</ele>
        <time>2017-03-04T06:01:51Z</time>
      </trkpt>
      <trkpt lat="44.36081" lon="3.42053">
        <ele>796</ele>
        <time>2017-03-04T06:03:51Z</time>
      </trkpt>
      <trkpt lat="44.3608" lon="3.42035">
        <ele>795</ele>
        <time>2017-03-04T06:05:51Z</time>
      </trkpt>
      <trkpt lat="44.36056" lon="3.41902">
        <ele>787</ele>
        <time>2017-03-04T06:07:51Z</time>
      </trkpt>
      <trkpt lat="44.36056" lon="3.41896">
        <ele>785</ele>
        <time>2017-03-04T06:09:51Z</time>
      </trkpt>
      <trkpt lat="44.36057" lon="3.41888">
        <ele>782</ele>
        <time>2017-03-04T06:11:51Z</time>
      </trkpt>
      <trkpt lat="44.3606" lon="3.41882">
        <ele>778</ele>
        <time>2017-03-04T06:13:51Z</time>
      </trkpt>
      <trkpt lat="44.36064" lon="3.41878">
        <ele>775</ele>
        <time>2017-03-04T06:15:51Z</time>
      </trkpt>
      <trkpt lat="44.36079" lon="3.41874">
        <ele>765</ele>
        <time>2017-03-04T06:17:51Z</time>
      </trkpt>
      <trkpt lat="44.36084" lon="3.41871">
        <ele>761</ele>
        <time>2017-03-04T06:19:51Z</time>
      </trkpt>
      <trkpt lat="44.36087" lon="3.41867">
        <ele>759</ele>
        <time>2017-03-04T06:21:51Z</time>
      </trkpt>
      <trkpt lat="44.36088" lon="3.41864">
        <ele>757</ele>
        <time>2017-03-04T06:23:51Z</time>
      </trkpt>
      <trkpt lat="44.36087" lon="3.41862">
        <ele>757</ele>
        <time>2017-03-04T06:25:51Z</time>
      </trkpt>
      <trkpt lat="44.36083" lon="3.41858">
        <ele>757</ele>
        <time>2017-03-04T06:27:51Z</time>
      </trkpt>
      <trkpt lat="44.36062" lon="3.41838">
        <ele>764</ele>
        <time>2017-03-04T06:29:51Z</time>
      </trkpt>
      <trkpt lat="44.36059" lon="3.41835">
        <ele>765</ele>
        <time>2017-03-04T06:31:51Z</time>
      </trkpt>
      <trkpt lat="44.36059" lon="3.41829">
        <ele>762</ele>
        <time>2017-03-04T06:33:51Z</time>
      </trkpt>
      <trkpt lat="44.36059" lon="3.41821">
        <ele>759</ele>
        <time>2017-03-04T06:35:51Z</time>
      </trkpt>
      <trkpt lat="44.3606" lon="3.41815">
        <ele>755</ele>
        <time>2017-03-04T06:37:51Z</time>
      </trkpt>
      <trkpt lat="44.36062" lon="3.41813">
        <ele>753</ele>
        <time>2017-03-04T06:39:51Z</time>
      </trkpt>
      <trkpt lat="44.36066" lon="3.41813">
        <ele>750</ele>
        <time>2017-03-04T06:41:51Z</time>
      </trkpt>
      <trkpt lat="44.36084" lon="3.41818">
        <ele>741</ele>
        <time>2017-03-04T06:43:51Z</time>
      </trkpt>
      <trkpt lat="44.36096" lon="3.41818">
        <ele>735</ele>
        <time>2017-03-04T06:45:51Z</time>
      </trkpt>
      <trkpt lat="44.36103" lon="3.41814">
        <ele>730</ele>
        <time>2017-03-04T06:47:51Z</time>
      </trkpt>
      <trkpt lat="44.36106" lon="3.41812">
        <ele>728</ele>
        <time>2017-03-04T06:49:51Z</time>
      </trkpt>
      <trkpt lat="44.36109" lon="3.41811">
        <ele>726</ele>
        <time>2017-03-04T06:51:51Z</time>
      </trkpt>
      <trkpt lat="44.36112" lon="3.41812">
        <ele>725</ele>
        <time>2017-03-04T06:53:51Z</time>
      </trkpt>
      <trkpt lat="44.36115" lon="3.41816">
        <ele>726</ele>
        <time>2017-03-04T06:55:51Z</time>
      </trkpt>
      <trkpt lat="44.36123" lon="3.41821">
        <ele>725</ele>
        <time>2017-03-04T06:57:51Z</time>
      </trkpt>
      <trkpt lat="44.36152" lon="3.41826">
        <ele>715</ele>
        <time>2017-03-04T06:59:51Z</time>
      </trkpt>
      <trkpt lat="44.36172" lon="3.41824">
        <ele>704</ele>
        <time>2017-03-04T07:01:51Z</time>
      </trkpt>
      <trkpt lat="44.36198" lon="3.41819">
        <ele>688</ele>
        <time>2017-03-04T07:03:51Z</time>
      </trkpt>
      <trkpt lat="44.36199" lon="3.41819">
        <ele>687</ele>
        <time>2017-03-04T07:05:51Z</time>
      </trkpt>
      <trkpt lat="44.362" lon="3.41818">
        <ele>686</ele>
        <time>2017-03-04T07:07:51Z</time>
      </trkpt>
      <trkpt lat="44.36201" lon="3.41816">
        <ele>685</ele>
        <time>2017-03-04T07:09:51Z</time>
      </trkpt>
      <trkpt lat="44.36201" lon="3.41815">
        <ele>685</ele>
        <time>2017-03-04T07:11:51Z</time>
      </trkpt>
      <trkpt lat="44.362" lon="3.41813">
        <ele>684</ele>
        <time>2017-03-04T07:13:51Z</time>
      </trkpt>
      <trkpt lat="44.36199" lon="3.41812">
        <ele>685</ele>
        <time>2017-03-04T07:15:51Z</time>
      </trkpt>
      <trkpt lat="44.36193" lon="3.41812">
        <ele>688</ele>
        <time>2017-03-04T07:17:51Z</time>
      </trkpt>
      <trkpt lat="44.36169" lon="3.41805">
        <ele>696</ele>
        <time>2017-03-04T07:19:51Z</time>
      </trkpt>
      <trkpt lat="44.3614" lon="3.41796">
        <ele>704</ele>
        <time>2017-03-04T07:21:51Z</time>
      </trkpt>
      <trkpt lat="44.3613" lon="3.41792">
        <ele>706</ele>
        <time>2017-03-04T07:23:51Z</time>
      </trkpt>
      <trkpt lat="44.3613" lon="3.41791">
        <ele>706</ele>
        <time>2017-03-04T07:25:51Z</time>
      </trkpt>
      <trkpt lat="44.36131" lon="3.41788">
        <ele>704</ele>
        <time>2017-03-04T07:27:51Z</time>
      </trkpt>
      <trkpt lat="44.3614" lon="3.41782">
        <ele>697</ele>
        <time>2017-03-04T07:29:51Z</time>
      </trkpt>
      <trkpt lat="44.36155" lon="3.41775">
        <ele>686</ele>
        <time>2017-03-04T07:31:51Z</time>
      </trkpt>
      <trkpt lat="44.36176" lon="3.41766">
        <ele>674</ele>
        <time>2017-03-04T07:33:51Z</time>
      </trkpt>
      <trkpt lat="44.36203" lon="3.41757">
        <ele>662</ele>
        <time>2017-03-04T07:35:51Z</time>
      </trkpt>
      <trkpt lat="44.36232" lon="3.4175">
        <ele>652</ele>
        <time>2017-03-04T07:37:51Z</time>
      </trkpt>
      <trkpt lat="44.36253" lon="3.41747">
        <ele>645</ele>
        <time>2017-03-04T07:39:51Z</time>
      </trkpt>
      <trkpt lat="44.36261" lon="3.41749">
        <ele>643</ele>
        <time>2017-03-04T07:41:51Z</time>
      </trkpt>
      <trkpt lat="44.36269" lon="3.41761">
        <ele>641</ele>
        <time>2017-03-04T07:43:51Z</time>
      </trkpt>
      <trkpt lat="44.36278" lon="3.41781">
        <ele>639</ele>
        <time>2017-03-04T07:45:51Z</time>
      </trkpt>
      <trkpt lat="44.36279" lon="3.41783">
        <ele>639</ele>
        <time>2017-03-04T07:47:51Z</time>
      </trkpt>
      <trkpt lat="44.3628" lon="3.41783">
        <ele>639</ele>
        <time>2017-03-04T07:49:51Z</time>
      </trkpt>
      <trkpt lat="44.36284" lon="3.41768">
        <ele>635</ele>
        <time>2017-03-04T07:51:51Z</time>
      </trkpt>
      <trkpt lat="44.36282" lon="3.41736">
        <ele>630</ele>
        <time>2017-03-04T07:53:51Z</time>
      </trkpt>
      <trkpt lat="44.3628" lon="3.41716">
        <ele>624</ele>
        <time>2017-03-04T07:55:51Z</time>
      </trkpt>
      <trkpt lat="44.36276" lon="3.41706">
        <ele>622</ele>
        <time>2017-03-04T07:57:51Z</time>
      </trkpt>
      <trkpt lat="44.36275" lon="3.41704">
        <ele>622</ele>
        <time>2017-03-04T07:59:51Z</time>
      </trkpt>
      <trkpt lat="44.36276" lon="3.41703">
        <ele>622</ele>
        <time>2017-03-04T08:01:51Z</time>
      </trkpt>
      <trkpt lat="44.36282" lon="3.41704">
        <ele>620</ele>
        <time>2017-03-04T08:03:51Z</time>
      </trkpt>
      <trkpt lat="44.36291" lon="3.41711">
        <ele>619</ele>
        <time>2017-03-04T08:05:51Z</time>
      </trkpt>
      <trkpt lat="44.36294" lon="3.41712">
        <ele>619</ele>
        <time>2017-03-04T08:07:51Z</time>
      </trkpt>
      <trkpt lat="44.36296" lon="3.41712">
        <ele>618</ele>
        <time>2017-03-04T08:09:51Z</time>
      </trkpt>
      <trkpt lat="44.36297" lon="3.4171">
        <ele>617</ele>
        <time>2017-03-04T08:11:51Z</time>
      </trkpt>
      <trkpt lat="44.36297" lon="3.41709">
        <ele>617</ele>
        <time>2017-03-04T08:13:51Z</time>
      </trkpt>
      <trkpt lat="44.36296" lon="3.41702">
        <ele>616</ele>
        <time>2017-03-04T08:15:51Z</time>
      </trkpt>
      <trkpt lat="44.36296" lon="3.41701">
        <ele>615</ele>
        <time>2017-03-04T08:17:51Z</time>
      </trkpt>
      <trkpt lat="44.36296" lon="3.417">
        <ele>615</ele>
        <time>2017-03-04T08:19:51Z</time>
      </trkpt>
      <trkpt lat="44.36297" lon="3.417">
        <ele>615</ele>
        <time>2017-03-04T08:21:51Z</time>
      </trkpt>
      <trkpt lat="44.36301" lon="3.41702">
        <ele>614</ele>
        <time>2017-03-04T08:23:51Z</time>
      </trkpt>
      <trkpt lat="44.36304" lon="3.41708">
        <ele>615</ele>
        <time>2017-03-04T08:25:51Z</time>
      </trkpt>
      <trkpt lat="44.36305" lon="3.41709">
        <ele>615</ele>
        <time>2017-03-04T08:27:51Z</time>
      </trkpt>
      <trkpt lat="44.36306" lon="3.4171">
        <ele>615</ele>
        <time>2017-03-04T08:29:51Z</time>
      </trkpt>
      <trkpt lat="44.36307" lon="3.41709">
        <ele>614</ele>
        <time>2017-03-04T08:31:51Z</time>
      </trkpt>
      <trkpt lat="44.36307" lon="3.41708">
        <ele>614</ele>
        <time>2017-03-04T08:33:51Z</time>
      </trkpt>
      <trkpt lat="44.36308" lon="3.41707">
        <ele>613</ele>
        <time>2017-03-04T08:35:51Z</time>
      </trkpt>
      <trkpt lat="44.36307" lon="3.41706">
        <ele>613</ele>
        <time>2017-03-04T08:37:51Z</time>
      </trkpt>
      <trkpt lat="44.36306" lon="3.417">
        <ele>612</ele>
        <time>2017-03-04T08:39:51Z</time>
      </trkpt>
      <trkpt lat="44.36306" lon="3.41696">
        <ele>612</ele>
        <time>2017-03-04T08:41:51Z</time>
      </trkpt>
      <trkpt lat="44.36306" lon="3.41693">
        <ele>611</ele>
        <time>2017-03-04T08:43:51Z</time>
      </trkpt>
      <trkpt lat="44.36307" lon="3.41692">
        <ele>610</ele>
        <time>2017-03-04T08:45:51Z</time>
      </trkpt>
      <trkpt lat="44.36307" lon="3.41691">
        <ele>610</ele>
        <time>2017-03-04T08:47:51Z</time>
      </trkpt>
      <trkpt lat="44.36308" lon="3.41691">
        <ele>610</ele>
        <time>2017-03-04T08:49:51Z</time>
      </trkpt>
      <trkpt lat="44.36309" lon="3.41692">
        <ele>610</ele>
        <time>2017-03-04T08:51:51Z</time>
      </trkpt>
      <trkpt lat="44.3631" lon="3.41693">
        <ele>610</ele>
        <time>2017-03-04T08:53:51Z</time>
      </trkpt>
      <trkpt lat="44.36313" lon="3.41701">
        <ele>611</ele>
        <time>2017-03-04T08:55:51Z</time>
      </trkpt>
      <trkpt lat="44.36316" lon="3.41708">
        <ele>611</ele>
        <time>2017-03-04T08:57:51Z</time>
      </trkpt>
      <trkpt lat="44.3632" lon="3.41736">
        <ele>615</ele>
        <time>2017-03-04T08:59:51Z</time>
      </trkpt>
      <trkpt lat="44.36321" lon="3.41738">
        <ele>615</ele>
        <time>2017-03-04T09:01:51Z</time>
      </trkpt>
      <trkpt lat="44.36322" lon="3.41739">
        <ele>614</ele>
        <time>2017-03-04T09:03:51Z</time>
      </trkpt>
      <trkpt lat="44.36324" lon="3.41738">
        <ele>613</ele>
        <time>2017-03-04T09:05:51Z</time>
      </trkpt>
      <trkpt lat="44.36324" lon="3.41736">
        <ele>613</ele>
        <time>2017-03-04T09:07:51Z</time>
      </trkpt>
      <trkpt lat="44.36326" lon="3.4172">
        <ele>610</ele>
        <time>2017-03-04T09:09:51Z</time>
      </trkpt>
      <trkpt lat="44.36333" lon="3.41693">
        <ele>604</ele>
        <time>2017-03-04T09:11:51Z</time>
      </trkpt>
      <trkpt lat="44.3634" lon="3.4167">
        <ele>598</ele>
        <time>2017-03-04T09:13:51Z</time>
      </trkpt>
      <trkpt lat="44.3634" lon="3.41666">
        <ele>597</ele>
        <time>2017-03-04T09:15:51Z</time>
      </trkpt>
      <trkpt lat="44.36339" lon="3.41662">
        <ele>597</ele>
        <time>2017-03-04T09:17:51Z</time>
      </trkpt>
      <trkpt lat="44.36339" lon="3.4166">
        <ele>596</ele>
        <time>2017-03-04T09:19:51Z</time>
      </trkpt>
      <trkpt lat="44.36341" lon="3.41658">
        <ele>594</ele>
        <time>2017-03-04T09:21:51Z</time>
      </trkpt>
      <trkpt lat="44.36342" lon="3.41658">
        <ele>594</ele>
        <time>2017-03-04T09:23:51Z</time>
      </trkpt>
      <trkpt lat="44.36345" lon="3.41663">
        <ele>594</ele>
        <time>2017-03-04T09:25:51Z</time>
      </trkpt>
      <trkpt lat="44.36345" lon="3.41669">
        <ele>595</ele>
        <time>2017-03-04T09:27:51Z</time>
      </trkpt>
      <trkpt lat="44.36347" lon="3.41669">
        <ele>594</ele>
        <time>2017-03-04T09:29:51Z</time>
      </trkpt>
      <trkpt lat="44.36348" lon="3.41668">
        <ele>594</ele>
        <time>2017-03-04T09:31:51Z</time>
      </trkpt>
      <trkpt lat="44.36349" lon="3.41659">
        <ele>591</ele>
        <time>2017-03-04T09:33:51Z</time>
      </trkpt>
      <trkpt lat="44.3635" lon="3.41656">
        <ele>590</ele>
        <time>2017-03-04T09:35:51Z</time>
      </trkpt>
      <trkpt lat="44.36352" lon="3.41656">
        <ele>589</ele>
        <time>2017-03-04T09:37:51Z</time>
      </trkpt>
      <trkpt lat="44.36354" lon="3.41659">
        <ele>589</ele>
        <time>2017-03-04T09:39:51Z</time>
      </trkpt>
      <trkpt lat="44.36353" lon="3.4167">
        <ele>591</ele>
        <time>2017-03-04T09:41:51Z</time>
      </trkpt>
      <trkpt lat="44.36353" lon="3.41671">
        <ele>591</ele>
        <time>2017-03-04T09:43:51Z</time>
      </trkpt>
      <trkpt lat="44.36356" lon="3.41672">
        <ele>590</ele>
        <time>2017-03-04T09:45:51Z</time>
      </trkpt>
      <trkpt lat="44.36357" lon="3.41671">
        <ele>589</ele>
        <time>2017-03-04T09:47:51Z</time>
      </trkpt>
      <trkpt lat="44.3636" lon="3.41661">
        <ele>586</ele>
        <time>2017-03-04T09:49:51Z</time>
      </trkpt>
      <trkpt lat="44.36362" lon="3.41641">
        <ele>580</ele>
        <time>2017-03-04T09:51:51Z</time>
      </trkpt>
      <trkpt lat="44.36362" lon="3.4164">
        <ele>580</ele>
        <time>2017-03-04T09:53:51Z</time>
      </trkpt>
      <trkpt lat="44.36364" lon="3.41639">
        <ele>579</ele>
        <time>2017-03-04T09:55:51Z</time>
      </trkpt>
      <trkpt lat="44.36367" lon="3.41639">
        <ele>578</ele>
        <time>2017-03-04T09:57:51Z</time>
      </trkpt>
      <trkpt lat="44.36368" lon="3.41638">
        <ele>577</ele>
        <time>2017-03-04T09:59:51Z</time>
      </trkpt>
      <trkpt lat="44.36368" lon="3.41636">
        <ele>577</ele>
        <time>2017-03-04T10:01:51Z</time>
      </trkpt>
      <trkpt lat="44.36369" lon="3.4163">
        <ele>575</ele>
        <time>2017-03-04T10:03:51Z</time>
      </trkpt>
      <trkpt lat="44.36372" lon="3.41623">
        <ele>573</ele>
        <time>2017-03-04T10:05:51Z</time>
      </trkpt>
      <trkpt lat="44.36377" lon="3.41614">
        <ele>569</ele>
        <time>2017-03-04T10:07:51Z</time>
      </trkpt>
      <trkpt lat="44.36378" lon="3.41613">
        <ele>569</ele>
        <time>2017-03-04T10:09:51Z</time>
      </trkpt>
      <trkpt lat="44.36377" lon="3.41612">
        <ele>569</ele>
        <time>2017-03-04T10:11:51Z</time>
      </trkpt>
      <trkpt lat="44.36375" lon="3.41612">
        <ele>570</ele>
        <time>2017-03-04T10:13:51Z</time>
      </trkpt>
      <trkpt lat="44.36369" lon="3.41615">
        <ele>572</ele>
        <time>2017-03-04T10:15:51Z</time>
      </trkpt>
      <trkpt lat="44.36361" lon="3.41617">
        <ele>575</ele>
        <time>2017-03-04T10:17:51Z</time>
      </trkpt>
      <trkpt lat="44.36351" lon="3.41615">
        <ele>578</ele>
        <time>2017-03-04T10:19:51Z</time>
      </trkpt>
      <trkpt lat="44.3634" lon="3.41613">
        <ele>580</ele>
        <time>2017-03-04T10:21:51Z</time>
      </trkpt>
      <trkpt lat="44.3634" lon="3.41612">
        <ele>580</ele>
        <time>2017-03-04T10:23:51Z</time>
      </trkpt>
      <trkpt lat="44.36341" lon="3.4161">
        <ele>579</ele>
        <time>2017-03-04T10:25:51Z</time>
      </trkpt>
      <trkpt lat="44.36359" lon="3.41603">
        <ele>572</ele>
        <time>2017-03-04T10:27:51Z</time>
      </trkpt>
      <trkpt lat="44.36359" lon="3.41601">
        <ele>572</ele>
        <time>2017-03-04T10:29:51Z</time>
      </trkpt>
      <trkpt lat="44.36359" lon="3.416">
        <ele>571</ele>
        <time>2017-03-04T10:31:51Z</time>
      </trkpt>
      <trkpt lat="44.36355" lon="3.416">
        <ele>572</ele>
        <time>2017-03-04T10:33:51Z</time>
      </trkpt>
      <trkpt lat="44.36349" lon="3.41601">
        <ele>574</ele>
        <time>2017-03-04T10:35:51Z</time>
      </trkpt>
      <trkpt lat="44.3634" lon="3.41597">
        <ele>575</ele>
        <time>2017-03-04T10:37:51Z</time>
      </trkpt>
      <trkpt lat="44.36329" lon="3.41594">
        <ele>576</ele>
        <time>2017-03-04T10:39:51Z</time>
      </trkpt>
      <trkpt lat="44.36308" lon="3.41591">
        <ele>577</ele>
        <time>2017-03-04T10:41:51Z</time>
      </trkpt>
      <trkpt lat="44.36293" lon="3.41587">
        <ele>576</ele>
        <time>2017-03-04T10:43:51Z</time>
      </trkpt>
      <trkpt lat="44.36274" lon="3.41578">
        <ele>574</ele>
        <time>2017-03-04T10:45:51Z</time>
      </trkpt>
      <trkpt lat="44.36257" lon="3.41572">
        <ele>572</ele>
        <time>2017-03-04T10:47:51Z</time>
      </trkpt>
      <trkpt lat="44.36236" lon="3.41567">
        <ele>574</ele>
        <time>2017-03-04T10:49:51Z</time>
      </trkpt>
      <trkpt lat="44.36225" lon="3.41566">
        <ele>577</ele>
        <time>2017-03-04T10:51:51Z</time>
      </trkpt>
      <trkpt lat="44.36225" lon="3.41565">
        <ele>576</ele>
        <time>2017-03-04T10:53:51Z</time>
      </trkpt>
      <trkpt lat="44.36224" lon="3.41564">
        <ele>576</ele>
        <time>2017-03-04T10:55:51Z</time>
      </trkpt>
      <trkpt lat="44.36224" lon="3.41563">
        <ele>575</ele>
        <time>2017-03-04T10:57:51Z</time>
      </trkpt>
      <trkpt lat="44.36226" lon="3.41561">
        <ele>574</ele>
        <time>2017-03-04T10:59:51Z</time>
      </trkpt>
      <trkpt lat="44.36228" lon="3.41559">
        <ele>573</ele>
        <time>2017-03-04T11:01:51Z</time>
      </trkpt>
      <trkpt lat="44.3623" lon="3.41558">
        <ele>572</ele>
        <time>2017-03-04T11:03:51Z</time>
      </trkpt>
      <trkpt lat="44.36234" lon="3.41558">
        <ele>570</ele>
        <time>2017-03-04T11:05:51Z</time>
      </trkpt>
      <trkpt lat="44.36235" lon="3.41558">
        <ele>570</ele>
        <time>2017-03-04T11:07:51Z</time>
      </trkpt>
      <trkpt lat="44.36236" lon="3.41557">
        <ele>569</ele>
        <time>2017-03-04T11:09:51Z</time>
      </trkpt>
      <trkpt lat="44.36237" lon="3.41556">
        <ele>569</ele>
        <time>2017-03-04T11:11:51Z</time>
      </trkpt>
      <trkpt lat="44.36237" lon="3.41554">
        <ele>568</ele>
        <time>2017-03-04T11:13:51Z</time>
      </trkpt>
      <trkpt lat="44.36236" lon="3.41554">
        <ele>568</ele>
        <time>2017-03-04T11:15:51Z</time>
      </trkpt>
      <trkpt lat="44.36235" lon="3.41553">
        <ele>568</ele>
        <time>2017-03-04T11:17:51Z</time>
      </trkpt>
      <trkpt lat="44.36234" lon="3.41552">
        <ele>568</ele>
        <time>2017-03-04T11:19:51Z</time>
      </trkpt>
      <trkpt lat="44.36233" lon="3.41551">
        <ele>567</ele>
        <time>2017-03-04T11:21:51Z</time>
      </trkpt>
      <trkpt lat="44.36227" lon="3.41544">
        <ele>566</ele>
        <time>2017-03-04T11:23:51Z</time>
      </trkpt>
      <trkpt lat="44.36225" lon="3.41534">
        <ele>562</ele>
        <time>2017-03-04T11:25:51Z</time>
      </trkpt>
      <trkpt lat="44.36224" lon="3.41531">
        <ele>561</ele>
        <time>2017-03-04T11:27:51Z</time>
      </trkpt>
      <trkpt lat="44.36224" lon="3.4153">
        <ele>561</ele>
        <time>2017-03-04T11:29:51Z</time>
      </trkpt>
      <trkpt lat="44.36224" lon="3.41529">
        <ele>560</ele>
        <time>2017-03-04T11:31:51Z</time>
      </trkpt>
      <trkpt lat="44.36229" lon="3.41526">
        <ele>557</ele>
        <time>2017-03-04T11:33:51Z</time>
      </trkpt>
      <trkpt lat="44.36241" lon="3.41525">
        <ele>553</ele>
        <time>2017-03-04T11:35:51Z</time>
      </trkpt>
      <trkpt lat="44.3625" lon="3.41527">
        <ele>551</ele>
        <time>2017-03-04T11:37:51Z</time>
      </trkpt>
      <trkpt lat="44.36253" lon="3.41527">
        <ele>551</ele>
        <time>2017-03-04T11:39:51Z</time>
      </trkpt>
      <trkpt lat="44.36268" lon="3.41515">
        <ele>545</ele>
        <time>2017-03-04T11:41:51Z</time>
      </trkpt>
      <trkpt lat="44.36281" lon="3.41509">
        <ele>542</ele>
        <time>2017-03-04T11:43:51Z</time>
      </trkpt>
      <trkpt lat="44.36299" lon="3.41504">
        <ele>540</ele>
        <time>2017-03-04T11:45:51Z</time>
      </trkpt>
      <trkpt lat="44.36315" lon="3.41494">
        <ele>536</ele>
        <time>2017-03-04T11:47:51Z</time>
      </trkpt>
      <trkpt lat="44.36334" lon="3.41477">
        <ele>529</ele>
        <time>2017-03-04T11:49:51Z</time>
      </trkpt>
      <trkpt lat="44.36342" lon="3.41463">
        <ele>523</ele>
        <time>2017-03-04T11:51:51Z</time>
      </trkpt>
      <trkpt lat="44.36348" lon="3.41457">
        <ele>521</ele>
        <time>2017-03-04T11:53:51Z</time>
      </trkpt>
      <trkpt lat="44.3636" lon="3.41448">
        <ele>517</ele>
        <time>2017-03-04T11:55:51Z</time>
      </trkpt>
      <trkpt lat="44.36374" lon="3.41436">
        <ele>513</ele>
        <time>2017-03-04T11:57:51Z</time>
      </trkpt>
      <trkpt lat="44.36378" lon="3.41433">
        <ele>512</ele>
        <time>2017-03-04T11:59:51Z</time>
      </trkpt>
      <trkpt lat="44.36381" lon="3.41429">
        <ele>511</ele>
        <time>2017-03-04T12:01:51Z</time>
      </trkpt>
      <trkpt lat="44.36386" lon="3.41415">
        <ele>506</ele>
        <time>2017-03-04T12:03:51Z</time>
      </trkpt>
      <trkpt lat="44.36386" lon="3.41415">
        <ele>506</ele>
        <time>2017-03-04T12:05:51Z</time>
      </trkpt>
      <trkpt lat="44.36392" lon="3.41412">
        <ele>506</ele>
        <time>2017-03-04T12:07:51Z</time>
      </trkpt>
      <trkpt lat="44.36412" lon="3.41392">
        <ele>502</ele>
        <time>2017-03-04T12:09:51Z</time>
      </trkpt>
      <trkpt lat="44.36422" lon="3.41382">
        <ele>498</ele>
        <time>2017-03-04T12:11:51Z</time>
      </trkpt>
      <trkpt lat="44.36427" lon="3.41371">
        <ele>495</ele>
        <time>2017-03-04T12:13:51Z</time>
      </trkpt>
      <trkpt lat="44.36431" lon="3.41361">
        <ele>492</ele>
        <time>2017-03-04T12:15:51Z</time>
      </trkpt>
      <trkpt lat="44.36435" lon="3.41356">
        <ele>490</ele>
        <time>2017-03-04T12:17:51Z</time>
      </trkpt>
      <trkpt lat="44.36442" lon="3.4135">
        <ele>488</ele>
        <time>2017-03-04T12:19:51Z</time>
      </trkpt>
      <trkpt lat="44.36448" lon="3.41334">
        <ele>484</ele>
        <time>2017-03-04T12:21:51Z</time>
      </trkpt>
      <trkpt lat="44.36451" lon="3.41325">
        <ele>483</ele>
        <time>2017-03-04T12:23:51Z</time>
      </trkpt>
      <trkpt lat="44.36453" lon="3.41315">
        <ele>482</ele>
        <time>2017-03-04T12:25:51Z</time>
      </trkpt>
      <trkpt lat="44.36454" lon="3.41305">
        <ele>481</ele>
        <time>2017-03-04T12:27:51Z</time>
      </trkpt>
      <trkpt lat="44.36455" lon="3.41293">
        <ele>480</ele>
        <time>2017-03-04T12:29:51Z</time>
      </trkpt>
      <trkpt lat="44.36456" lon="3.41286">
        <ele>479</ele>
        <time>2017-03-04T12:31:51Z</time>
      </trkpt>
      <trkpt lat="44.36456" lon="3.4128">
        <ele>479</ele>
        <time>2017-03-04T12:33:51Z</time>
      </trkpt>
      <trkpt lat="44.36455" lon="3.41274">
        <ele>478</ele>
        <time>2017-03-04T12:35:51Z</time>
      </trkpt>
      <trkpt lat="44.36455" lon="3.4127">
        <ele>478</ele>
        <time>2017-03-04T12:37:51Z</time>
      </trkpt>
      <trkpt lat="44.36455" lon="3.41266">
        <ele>477</ele>
        <time>2017-03-04T12:39:51Z</time>
      </trkpt>
      <trkpt lat="44.36458" lon="3.41256">
        <ele>476</ele>
        <time>2017-03-04T12:41:51Z</time>
      </trkpt>
      <trkpt lat="44.36462" lon="3.41246">
        <ele>476</ele>
        <time>2017-03-04T12:43:51Z</time>
      </trkpt>
      <trkpt lat="44.36465" lon="3.41238">
        <ele>475</ele>
        <time>2017-03-04T12:45:51Z</time>
      </trkpt>
      <trkpt lat="44.36468" lon="3.41233">
        <ele>475</ele>
        <time>2017-03-04T12:47:51Z</time>
      </trkpt>
      <trkpt lat="44.3647" lon="3.41229">
        <ele>474</ele>
        <time>2017-03-04T12:49:51Z</time>
      </trkpt>
      <trkpt lat="44.3647" lon="3.41227">
        <ele>474</ele>
        <time>2017-03-04T12:51:51Z</time>
      </trkpt>
      <trkpt lat="44.3647" lon="3.41225">
        <ele>474</ele>
        <time>2017-03-04T12:53:51Z</time>
      </trkpt>
      <trkpt lat="44.36469" lon="3.41222">
        <ele>474</ele>
        <time>2017-03-04T12:55:51Z</time>
      </trkpt>
      <trkpt lat="44.36467" lon="3.4122">
        <ele>474</ele>
        <time>2017-03-04T12:57:51Z</time>
      </trkpt>
      <trkpt lat="44.36463" lon="3.41216">
        <ele>474</ele>
        <time>2017-03-04T12:59:51Z</time>
      </trkpt>
      <trkpt lat="44.3646" lon="3.41212">
        <ele>474</ele>
        <time>2017-03-04T13:01:51Z</time>
      </trkpt>
      <trkpt lat="44.3645" lon="3.41197">
        <ele>473</ele>
        <time>2017-03-04T13:03:51Z</time>
      </trkpt>
      <trkpt lat="44.36449" lon="3.41197">
        <ele>473</ele>
        <time>2017-03-04T13:05:51Z</time>
      </trkpt>
      <trkpt lat="44.36446" lon="3.41192">
        <ele>473</ele>
        <time>2017-03-04T13:07:51Z</time>
      </trkpt>
      <trkpt lat="44.36444" lon="3.41189">
        <ele>473</ele>
        <time>2017-03-04T13:09:51Z</time>
      </trkpt>
      <trkpt lat="44.36443" lon="3.41186">
        <ele>473</ele>
        <time>2017-03-04T13:11:51Z</time>
      </trkpt>
      <trkpt lat="44.36442" lon="3.41185">
        <ele>473</ele>
        <time>2017-03-04T13:13:51Z</time>
      </trkpt>
      <trkpt lat="44.36441" lon="3.41184">
        <ele>473</ele>
        <time>2017-03-04T13:15:51Z</time>
      </trkpt>
      <trkpt lat="44.3644" lon="3.41184">
        <ele>473</ele>
        <time>2017-03-04T13:17:51Z</time>
      </trkpt>
      <trkpt lat="44.36438" lon="3.41183">
        <ele>473</ele>
        <time>2017-03-04T13:19:51Z</time>
      </trkpt>
      <trkpt lat="44.36438" lon="3.41183">
        <ele>473</ele>
        <time>2017-03-04T13:21:51Z</time>
      </trkpt>
      <trkpt lat="44.36438" lon="3.4118">
        <ele>473</ele>
        <time>2017-03-04T13:23:51Z</time>
      </trkpt>
      <trkpt lat="44.36439" lon="3.41163">
        <ele>472</ele>
        <time>2017-03-04T13:25:51Z</time>
      </trkpt>
      <trkpt lat="44.36439" lon="3.41155">
        <ele>472</ele>
        <time>2017-03-04T13:27:51Z</time>
      </trkpt>
      <trkpt lat="44.36438" lon="3.41152">
        <ele>472</ele>
        <time>2017-03-04T13:29:51Z</time>
      </trkpt>
      <trkpt lat="44.36437" lon="3.41141">
        <ele>471</ele>
        <time>2017-03-04T13:31:51Z</time>
      </trkpt>
      <trkpt lat="44.36436" lon="3.41128">
        <ele>471</ele>
        <time>2017-03-04T13:33:51Z</time>
      </trkpt>
      <trkpt lat="44.36434" lon="3.41114">
        <ele>471</ele>
        <time>2017-03-04T13:35:51Z</time>
      </trkpt>
      <trkpt lat="44.3643" lon="3.4108">
        <ele>471</ele>
        <time>2017-03-04T13:37:51Z</time>
      </trkpt>
      <trkpt lat="44.3643" lon="3.41074">
        <ele>471</ele>
        <time>2017-03-04T13:39:51Z</time>
      </trkpt>
      <trkpt lat="44.3643" lon="3.41071">
        <ele>471</ele>
        <time>2017-03-04T13:41:51Z</time>
      </trkpt>
      <trkpt lat="44.3643" lon="3.41068">
        <ele>471</ele>
        <time>2017-03-04T13:43:51Z</time>
      </trkpt>
      <trkpt lat="44.36431" lon="3.41063">
        <ele>471</ele>
        <time>2017-03-04T13:45:51Z</time>
      </trkpt>
      <trkpt lat="44.36433" lon="3.41059">
        <ele>471</ele>
        <time>2017-03-04T13:47:51Z</time>
      </trkpt>
      <trkpt lat="44.36436" lon="3.41055">
        <ele>471</ele>
        <time>2017-03-04T13:49:51Z</time>
      </trkpt>
      <trkpt lat="44.36439" lon="3.41053">
        <ele>471</ele>
        <time>2017-03-04T13:51:51Z</time>
      </trkpt>
      <trkpt lat="44.36445" lon="3.41051">
        <ele>471</ele>
        <time>2017-03-04T13:53:51Z</time>
      </trkpt>
      <trkpt lat="44.36453" lon="3.41049">
        <ele>470</ele>
        <time>2017-03-04T13:55:51Z</time>
      </trkpt>
      <trkpt lat="44.36456" lon="3.41048">
        <ele>470</ele>
        <time>2017-03-04T13:57:51Z</time>
      </trkpt>
      <trkpt lat="44.36472" lon="3.41044">
        <ele>470</ele>
        <time>2017-03-04T13:59:51Z</time>
      </trkpt>
      <trkpt lat="44.36486" lon="3.41041">
        <ele>469</ele>
        <time>2017-03-04T14:01:51Z</time>
      </trkpt>
      <trkpt lat="44.36493" lon="3.41039">
        <ele>469</ele>
        <time>2017-03-04T14:03:51Z</time>
      </trkpt>
      <trkpt lat="44.36514" lon="3.41034">
        <ele>470</ele>
        <time>2017-03-04T14:05:51Z</time>
      </trkpt>
      <trkpt lat="44.36522" lon="3.41032">
        <ele>470</ele>
        <time>2017-03-04T14:07:51Z</time>
      </trkpt>
      <trkpt lat="44.36556" lon="3.41024">
        <ele>474</ele>
        <time>2017-03-04T14:09:51Z</time>
      </trkpt>
      <trkpt lat="44.36556" lon="3.41024">
        <ele>474</ele>
        <time>2017-03-04T14:11:51Z</time>
      </trkpt>
      <trkpt lat="44.36559" lon="3.41035">
        <ele>474</ele>
        <time>2017-03-04T14:13:51Z</time>
      </trkpt>
      <trkpt lat="44.3656" lon="3.41039">
        <ele>474</ele>
        <time>2017-03-04T14:15:51Z</time>
      </trkpt>
      <trkpt lat="44.36561" lon="3.41043">
        <ele>474</ele>
        <time>2017-03-04T14:17:51Z</time>
      </trkpt>
      <trkpt lat="44.3656" lon="3.41053">
        <ele>474</ele>
        <time>2017-03-04T14:19:51Z</time>
      </trkpt>
      <trkpt lat="44.36552" lon="3.41077">
        <ele>473</ele>
        <time>2017-03-04T14:21:51Z</time>
      </trkpt>
      <trkpt lat="44.36546" lon="3.41104">
        <ele>473</ele>
        <time>2017-03-04T14:23:51Z</time>
      </trkpt>
      <trkpt lat="44.36544" lon="3.41118">
        <ele>473</ele>
        <time>2017-03-04T14:25:51Z</time>
      </trkpt>
      <trkpt lat="44.36544" lon="3.41118">
        <ele>473</ele>
        <time>2017-03-04T14:27:51Z</time>
      </trkpt>
      <trkpt lat="44.36571" lon="3.41121">
        <ele>475</ele>
        <time>2017-03-04T14:29:51Z</time>
      </trkpt>
      <trkpt lat="44.36571" lon="3.41121">
        <ele>475</ele>
        <time>2017-03-04T14:31:51Z</time>
      </trkpt>
      <trkpt lat="44.36571" lon="3.41117">
        <ele>475</ele>
        <time>2017-03-04T14:33:51Z</time>
      </trkpt>
      <trkpt lat="44.36572" lon="3.41104">
        <ele>475</ele>
        <time>2017-03-04T14:35:51Z</time>
      </trkpt>
      <trkpt lat="44.36573" lon="3.4109">
        <ele>475</ele>
        <time>2017-03-04T14:37:51Z</time>
      </trkpt>
      <trkpt lat="44.36574" lon="3.41082">
        <ele>474</ele>
        <time>2017-03-04T14:39:51Z</time>
      </trkpt>
      <trkpt lat="44.36575" lon="3.41075">
        <ele>475</ele>
        <time>2017-03-04T14:41:51Z</time>
      </trkpt>
      <trkpt lat="44.36578" lon="3.41056">
        <ele>475</ele>
        <time>2017-03-04T14:43:51Z</time>
      </trkpt>
      <trkpt lat="44.36578" lon="3.41056">
        <ele>475</ele>
        <time>2017-03-04T14:45:51Z</time>
      </trkpt>
      <trkpt lat="44.3656" lon="3.41053">
        <ele>474</ele>
        <time>2017-03-04T14:47:51Z</time>
      </trkpt>
      <trkpt lat="44.3656" lon="3.41053">
        <ele>474</ele>
        <time>2017-03-04T14:49:51Z</time>
      </trkpt>
      <trkpt lat="44.36561" lon="3.41043">
        <ele>474</ele>
        <time>2017-03-04T14:51:51Z</time>
      </trkpt>
      <trkpt lat="44.3656" lon="3.41039">
        <ele>474</ele>
        <time>2017-03-04T14:53:51Z</time>
      </trkpt>
      <trkpt lat="44.36559" lon="3.41035">
        <ele>474</ele>
        <time>2017-03-04T14:55:51Z</time>
      </trkpt>
      <trkpt lat="44.36556" lon="3.41024">
        <ele>474</ele>
        <time>2017-03-04T14:57:51Z</time>
      </trkpt>
      <trkpt lat="44.36556" lon="3.41024">
        <ele>474</ele>
        <time>2017-03-04T14:59:51Z</time>
      </trkpt>
      <trkpt lat="44.36522" lon="3.41032">
        <ele>470</ele>
        <time>2017-03-04T15:01:51Z</time>
      </trkpt>
      <trkpt lat="44.36514" lon="3.41034">
        <ele>470</ele>
        <time>2017-03-04T15:03:51Z</time>
      </trkpt>
      <trkpt lat="44.36493" lon="3.41039">
        <ele>469</ele>
        <time>2017-03-04T15:05:51Z</time>
      </trkpt>
      <trkpt lat="44.36486" lon="3.41041">
        <ele>469</ele>
        <time>2017-03-04T15:07:51Z</time>
      </trkpt>
      <trkpt lat="44.36472" lon="3.41044">
        <ele>470</ele>
        <time>2017-03-04T15:09:51Z</time>
      </trkpt>
      <trkpt lat="44.36456" lon="3.41048">
        <ele>470</ele>
        <time>2017-03-04T15:11:51Z</time>
      </trkpt>
      <trkpt lat="44.36453" lon="3.41049">
        <ele>470</ele>
        <time>2017-03-04T15:13:51Z</time>
      </trkpt>
      <trkpt lat="44.36445" lon="3.41051">
        <ele>471</ele>
        <time>2017-03-04T15:15:51Z</time>
      </trkpt>
      <trkpt lat="44.36439" lon="3.41053">
        <ele>471</ele>
        <time>2017-03-04T15:17:51Z</time>
      </trkpt>
      <trkpt lat="44.36436" lon="3.41055">
        <ele>471</ele>
        <time>2017-03-04T15:19:51Z</time>
      </trkpt>
      <trkpt lat="44.36433" lon="3.41059">
        <ele>471</ele>
        <time>2017-03-04T15:21:51Z</time>
      </trkpt>
      <trkpt lat="44.36431" lon="3.41063">
        <ele>471</ele>
        <time>2017-03-04T15:23:51Z</time>
      </trkpt>
      <trkpt lat="44.3643" lon="3.41068">
        <ele>471</ele>
        <time>2017-03-04T15:25:51Z</time>
      </trkpt>
      <trkpt lat="44.3643" lon="3.41071">
        <ele>471</ele>
        <time>2017-03-04T15:27:51Z</time>
      </trkpt>
      <trkpt lat="44.3643" lon="3.41074">
        <ele>471</ele>
        <time>2017-03-04T15:29:51Z</time>
      </trkpt>
      <trkpt lat="44.3643" lon="3.4108">
        <ele>471</ele>
        <time>2017-03-04T15:31:51Z</time>
      </trkpt>
      <trkpt lat="44.36434" lon="3.41114">
        <ele>471</ele>
        <time>2017-03-04T15:33:51Z</time>
      </trkpt>
      <trkpt lat="44.36436" lon="3.41128">
        <ele>471</ele>
        <time>2017-03-04T15:35:51Z</time>
      </trkpt>
      <trkpt lat="44.36437" lon="3.41141">
        <ele>471</ele>
        <time>2017-03-04T15:37:51Z</time>
      </trkpt>
      <trkpt lat="44.36438" lon="3.41152">
        <ele>472</ele>
        <time>2017-03-04T15:39:51Z</time>
      </trkpt>
      <trkpt lat="44.36439" lon="3.41155">
        <ele>472</ele>
        <time>2017-03-04T15:41:51Z</time>
      </trkpt>
      <trkpt lat="44.36439" lon="3.41163">
        <ele>472</ele>
        <time>2017-03-04T15:43:51Z</time>
      </trkpt>
      <trkpt lat="44.36438" lon="3.4118">
        <ele>473</ele>
        <time>2017-03-04T15:45:51Z</time>
      </trkpt>
      <trkpt lat="44.36438" lon="3.41183">
        <ele>473</ele>
        <time>2017-03-04T15:47:51Z</time>
      </trkpt>
      <trkpt lat="44.36438" lon="3.41183">
        <ele>473</ele>
        <time>2017-03-04T15:49:51Z</time>
      </trkpt>
      <trkpt lat="44.3644" lon="3.41184">
        <ele>473</ele>
        <time>2017-03-04T15:51:51Z</time>
      </trkpt>
      <trkpt lat="44.36441" lon="3.41184">
        <ele>473</ele>
        <time>2017-03-04T15:53:51Z</time>
      </trkpt>
      <trkpt lat="44.36442" lon="3.41185">
        <ele>473</ele>
        <time>2017-03-04T15:55:51Z</time>
      </trkpt>
      <trkpt lat="44.36443" lon="3.41186">
        <ele>473</ele>
        <time>2017-03-04T15:57:51Z</time>
      </trkpt>
      <trkpt lat="44.36444" lon="3.41189">
        <ele>473</ele>
        <time>2017-03-04T15:59:51Z</time>
      </trkpt>
      <trkpt lat="44.36446" lon="3.41192">
        <ele>473</ele>
        <time>2017-03-04T16:01:51Z</time>
      </trkpt>
      <trkpt lat="44.36449" lon="3.41197">
        <ele>473</ele>
        <time>2017-03-04T16:03:51Z</time>
      </trkpt>
      <trkpt lat="44.3645" lon="3.41197">
        <ele>473</ele>
        <time>2017-03-04T16:05:51Z</time>
      </trkpt>
      <trkpt lat="44.3646" lon="3.41212">
        <ele>474</ele>
        <time>2017-03-04T16:07:51Z</time>
      </trkpt>
      <trkpt lat="44.36463" lon="3.41216">
        <ele>474</ele>
        <time>2017-03-04T16:09:51Z</time>
      </trkpt>
      <trkpt lat="44.36467" lon="3.4122">
        <ele>474</ele>
        <time>2017-03-04T16:11:51Z</time>
      </trkpt>
      <trkpt lat="44.36469" lon="3.41222">
        <ele>474</ele>
        <time>2017-03-04T16:13:51Z</time>
      </trkpt>
      <trkpt lat="44.3647" lon="3.41225">
        <ele>474</ele>
        <time>2017-03-04T16:15:51Z</time>
      </trkpt>
      <trkpt lat="44.3647" lon="3.41227">
        <ele>474</ele>
        <time>2017-03-04T16:17:51Z</time>
      </trkpt>
      <trkpt lat="44.3647" lon="3.41229">
        <ele>474</ele>
        <time>2017-03-04T16:19:51Z</time>
      </trkpt>
      <trkpt lat="44.36468" lon="3.41233">
        <ele>475</ele>
        <time>2017-03-04T16:21:51Z</time>
      </trkpt>
      <trkpt lat="44.36465" lon="3.41238">
        <ele>475</ele>
        <time>2017-03-04T16:23:51Z</time>
      </trkpt>
      <trkpt lat="44.36462" lon="3.41246">
        <ele>476</ele>
        <time>2017-03-04T16:25:51Z</time>
      </trkpt>
      <trkpt lat="44.36458" lon="3.41256">
        <ele>476</ele>
        <time>2017-03-04T16:27:51Z</time>
      </trkpt>
      <trkpt lat="44.36455" lon="3.41266">
        <ele>477</ele>
        <time>2017-03-04T16:29:51Z</time>
      </trkpt>
      <trkpt lat="44.36455" lon="3.4127">
        <ele>478</ele>
        <time>2017-03-04T16:31:51Z</time>
      </trkpt>
      <trkpt lat="44.36455" lon="3.41274">
        <ele>478</ele>
        <time>2017-03-04T16:33:51Z</time>
      </trkpt>
      <trkpt lat="44.36456" lon="3.4128">
        <ele>479</ele>
        <time>2017-03-04T16:35:51Z</time>
      </trkpt>
      <trkpt lat="44.36456" lon="3.41286">
        <ele>479</ele>
        <time>2017-03-04T16:37:51Z</time>
      </trkpt>
      <trkpt lat="44.36455" lon="3.41293">
        <ele>480</ele>
        <time>2017-03-04T16:39:51Z</time>
      </trkpt>
      <trkpt lat="44.36454" lon="3.41305">
        <ele>481</ele>
        <time>2017-03-04T16:41:51Z</time>
      </trkpt>
      <trkpt lat="44.36453" lon="3.41315">
        <ele>482</ele>
        <time>2017-03-04T16:43:51Z</time>
      </trkpt>
      <trkpt lat="44.36451" lon="3.41325">
        <ele>483</ele>
        <time>2017-03-04T16:45:51Z</time>
      </trkpt>
      <trkpt lat="44.36448" lon="3.41334">
        <ele>484</ele>
        <time>2017-03-04T16:47:51Z</time>
      </trkpt>
      <trkpt lat="44.36442" lon="3.4135">
        <ele>488</ele>
        <time>2017-03-04T16:49:51Z</time>
      </trkpt>
      <trkpt lat="44.36435" lon="3.41356">
        <ele>490</ele>
        <time>2017-03-04T16:51:51Z</time>
      </trkpt>
      <trkpt lat="44.36431" lon="3.41361">
        <ele>492</ele>
        <time>2017-03-04T16:53:51Z</time>
      </trkpt>
      <trkpt lat="44.36427" lon="3.41371">
        <ele>495</ele>
        <time>2017-03-04T16:55:51Z</time>
      </trkpt>
      <trkpt lat="44.36422" lon="3.41382">
        <ele>498</ele>
        <time>2017-03-04T16:57:51Z</time>
      </trkpt>
      <trkpt lat="44.36412" lon="3.41392">
        <ele>502</ele>
        <time>2017-03-04T16:59:51Z</time>
      </trkpt>
      <trkpt lat="44.36392" lon="3.41412">
        <ele>506</ele>
        <time>2017-03-04T17:01:51Z</time>
      </trkpt>
      <trkpt lat="44.36386" lon="3.41415">
        <ele>506</ele>
        <time>2017-03-04T17:03:51Z</time>
      </trkpt>
      <trkpt lat="44.36386" lon="3.41415">
        <ele>506</ele>
        <time>2017-03-04T17:05:51Z</time>
      </trkpt>
      <trkpt lat="44.36371" lon="3.41424">
        <ele>509</ele>
        <time>2017-03-04T17:07:51Z</time>
      </trkpt>
      <trkpt lat="44.36357" lon="3.41427">
        <ele>509</ele>
        <time>2017-03-04T17:09:51Z</time>
      </trkpt>
      <trkpt lat="44.3634" lon="3.41423">
        <ele>507</ele>
        <time>2017-03-04T17:11:51Z</time>
      </trkpt>
      <trkpt lat="44.3634" lon="3.41423">
        <ele>507</ele>
        <time>2017-03-04T17:13:51Z</time>
      </trkpt>
      <trkpt lat="44.36357" lon="3.41427">
        <ele>509</ele>
        <time>2017-03-04T17:15:51Z</time>
      </trkpt>
      <trkpt lat="44.36371" lon="3.41424">
        <ele>509</ele>
        <time>2017-03-04T17:17:51Z</time>
      </trkpt>
      <trkpt lat="44.36386" lon="3.41415">
        <ele>506</ele>
        <time>2017-03-04T17:19:51Z</time>
      </trkpt>
      <trkpt lat="44.36386" lon="3.41415">
        <ele>506</ele>
        <time>2017-03-04T17:21:51Z</time>
      </trkpt>
      <trkpt lat="44.36392" lon="3.41412">
        <ele>506</ele>
        <time>2017-03-04T17:23:51Z</time>
      </trkpt>
      <trkpt lat="44.36412" lon="3.41392">
        <ele>502</ele>
        <time>2017-03-04T17:25:51Z</time>
      </trkpt>
      <trkpt lat="44.36422" lon="3.41382">
        <ele>498</ele>
        <time>2017-03-04T17:27:51Z</time>
      </trkpt>
      <trkpt lat="44.36427" lon="3.41371">
        <ele>495</ele>
        <time>2017-03-04T17:29:51Z</time>
      </trkpt>
      <trkpt lat="44.36431" lon="3.41361">
        <ele>492</ele>
        <time>2017-03-04T17:31:51Z</time>
      </trkpt>
      <trkpt lat="44.36435" lon="3.41356">
        <ele>490</ele>
        <time>2017-03-04T17:33:51Z</time>
      </trkpt>
      <trkpt lat="44.36442" lon="3.4135">
        <ele>488</ele>
        <time>2017-03-04T17:35:51Z</time>
      </trkpt>
      <trkpt lat="44.36459" lon="3.41355">
        <ele>486</ele>
        <time>2017-03-04T17:37:51Z</time>
      </trkpt>
      <trkpt lat="44.36496" lon="3.41398">
        <ele>483</ele>
        <time>2017-03-04T17:39:51Z</time>
      </trkpt>
      <trkpt lat="44.36482" lon="3.41411">
        <ele>489</ele>
        <time>2017-03-04T17:41:51Z</time>
      </trkpt>
      <trkpt lat="44.36486" lon="3.41419">
        <ele>488</ele>
        <time>2017-03-04T17:43:51Z</time>
      </trkpt>
      <trkpt lat="44.3649" lon="3.41433">
        <ele>489</ele>
        <time>2017-03-04T17:45:51Z</time>
      </trkpt>
      <trkpt lat="44.36495" lon="3.41442">
        <ele>489</ele>
        <time>2017-03-04T17:47:51Z</time>
      </trkpt>
      <trkpt lat="44.36503" lon="3.41453">
        <ele>488</ele>
        <time>2017-03-04T17:49:51Z</time>
      </trkpt>
      <trkpt lat="44.36507" lon="3.41463">
        <ele>489</ele>
        <time>2017-03-04T17:51:51Z</time>
      </trkpt>
      <trkpt lat="44.36508" lon="3.41498">
        <ele>493</ele>
        <time>2017-03-04T17:53:51Z</time>
      </trkpt>
      <trkpt lat="44.36504" lon="3.41534">
        <ele>493</ele>
        <time>2017-03-04T17:55:51Z</time>
      </trkpt>
      <trkpt lat="44.36513" lon="3.41567">
        <ele>490</ele>
        <time>2017-03-04T17:57:51Z</time>
      </trkpt>
      <trkpt lat="44.36542" lon="3.41629">
        <ele>483</ele>
        <time>2017-03-04T17:59:51Z</time>
      </trkpt>
      <trkpt lat="44.36556" lon="3.41696">
        <ele>480</ele>
        <time>2017-03-04T18:01:51Z</time>
      </trkpt>
      <trkpt lat="44.3656" lon="3.41775">
        <ele>481</ele>
        <time>2017-03-04T18:03:51Z</time>
      </trkpt>
      <trkpt lat="44.36558" lon="3.41835">
        <ele>481</ele>
        <time>2017-03-04T18:05:51Z</time>
      </trkpt>
      <trkpt lat="44.36554" lon="3.41901">
        <ele>483</ele>
        <time>2017-03-04T18:07:51Z</time>
      </trkpt>
      <trkpt lat="44.36545" lon="3.41987">
        <ele>484</ele>
        <time>2017-03-04T18:09:51Z</time>
      </trkpt>
      <trkpt lat="44.36535" lon="3.42035">
        <ele>485</ele>
        <time>2017-03-04T18:11:51Z</time>
      </trkpt>
      <trkpt lat="44.36498" lon="3.4214">
        <ele>486</ele>
        <time>2017-03-04T18:13:51Z</time>
      </trkpt>
      <trkpt lat="44.36468" lon="3.4225">
        <ele>499</ele>
        <time>2017-03-04T18:15:51Z</time>
      </trkpt>
      <trkpt lat="44.36445" lon="3.42313">
        <ele>514</ele>
        <time>2017-03-04T18:17:51Z</time>
      </trkpt>
      <trkpt lat="44.36434" lon="3.42358">
        <ele>517</ele>
        <time>2017-03-04T18:19:51Z</time>
      </trkpt>
      <trkpt lat="44.36435" lon="3.42431">
        <ele>507</ele>
        <time>2017-03-04T18:21:51Z</time>
      </trkpt>
      <trkpt lat="44.36441" lon="3.4251">
        <ele>501</ele>
        <time>2017-03-04T18:23:51Z</time>
      </trkpt>
      <trkpt lat="44.36452" lon="3.42564">
        <ele>493</ele>
        <time>2017-03-04T18:25:51Z</time>
      </trkpt>
      <trkpt lat="44.36461" lon="3.42632">
        <ele>489</ele>
        <time>2017-03-04T18:27:51Z</time>
      </trkpt>
      <trkpt lat="44.36469" lon="3.42657">
        <ele>486</ele>
        <time>2017-03-04T18:29:51Z</time>
      </trkpt>
      <trkpt lat="44.36474" lon="3.42696">
        <ele>485</ele>
        <time>2017-03-04T18:31:51Z</time>
      </trkpt>
      <trkpt lat="44.36482" lon="3.42729">
        <ele>484</ele>
        <time>2017-03-04T18:33:51Z</time>
      </trkpt>
      <trkpt lat="44.36492" lon="3.4277">
        <ele>483</ele>
        <time>2017-03-04T18:35:51Z</time>
      </trkpt>
      <trkpt lat="44.36508" lon="3.42821">
        <ele>484</ele>
        <time>2017-03-04T18:37:51Z</time>
      </trkpt>
      <trkpt lat="44.36516" lon="3.42854">
        <ele>485</ele>
        <time>2017-03-04T18:39:51Z</time>
      </trkpt>
      <trkpt lat="44.36531" lon="3.42908">
        <ele>485</ele>
        <time>2017-03-04T18:41:51Z</time>
      </trkpt>
      <trkpt lat="44.3655" lon="3.42975">
        <ele>485</ele>
        <time>2017-03-04T18:43:51Z</time>
      </trkpt>
      <trkpt lat="44.36564" lon="3.4302">
        <ele>483</ele>
        <time>2017-03-04T18:45:51Z</time>
      </trkpt>
      <trkpt lat="44.36564" lon="3.4302">
        <ele>483</ele>
        <time>2017-03-04T18:47:51Z</time>
      </trkpt>
      <trkpt lat="44.36568" lon="3.43028">
        <ele>482</ele>
        <time>2017-03-04T18:49:51Z</time>
      </trkpt>
      <trkpt lat="44.3657" lon="3.43031">
        <ele>481</ele>
        <time>2017-03-04T18:51:51Z</time>
      </trkpt>
      <trkpt lat="44.36571" lon="3.43035">
        <ele>481</ele>
        <time>2017-03-04T18:53:51Z</time>
      </trkpt>
      <trkpt lat="44.36572" lon="3.43039">
        <ele>481</ele>
        <time>2017-03-04T18:55:51Z</time>
      </trkpt>
      <trkpt lat="44.36573" lon="3.4305">
        <ele>481</ele>
        <time>2017-03-04T18:57:51Z</time>
      </trkpt>
      <trkpt lat="44.36572" lon="3.43068">
        <ele>482</ele>
        <time>2017-03-04T18:59:51Z</time>
      </trkpt>
      <trkpt lat="44.36572" lon="3.43073">
        <ele>483</ele>
        <time>2017-03-04T19:01:51Z</time>
      </trkpt>
      <trkpt lat="44.36573" lon="3.43079">
        <ele>483</ele>
        <time>2017-03-04T19:03:51Z</time>
      </trkpt>
      <trkpt lat="44.36574" lon="3.43084">
        <ele>482</ele>
        <time>2017-03-04T19:05:51Z</time>
      </trkpt>
      <trkpt lat="44.36577" lon="3.4309">
        <ele>481</ele>
        <time>2017-03-04T19:07:51Z</time>
      </trkpt>
      <trkpt lat="44.36582" lon="3.431">
        <ele>479</ele>
        <time>2017-03-04T19:09:51Z</time>
      </trkpt>
      <trkpt lat="44.36586" lon="3.43109">
        <ele>479</ele>
        <time>2017-03-04T19:11:51Z</time>
      </trkpt>
      <trkpt lat="44.3659" lon="3.4312">
        <ele>479</ele>
        <time>2017-03-04T19:13:51Z</time>
      </trkpt>
      <trkpt lat="44.36592" lon="3.43131">
        <ele>479</ele>
        <time>2017-03-04T19:15:51Z</time>
      </trkpt>
      <trkpt lat="44.36593" lon="3.43142">
        <ele>479</ele>
        <time>2017-03-04T19:17:51Z</time>
      </trkpt>
      <trkpt lat="44.36592" lon="3.43158">
        <ele>479</ele>
        <time>2017-03-04T19:19:51Z</time>
      </trkpt>
      <trkpt lat="44.3659" lon="3.43175">
        <ele>479</ele>
        <time>2017-03-04T19:21:51Z</time>
      </trkpt>
      <trkpt lat="44.36581" lon="3.43219">
        <ele>477</ele>
        <time>2017-03-04T19:23:51Z</time>
      </trkpt>
      <trkpt lat="44.36558" lon="3.43284">
        <ele>480</ele>
        <time>2017-03-04T19:25:51Z</time>
      </trkpt>
      <trkpt lat="44.3655" lon="3.43301">
        <ele>481</ele>
        <time>2017-03-04T19:27:51Z</time>
      </trkpt>
      <trkpt lat="44.36548" lon="3.43303">
        <ele>481</ele>
        <time>2017-03-04T19:29:51Z</time>
      </trkpt>
      <trkpt lat="44.3652" lon="3.43335">
        <ele>482</ele>
        <time>2017-03-04T19:31:51Z</time>
      </trkpt>
      <trkpt lat="44.3649" lon="3.43362">
        <ele>481</ele>
        <time>2017-03-04T19:33:51Z</time>
      </trkpt>
      <trkpt lat="44.36462" lon="3.43386">
        <ele>482</ele>
        <time>2017-03-04T19:35:51Z</time>
      </trkpt>
      <trkpt lat="44.36417" lon="3.43416">
        <ele>478</ele>
        <time>2017-03-04T19:37:51Z</time>
      </trkpt>
      <trkpt lat="44.36389" lon="3.43432">
        <ele>480</ele>
        <time>2017-03-04T19:39:51Z</time>
      </trkpt>
      <trkpt lat="44.3638" lon="3.43434">
        <ele>481</ele>
        <time>2017-03-04T19:41:51Z</time>
      </trkpt>
      <trkpt lat="44.36344" lon="3.43434">
        <ele>483</ele>
        <time>2017-03-04T19:43:51Z</time>
      </trkpt>
      <trkpt lat="44.36305" lon="3.43431">
        <ele>481</ele>
        <time>2017-03-04T19:45:51Z</time>
      </trkpt>
      <trkpt lat="44.3627" lon="3.43422">
        <ele>479</ele>
        <time>2017-03-04T19:47:51Z</time>
      </trkpt>
      <trkpt lat="44.36239" lon="3.43416">
        <ele>478</ele>
        <time>2017-03-04T19:49:51Z</time>
      </trkpt>
      <trkpt lat="44.36192" lon="3.43412">
        <ele>479</ele>
        <time>2017-03-04T19:51:51Z</time>
      </trkpt>
      <trkpt lat="44.3617" lon="3.43411">
        <ele>479</ele>
        <time>2017-03-04T19:53:51Z</time>
      </trkpt>
      <trkpt lat="44.36146" lon="3.43404">
        <ele>480</ele>
        <time>2017-03-04T19:55:51Z</time>
      </trkpt>
      <trkpt lat="44.36132" lon="3.43402">
        <ele>480</ele>
        <time>2017-03-04T19:57:51Z</time>
      </trkpt>
      <trkpt lat="44.36116" lon="3.43406">
        <ele>479</ele>
        <time>2017-03-04T19:59:51Z</time>
      </trkpt>
      <trkpt lat="44.36102" lon="3.43411">
        <ele>478</ele>
        <time>2017-03-04T20:01:51Z</time>
      </trkpt>
      <trkpt lat="44.36062" lon="3.43413">
        <ele>477</ele>
        <time>2017-03-04T20:03:51Z</time>
      </trkpt>
      <trkpt lat="44.35988" lon="3.43419">
        <ele>476</ele>
        <time>2017-03-04T20:05:51Z</time>
      </trkpt>
      <trkpt lat="44.35924" lon="3.43423">
        <ele>478</ele>
        <time>2017-03-04T20:07:51Z</time>
      </trkpt>
      <trkpt lat="44.35871" lon="3.43444">
        <ele>485</ele>
        <time>2017-03-04T20:09:51Z</time>
      </trkpt>
      <trkpt lat="44.35814" lon="3.43472">
        <ele>491</ele>
        <time>2017-03-04T20:11:51Z</time>
      </trkpt>
      <trkpt lat="44.35779" lon="3.43494">
        <ele>493</ele>
        <time>2017-03-04T20:13:51Z</time>
      </trkpt>
      <trkpt lat="44.35733" lon="3.4354">
        <ele>494</ele>
        <time>2017-03-04T20:15:51Z</time>
      </trkpt>
      <trkpt lat="44.35694" lon="3.43577">
        <ele>495</ele>
        <time>2017-03-04T20:17:51Z</time>
      </trkpt>
      <trkpt lat="44.35667" lon="3.43618">
        <ele>493</ele>
        <time>2017-03-04T20:19:51Z</time>
      </trkpt>
      <trkpt lat="44.35658" lon="3.43662">
        <ele>491</ele>
        <time>2017-03-04T20:21:51Z</time>
      </trkpt>
      <trkpt lat="44.35653" lon="3.43716">
        <ele>493</ele>
        <time>2017-03-04T20:23:51Z</time>
      </trkpt>
      <trkpt lat="44.35659" lon="3.43782">
        <ele>489</ele>
        <time>2017-03-04T20:25:51Z</time>
      </trkpt>
      <trkpt lat="44.35661" lon="3.43799">
        <ele>487</ele>
        <time>2017-03-04T20:27:51Z</time>
      </trkpt>
      <trkpt lat="44.35666" lon="3.43841">
        <ele>485</ele>
        <time>2017-03-04T20:29:51Z</time>
      </trkpt>
      <trkpt lat="44.35669" lon="3.43865">
        <ele>487</ele>
        <time>2017-03-04T20:31:51Z</time>
      </trkpt>
      <trkpt lat="44.35674" lon="3.43883">
        <ele>489</ele>
        <time>2017-03-04T20:33:51Z</time>
      </trkpt>
      <trkpt lat="44.35678" lon="3.439">
        <ele>490</ele>
        <time>2017-03-04T20:35:51Z</time>
      </trkpt>
      <trkpt lat="44.3568" lon="3.43917">
        <ele>491</ele>
        <time>2017-03-04T20:37:51Z</time>
      </trkpt>
      <trkpt lat="44.35687" lon="3.43934">
        <ele>492</ele>
        <time>2017-03-04T20:39:51Z</time>
      </trkpt>
      <trkpt lat="44.35695" lon="3.4397">
        <ele>494</ele>
        <time>2017-03-04T20:41:51Z</time>
      </trkpt>
      <trkpt lat="44.35704" lon="3.44003">
        <ele>494</ele>
        <time>2017-03-04T20:43:51Z</time>
      </trkpt>
      <trkpt lat="44.35715" lon="3.44063">
        <ele>496</ele>
        <time>2017-03-04T20:45:51Z</time>
      </trkpt>
      <trkpt lat="44.35725" lon="3.44102">
        <ele>496</ele>
        <time>2017-03-04T20:47:51Z</time>
      </trkpt>
      <trkpt lat="44.35747" lon="3.44157">
        <ele>491</ele>
        <time>2017-03-04T20:49:51Z</time>
      </trkpt>
      <trkpt lat="44.35772" lon="3.44222">
        <ele>492</ele>
        <time>2017-03-04T20:51:51Z</time>
      </trkpt>
      <trkpt lat="44.35787" lon="3.44306">
        <ele>497</ele>
        <time>2017-03-04T20:53:51Z</time>
      </trkpt>
      <trkpt lat="44.35796" lon="3.44365">
        <ele>498</ele>
        <time>2017-03-04T20:55:51Z</time>
      </trkpt>
      <trkpt lat="44.35795" lon="3.44399">
        <ele>500</ele>
        <time>2017-03-04T20:57:51Z</time>
      </trkpt>
      <trkpt lat="44.35789" lon="3.44443">
        <ele>499</ele>
        <time>2017-03-04T20:59:51Z</time>
      </trkpt>
      <trkpt lat="44.35778" lon="3.44466">
        <ele>498</ele>
        <time>2017-03-04T21:01:51Z</time>
      </trkpt>
      <trkpt lat="44.35775" lon="3.44469">
        <ele>498</ele>
        <time>2017-03-04T21:03:51Z</time>
      </trkpt>
      <trkpt lat="44.35757" lon="3.44479">
        <ele>499</ele>
        <time>2017-03-04T21:05:51Z</time>
      </trkpt>
      <trkpt lat="44.35742" lon="3.44486">
        <ele>500</ele>
        <time>2017-03-04T21:07:51Z</time>
      </trkpt>
      <trkpt lat="44.35727" lon="3.44488">
        <ele>501</ele>
        <time>2017-03-04T21:09:51Z</time>
      </trkpt>
      <trkpt lat="44.35714" lon="3.4449">
        <ele>502</ele>
        <time>2017-03-04T21:11:51Z</time>
      </trkpt>
      <trkpt lat="44.35698" lon="3.44499">
        <ele>500</ele>
        <time>2017-03-04T21:13:51Z</time>
      </trkpt>
      <trkpt lat="44.35677" lon="3.44505">
        <ele>501</ele>
        <time>2017-03-04T21:15:51Z</time>
      </trkpt>
      <trkpt lat="44.35655" lon="3.44511">
        <ele>501</ele>
        <time>2017-03-04T21:17:51Z</time>
      </trkpt>
      <trkpt lat="44.35633" lon="3.44518">
        <ele>500</ele>
        <time>2017-03-04T21:19:51Z</time>
      </trkpt>
      <trkpt lat="44.35598" lon="3.44526">
        <ele>500</ele>
        <time>2017-03-04T21:21:51Z</time>
      </trkpt>
      <trkpt lat="44.35564" lon="3.44534">
        <ele>499</ele>
        <time>2017-03-04T21:23:51Z</time>
      </trkpt>
      <trkpt lat="44.35542" lon="3.44538">
        <ele>499</ele>
        <time>2017-03-04T21:25:51Z</time>
      </trkpt>
      <trkpt lat="44.35528" lon="3.44537">
        <ele>501</ele>
        <time>2017-03-04T21:27:51Z</time>
      </trkpt>
      <trkpt lat="44.35504" lon="3.44538">
        <ele>502</ele>
        <time>2017-03-04T21:29:51Z</time>
      </trkpt>
      <trkpt lat="44.35487" lon="3.4454">
        <ele>503</ele>
        <time>2017-03-04T21:31:51Z</time>
      </trkpt>
      <trkpt lat="44.35478" lon="3.4454">
        <ele>504</ele>
        <time>2017-03-04T21:33:51Z</time>
      </trkpt>
      <trkpt lat="44.35469" lon="3.44538">
        <ele>506</ele>
        <time>2017-03-04T21:35:51Z</time>
      </trkpt>
      <trkpt lat="44.35463" lon="3.4454">
        <ele>506</ele>
        <time>2017-03-04T21:37:51Z</time>
      </trkpt>
      <trkpt lat="44.35443" lon="3.44553">
        <ele>503</ele>
        <time>2017-03-04T21:39:51Z</time>
      </trkpt>
      <trkpt lat="44.35426" lon="3.4456">
        <ele>502</ele>
        <time>2017-03-04T21:41:51Z</time>
      </trkpt>
      <trkpt lat="44.3542" lon="3.44561">
        <ele>502</ele>
        <time>2017-03-04T21:43:51Z</time>
      </trkpt>
      <trkpt lat="44.35413" lon="3.44562">
        <ele>503</ele>
        <time>2017-03-04T21:45:51Z</time>
      </trkpt>
      <trkpt lat="44.35398" lon="3.44569">
        <ele>503</ele>
        <time>2017-03-04T21:47:51Z</time>
      </trkpt>
      <trkpt lat="44.3538" lon="3.44573">
        <ele>506</ele>
        <time>2017-03-04T21:49:51Z</time>
      </trkpt>
      <trkpt lat="44.35362" lon="3.44578">
        <ele>507</ele>
        <time>2017-03-04T21:51:51Z</time>
      </trkpt>
      <trkpt lat="44.35338" lon="3.44591">
        <ele>507</ele>
        <time>2017-03-04T21:53:51Z</time>
      </trkpt>
      <trkpt lat="44.3531" lon="3.44603">
        <ele>515</ele>
        <time>2017-03-04T21:55:51Z</time>
      </trkpt>
      <trkpt lat="44.35302" lon="3.44611">
        <ele>516</ele>
        <time>2017-03-04T21:57:51Z</time>
      </trkpt>
      <trkpt lat="44.35287" lon="3.44627">
        <ele>516</ele>
        <time>2017-03-04T21:59:51Z</time>
      </trkpt>
      <trkpt lat="44.35278" lon="3.44635">
        <ele>517</ele>
        <time>2017-03-04T22:01:51Z</time>
      </trkpt>
      <trkpt lat="44.35263" lon="3.44642">
        <ele>520</ele>
        <time>2017-03-04T22:03:51Z</time>
      </trkpt>
      <trkpt lat="44.35256" lon="3.44649">
        <ele>520</ele>
        <time>2017-03-04T22:05:51Z</time>
      </trkpt>
      <trkpt lat="44.35241" lon="3.44665">
        <ele>520</ele>
        <time>2017-03-04T22:07:51Z</time>
      </trkpt>
      <trkpt lat="44.3523" lon="3.44675">
        <ele>523</ele>
        <time>2017-03-04T22:09:51Z</time>
      </trkpt>
      <trkpt lat="44.35221" lon="3.44683">
        <ele>526</ele>
        <time>2017-03-04T22:11:51Z</time>
      </trkpt>
      <trkpt lat="44.35216" lon="3.44686">
        <ele>528</ele>
        <time>2017-03-04T22:13:51Z</time>
      </trkpt>
      <trkpt lat="44.35212" lon="3.44689">
        <ele>529</ele>
        <time>2017-03-04T22:15:51Z</time>
      </trkpt>
      <trkpt lat="44.35202" lon="3.4471">
        <ele>528</ele>
        <time>2017-03-04T22:17:51Z</time>
      </trkpt>
      <trkpt lat="44.35191" lon="3.44744">
        <ele>521</ele>
        <time>2017-03-04T22:19:51Z</time>
      </trkpt>
      <trkpt lat="44.35186" lon="3.44761">
        <ele>520</ele>
        <time>2017-03-04T22:21:51Z</time>
      </trkpt>
      <trkpt lat="44.35181" lon="3.44796">
        <ele>518</ele>
        <time>2017-03-04T22:23:51Z</time>
      </trkpt>
      <trkpt lat="44.35175" lon="3.44841">
        <ele>516</ele>
        <time>2017-03-04T22:25:51Z</time>
      </trkpt>
      <trkpt lat="44.35172" lon="3.44861">
        <ele>518</ele>
        <time>2017-03-04T22:27:51Z</time>
      </trkpt>
      <trkpt lat="44.35168" lon="3.44875">
        <ele>520</ele>
        <time>2017-03-04T22:29:51Z</time>
      </trkpt>
      <trkpt lat="44.35167" lon="3.4488">
        <ele>520</ele>
        <time>2017-03-04T22:31:51Z</time>
      </trkpt>
      <trkpt lat="44.35166" lon="3.44904">
        <ele>521</ele>
        <time>2017-03-04T22:33:51Z</time>
      </trkpt>
      <trkpt lat="44.35165" lon="3.44909">
        <ele>522</ele>
        <time>2017-03-04T22:35:51Z</time>
      </trkpt>
      <trkpt lat="44.35165" lon="3.44912">
        <ele>522</ele>
        <time>2017-03-04T22:37:51Z</time>
      </trkpt>
      <trkpt lat="44.35163" lon="3.4492">
        <ele>523</ele>
        <time>2017-03-04T22:39:51Z</time>
      </trkpt>
      <trkpt lat="44.35164" lon="3.44925">
        <ele>523</ele>
        <time>2017-03-04T22:41:51Z</time>
      </trkpt>
      <trkpt lat="44.35167" lon="3.44929">
        <ele>522</ele>
        <time>2017-03-04T22:43:51Z</time>
      </trkpt>
      <trkpt lat="44.35179" lon="3.44945">
        <ele>519</ele>
        <time>2017-03-04T22:45:51Z</time>
      </trkpt>
      <trkpt lat="44.35181" lon="3.44955">
        <ele>519</ele>
        <time>2017-03-04T22:47:51Z</time>
      </trkpt>
      <trkpt lat="44.35181" lon="3.44964">
        <ele>519</ele>
        <time>2017-03-04T22:49:51Z</time>
      </trkpt>
      <trkpt lat="44.35183" lon="3.44971">
        <ele>519</ele>
        <time>2017-03-04T22:51:51Z</time>
      </trkpt>
      <trkpt lat="44.35185" lon="3.44981">
        <ele>519</ele>
        <time>2017-03-04T22:53:51Z</time>
      </trkpt>
      <trkpt lat="44.35189" lon="3.45001">
        <ele>519</ele>
        <time>2017-03-04T22:55:51Z</time>
      </trkpt>
      <trkpt lat="44.35191" lon="3.45018">
        <ele>520</ele>
        <time>2017-03-04T22:57:51Z</time>
      </trkpt>
      <trkpt lat="44.35194" lon="3.45041">
        <ele>521</ele>
        <time>2017-03-04T22:59:51Z</time>
      </trkpt>
      <trkpt lat="44.352" lon="3.45065">
        <ele>520</ele>
        <time>2017-03-04T23:01:51Z</time>
      </trkpt>
      <trkpt lat="44.35209" lon="3.45085">
        <ele>518</ele>
        <time>2017-03-04T23:03:51Z</time>
      </trkpt>
      <trkpt lat="44.35214" lon="3.45106">
        <ele>516</ele>
        <time>2017-03-04T23:05:51Z</time>
      </trkpt>
      <trkpt lat="44.35219" lon="3.45144">
        <ele>515</ele>
        <time>2017-03-04T23:07:51Z</time>
      </trkpt>
      <trkpt lat="44.3522" lon="3.45174">
        <ele>515</ele>
        <time>2017-03-04T23:09:51Z</time>
      </trkpt>
      <trkpt lat="44.35219" lon="3.45188">
        <ele>514</ele>
        <time>2017-03-04T23:11:51Z</time>
      </trkpt>
      <trkpt lat="44.35216" lon="3.45194">
        <ele>514</ele>
        <time>2017-03-04T23:13:51Z</time>
      </trkpt>
      <trkpt lat="44.35214" lon="3.45208">
        <ele>514</ele>
        <time>2017-03-04T23:15:51Z</time>
      </trkpt>
      <trkpt lat="44.35213" lon="3.45216">
        <ele>514</ele>
        <time>2017-03-04T23:17:51Z</time>
      </trkpt>
      <trkpt lat="44.35207" lon="3.45239">
        <ele>514</ele>
        <time>2017-03-04T23:19:51Z</time>
      </trkpt>
      <trkpt lat="44.352" lon="3.4527">
        <ele>512</ele>
        <time>2017-03-04T23:21:51Z</time>
      </trkpt>
      <trkpt lat="44.35193" lon="3.45313">
        <ele>505</ele>
        <time>2017-03-04T23:23:51Z</time>
      </trkpt>
      <trkpt lat="44.3519" lon="3.45325">
        <ele>503</ele>
        <time>2017-03-04T23:25:51Z</time>
      </trkpt>
      <trkpt lat="44.35185" lon="3.45332">
        <ele>503</ele>
        <time>2017-03-04T23:27:51Z</time>
      </trkpt>
      <trkpt lat="44.35169" lon="3.4535">
        <ele>503</ele>
        <time>2017-03-04T23:29:51Z</time>
      </trkpt>
      <trkpt lat="44.35146" lon="3.45371">
        <ele>507</ele>
        <time>2017-03-04T23:31:51Z</time>
      </trkpt>
      <trkpt lat="44.35118" lon="3.45398">
        <ele>509</ele>
        <time>2017-03-04T23:33:51Z</time>
      </trkpt>
      <trkpt lat="44.35098" lon="3.45426">
        <ele>505</ele>
        <time>2017-03-04T23:35:51Z</time>
      </trkpt>
      <trkpt lat="44.35087" lon="3.45448">
        <ele>502</ele>
        <time>2017-03-04T23:37:51Z</time>
      </trkpt>
      <trkpt lat="44.35072" lon="3.45466">
        <ele>502</ele>
        <time>2017-03-04T23:39:51Z</time>
      </trkpt>
      <trkpt lat="44.35061" lon="3.45482">
        <ele>501</ele>
        <time>2017-03-04T23:41:51Z</time>
      </trkpt>
      <trkpt lat="44.35049" lon="3.45509">
        <ele>499</ele>
        <time>2017-03-04T23:43:51Z</time>
      </trkpt>
      <trkpt lat="44.35036" lon="3.45546">
        <ele>499</ele>
        <time>2017-03-04T23:45:51Z</time>
      </trkpt>
      <trkpt lat="44.35033" lon="3.45554">
        <ele>499</ele>
        <time>2017-03-04T23:47:51Z</time>
      </trkpt>
      <trkpt lat="44.35033" lon="3.45554">
        <ele>499</ele>
        <time>2017-03-04T23:49:51Z</time>
      </trkpt>
      <trkpt lat="44.35138" lon="3.45546">
        <ele>485</ele>
        <time>2017-03-04T23:51:51Z</time>
      </trkpt>
    </trkseg>
  </trk>
</gpx>